<?xml version="1.0" encoding="UTF-8" standalone="no" ?>
<gpx xmlns="http://www.topografix.com/GPX/1/1" xmlns:xsi="http://www.w3.org/2001/XMLSchema-instance" xsi:schemaLocation="http://www.topografix.com/GPX/1/1 http://www.topografix.com/GPX/1/1/gpx.xsd" version="1.1" creator="VisuGPX - https://www.visugpx.com">
  <metadata>
    <name>2021-08-08 10:13:46 [Suunto App]</name>
  </metadata>
  <trk>
    <name><![CDATA[2021-08-08 10:13:46 [Suunto App]_1]]></name>
    <trkseg>
      <trkpt lat="42.87388" lon="0.49995">
        <ele>1756.2</ele>
        <time>2021-08-08T08:13:46Z</time>
      </trkpt>
      <trkpt lat="42.87387" lon="0.49992">
        <ele>1756.2</ele>
        <time>2021-08-08T08:13:48Z</time>
      </trkpt>
      <trkpt lat="42.87386" lon="0.49988">
        <ele>1756.3</ele>
        <time>2021-08-08T08:13:50Z</time>
      </trkpt>
      <trkpt lat="42.87384" lon="0.49985">
        <ele>1756.1</ele>
        <time>2021-08-08T08:13:52Z</time>
      </trkpt>
      <trkpt lat="42.87383" lon="0.49982">
        <ele>3615</ele>
        <time>2021-08-08T08:13:54Z</time>
      </trkpt>
      <trkpt lat="42.87381" lon="0.49979">
        <ele>3615</ele>
        <time>2021-08-08T08:13:56Z</time>
      </trkpt>
      <trkpt lat="42.8738" lon="0.49976">
        <ele>3615</ele>
        <time>2021-08-08T08:13:58Z</time>
      </trkpt>
      <trkpt lat="42.87379" lon="0.49974">
        <ele>3615</ele>
        <time>2021-08-08T08:14:00Z</time>
      </trkpt>
      <trkpt lat="42.87377" lon="0.49971">
        <ele>3615</ele>
        <time>2021-08-08T08:14:02Z</time>
      </trkpt>
      <trkpt lat="42.87376" lon="0.49968">
        <ele>3614</ele>
        <time>2021-08-08T08:14:04Z</time>
      </trkpt>
      <trkpt lat="42.87374" lon="0.49965">
        <ele>3614</ele>
        <time>2021-08-08T08:14:06Z</time>
      </trkpt>
      <trkpt lat="42.87373" lon="0.49962">
        <ele>3614</ele>
        <time>2021-08-08T08:14:08Z</time>
      </trkpt>
      <trkpt lat="42.87372" lon="0.49959">
        <ele>3614</ele>
        <time>2021-08-08T08:14:10Z</time>
      </trkpt>
      <trkpt lat="42.87371" lon="0.49956">
        <ele>3614</ele>
        <time>2021-08-08T08:14:12Z</time>
      </trkpt>
      <trkpt lat="42.87371" lon="0.49953">
        <ele>3614</ele>
        <time>2021-08-08T08:14:14Z</time>
      </trkpt>
      <trkpt lat="42.8737" lon="0.4995">
        <ele>3614</ele>
        <time>2021-08-08T08:14:16Z</time>
      </trkpt>
      <trkpt lat="42.87369" lon="0.49947">
        <ele>3614</ele>
        <time>2021-08-08T08:14:18Z</time>
      </trkpt>
      <trkpt lat="42.87368" lon="0.49944">
        <ele>3614</ele>
        <time>2021-08-08T08:14:20Z</time>
      </trkpt>
      <trkpt lat="42.87367" lon="0.49941">
        <ele>3614</ele>
        <time>2021-08-08T08:14:22Z</time>
      </trkpt>
      <trkpt lat="42.87366" lon="0.49938">
        <ele>3615</ele>
        <time>2021-08-08T08:14:24Z</time>
      </trkpt>
      <trkpt lat="42.87365" lon="0.49935">
        <ele>3615</ele>
        <time>2021-08-08T08:14:26Z</time>
      </trkpt>
      <trkpt lat="42.87364" lon="0.49932">
        <ele>3615</ele>
        <time>2021-08-08T08:14:28Z</time>
      </trkpt>
      <trkpt lat="42.87363" lon="0.49929">
        <ele>3615</ele>
        <time>2021-08-08T08:14:30Z</time>
      </trkpt>
      <trkpt lat="42.87362" lon="0.49926">
        <ele>3615</ele>
        <time>2021-08-08T08:14:32Z</time>
      </trkpt>
      <trkpt lat="42.87361" lon="0.49923">
        <ele>3615</ele>
        <time>2021-08-08T08:14:34Z</time>
      </trkpt>
      <trkpt lat="42.87361" lon="0.4992">
        <ele>3615</ele>
        <time>2021-08-08T08:14:36Z</time>
      </trkpt>
      <trkpt lat="42.87361" lon="0.49917">
        <ele>3615</ele>
        <time>2021-08-08T08:14:38Z</time>
      </trkpt>
      <trkpt lat="42.87361" lon="0.49914">
        <ele>3615</ele>
        <time>2021-08-08T08:14:40Z</time>
      </trkpt>
      <trkpt lat="42.8736" lon="0.4991">
        <ele>3615</ele>
        <time>2021-08-08T08:14:42Z</time>
      </trkpt>
      <trkpt lat="42.87359" lon="0.49908">
        <ele>3615</ele>
        <time>2021-08-08T08:14:44Z</time>
      </trkpt>
      <trkpt lat="42.87358" lon="0.49905">
        <ele>3615</ele>
        <time>2021-08-08T08:14:46Z</time>
      </trkpt>
      <trkpt lat="42.87357" lon="0.49902">
        <ele>3615</ele>
        <time>2021-08-08T08:14:48Z</time>
      </trkpt>
      <trkpt lat="42.87356" lon="0.49899">
        <ele>3615</ele>
        <time>2021-08-08T08:14:50Z</time>
      </trkpt>
      <trkpt lat="42.87355" lon="0.49896">
        <ele>3615</ele>
        <time>2021-08-08T08:14:52Z</time>
      </trkpt>
      <trkpt lat="42.87354" lon="0.49894">
        <ele>3617</ele>
        <time>2021-08-08T08:14:54Z</time>
      </trkpt>
      <trkpt lat="42.87353" lon="0.4989">
        <ele>3617</ele>
        <time>2021-08-08T08:14:57Z</time>
      </trkpt>
      <trkpt lat="42.87352" lon="0.49887">
        <ele>3617</ele>
        <time>2021-08-08T08:14:59Z</time>
      </trkpt>
      <trkpt lat="42.87351" lon="0.49884">
        <ele>3617</ele>
        <time>2021-08-08T08:15:01Z</time>
      </trkpt>
      <trkpt lat="42.8735" lon="0.49881">
        <ele>3617</ele>
        <time>2021-08-08T08:15:03Z</time>
      </trkpt>
      <trkpt lat="42.87349" lon="0.49878">
        <ele>3617</ele>
        <time>2021-08-08T08:15:05Z</time>
      </trkpt>
      <trkpt lat="42.87348" lon="0.49875">
        <ele>3617</ele>
        <time>2021-08-08T08:15:07Z</time>
      </trkpt>
      <trkpt lat="42.87347" lon="0.49872">
        <ele>3617</ele>
        <time>2021-08-08T08:15:09Z</time>
      </trkpt>
      <trkpt lat="42.87346" lon="0.49868">
        <ele>3617</ele>
        <time>2021-08-08T08:15:11Z</time>
      </trkpt>
      <trkpt lat="42.87346" lon="0.49865">
        <ele>3617</ele>
        <time>2021-08-08T08:15:13Z</time>
      </trkpt>
      <trkpt lat="42.87346" lon="0.49861">
        <ele>3617</ele>
        <time>2021-08-08T08:15:15Z</time>
      </trkpt>
      <trkpt lat="42.87346" lon="0.49858">
        <ele>3617</ele>
        <time>2021-08-08T08:15:17Z</time>
      </trkpt>
      <trkpt lat="42.87346" lon="0.49854">
        <ele>3617</ele>
        <time>2021-08-08T08:15:19Z</time>
      </trkpt>
      <trkpt lat="42.87346" lon="0.49851">
        <ele>3617</ele>
        <time>2021-08-08T08:15:21Z</time>
      </trkpt>
      <trkpt lat="42.87346" lon="0.49847">
        <ele>3617</ele>
        <time>2021-08-08T08:15:23Z</time>
      </trkpt>
      <trkpt lat="42.87346" lon="0.49844">
        <ele>3617</ele>
        <time>2021-08-08T08:15:25Z</time>
      </trkpt>
      <trkpt lat="42.87347" lon="0.49841">
        <ele>3617</ele>
        <time>2021-08-08T08:15:27Z</time>
      </trkpt>
      <trkpt lat="42.87347" lon="0.49838">
        <ele>3617</ele>
        <time>2021-08-08T08:15:29Z</time>
      </trkpt>
      <trkpt lat="42.87348" lon="0.49834">
        <ele>3617</ele>
        <time>2021-08-08T08:15:31Z</time>
      </trkpt>
      <trkpt lat="42.87348" lon="0.49832">
        <ele>3617</ele>
        <time>2021-08-08T08:15:33Z</time>
      </trkpt>
      <trkpt lat="42.87349" lon="0.49829">
        <ele>3617</ele>
        <time>2021-08-08T08:15:39Z</time>
      </trkpt>
      <trkpt lat="42.8735" lon="0.49826">
        <ele>3617</ele>
        <time>2021-08-08T08:15:41Z</time>
      </trkpt>
      <trkpt lat="42.87351" lon="0.49822">
        <ele>3617</ele>
        <time>2021-08-08T08:15:43Z</time>
      </trkpt>
      <trkpt lat="42.87352" lon="0.49819">
        <ele>3617</ele>
        <time>2021-08-08T08:15:45Z</time>
      </trkpt>
      <trkpt lat="42.87353" lon="0.49816">
        <ele>3617</ele>
        <time>2021-08-08T08:15:47Z</time>
      </trkpt>
      <trkpt lat="42.87354" lon="0.49812">
        <ele>3617</ele>
        <time>2021-08-08T08:15:49Z</time>
      </trkpt>
      <trkpt lat="42.87355" lon="0.49809">
        <ele>3617</ele>
        <time>2021-08-08T08:15:51Z</time>
      </trkpt>
      <trkpt lat="42.87356" lon="0.49806">
        <ele>3617</ele>
        <time>2021-08-08T08:15:53Z</time>
      </trkpt>
      <trkpt lat="42.87357" lon="0.49802">
        <ele>3617</ele>
        <time>2021-08-08T08:15:55Z</time>
      </trkpt>
      <trkpt lat="42.87358" lon="0.49799">
        <ele>3617</ele>
        <time>2021-08-08T08:15:57Z</time>
      </trkpt>
      <trkpt lat="42.87359" lon="0.49796">
        <ele>3617</ele>
        <time>2021-08-08T08:15:59Z</time>
      </trkpt>
      <trkpt lat="42.8736" lon="0.49793">
        <ele>3617</ele>
        <time>2021-08-08T08:16:01Z</time>
      </trkpt>
      <trkpt lat="42.87361" lon="0.4979">
        <ele>3617</ele>
        <time>2021-08-08T08:16:03Z</time>
      </trkpt>
      <trkpt lat="42.87362" lon="0.49787">
        <ele>3617</ele>
        <time>2021-08-08T08:16:05Z</time>
      </trkpt>
      <trkpt lat="42.87364" lon="0.49784">
        <ele>3617</ele>
        <time>2021-08-08T08:16:07Z</time>
      </trkpt>
      <trkpt lat="42.87365" lon="0.49781">
        <ele>3617</ele>
        <time>2021-08-08T08:16:09Z</time>
      </trkpt>
      <trkpt lat="42.87366" lon="0.49778">
        <ele>3617</ele>
        <time>2021-08-08T08:16:11Z</time>
      </trkpt>
      <trkpt lat="42.87367" lon="0.49775">
        <ele>3617</ele>
        <time>2021-08-08T08:16:13Z</time>
      </trkpt>
      <trkpt lat="42.87368" lon="0.49772">
        <ele>3617</ele>
        <time>2021-08-08T08:16:15Z</time>
      </trkpt>
      <trkpt lat="42.8737" lon="0.49769">
        <ele>3617</ele>
        <time>2021-08-08T08:16:17Z</time>
      </trkpt>
      <trkpt lat="42.87371" lon="0.49766">
        <ele>3617</ele>
        <time>2021-08-08T08:16:19Z</time>
      </trkpt>
      <trkpt lat="42.87372" lon="0.49763">
        <ele>3617</ele>
        <time>2021-08-08T08:16:21Z</time>
      </trkpt>
      <trkpt lat="42.87373" lon="0.4976">
        <ele>3617</ele>
        <time>2021-08-08T08:16:23Z</time>
      </trkpt>
      <trkpt lat="42.87374" lon="0.49757">
        <ele>3617</ele>
        <time>2021-08-08T08:16:25Z</time>
      </trkpt>
      <trkpt lat="42.87376" lon="0.49754">
        <ele>3617</ele>
        <time>2021-08-08T08:16:27Z</time>
      </trkpt>
      <trkpt lat="42.87377" lon="0.49751">
        <ele>3617</ele>
        <time>2021-08-08T08:16:29Z</time>
      </trkpt>
      <trkpt lat="42.87379" lon="0.49748">
        <ele>3617</ele>
        <time>2021-08-08T08:16:31Z</time>
      </trkpt>
      <trkpt lat="42.8738" lon="0.49744">
        <ele>3617</ele>
        <time>2021-08-08T08:16:33Z</time>
      </trkpt>
      <trkpt lat="42.87381" lon="0.49741">
        <ele>3617</ele>
        <time>2021-08-08T08:16:35Z</time>
      </trkpt>
      <trkpt lat="42.87382" lon="0.49738">
        <ele>3617</ele>
        <time>2021-08-08T08:16:37Z</time>
      </trkpt>
      <trkpt lat="42.87384" lon="0.49735">
        <ele>3617</ele>
        <time>2021-08-08T08:16:39Z</time>
      </trkpt>
      <trkpt lat="42.87385" lon="0.49732">
        <ele>3617</ele>
        <time>2021-08-08T08:16:41Z</time>
      </trkpt>
      <trkpt lat="42.87386" lon="0.49728">
        <ele>3617</ele>
        <time>2021-08-08T08:16:43Z</time>
      </trkpt>
      <trkpt lat="42.87388" lon="0.49725">
        <ele>3617</ele>
        <time>2021-08-08T08:16:45Z</time>
      </trkpt>
      <trkpt lat="42.87389" lon="0.49722">
        <ele>3617</ele>
        <time>2021-08-08T08:16:47Z</time>
      </trkpt>
      <trkpt lat="42.8739" lon="0.49718">
        <ele>3617</ele>
        <time>2021-08-08T08:16:49Z</time>
      </trkpt>
      <trkpt lat="42.87391" lon="0.49715">
        <ele>3617</ele>
        <time>2021-08-08T08:16:51Z</time>
      </trkpt>
      <trkpt lat="42.87392" lon="0.49712">
        <ele>3617</ele>
        <time>2021-08-08T08:16:53Z</time>
      </trkpt>
      <trkpt lat="42.87393" lon="0.49709">
        <ele>3617</ele>
        <time>2021-08-08T08:16:55Z</time>
      </trkpt>
      <trkpt lat="42.87394" lon="0.49706">
        <ele>3617</ele>
        <time>2021-08-08T08:16:57Z</time>
      </trkpt>
      <trkpt lat="42.87396" lon="0.49703">
        <ele>3617</ele>
        <time>2021-08-08T08:16:59Z</time>
      </trkpt>
      <trkpt lat="42.87397" lon="0.49699">
        <ele>3617</ele>
        <time>2021-08-08T08:17:01Z</time>
      </trkpt>
      <trkpt lat="42.87398" lon="0.49696">
        <ele>3617</ele>
        <time>2021-08-08T08:17:03Z</time>
      </trkpt>
      <trkpt lat="42.874" lon="0.49693">
        <ele>3617</ele>
        <time>2021-08-08T08:17:05Z</time>
      </trkpt>
      <trkpt lat="42.87401" lon="0.4969">
        <ele>3617</ele>
        <time>2021-08-08T08:17:07Z</time>
      </trkpt>
      <trkpt lat="42.87402" lon="0.49686">
        <ele>3617</ele>
        <time>2021-08-08T08:17:09Z</time>
      </trkpt>
      <trkpt lat="42.87403" lon="0.49683">
        <ele>3617</ele>
        <time>2021-08-08T08:17:11Z</time>
      </trkpt>
      <trkpt lat="42.87404" lon="0.4968">
        <ele>3617</ele>
        <time>2021-08-08T08:17:13Z</time>
      </trkpt>
      <trkpt lat="42.87406" lon="0.49677">
        <ele>3617</ele>
        <time>2021-08-08T08:17:15Z</time>
      </trkpt>
      <trkpt lat="42.87407" lon="0.49674">
        <ele>3617</ele>
        <time>2021-08-08T08:17:17Z</time>
      </trkpt>
      <trkpt lat="42.87409" lon="0.49671">
        <ele>3617</ele>
        <time>2021-08-08T08:17:19Z</time>
      </trkpt>
      <trkpt lat="42.8741" lon="0.49668">
        <ele>3617</ele>
        <time>2021-08-08T08:17:21Z</time>
      </trkpt>
      <trkpt lat="42.87411" lon="0.49665">
        <ele>3617</ele>
        <time>2021-08-08T08:17:22Z</time>
      </trkpt>
      <trkpt lat="42.87412" lon="0.49661">
        <ele>3617</ele>
        <time>2021-08-08T08:17:25Z</time>
      </trkpt>
      <trkpt lat="42.87413" lon="0.49658">
        <ele>3617</ele>
        <time>2021-08-08T08:17:27Z</time>
      </trkpt>
      <trkpt lat="42.87414" lon="0.49655">
        <ele>3617</ele>
        <time>2021-08-08T08:17:29Z</time>
      </trkpt>
      <trkpt lat="42.87416" lon="0.49652">
        <ele>3617</ele>
        <time>2021-08-08T08:17:31Z</time>
      </trkpt>
      <trkpt lat="42.87418" lon="0.49649">
        <ele>3617</ele>
        <time>2021-08-08T08:17:33Z</time>
      </trkpt>
      <trkpt lat="42.8742" lon="0.49646">
        <ele>3617</ele>
        <time>2021-08-08T08:17:35Z</time>
      </trkpt>
      <trkpt lat="42.87422" lon="0.49643">
        <ele>3617</ele>
        <time>2021-08-08T08:17:37Z</time>
      </trkpt>
      <trkpt lat="42.87423" lon="0.4964">
        <ele>3617</ele>
        <time>2021-08-08T08:17:39Z</time>
      </trkpt>
      <trkpt lat="42.87424" lon="0.49637">
        <ele>3617</ele>
        <time>2021-08-08T08:17:41Z</time>
      </trkpt>
      <trkpt lat="42.87425" lon="0.49634">
        <ele>3617</ele>
        <time>2021-08-08T08:17:43Z</time>
      </trkpt>
      <trkpt lat="42.87425" lon="0.49631">
        <ele>3617</ele>
        <time>2021-08-08T08:17:45Z</time>
      </trkpt>
      <trkpt lat="42.87423" lon="0.49628">
        <ele>3617</ele>
        <time>2021-08-08T08:17:47Z</time>
      </trkpt>
      <trkpt lat="42.87422" lon="0.49625">
        <ele>3617</ele>
        <time>2021-08-08T08:17:49Z</time>
      </trkpt>
      <trkpt lat="42.8742" lon="0.49624">
        <ele>3617</ele>
        <time>2021-08-08T08:17:51Z</time>
      </trkpt>
      <trkpt lat="42.87417" lon="0.49622">
        <ele>3617</ele>
        <time>2021-08-08T08:17:53Z</time>
      </trkpt>
      <trkpt lat="42.87415" lon="0.4962">
        <ele>3617</ele>
        <time>2021-08-08T08:17:55Z</time>
      </trkpt>
      <trkpt lat="42.87412" lon="0.49619">
        <ele>3617</ele>
        <time>2021-08-08T08:17:57Z</time>
      </trkpt>
      <trkpt lat="42.8741" lon="0.49618">
        <ele>3617</ele>
        <time>2021-08-08T08:17:59Z</time>
      </trkpt>
      <trkpt lat="42.87407" lon="0.49617">
        <ele>3617</ele>
        <time>2021-08-08T08:18:01Z</time>
      </trkpt>
      <trkpt lat="42.87405" lon="0.49615">
        <ele>3617</ele>
        <time>2021-08-08T08:18:03Z</time>
      </trkpt>
      <trkpt lat="42.87402" lon="0.49614">
        <ele>3617</ele>
        <time>2021-08-08T08:18:05Z</time>
      </trkpt>
      <trkpt lat="42.874" lon="0.49613">
        <ele>3617</ele>
        <time>2021-08-08T08:18:07Z</time>
      </trkpt>
      <trkpt lat="42.87398" lon="0.49611">
        <ele>3617</ele>
        <time>2021-08-08T08:18:09Z</time>
      </trkpt>
      <trkpt lat="42.87395" lon="0.4961">
        <ele>3617</ele>
        <time>2021-08-08T08:18:11Z</time>
      </trkpt>
      <trkpt lat="42.87393" lon="0.49609">
        <ele>3617</ele>
        <time>2021-08-08T08:18:13Z</time>
      </trkpt>
      <trkpt lat="42.8739" lon="0.49608">
        <ele>3617</ele>
        <time>2021-08-08T08:18:15Z</time>
      </trkpt>
      <trkpt lat="42.87388" lon="0.49607">
        <ele>3617</ele>
        <time>2021-08-08T08:18:17Z</time>
      </trkpt>
      <trkpt lat="42.87385" lon="0.49605">
        <ele>3617</ele>
        <time>2021-08-08T08:18:19Z</time>
      </trkpt>
      <trkpt lat="42.87383" lon="0.49604">
        <ele>3617</ele>
        <time>2021-08-08T08:18:21Z</time>
      </trkpt>
      <trkpt lat="42.8738" lon="0.49603">
        <ele>3617</ele>
        <time>2021-08-08T08:18:23Z</time>
      </trkpt>
      <trkpt lat="42.87378" lon="0.49602">
        <ele>3617</ele>
        <time>2021-08-08T08:18:25Z</time>
      </trkpt>
      <trkpt lat="42.87375" lon="0.496">
        <ele>3617</ele>
        <time>2021-08-08T08:18:27Z</time>
      </trkpt>
      <trkpt lat="42.87373" lon="0.49598">
        <ele>3617</ele>
        <time>2021-08-08T08:18:29Z</time>
      </trkpt>
      <trkpt lat="42.87371" lon="0.49596">
        <ele>3617</ele>
        <time>2021-08-08T08:18:31Z</time>
      </trkpt>
      <trkpt lat="42.87369" lon="0.49595">
        <ele>3617</ele>
        <time>2021-08-08T08:18:33Z</time>
      </trkpt>
      <trkpt lat="42.87367" lon="0.49593">
        <ele>3617</ele>
        <time>2021-08-08T08:18:35Z</time>
      </trkpt>
      <trkpt lat="42.87365" lon="0.4959">
        <ele>3617</ele>
        <time>2021-08-08T08:18:37Z</time>
      </trkpt>
      <trkpt lat="42.87363" lon="0.49588">
        <ele>3617</ele>
        <time>2021-08-08T08:18:39Z</time>
      </trkpt>
      <trkpt lat="42.87361" lon="0.49586">
        <ele>3617</ele>
        <time>2021-08-08T08:18:41Z</time>
      </trkpt>
      <trkpt lat="42.87359" lon="0.49583">
        <ele>3617</ele>
        <time>2021-08-08T08:18:43Z</time>
      </trkpt>
      <trkpt lat="42.87356" lon="0.49581">
        <ele>3617</ele>
        <time>2021-08-08T08:18:45Z</time>
      </trkpt>
      <trkpt lat="42.87354" lon="0.49579">
        <ele>3617</ele>
        <time>2021-08-08T08:18:47Z</time>
      </trkpt>
      <trkpt lat="42.87352" lon="0.49577">
        <ele>3617</ele>
        <time>2021-08-08T08:18:49Z</time>
      </trkpt>
      <trkpt lat="42.8735" lon="0.49576">
        <ele>3617</ele>
        <time>2021-08-08T08:18:51Z</time>
      </trkpt>
      <trkpt lat="42.87348" lon="0.49574">
        <ele>3617</ele>
        <time>2021-08-08T08:18:53Z</time>
      </trkpt>
      <trkpt lat="42.87345" lon="0.49572">
        <ele>3617</ele>
        <time>2021-08-08T08:18:55Z</time>
      </trkpt>
      <trkpt lat="42.87343" lon="0.49571">
        <ele>3617</ele>
        <time>2021-08-08T08:18:57Z</time>
      </trkpt>
      <trkpt lat="42.8734" lon="0.49569">
        <ele>3617</ele>
        <time>2021-08-08T08:18:59Z</time>
      </trkpt>
      <trkpt lat="42.87338" lon="0.49568">
        <ele>3617</ele>
        <time>2021-08-08T08:19:01Z</time>
      </trkpt>
      <trkpt lat="42.87336" lon="0.49566">
        <ele>3617</ele>
        <time>2021-08-08T08:19:03Z</time>
      </trkpt>
      <trkpt lat="42.87333" lon="0.49565">
        <ele>3617</ele>
        <time>2021-08-08T08:19:05Z</time>
      </trkpt>
      <trkpt lat="42.87331" lon="0.49563">
        <ele>3617</ele>
        <time>2021-08-08T08:19:07Z</time>
      </trkpt>
      <trkpt lat="42.87329" lon="0.49562">
        <ele>3617</ele>
        <time>2021-08-08T08:19:09Z</time>
      </trkpt>
      <trkpt lat="42.87326" lon="0.4956">
        <ele>3617</ele>
        <time>2021-08-08T08:19:11Z</time>
      </trkpt>
      <trkpt lat="42.87324" lon="0.49559">
        <ele>3617</ele>
        <time>2021-08-08T08:19:13Z</time>
      </trkpt>
      <trkpt lat="42.87322" lon="0.49557">
        <ele>3617</ele>
        <time>2021-08-08T08:19:15Z</time>
      </trkpt>
      <trkpt lat="42.8732" lon="0.49555">
        <ele>3617</ele>
        <time>2021-08-08T08:19:17Z</time>
      </trkpt>
      <trkpt lat="42.87318" lon="0.49553">
        <ele>3617</ele>
        <time>2021-08-08T08:19:19Z</time>
      </trkpt>
      <trkpt lat="42.87317" lon="0.4955">
        <ele>3617</ele>
        <time>2021-08-08T08:19:21Z</time>
      </trkpt>
      <trkpt lat="42.87315" lon="0.49548">
        <ele>3617</ele>
        <time>2021-08-08T08:19:23Z</time>
      </trkpt>
      <trkpt lat="42.87314" lon="0.49545">
        <ele>3617</ele>
        <time>2021-08-08T08:19:25Z</time>
      </trkpt>
      <trkpt lat="42.87313" lon="0.49541">
        <ele>3617</ele>
        <time>2021-08-08T08:19:27Z</time>
      </trkpt>
      <trkpt lat="42.87313" lon="0.49538">
        <ele>3617</ele>
        <time>2021-08-08T08:19:29Z</time>
      </trkpt>
      <trkpt lat="42.87312" lon="0.49535">
        <ele>3617</ele>
        <time>2021-08-08T08:19:31Z</time>
      </trkpt>
      <trkpt lat="42.87312" lon="0.49531">
        <ele>3617</ele>
        <time>2021-08-08T08:19:33Z</time>
      </trkpt>
      <trkpt lat="42.87312" lon="0.49528">
        <ele>3617</ele>
        <time>2021-08-08T08:19:35Z</time>
      </trkpt>
      <trkpt lat="42.87313" lon="0.49525">
        <ele>3617</ele>
        <time>2021-08-08T08:19:37Z</time>
      </trkpt>
      <trkpt lat="42.87313" lon="0.49521">
        <ele>3617</ele>
        <time>2021-08-08T08:19:39Z</time>
      </trkpt>
      <trkpt lat="42.87313" lon="0.49518">
        <ele>3617</ele>
        <time>2021-08-08T08:19:41Z</time>
      </trkpt>
      <trkpt lat="42.87314" lon="0.49514">
        <ele>3617</ele>
        <time>2021-08-08T08:19:43Z</time>
      </trkpt>
      <trkpt lat="42.87315" lon="0.49511">
        <ele>3617</ele>
        <time>2021-08-08T08:19:45Z</time>
      </trkpt>
      <trkpt lat="42.87315" lon="0.49508">
        <ele>3617</ele>
        <time>2021-08-08T08:19:47Z</time>
      </trkpt>
      <trkpt lat="42.87316" lon="0.49504">
        <ele>3617</ele>
        <time>2021-08-08T08:19:49Z</time>
      </trkpt>
      <trkpt lat="42.87317" lon="0.49501">
        <ele>3617</ele>
        <time>2021-08-08T08:19:51Z</time>
      </trkpt>
      <trkpt lat="42.87318" lon="0.49498">
        <ele>3617</ele>
        <time>2021-08-08T08:19:53Z</time>
      </trkpt>
      <trkpt lat="42.87319" lon="0.49495">
        <ele>3617</ele>
        <time>2021-08-08T08:19:55Z</time>
      </trkpt>
      <trkpt lat="42.8732" lon="0.49492">
        <ele>3617</ele>
        <time>2021-08-08T08:19:57Z</time>
      </trkpt>
      <trkpt lat="42.87321" lon="0.49489">
        <ele>3617</ele>
        <time>2021-08-08T08:19:59Z</time>
      </trkpt>
      <trkpt lat="42.87322" lon="0.49486">
        <ele>3617</ele>
        <time>2021-08-08T08:20:01Z</time>
      </trkpt>
      <trkpt lat="42.87323" lon="0.49483">
        <ele>3617</ele>
        <time>2021-08-08T08:20:03Z</time>
      </trkpt>
      <trkpt lat="42.87324" lon="0.4948">
        <ele>3617</ele>
        <time>2021-08-08T08:20:05Z</time>
      </trkpt>
      <trkpt lat="42.87325" lon="0.49477">
        <ele>3617</ele>
        <time>2021-08-08T08:20:07Z</time>
      </trkpt>
      <trkpt lat="42.87326" lon="0.49474">
        <ele>3617</ele>
        <time>2021-08-08T08:20:09Z</time>
      </trkpt>
      <trkpt lat="42.87327" lon="0.4947">
        <ele>3617</ele>
        <time>2021-08-08T08:20:11Z</time>
      </trkpt>
      <trkpt lat="42.87328" lon="0.49467">
        <ele>3617</ele>
        <time>2021-08-08T08:20:13Z</time>
      </trkpt>
      <trkpt lat="42.87329" lon="0.49463">
        <ele>3617</ele>
        <time>2021-08-08T08:20:15Z</time>
      </trkpt>
      <trkpt lat="42.8733" lon="0.4946">
        <ele>3617</ele>
        <time>2021-08-08T08:20:17Z</time>
      </trkpt>
      <trkpt lat="42.87332" lon="0.49457">
        <ele>3617</ele>
        <time>2021-08-08T08:20:19Z</time>
      </trkpt>
      <trkpt lat="42.87333" lon="0.49454">
        <ele>3617</ele>
        <time>2021-08-08T08:20:21Z</time>
      </trkpt>
      <trkpt lat="42.87334" lon="0.49451">
        <ele>3617</ele>
        <time>2021-08-08T08:20:23Z</time>
      </trkpt>
      <trkpt lat="42.87335" lon="0.49448">
        <ele>3617</ele>
        <time>2021-08-08T08:20:25Z</time>
      </trkpt>
      <trkpt lat="42.87336" lon="0.49445">
        <ele>3617</ele>
        <time>2021-08-08T08:20:27Z</time>
      </trkpt>
      <trkpt lat="42.87336" lon="0.49442">
        <ele>3617</ele>
        <time>2021-08-08T08:20:29Z</time>
      </trkpt>
      <trkpt lat="42.87336" lon="0.49439">
        <ele>3617</ele>
        <time>2021-08-08T08:20:31Z</time>
      </trkpt>
      <trkpt lat="42.87336" lon="0.49435">
        <ele>3617</ele>
        <time>2021-08-08T08:20:33Z</time>
      </trkpt>
      <trkpt lat="42.87336" lon="0.49432">
        <ele>3617</ele>
        <time>2021-08-08T08:20:35Z</time>
      </trkpt>
      <trkpt lat="42.87336" lon="0.49428">
        <ele>3617</ele>
        <time>2021-08-08T08:20:37Z</time>
      </trkpt>
      <trkpt lat="42.87335" lon="0.49425">
        <ele>3617</ele>
        <time>2021-08-08T08:20:39Z</time>
      </trkpt>
      <trkpt lat="42.87334" lon="0.49422">
        <ele>3617</ele>
        <time>2021-08-08T08:20:41Z</time>
      </trkpt>
      <trkpt lat="42.87333" lon="0.49419">
        <ele>3617</ele>
        <time>2021-08-08T08:20:43Z</time>
      </trkpt>
      <trkpt lat="42.87332" lon="0.49416">
        <ele>3617</ele>
        <time>2021-08-08T08:20:45Z</time>
      </trkpt>
      <trkpt lat="42.87331" lon="0.49413">
        <ele>3617</ele>
        <time>2021-08-08T08:20:47Z</time>
      </trkpt>
      <trkpt lat="42.8733" lon="0.4941">
        <ele>3617</ele>
        <time>2021-08-08T08:20:49Z</time>
      </trkpt>
      <trkpt lat="42.87329" lon="0.49407">
        <ele>3617</ele>
        <time>2021-08-08T08:20:51Z</time>
      </trkpt>
      <trkpt lat="42.87328" lon="0.49404">
        <ele>3617</ele>
        <time>2021-08-08T08:20:53Z</time>
      </trkpt>
      <trkpt lat="42.87327" lon="0.49401">
        <ele>3617</ele>
        <time>2021-08-08T08:20:55Z</time>
      </trkpt>
      <trkpt lat="42.87325" lon="0.49397">
        <ele>3617</ele>
        <time>2021-08-08T08:20:57Z</time>
      </trkpt>
      <trkpt lat="42.87324" lon="0.49394">
        <ele>3617</ele>
        <time>2021-08-08T08:20:59Z</time>
      </trkpt>
      <trkpt lat="42.87323" lon="0.49391">
        <ele>3617</ele>
        <time>2021-08-08T08:21:01Z</time>
      </trkpt>
      <trkpt lat="42.87321" lon="0.49389">
        <ele>3617</ele>
        <time>2021-08-08T08:21:03Z</time>
      </trkpt>
      <trkpt lat="42.8732" lon="0.49386">
        <ele>3617</ele>
        <time>2021-08-08T08:21:05Z</time>
      </trkpt>
      <trkpt lat="42.87318" lon="0.49383">
        <ele>3617</ele>
        <time>2021-08-08T08:21:07Z</time>
      </trkpt>
      <trkpt lat="42.87317" lon="0.49381">
        <ele>3617</ele>
        <time>2021-08-08T08:21:09Z</time>
      </trkpt>
      <trkpt lat="42.87315" lon="0.49379">
        <ele>3617</ele>
        <time>2021-08-08T08:21:11Z</time>
      </trkpt>
      <trkpt lat="42.87312" lon="0.49377">
        <ele>3617</ele>
        <time>2021-08-08T08:21:13Z</time>
      </trkpt>
      <trkpt lat="42.8731" lon="0.49375">
        <ele>3617</ele>
        <time>2021-08-08T08:21:15Z</time>
      </trkpt>
      <trkpt lat="42.87308" lon="0.49372">
        <ele>3617</ele>
        <time>2021-08-08T08:21:17Z</time>
      </trkpt>
      <trkpt lat="42.87306" lon="0.4937">
        <ele>3617</ele>
        <time>2021-08-08T08:21:19Z</time>
      </trkpt>
      <trkpt lat="42.87304" lon="0.49367">
        <ele>3617</ele>
        <time>2021-08-08T08:21:21Z</time>
      </trkpt>
      <trkpt lat="42.87303" lon="0.49365">
        <ele>3617</ele>
        <time>2021-08-08T08:21:23Z</time>
      </trkpt>
      <trkpt lat="42.87302" lon="0.49362">
        <ele>3617</ele>
        <time>2021-08-08T08:21:25Z</time>
      </trkpt>
      <trkpt lat="42.873" lon="0.49359">
        <ele>3617</ele>
        <time>2021-08-08T08:21:27Z</time>
      </trkpt>
      <trkpt lat="42.873" lon="0.49356">
        <ele>3617</ele>
        <time>2021-08-08T08:21:29Z</time>
      </trkpt>
      <trkpt lat="42.87299" lon="0.49353">
        <ele>3617</ele>
        <time>2021-08-08T08:21:31Z</time>
      </trkpt>
      <trkpt lat="42.87298" lon="0.4935">
        <ele>3617</ele>
        <time>2021-08-08T08:21:33Z</time>
      </trkpt>
      <trkpt lat="42.87297" lon="0.49347">
        <ele>3617</ele>
        <time>2021-08-08T08:21:35Z</time>
      </trkpt>
      <trkpt lat="42.87295" lon="0.49344">
        <ele>3617</ele>
        <time>2021-08-08T08:21:37Z</time>
      </trkpt>
      <trkpt lat="42.87295" lon="0.4934">
        <ele>3617</ele>
        <time>2021-08-08T08:21:39Z</time>
      </trkpt>
      <trkpt lat="42.87295" lon="0.49337">
        <ele>3617</ele>
        <time>2021-08-08T08:21:41Z</time>
      </trkpt>
      <trkpt lat="42.87294" lon="0.49334">
        <ele>3617</ele>
        <time>2021-08-08T08:21:43Z</time>
      </trkpt>
      <trkpt lat="42.87293" lon="0.49331">
        <ele>3617</ele>
        <time>2021-08-08T08:21:45Z</time>
      </trkpt>
      <trkpt lat="42.87292" lon="0.49328">
        <ele>3617</ele>
        <time>2021-08-08T08:21:47Z</time>
      </trkpt>
      <trkpt lat="42.87291" lon="0.49325">
        <ele>3617</ele>
        <time>2021-08-08T08:21:49Z</time>
      </trkpt>
      <trkpt lat="42.8729" lon="0.49322">
        <ele>3617</ele>
        <time>2021-08-08T08:21:51Z</time>
      </trkpt>
      <trkpt lat="42.87289" lon="0.49318">
        <ele>3617</ele>
        <time>2021-08-08T08:21:53Z</time>
      </trkpt>
      <trkpt lat="42.87288" lon="0.49315">
        <ele>3617</ele>
        <time>2021-08-08T08:21:55Z</time>
      </trkpt>
      <trkpt lat="42.87287" lon="0.49312">
        <ele>3617</ele>
        <time>2021-08-08T08:21:57Z</time>
      </trkpt>
      <trkpt lat="42.87285" lon="0.49309">
        <ele>3617</ele>
        <time>2021-08-08T08:21:59Z</time>
      </trkpt>
      <trkpt lat="42.87284" lon="0.49306">
        <ele>3617</ele>
        <time>2021-08-08T08:22:01Z</time>
      </trkpt>
      <trkpt lat="42.87283" lon="0.49303">
        <ele>3617</ele>
        <time>2021-08-08T08:22:03Z</time>
      </trkpt>
      <trkpt lat="42.87281" lon="0.493">
        <ele>3617</ele>
        <time>2021-08-08T08:22:05Z</time>
      </trkpt>
      <trkpt lat="42.8728" lon="0.49297">
        <ele>3617</ele>
        <time>2021-08-08T08:22:07Z</time>
      </trkpt>
      <trkpt lat="42.87278" lon="0.49294">
        <ele>3617</ele>
        <time>2021-08-08T08:22:09Z</time>
      </trkpt>
      <trkpt lat="42.87277" lon="0.49291">
        <ele>3617</ele>
        <time>2021-08-08T08:22:11Z</time>
      </trkpt>
      <trkpt lat="42.87275" lon="0.49289">
        <ele>3617</ele>
        <time>2021-08-08T08:22:13Z</time>
      </trkpt>
      <trkpt lat="42.87273" lon="0.49286">
        <ele>3617</ele>
        <time>2021-08-08T08:22:15Z</time>
      </trkpt>
      <trkpt lat="42.87272" lon="0.49283">
        <ele>3617</ele>
        <time>2021-08-08T08:22:17Z</time>
      </trkpt>
      <trkpt lat="42.87271" lon="0.4928">
        <ele>3617</ele>
        <time>2021-08-08T08:22:19Z</time>
      </trkpt>
      <trkpt lat="42.87269" lon="0.49277">
        <ele>3617</ele>
        <time>2021-08-08T08:22:21Z</time>
      </trkpt>
      <trkpt lat="42.87268" lon="0.49274">
        <ele>3617</ele>
        <time>2021-08-08T08:22:23Z</time>
      </trkpt>
      <trkpt lat="42.87266" lon="0.49271">
        <ele>3617</ele>
        <time>2021-08-08T08:22:25Z</time>
      </trkpt>
      <trkpt lat="42.87265" lon="0.49268">
        <ele>3617</ele>
        <time>2021-08-08T08:22:27Z</time>
      </trkpt>
      <trkpt lat="42.87264" lon="0.49265">
        <ele>3617</ele>
        <time>2021-08-08T08:22:29Z</time>
      </trkpt>
      <trkpt lat="42.87263" lon="0.49261">
        <ele>3617</ele>
        <time>2021-08-08T08:22:31Z</time>
      </trkpt>
      <trkpt lat="42.87262" lon="0.49258">
        <ele>3617</ele>
        <time>2021-08-08T08:22:33Z</time>
      </trkpt>
      <trkpt lat="42.87261" lon="0.49255">
        <ele>3617</ele>
        <time>2021-08-08T08:22:35Z</time>
      </trkpt>
      <trkpt lat="42.8726" lon="0.49252">
        <ele>3617</ele>
        <time>2021-08-08T08:22:37Z</time>
      </trkpt>
      <trkpt lat="42.8726" lon="0.49248">
        <ele>3617</ele>
        <time>2021-08-08T08:22:39Z</time>
      </trkpt>
      <trkpt lat="42.8726" lon="0.49245">
        <ele>3617</ele>
        <time>2021-08-08T08:22:41Z</time>
      </trkpt>
      <trkpt lat="42.8726" lon="0.49241">
        <ele>3617</ele>
        <time>2021-08-08T08:22:43Z</time>
      </trkpt>
      <trkpt lat="42.8726" lon="0.49238">
        <ele>3617</ele>
        <time>2021-08-08T08:22:45Z</time>
      </trkpt>
      <trkpt lat="42.8726" lon="0.49235">
        <ele>3617</ele>
        <time>2021-08-08T08:22:47Z</time>
      </trkpt>
      <trkpt lat="42.87261" lon="0.49231">
        <ele>3617</ele>
        <time>2021-08-08T08:22:49Z</time>
      </trkpt>
      <trkpt lat="42.87261" lon="0.49228">
        <ele>3617</ele>
        <time>2021-08-08T08:22:51Z</time>
      </trkpt>
      <trkpt lat="42.87263" lon="0.49225">
        <ele>3617</ele>
        <time>2021-08-08T08:22:53Z</time>
      </trkpt>
      <trkpt lat="42.87264" lon="0.49222">
        <ele>3617</ele>
        <time>2021-08-08T08:22:55Z</time>
      </trkpt>
      <trkpt lat="42.87265" lon="0.49218">
        <ele>3617</ele>
        <time>2021-08-08T08:22:57Z</time>
      </trkpt>
      <trkpt lat="42.87266" lon="0.49216">
        <ele>3617</ele>
        <time>2021-08-08T08:22:59Z</time>
      </trkpt>
      <trkpt lat="42.87267" lon="0.49212">
        <ele>3617</ele>
        <time>2021-08-08T08:23:01Z</time>
      </trkpt>
      <trkpt lat="42.87268" lon="0.4921">
        <ele>3617</ele>
        <time>2021-08-08T08:23:03Z</time>
      </trkpt>
      <trkpt lat="42.87269" lon="0.49207">
        <ele>3617</ele>
        <time>2021-08-08T08:23:05Z</time>
      </trkpt>
      <trkpt lat="42.87271" lon="0.49204">
        <ele>3617</ele>
        <time>2021-08-08T08:23:07Z</time>
      </trkpt>
      <trkpt lat="42.87272" lon="0.49201">
        <ele>3617</ele>
        <time>2021-08-08T08:23:09Z</time>
      </trkpt>
      <trkpt lat="42.87274" lon="0.49198">
        <ele>3617</ele>
        <time>2021-08-08T08:23:11Z</time>
      </trkpt>
      <trkpt lat="42.87275" lon="0.49195">
        <ele>3617</ele>
        <time>2021-08-08T08:23:13Z</time>
      </trkpt>
      <trkpt lat="42.87277" lon="0.49193">
        <ele>3617</ele>
        <time>2021-08-08T08:23:15Z</time>
      </trkpt>
      <trkpt lat="42.87279" lon="0.4919">
        <ele>3617</ele>
        <time>2021-08-08T08:23:17Z</time>
      </trkpt>
      <trkpt lat="42.8728" lon="0.49188">
        <ele>3617</ele>
        <time>2021-08-08T08:23:19Z</time>
      </trkpt>
      <trkpt lat="42.87282" lon="0.49185">
        <ele>3617</ele>
        <time>2021-08-08T08:23:21Z</time>
      </trkpt>
      <trkpt lat="42.87284" lon="0.49183">
        <ele>3617</ele>
        <time>2021-08-08T08:23:23Z</time>
      </trkpt>
      <trkpt lat="42.87286" lon="0.4918">
        <ele>3617</ele>
        <time>2021-08-08T08:23:25Z</time>
      </trkpt>
      <trkpt lat="42.87288" lon="0.49178">
        <ele>3617</ele>
        <time>2021-08-08T08:23:27Z</time>
      </trkpt>
      <trkpt lat="42.87289" lon="0.49175">
        <ele>3617</ele>
        <time>2021-08-08T08:23:29Z</time>
      </trkpt>
      <trkpt lat="42.87291" lon="0.49173">
        <ele>3617</ele>
        <time>2021-08-08T08:23:31Z</time>
      </trkpt>
      <trkpt lat="42.87293" lon="0.49171">
        <ele>3617</ele>
        <time>2021-08-08T08:23:33Z</time>
      </trkpt>
      <trkpt lat="42.87295" lon="0.49169">
        <ele>3617</ele>
        <time>2021-08-08T08:23:35Z</time>
      </trkpt>
      <trkpt lat="42.87297" lon="0.49166">
        <ele>3617</ele>
        <time>2021-08-08T08:23:37Z</time>
      </trkpt>
      <trkpt lat="42.87299" lon="0.49164">
        <ele>3617</ele>
        <time>2021-08-08T08:23:39Z</time>
      </trkpt>
      <trkpt lat="42.87301" lon="0.49162">
        <ele>3617</ele>
        <time>2021-08-08T08:23:41Z</time>
      </trkpt>
      <trkpt lat="42.87303" lon="0.49161">
        <ele>3617</ele>
        <time>2021-08-08T08:23:43Z</time>
      </trkpt>
      <trkpt lat="42.87305" lon="0.49159">
        <ele>3617</ele>
        <time>2021-08-08T08:23:45Z</time>
      </trkpt>
      <trkpt lat="42.87308" lon="0.49158">
        <ele>3617</ele>
        <time>2021-08-08T08:23:47Z</time>
      </trkpt>
      <trkpt lat="42.8731" lon="0.49156">
        <ele>3617</ele>
        <time>2021-08-08T08:23:49Z</time>
      </trkpt>
      <trkpt lat="42.87312" lon="0.49154">
        <ele>3617</ele>
        <time>2021-08-08T08:23:51Z</time>
      </trkpt>
      <trkpt lat="42.87314" lon="0.49153">
        <ele>3617</ele>
        <time>2021-08-08T08:23:53Z</time>
      </trkpt>
      <trkpt lat="42.87316" lon="0.49151">
        <ele>3617</ele>
        <time>2021-08-08T08:23:55Z</time>
      </trkpt>
      <trkpt lat="42.87318" lon="0.49149">
        <ele>3617</ele>
        <time>2021-08-08T08:23:57Z</time>
      </trkpt>
      <trkpt lat="42.8732" lon="0.49146">
        <ele>3617</ele>
        <time>2021-08-08T08:23:59Z</time>
      </trkpt>
      <trkpt lat="42.87321" lon="0.49144">
        <ele>3617</ele>
        <time>2021-08-08T08:24:01Z</time>
      </trkpt>
      <trkpt lat="42.87323" lon="0.49142">
        <ele>3617</ele>
        <time>2021-08-08T08:24:03Z</time>
      </trkpt>
      <trkpt lat="42.87325" lon="0.4914">
        <ele>3617</ele>
        <time>2021-08-08T08:24:05Z</time>
      </trkpt>
      <trkpt lat="42.87327" lon="0.49138">
        <ele>3617</ele>
        <time>2021-08-08T08:24:07Z</time>
      </trkpt>
      <trkpt lat="42.87329" lon="0.49136">
        <ele>3617</ele>
        <time>2021-08-08T08:24:09Z</time>
      </trkpt>
      <trkpt lat="42.87331" lon="0.49134">
        <ele>3617</ele>
        <time>2021-08-08T08:24:11Z</time>
      </trkpt>
      <trkpt lat="42.87333" lon="0.49132">
        <ele>3617</ele>
        <time>2021-08-08T08:24:13Z</time>
      </trkpt>
      <trkpt lat="42.87334" lon="0.4913">
        <ele>3617</ele>
        <time>2021-08-08T08:24:15Z</time>
      </trkpt>
      <trkpt lat="42.87336" lon="0.49128">
        <ele>3617</ele>
        <time>2021-08-08T08:24:17Z</time>
      </trkpt>
      <trkpt lat="42.87338" lon="0.49126">
        <ele>3617</ele>
        <time>2021-08-08T08:24:19Z</time>
      </trkpt>
      <trkpt lat="42.8734" lon="0.49124">
        <ele>3617</ele>
        <time>2021-08-08T08:24:21Z</time>
      </trkpt>
      <trkpt lat="42.87342" lon="0.49122">
        <ele>3617</ele>
        <time>2021-08-08T08:24:23Z</time>
      </trkpt>
      <trkpt lat="42.87344" lon="0.49119">
        <ele>3617</ele>
        <time>2021-08-08T08:24:25Z</time>
      </trkpt>
      <trkpt lat="42.87346" lon="0.49118">
        <ele>3617</ele>
        <time>2021-08-08T08:24:27Z</time>
      </trkpt>
      <trkpt lat="42.87348" lon="0.49116">
        <ele>3617</ele>
        <time>2021-08-08T08:24:29Z</time>
      </trkpt>
      <trkpt lat="42.8735" lon="0.49113">
        <ele>3617</ele>
        <time>2021-08-08T08:24:31Z</time>
      </trkpt>
      <trkpt lat="42.87352" lon="0.49111">
        <ele>3617</ele>
        <time>2021-08-08T08:24:33Z</time>
      </trkpt>
      <trkpt lat="42.87354" lon="0.49109">
        <ele>3617</ele>
        <time>2021-08-08T08:24:35Z</time>
      </trkpt>
      <trkpt lat="42.87356" lon="0.49107">
        <ele>3617</ele>
        <time>2021-08-08T08:24:37Z</time>
      </trkpt>
      <trkpt lat="42.87358" lon="0.49105">
        <ele>3617</ele>
        <time>2021-08-08T08:24:39Z</time>
      </trkpt>
      <trkpt lat="42.8736" lon="0.49103">
        <ele>3617</ele>
        <time>2021-08-08T08:24:41Z</time>
      </trkpt>
      <trkpt lat="42.87361" lon="0.491">
        <ele>3617</ele>
        <time>2021-08-08T08:24:43Z</time>
      </trkpt>
      <trkpt lat="42.87363" lon="0.49098">
        <ele>3617</ele>
        <time>2021-08-08T08:24:45Z</time>
      </trkpt>
      <trkpt lat="42.87365" lon="0.49096">
        <ele>3617</ele>
        <time>2021-08-08T08:24:47Z</time>
      </trkpt>
      <trkpt lat="42.87367" lon="0.49093">
        <ele>3617</ele>
        <time>2021-08-08T08:24:49Z</time>
      </trkpt>
      <trkpt lat="42.87369" lon="0.49091">
        <ele>3617</ele>
        <time>2021-08-08T08:24:51Z</time>
      </trkpt>
      <trkpt lat="42.87371" lon="0.49088">
        <ele>3617</ele>
        <time>2021-08-08T08:24:53Z</time>
      </trkpt>
      <trkpt lat="42.87373" lon="0.49086">
        <ele>3617</ele>
        <time>2021-08-08T08:24:55Z</time>
      </trkpt>
      <trkpt lat="42.87375" lon="0.49084">
        <ele>3617</ele>
        <time>2021-08-08T08:24:57Z</time>
      </trkpt>
      <trkpt lat="42.87377" lon="0.49081">
        <ele>3617</ele>
        <time>2021-08-08T08:24:59Z</time>
      </trkpt>
      <trkpt lat="42.87379" lon="0.49079">
        <ele>3617</ele>
        <time>2021-08-08T08:25:01Z</time>
      </trkpt>
      <trkpt lat="42.87381" lon="0.49077">
        <ele>3617</ele>
        <time>2021-08-08T08:25:03Z</time>
      </trkpt>
      <trkpt lat="42.87383" lon="0.49076">
        <ele>3617</ele>
        <time>2021-08-08T08:25:05Z</time>
      </trkpt>
      <trkpt lat="42.87385" lon="0.49074">
        <ele>3617</ele>
        <time>2021-08-08T08:25:07Z</time>
      </trkpt>
      <trkpt lat="42.87387" lon="0.49072">
        <ele>3617</ele>
        <time>2021-08-08T08:25:09Z</time>
      </trkpt>
      <trkpt lat="42.8739" lon="0.4907">
        <ele>3617</ele>
        <time>2021-08-08T08:25:11Z</time>
      </trkpt>
      <trkpt lat="42.87392" lon="0.49068">
        <ele>3617</ele>
        <time>2021-08-08T08:25:13Z</time>
      </trkpt>
      <trkpt lat="42.87394" lon="0.49066">
        <ele>3617</ele>
        <time>2021-08-08T08:25:15Z</time>
      </trkpt>
      <trkpt lat="42.87396" lon="0.49064">
        <ele>3617</ele>
        <time>2021-08-08T08:25:17Z</time>
      </trkpt>
      <trkpt lat="42.87398" lon="0.49062">
        <ele>3617</ele>
        <time>2021-08-08T08:25:19Z</time>
      </trkpt>
      <trkpt lat="42.874" lon="0.4906">
        <ele>3617</ele>
        <time>2021-08-08T08:25:21Z</time>
      </trkpt>
      <trkpt lat="42.87402" lon="0.49058">
        <ele>3617</ele>
        <time>2021-08-08T08:25:23Z</time>
      </trkpt>
      <trkpt lat="42.87404" lon="0.49056">
        <ele>3617</ele>
        <time>2021-08-08T08:25:25Z</time>
      </trkpt>
      <trkpt lat="42.87406" lon="0.49053">
        <ele>3617</ele>
        <time>2021-08-08T08:25:27Z</time>
      </trkpt>
      <trkpt lat="42.87408" lon="0.49051">
        <ele>3617</ele>
        <time>2021-08-08T08:25:29Z</time>
      </trkpt>
      <trkpt lat="42.8741" lon="0.49048">
        <ele>3617</ele>
        <time>2021-08-08T08:25:31Z</time>
      </trkpt>
      <trkpt lat="42.87412" lon="0.49046">
        <ele>3617</ele>
        <time>2021-08-08T08:25:33Z</time>
      </trkpt>
      <trkpt lat="42.87414" lon="0.49044">
        <ele>3617</ele>
        <time>2021-08-08T08:25:35Z</time>
      </trkpt>
      <trkpt lat="42.87416" lon="0.49042">
        <ele>3617</ele>
        <time>2021-08-08T08:25:37Z</time>
      </trkpt>
      <trkpt lat="42.87418" lon="0.4904">
        <ele>3617</ele>
        <time>2021-08-08T08:25:39Z</time>
      </trkpt>
      <trkpt lat="42.8742" lon="0.49037">
        <ele>3617</ele>
        <time>2021-08-08T08:25:41Z</time>
      </trkpt>
      <trkpt lat="42.87422" lon="0.49035">
        <ele>3617</ele>
        <time>2021-08-08T08:25:43Z</time>
      </trkpt>
      <trkpt lat="42.87423" lon="0.49033">
        <ele>3617</ele>
        <time>2021-08-08T08:25:45Z</time>
      </trkpt>
      <trkpt lat="42.87425" lon="0.49031">
        <ele>3617</ele>
        <time>2021-08-08T08:25:47Z</time>
      </trkpt>
      <trkpt lat="42.87427" lon="0.49029">
        <ele>3617</ele>
        <time>2021-08-08T08:25:49Z</time>
      </trkpt>
      <trkpt lat="42.8743" lon="0.49027">
        <ele>3617</ele>
        <time>2021-08-08T08:25:51Z</time>
      </trkpt>
      <trkpt lat="42.87432" lon="0.49024">
        <ele>3617</ele>
        <time>2021-08-08T08:25:53Z</time>
      </trkpt>
      <trkpt lat="42.87434" lon="0.49022">
        <ele>3617</ele>
        <time>2021-08-08T08:25:55Z</time>
      </trkpt>
      <trkpt lat="42.87435" lon="0.4902">
        <ele>3617</ele>
        <time>2021-08-08T08:25:57Z</time>
      </trkpt>
      <trkpt lat="42.87437" lon="0.49018">
        <ele>3617</ele>
        <time>2021-08-08T08:25:59Z</time>
      </trkpt>
      <trkpt lat="42.87439" lon="0.49015">
        <ele>3617</ele>
        <time>2021-08-08T08:26:01Z</time>
      </trkpt>
      <trkpt lat="42.87441" lon="0.49013">
        <ele>3617</ele>
        <time>2021-08-08T08:26:03Z</time>
      </trkpt>
      <trkpt lat="42.87443" lon="0.4901">
        <ele>3617</ele>
        <time>2021-08-08T08:26:05Z</time>
      </trkpt>
      <trkpt lat="42.87444" lon="0.49007">
        <ele>3617</ele>
        <time>2021-08-08T08:26:07Z</time>
      </trkpt>
      <trkpt lat="42.87446" lon="0.49005">
        <ele>3617</ele>
        <time>2021-08-08T08:26:09Z</time>
      </trkpt>
      <trkpt lat="42.87448" lon="0.49002">
        <ele>3617</ele>
        <time>2021-08-08T08:26:11Z</time>
      </trkpt>
      <trkpt lat="42.87449" lon="0.48999">
        <ele>3617</ele>
        <time>2021-08-08T08:26:13Z</time>
      </trkpt>
      <trkpt lat="42.87451" lon="0.48996">
        <ele>3617</ele>
        <time>2021-08-08T08:26:15Z</time>
      </trkpt>
      <trkpt lat="42.87453" lon="0.48993">
        <ele>3617</ele>
        <time>2021-08-08T08:26:17Z</time>
      </trkpt>
      <trkpt lat="42.87454" lon="0.4899">
        <ele>3617</ele>
        <time>2021-08-08T08:26:19Z</time>
      </trkpt>
      <trkpt lat="42.87456" lon="0.48988">
        <ele>3617</ele>
        <time>2021-08-08T08:26:21Z</time>
      </trkpt>
      <trkpt lat="42.87458" lon="0.48986">
        <ele>3617</ele>
        <time>2021-08-08T08:26:23Z</time>
      </trkpt>
      <trkpt lat="42.87459" lon="0.48983">
        <ele>3617</ele>
        <time>2021-08-08T08:26:25Z</time>
      </trkpt>
      <trkpt lat="42.87461" lon="0.4898">
        <ele>3617</ele>
        <time>2021-08-08T08:26:27Z</time>
      </trkpt>
      <trkpt lat="42.87463" lon="0.48978">
        <ele>3617</ele>
        <time>2021-08-08T08:26:29Z</time>
      </trkpt>
      <trkpt lat="42.87465" lon="0.48976">
        <ele>3617</ele>
        <time>2021-08-08T08:26:31Z</time>
      </trkpt>
      <trkpt lat="42.87466" lon="0.48974">
        <ele>3617</ele>
        <time>2021-08-08T08:26:33Z</time>
      </trkpt>
      <trkpt lat="42.87468" lon="0.48971">
        <ele>3617</ele>
        <time>2021-08-08T08:26:35Z</time>
      </trkpt>
      <trkpt lat="42.8747" lon="0.48969">
        <ele>3617</ele>
        <time>2021-08-08T08:26:37Z</time>
      </trkpt>
      <trkpt lat="42.87472" lon="0.48966">
        <ele>3617</ele>
        <time>2021-08-08T08:26:39Z</time>
      </trkpt>
      <trkpt lat="42.87474" lon="0.48964">
        <ele>3617</ele>
        <time>2021-08-08T08:26:41Z</time>
      </trkpt>
      <trkpt lat="42.87476" lon="0.48962">
        <ele>3617</ele>
        <time>2021-08-08T08:26:43Z</time>
      </trkpt>
      <trkpt lat="42.87478" lon="0.48959">
        <ele>3617</ele>
        <time>2021-08-08T08:26:45Z</time>
      </trkpt>
      <trkpt lat="42.87479" lon="0.48957">
        <ele>3617</ele>
        <time>2021-08-08T08:26:47Z</time>
      </trkpt>
      <trkpt lat="42.87481" lon="0.48954">
        <ele>3617</ele>
        <time>2021-08-08T08:26:49Z</time>
      </trkpt>
      <trkpt lat="42.87483" lon="0.48952">
        <ele>3617</ele>
        <time>2021-08-08T08:26:51Z</time>
      </trkpt>
      <trkpt lat="42.87485" lon="0.4895">
        <ele>3617</ele>
        <time>2021-08-08T08:26:52Z</time>
      </trkpt>
      <trkpt lat="42.87487" lon="0.48948">
        <ele>3617</ele>
        <time>2021-08-08T08:26:55Z</time>
      </trkpt>
      <trkpt lat="42.8749" lon="0.48946">
        <ele>3617</ele>
        <time>2021-08-08T08:26:57Z</time>
      </trkpt>
      <trkpt lat="42.87492" lon="0.48944">
        <ele>3617</ele>
        <time>2021-08-08T08:26:59Z</time>
      </trkpt>
      <trkpt lat="42.87494" lon="0.48942">
        <ele>3617</ele>
        <time>2021-08-08T08:27:01Z</time>
      </trkpt>
      <trkpt lat="42.87496" lon="0.4894">
        <ele>3617</ele>
        <time>2021-08-08T08:27:03Z</time>
      </trkpt>
      <trkpt lat="42.87498" lon="0.48939">
        <ele>3617</ele>
        <time>2021-08-08T08:27:05Z</time>
      </trkpt>
      <trkpt lat="42.87501" lon="0.48937">
        <ele>3617</ele>
        <time>2021-08-08T08:27:07Z</time>
      </trkpt>
      <trkpt lat="42.87503" lon="0.48936">
        <ele>3617</ele>
        <time>2021-08-08T08:27:09Z</time>
      </trkpt>
      <trkpt lat="42.87505" lon="0.48934">
        <ele>3617</ele>
        <time>2021-08-08T08:27:11Z</time>
      </trkpt>
      <trkpt lat="42.87508" lon="0.48932">
        <ele>3617</ele>
        <time>2021-08-08T08:27:13Z</time>
      </trkpt>
      <trkpt lat="42.8751" lon="0.48931">
        <ele>3617</ele>
        <time>2021-08-08T08:27:15Z</time>
      </trkpt>
      <trkpt lat="42.87513" lon="0.4893">
        <ele>3617</ele>
        <time>2021-08-08T08:27:17Z</time>
      </trkpt>
      <trkpt lat="42.87515" lon="0.48928">
        <ele>3617</ele>
        <time>2021-08-08T08:27:19Z</time>
      </trkpt>
      <trkpt lat="42.87518" lon="0.48927">
        <ele>3617</ele>
        <time>2021-08-08T08:27:21Z</time>
      </trkpt>
      <trkpt lat="42.8752" lon="0.48926">
        <ele>3617</ele>
        <time>2021-08-08T08:27:23Z</time>
      </trkpt>
      <trkpt lat="42.87522" lon="0.48925">
        <ele>3617</ele>
        <time>2021-08-08T08:27:25Z</time>
      </trkpt>
      <trkpt lat="42.87525" lon="0.48923">
        <ele>3617</ele>
        <time>2021-08-08T08:27:27Z</time>
      </trkpt>
      <trkpt lat="42.87527" lon="0.48922">
        <ele>3617</ele>
        <time>2021-08-08T08:27:29Z</time>
      </trkpt>
      <trkpt lat="42.87529" lon="0.48921">
        <ele>3617</ele>
        <time>2021-08-08T08:27:31Z</time>
      </trkpt>
      <trkpt lat="42.87532" lon="0.4892">
        <ele>3617</ele>
        <time>2021-08-08T08:27:33Z</time>
      </trkpt>
      <trkpt lat="42.87534" lon="0.48918">
        <ele>3617</ele>
        <time>2021-08-08T08:27:35Z</time>
      </trkpt>
      <trkpt lat="42.87536" lon="0.48916">
        <ele>3617</ele>
        <time>2021-08-08T08:27:37Z</time>
      </trkpt>
      <trkpt lat="42.87538" lon="0.48914">
        <ele>3617</ele>
        <time>2021-08-08T08:27:39Z</time>
      </trkpt>
      <trkpt lat="42.87541" lon="0.48912">
        <ele>3617</ele>
        <time>2021-08-08T08:27:41Z</time>
      </trkpt>
      <trkpt lat="42.87543" lon="0.48911">
        <ele>3617</ele>
        <time>2021-08-08T08:27:43Z</time>
      </trkpt>
      <trkpt lat="42.87545" lon="0.48909">
        <ele>3617</ele>
        <time>2021-08-08T08:27:45Z</time>
      </trkpt>
      <trkpt lat="42.87547" lon="0.48907">
        <ele>3617</ele>
        <time>2021-08-08T08:27:47Z</time>
      </trkpt>
      <trkpt lat="42.8755" lon="0.48905">
        <ele>3617</ele>
        <time>2021-08-08T08:27:49Z</time>
      </trkpt>
      <trkpt lat="42.87552" lon="0.48903">
        <ele>3617</ele>
        <time>2021-08-08T08:27:51Z</time>
      </trkpt>
      <trkpt lat="42.87554" lon="0.48901">
        <ele>3617</ele>
        <time>2021-08-08T08:27:53Z</time>
      </trkpt>
      <trkpt lat="42.87556" lon="0.48899">
        <ele>3617</ele>
        <time>2021-08-08T08:27:55Z</time>
      </trkpt>
      <trkpt lat="42.87558" lon="0.48897">
        <ele>3617</ele>
        <time>2021-08-08T08:27:57Z</time>
      </trkpt>
      <trkpt lat="42.87561" lon="0.48895">
        <ele>3617</ele>
        <time>2021-08-08T08:27:59Z</time>
      </trkpt>
      <trkpt lat="42.87563" lon="0.48893">
        <ele>3617</ele>
        <time>2021-08-08T08:28:01Z</time>
      </trkpt>
      <trkpt lat="42.87565" lon="0.4889">
        <ele>3617</ele>
        <time>2021-08-08T08:28:03Z</time>
      </trkpt>
      <trkpt lat="42.87566" lon="0.48887">
        <ele>3617</ele>
        <time>2021-08-08T08:28:05Z</time>
      </trkpt>
      <trkpt lat="42.87568" lon="0.48885">
        <ele>3617</ele>
        <time>2021-08-08T08:28:07Z</time>
      </trkpt>
      <trkpt lat="42.87569" lon="0.48882">
        <ele>3617</ele>
        <time>2021-08-08T08:28:09Z</time>
      </trkpt>
      <trkpt lat="42.8757" lon="0.48879">
        <ele>3617</ele>
        <time>2021-08-08T08:28:11Z</time>
      </trkpt>
      <trkpt lat="42.87571" lon="0.48876">
        <ele>3617</ele>
        <time>2021-08-08T08:28:13Z</time>
      </trkpt>
      <trkpt lat="42.87572" lon="0.48873">
        <ele>3617</ele>
        <time>2021-08-08T08:28:15Z</time>
      </trkpt>
      <trkpt lat="42.87572" lon="0.4887">
        <ele>3617</ele>
        <time>2021-08-08T08:28:17Z</time>
      </trkpt>
      <trkpt lat="42.87573" lon="0.48867">
        <ele>3617</ele>
        <time>2021-08-08T08:28:19Z</time>
      </trkpt>
      <trkpt lat="42.87574" lon="0.48864">
        <ele>3617</ele>
        <time>2021-08-08T08:28:21Z</time>
      </trkpt>
      <trkpt lat="42.87574" lon="0.48861">
        <ele>3617</ele>
        <time>2021-08-08T08:28:23Z</time>
      </trkpt>
      <trkpt lat="42.87574" lon="0.48857">
        <ele>3617</ele>
        <time>2021-08-08T08:28:25Z</time>
      </trkpt>
      <trkpt lat="42.87575" lon="0.48854">
        <ele>3617</ele>
        <time>2021-08-08T08:28:27Z</time>
      </trkpt>
      <trkpt lat="42.87575" lon="0.4885">
        <ele>3617</ele>
        <time>2021-08-08T08:28:29Z</time>
      </trkpt>
      <trkpt lat="42.87575" lon="0.48846">
        <ele>3617</ele>
        <time>2021-08-08T08:28:31Z</time>
      </trkpt>
      <trkpt lat="42.87575" lon="0.48843">
        <ele>3617</ele>
        <time>2021-08-08T08:28:33Z</time>
      </trkpt>
      <trkpt lat="42.87575" lon="0.48839">
        <ele>3617</ele>
        <time>2021-08-08T08:28:35Z</time>
      </trkpt>
      <trkpt lat="42.87575" lon="0.48835">
        <ele>3617</ele>
        <time>2021-08-08T08:28:37Z</time>
      </trkpt>
      <trkpt lat="42.87574" lon="0.48832">
        <ele>3617</ele>
        <time>2021-08-08T08:28:39Z</time>
      </trkpt>
      <trkpt lat="42.87574" lon="0.48828">
        <ele>3617</ele>
        <time>2021-08-08T08:28:41Z</time>
      </trkpt>
      <trkpt lat="42.87574" lon="0.48825">
        <ele>3617</ele>
        <time>2021-08-08T08:28:43Z</time>
      </trkpt>
      <trkpt lat="42.87574" lon="0.48821">
        <ele>3617</ele>
        <time>2021-08-08T08:28:45Z</time>
      </trkpt>
      <trkpt lat="42.87574" lon="0.48818">
        <ele>3617</ele>
        <time>2021-08-08T08:28:47Z</time>
      </trkpt>
      <trkpt lat="42.87574" lon="0.48815">
        <ele>3617</ele>
        <time>2021-08-08T08:28:49Z</time>
      </trkpt>
      <trkpt lat="42.87574" lon="0.48812">
        <ele>3617</ele>
        <time>2021-08-08T08:28:51Z</time>
      </trkpt>
      <trkpt lat="42.87573" lon="0.48808">
        <ele>3617</ele>
        <time>2021-08-08T08:28:53Z</time>
      </trkpt>
      <trkpt lat="42.87573" lon="0.48805">
        <ele>3617</ele>
        <time>2021-08-08T08:28:55Z</time>
      </trkpt>
      <trkpt lat="42.87573" lon="0.48801">
        <ele>3617</ele>
        <time>2021-08-08T08:28:57Z</time>
      </trkpt>
      <trkpt lat="42.87572" lon="0.48797">
        <ele>3617</ele>
        <time>2021-08-08T08:28:59Z</time>
      </trkpt>
      <trkpt lat="42.87572" lon="0.48794">
        <ele>3617</ele>
        <time>2021-08-08T08:29:01Z</time>
      </trkpt>
      <trkpt lat="42.87572" lon="0.4879">
        <ele>3617</ele>
        <time>2021-08-08T08:29:03Z</time>
      </trkpt>
      <trkpt lat="42.87572" lon="0.48787">
        <ele>3617</ele>
        <time>2021-08-08T08:29:05Z</time>
      </trkpt>
      <trkpt lat="42.87571" lon="0.48783">
        <ele>3617</ele>
        <time>2021-08-08T08:29:07Z</time>
      </trkpt>
      <trkpt lat="42.8757" lon="0.4878">
        <ele>3617</ele>
        <time>2021-08-08T08:29:09Z</time>
      </trkpt>
      <trkpt lat="42.87569" lon="0.48777">
        <ele>3617</ele>
        <time>2021-08-08T08:29:11Z</time>
      </trkpt>
      <trkpt lat="42.87567" lon="0.48774">
        <ele>3617</ele>
        <time>2021-08-08T08:29:13Z</time>
      </trkpt>
      <trkpt lat="42.87565" lon="0.48772">
        <ele>3617</ele>
        <time>2021-08-08T08:29:15Z</time>
      </trkpt>
      <trkpt lat="42.87563" lon="0.48769">
        <ele>3617</ele>
        <time>2021-08-08T08:29:17Z</time>
      </trkpt>
      <trkpt lat="42.87561" lon="0.48767">
        <ele>3617</ele>
        <time>2021-08-08T08:29:19Z</time>
      </trkpt>
      <trkpt lat="42.87559" lon="0.48765">
        <ele>3617</ele>
        <time>2021-08-08T08:29:21Z</time>
      </trkpt>
      <trkpt lat="42.87557" lon="0.48762">
        <ele>3617</ele>
        <time>2021-08-08T08:29:23Z</time>
      </trkpt>
      <trkpt lat="42.87556" lon="0.48759">
        <ele>3617</ele>
        <time>2021-08-08T08:29:25Z</time>
      </trkpt>
      <trkpt lat="42.87554" lon="0.48756">
        <ele>3617</ele>
        <time>2021-08-08T08:29:27Z</time>
      </trkpt>
      <trkpt lat="42.87553" lon="0.48753">
        <ele>3617</ele>
        <time>2021-08-08T08:29:29Z</time>
      </trkpt>
      <trkpt lat="42.87552" lon="0.4875">
        <ele>3617</ele>
        <time>2021-08-08T08:29:31Z</time>
      </trkpt>
      <trkpt lat="42.87551" lon="0.48747">
        <ele>3617</ele>
        <time>2021-08-08T08:29:33Z</time>
      </trkpt>
      <trkpt lat="42.8755" lon="0.48744">
        <ele>3617</ele>
        <time>2021-08-08T08:29:35Z</time>
      </trkpt>
      <trkpt lat="42.87549" lon="0.48741">
        <ele>3617</ele>
        <time>2021-08-08T08:29:37Z</time>
      </trkpt>
      <trkpt lat="42.87547" lon="0.48738">
        <ele>3617</ele>
        <time>2021-08-08T08:29:39Z</time>
      </trkpt>
      <trkpt lat="42.87546" lon="0.48735">
        <ele>3617</ele>
        <time>2021-08-08T08:29:41Z</time>
      </trkpt>
      <trkpt lat="42.87545" lon="0.48732">
        <ele>3617</ele>
        <time>2021-08-08T08:29:43Z</time>
      </trkpt>
      <trkpt lat="42.87543" lon="0.48729">
        <ele>3617</ele>
        <time>2021-08-08T08:29:45Z</time>
      </trkpt>
      <trkpt lat="42.87542" lon="0.48726">
        <ele>3617</ele>
        <time>2021-08-08T08:29:47Z</time>
      </trkpt>
      <trkpt lat="42.87541" lon="0.48723">
        <ele>3617</ele>
        <time>2021-08-08T08:29:49Z</time>
      </trkpt>
      <trkpt lat="42.87539" lon="0.4872">
        <ele>3617</ele>
        <time>2021-08-08T08:29:51Z</time>
      </trkpt>
      <trkpt lat="42.87538" lon="0.48716">
        <ele>3617</ele>
        <time>2021-08-08T08:29:53Z</time>
      </trkpt>
      <trkpt lat="42.87537" lon="0.48713">
        <ele>3617</ele>
        <time>2021-08-08T08:29:55Z</time>
      </trkpt>
      <trkpt lat="42.87535" lon="0.4871">
        <ele>3617</ele>
        <time>2021-08-08T08:29:57Z</time>
      </trkpt>
      <trkpt lat="42.87533" lon="0.48708">
        <ele>3617</ele>
        <time>2021-08-08T08:29:59Z</time>
      </trkpt>
      <trkpt lat="42.87532" lon="0.48705">
        <ele>3617</ele>
        <time>2021-08-08T08:30:01Z</time>
      </trkpt>
      <trkpt lat="42.8753" lon="0.48702">
        <ele>3617</ele>
        <time>2021-08-08T08:30:03Z</time>
      </trkpt>
      <trkpt lat="42.87529" lon="0.48698">
        <ele>3617</ele>
        <time>2021-08-08T08:30:05Z</time>
      </trkpt>
      <trkpt lat="42.87528" lon="0.48695">
        <ele>3617</ele>
        <time>2021-08-08T08:30:07Z</time>
      </trkpt>
      <trkpt lat="42.87527" lon="0.48692">
        <ele>3617</ele>
        <time>2021-08-08T08:30:09Z</time>
      </trkpt>
      <trkpt lat="42.87526" lon="0.48689">
        <ele>3617</ele>
        <time>2021-08-08T08:30:11Z</time>
      </trkpt>
      <trkpt lat="42.87525" lon="0.48685">
        <ele>3617</ele>
        <time>2021-08-08T08:30:13Z</time>
      </trkpt>
      <trkpt lat="42.87525" lon="0.48682">
        <ele>3617</ele>
        <time>2021-08-08T08:30:15Z</time>
      </trkpt>
      <trkpt lat="42.87524" lon="0.48679">
        <ele>3617</ele>
        <time>2021-08-08T08:30:17Z</time>
      </trkpt>
      <trkpt lat="42.87523" lon="0.48675">
        <ele>3617</ele>
        <time>2021-08-08T08:30:19Z</time>
      </trkpt>
      <trkpt lat="42.87523" lon="0.48672">
        <ele>3617</ele>
        <time>2021-08-08T08:30:21Z</time>
      </trkpt>
      <trkpt lat="42.87522" lon="0.48669">
        <ele>3617</ele>
        <time>2021-08-08T08:30:23Z</time>
      </trkpt>
      <trkpt lat="42.87522" lon="0.48665">
        <ele>3617</ele>
        <time>2021-08-08T08:30:25Z</time>
      </trkpt>
      <trkpt lat="42.87521" lon="0.48662">
        <ele>3617</ele>
        <time>2021-08-08T08:30:27Z</time>
      </trkpt>
      <trkpt lat="42.87521" lon="0.48658">
        <ele>3617</ele>
        <time>2021-08-08T08:30:29Z</time>
      </trkpt>
      <trkpt lat="42.8752" lon="0.48655">
        <ele>3617</ele>
        <time>2021-08-08T08:30:31Z</time>
      </trkpt>
      <trkpt lat="42.8752" lon="0.48651">
        <ele>3617</ele>
        <time>2021-08-08T08:30:33Z</time>
      </trkpt>
      <trkpt lat="42.87521" lon="0.48647">
        <ele>3617</ele>
        <time>2021-08-08T08:30:35Z</time>
      </trkpt>
      <trkpt lat="42.87521" lon="0.48644">
        <ele>3617</ele>
        <time>2021-08-08T08:30:37Z</time>
      </trkpt>
      <trkpt lat="42.87521" lon="0.4864">
        <ele>3617</ele>
        <time>2021-08-08T08:30:39Z</time>
      </trkpt>
      <trkpt lat="42.87522" lon="0.48637">
        <ele>3617</ele>
        <time>2021-08-08T08:30:41Z</time>
      </trkpt>
      <trkpt lat="42.87522" lon="0.48634">
        <ele>3617</ele>
        <time>2021-08-08T08:30:43Z</time>
      </trkpt>
      <trkpt lat="42.87522" lon="0.48631">
        <ele>3617</ele>
        <time>2021-08-08T08:30:45Z</time>
      </trkpt>
      <trkpt lat="42.87522" lon="0.48627">
        <ele>3617</ele>
        <time>2021-08-08T08:30:47Z</time>
      </trkpt>
      <trkpt lat="42.87522" lon="0.48624">
        <ele>3617</ele>
        <time>2021-08-08T08:30:49Z</time>
      </trkpt>
      <trkpt lat="42.87522" lon="0.48621">
        <ele>3617</ele>
        <time>2021-08-08T08:30:51Z</time>
      </trkpt>
      <trkpt lat="42.87521" lon="0.48617">
        <ele>3617</ele>
        <time>2021-08-08T08:30:53Z</time>
      </trkpt>
      <trkpt lat="42.87521" lon="0.48614">
        <ele>3617</ele>
        <time>2021-08-08T08:30:55Z</time>
      </trkpt>
      <trkpt lat="42.8752" lon="0.48611">
        <ele>3617</ele>
        <time>2021-08-08T08:30:57Z</time>
      </trkpt>
      <trkpt lat="42.8752" lon="0.48608">
        <ele>3617</ele>
        <time>2021-08-08T08:30:59Z</time>
      </trkpt>
      <trkpt lat="42.87519" lon="0.48605">
        <ele>3617</ele>
        <time>2021-08-08T08:31:01Z</time>
      </trkpt>
      <trkpt lat="42.87519" lon="0.48602">
        <ele>3617</ele>
        <time>2021-08-08T08:31:05Z</time>
      </trkpt>
      <trkpt lat="42.87518" lon="0.48598">
        <ele>3617</ele>
        <time>2021-08-08T08:31:07Z</time>
      </trkpt>
      <trkpt lat="42.87517" lon="0.48594">
        <ele>3617</ele>
        <time>2021-08-08T08:31:09Z</time>
      </trkpt>
      <trkpt lat="42.87516" lon="0.4859">
        <ele>3617</ele>
        <time>2021-08-08T08:31:11Z</time>
      </trkpt>
      <trkpt lat="42.87516" lon="0.48586">
        <ele>3617</ele>
        <time>2021-08-08T08:31:13Z</time>
      </trkpt>
      <trkpt lat="42.87515" lon="0.48583">
        <ele>3617</ele>
        <time>2021-08-08T08:31:15Z</time>
      </trkpt>
      <trkpt lat="42.87514" lon="0.48579">
        <ele>3617</ele>
        <time>2021-08-08T08:31:17Z</time>
      </trkpt>
      <trkpt lat="42.87514" lon="0.48575">
        <ele>3617</ele>
        <time>2021-08-08T08:31:19Z</time>
      </trkpt>
      <trkpt lat="42.87514" lon="0.48571">
        <ele>3617</ele>
        <time>2021-08-08T08:31:21Z</time>
      </trkpt>
      <trkpt lat="42.87514" lon="0.48567">
        <ele>3617</ele>
        <time>2021-08-08T08:31:23Z</time>
      </trkpt>
      <trkpt lat="42.87514" lon="0.48564">
        <ele>3617</ele>
        <time>2021-08-08T08:31:25Z</time>
      </trkpt>
      <trkpt lat="42.87514" lon="0.4856">
        <ele>3617</ele>
        <time>2021-08-08T08:31:27Z</time>
      </trkpt>
      <trkpt lat="42.87514" lon="0.48556">
        <ele>3617</ele>
        <time>2021-08-08T08:31:29Z</time>
      </trkpt>
      <trkpt lat="42.87514" lon="0.48553">
        <ele>3617</ele>
        <time>2021-08-08T08:31:31Z</time>
      </trkpt>
      <trkpt lat="42.87515" lon="0.48549">
        <ele>3617</ele>
        <time>2021-08-08T08:31:33Z</time>
      </trkpt>
      <trkpt lat="42.87515" lon="0.48546">
        <ele>3617</ele>
        <time>2021-08-08T08:31:35Z</time>
      </trkpt>
      <trkpt lat="42.87516" lon="0.48542">
        <ele>3617</ele>
        <time>2021-08-08T08:31:37Z</time>
      </trkpt>
      <trkpt lat="42.87516" lon="0.48538">
        <ele>3617</ele>
        <time>2021-08-08T08:31:39Z</time>
      </trkpt>
      <trkpt lat="42.87516" lon="0.48535">
        <ele>3617</ele>
        <time>2021-08-08T08:31:41Z</time>
      </trkpt>
      <trkpt lat="42.87517" lon="0.48531">
        <ele>3617</ele>
        <time>2021-08-08T08:31:43Z</time>
      </trkpt>
      <trkpt lat="42.87518" lon="0.48528">
        <ele>3617</ele>
        <time>2021-08-08T08:31:45Z</time>
      </trkpt>
      <trkpt lat="42.87518" lon="0.48524">
        <ele>3617</ele>
        <time>2021-08-08T08:31:47Z</time>
      </trkpt>
      <trkpt lat="42.87519" lon="0.48521">
        <ele>3617</ele>
        <time>2021-08-08T08:31:49Z</time>
      </trkpt>
      <trkpt lat="42.87519" lon="0.48517">
        <ele>3617</ele>
        <time>2021-08-08T08:31:51Z</time>
      </trkpt>
      <trkpt lat="42.8752" lon="0.48514">
        <ele>3617</ele>
        <time>2021-08-08T08:31:53Z</time>
      </trkpt>
      <trkpt lat="42.8752" lon="0.4851">
        <ele>3617</ele>
        <time>2021-08-08T08:31:55Z</time>
      </trkpt>
      <trkpt lat="42.87521" lon="0.48507">
        <ele>3617</ele>
        <time>2021-08-08T08:31:57Z</time>
      </trkpt>
      <trkpt lat="42.87522" lon="0.48504">
        <ele>3617</ele>
        <time>2021-08-08T08:31:59Z</time>
      </trkpt>
      <trkpt lat="42.87522" lon="0.48501">
        <ele>3617</ele>
        <time>2021-08-08T08:32:01Z</time>
      </trkpt>
      <trkpt lat="42.87523" lon="0.48498">
        <ele>3617</ele>
        <time>2021-08-08T08:32:03Z</time>
      </trkpt>
      <trkpt lat="42.87523" lon="0.48495">
        <ele>3617</ele>
        <time>2021-08-08T08:32:05Z</time>
      </trkpt>
      <trkpt lat="42.87523" lon="0.48492">
        <ele>3617</ele>
        <time>2021-08-08T08:32:07Z</time>
      </trkpt>
      <trkpt lat="42.87524" lon="0.48488">
        <ele>3617</ele>
        <time>2021-08-08T08:32:09Z</time>
      </trkpt>
      <trkpt lat="42.87524" lon="0.48485">
        <ele>3617</ele>
        <time>2021-08-08T08:32:11Z</time>
      </trkpt>
      <trkpt lat="42.87524" lon="0.48481">
        <ele>3617</ele>
        <time>2021-08-08T08:32:13Z</time>
      </trkpt>
      <trkpt lat="42.87523" lon="0.48478">
        <ele>3617</ele>
        <time>2021-08-08T08:32:15Z</time>
      </trkpt>
      <trkpt lat="42.87523" lon="0.48475">
        <ele>3617</ele>
        <time>2021-08-08T08:32:17Z</time>
      </trkpt>
      <trkpt lat="42.87523" lon="0.48471">
        <ele>3617</ele>
        <time>2021-08-08T08:32:19Z</time>
      </trkpt>
      <trkpt lat="42.87522" lon="0.48468">
        <ele>3617</ele>
        <time>2021-08-08T08:32:21Z</time>
      </trkpt>
      <trkpt lat="42.87522" lon="0.48464">
        <ele>3617</ele>
        <time>2021-08-08T08:32:23Z</time>
      </trkpt>
      <trkpt lat="42.87522" lon="0.48461">
        <ele>3617</ele>
        <time>2021-08-08T08:32:25Z</time>
      </trkpt>
      <trkpt lat="42.87522" lon="0.48457">
        <ele>3617</ele>
        <time>2021-08-08T08:32:27Z</time>
      </trkpt>
      <trkpt lat="42.87522" lon="0.48454">
        <ele>3617</ele>
        <time>2021-08-08T08:32:29Z</time>
      </trkpt>
      <trkpt lat="42.87522" lon="0.4845">
        <ele>3617</ele>
        <time>2021-08-08T08:32:31Z</time>
      </trkpt>
      <trkpt lat="42.87522" lon="0.48447">
        <ele>3617</ele>
        <time>2021-08-08T08:32:33Z</time>
      </trkpt>
      <trkpt lat="42.87522" lon="0.48443">
        <ele>3617</ele>
        <time>2021-08-08T08:32:35Z</time>
      </trkpt>
      <trkpt lat="42.87522" lon="0.4844">
        <ele>3617</ele>
        <time>2021-08-08T08:32:37Z</time>
      </trkpt>
      <trkpt lat="42.87522" lon="0.48437">
        <ele>3617</ele>
        <time>2021-08-08T08:32:39Z</time>
      </trkpt>
      <trkpt lat="42.87522" lon="0.48433">
        <ele>3617</ele>
        <time>2021-08-08T08:32:41Z</time>
      </trkpt>
      <trkpt lat="42.87521" lon="0.48429">
        <ele>3617</ele>
        <time>2021-08-08T08:32:43Z</time>
      </trkpt>
      <trkpt lat="42.87521" lon="0.48426">
        <ele>3617</ele>
        <time>2021-08-08T08:32:45Z</time>
      </trkpt>
      <trkpt lat="42.87521" lon="0.48422">
        <ele>3617</ele>
        <time>2021-08-08T08:32:47Z</time>
      </trkpt>
      <trkpt lat="42.87521" lon="0.48419">
        <ele>3617</ele>
        <time>2021-08-08T08:32:49Z</time>
      </trkpt>
      <trkpt lat="42.87521" lon="0.48415">
        <ele>3617</ele>
        <time>2021-08-08T08:32:51Z</time>
      </trkpt>
      <trkpt lat="42.8752" lon="0.48411">
        <ele>3617</ele>
        <time>2021-08-08T08:32:53Z</time>
      </trkpt>
      <trkpt lat="42.8752" lon="0.48408">
        <ele>3617</ele>
        <time>2021-08-08T08:32:55Z</time>
      </trkpt>
      <trkpt lat="42.8752" lon="0.48405">
        <ele>3617</ele>
        <time>2021-08-08T08:32:57Z</time>
      </trkpt>
      <trkpt lat="42.8752" lon="0.48401">
        <ele>3617</ele>
        <time>2021-08-08T08:32:59Z</time>
      </trkpt>
      <trkpt lat="42.8752" lon="0.48398">
        <ele>3617</ele>
        <time>2021-08-08T08:33:01Z</time>
      </trkpt>
      <trkpt lat="42.8752" lon="0.48394">
        <ele>3617</ele>
        <time>2021-08-08T08:33:03Z</time>
      </trkpt>
      <trkpt lat="42.8752" lon="0.48391">
        <ele>3700</ele>
        <time>2021-08-08T08:33:04Z</time>
      </trkpt>
      <trkpt lat="42.8752" lon="0.48387">
        <ele>3700</ele>
        <time>2021-08-08T08:33:07Z</time>
      </trkpt>
      <trkpt lat="42.8752" lon="0.48383">
        <ele>3700</ele>
        <time>2021-08-08T08:33:09Z</time>
      </trkpt>
      <trkpt lat="42.8752" lon="0.48379">
        <ele>3700</ele>
        <time>2021-08-08T08:33:11Z</time>
      </trkpt>
      <trkpt lat="42.8752" lon="0.48376">
        <ele>3700</ele>
        <time>2021-08-08T08:33:13Z</time>
      </trkpt>
      <trkpt lat="42.87521" lon="0.48372">
        <ele>3700</ele>
        <time>2021-08-08T08:33:15Z</time>
      </trkpt>
      <trkpt lat="42.87522" lon="0.48368">
        <ele>3700</ele>
        <time>2021-08-08T08:33:17Z</time>
      </trkpt>
      <trkpt lat="42.87523" lon="0.48365">
        <ele>3700</ele>
        <time>2021-08-08T08:33:19Z</time>
      </trkpt>
      <trkpt lat="42.87523" lon="0.48361">
        <ele>3700</ele>
        <time>2021-08-08T08:33:21Z</time>
      </trkpt>
      <trkpt lat="42.87524" lon="0.48357">
        <ele>3700</ele>
        <time>2021-08-08T08:33:23Z</time>
      </trkpt>
      <trkpt lat="42.87524" lon="0.48354">
        <ele>3700</ele>
        <time>2021-08-08T08:33:25Z</time>
      </trkpt>
      <trkpt lat="42.87525" lon="0.4835">
        <ele>3700</ele>
        <time>2021-08-08T08:33:27Z</time>
      </trkpt>
      <trkpt lat="42.87526" lon="0.48347">
        <ele>3700</ele>
        <time>2021-08-08T08:33:29Z</time>
      </trkpt>
      <trkpt lat="42.87527" lon="0.48343">
        <ele>3700</ele>
        <time>2021-08-08T08:33:31Z</time>
      </trkpt>
      <trkpt lat="42.87527" lon="0.4834">
        <ele>3700</ele>
        <time>2021-08-08T08:33:33Z</time>
      </trkpt>
      <trkpt lat="42.87528" lon="0.48336">
        <ele>3700</ele>
        <time>2021-08-08T08:33:35Z</time>
      </trkpt>
      <trkpt lat="42.87528" lon="0.48332">
        <ele>3700</ele>
        <time>2021-08-08T08:33:37Z</time>
      </trkpt>
      <trkpt lat="42.87528" lon="0.48328">
        <ele>3700</ele>
        <time>2021-08-08T08:33:39Z</time>
      </trkpt>
      <trkpt lat="42.87528" lon="0.48325">
        <ele>3700</ele>
        <time>2021-08-08T08:33:41Z</time>
      </trkpt>
      <trkpt lat="42.87528" lon="0.48321">
        <ele>3700</ele>
        <time>2021-08-08T08:33:43Z</time>
      </trkpt>
      <trkpt lat="42.87528" lon="0.48317">
        <ele>3700</ele>
        <time>2021-08-08T08:33:45Z</time>
      </trkpt>
      <trkpt lat="42.87528" lon="0.48314">
        <ele>3700</ele>
        <time>2021-08-08T08:33:47Z</time>
      </trkpt>
      <trkpt lat="42.87528" lon="0.4831">
        <ele>3700</ele>
        <time>2021-08-08T08:33:49Z</time>
      </trkpt>
      <trkpt lat="42.87527" lon="0.48306">
        <ele>3700</ele>
        <time>2021-08-08T08:33:51Z</time>
      </trkpt>
      <trkpt lat="42.87527" lon="0.48302">
        <ele>3700</ele>
        <time>2021-08-08T08:33:53Z</time>
      </trkpt>
      <trkpt lat="42.87526" lon="0.48298">
        <ele>3700</ele>
        <time>2021-08-08T08:33:55Z</time>
      </trkpt>
      <trkpt lat="42.87526" lon="0.48294">
        <ele>3700</ele>
        <time>2021-08-08T08:33:57Z</time>
      </trkpt>
      <trkpt lat="42.87526" lon="0.48291">
        <ele>3700</ele>
        <time>2021-08-08T08:33:59Z</time>
      </trkpt>
      <trkpt lat="42.87525" lon="0.48287">
        <ele>3700</ele>
        <time>2021-08-08T08:34:01Z</time>
      </trkpt>
      <trkpt lat="42.87525" lon="0.48284">
        <ele>3700</ele>
        <time>2021-08-08T08:34:03Z</time>
      </trkpt>
      <trkpt lat="42.87524" lon="0.4828">
        <ele>3700</ele>
        <time>2021-08-08T08:34:05Z</time>
      </trkpt>
      <trkpt lat="42.87524" lon="0.48277">
        <ele>3700</ele>
        <time>2021-08-08T08:34:07Z</time>
      </trkpt>
      <trkpt lat="42.87523" lon="0.48273">
        <ele>3700</ele>
        <time>2021-08-08T08:34:09Z</time>
      </trkpt>
      <trkpt lat="42.87522" lon="0.48269">
        <ele>3700</ele>
        <time>2021-08-08T08:34:11Z</time>
      </trkpt>
      <trkpt lat="42.87521" lon="0.48266">
        <ele>3700</ele>
        <time>2021-08-08T08:34:13Z</time>
      </trkpt>
      <trkpt lat="42.8752" lon="0.48262">
        <ele>3700</ele>
        <time>2021-08-08T08:34:15Z</time>
      </trkpt>
      <trkpt lat="42.87518" lon="0.48259">
        <ele>3700</ele>
        <time>2021-08-08T08:34:17Z</time>
      </trkpt>
      <trkpt lat="42.87517" lon="0.48256">
        <ele>3700</ele>
        <time>2021-08-08T08:34:19Z</time>
      </trkpt>
      <trkpt lat="42.87515" lon="0.48253">
        <ele>3700</ele>
        <time>2021-08-08T08:34:21Z</time>
      </trkpt>
      <trkpt lat="42.87513" lon="0.4825">
        <ele>3700</ele>
        <time>2021-08-08T08:34:23Z</time>
      </trkpt>
      <trkpt lat="42.87512" lon="0.48248">
        <ele>3700</ele>
        <time>2021-08-08T08:34:25Z</time>
      </trkpt>
      <trkpt lat="42.8751" lon="0.48245">
        <ele>3700</ele>
        <time>2021-08-08T08:34:27Z</time>
      </trkpt>
      <trkpt lat="42.87508" lon="0.48242">
        <ele>3700</ele>
        <time>2021-08-08T08:34:29Z</time>
      </trkpt>
      <trkpt lat="42.87506" lon="0.48239">
        <ele>3700</ele>
        <time>2021-08-08T08:34:31Z</time>
      </trkpt>
      <trkpt lat="42.87505" lon="0.48237">
        <ele>3700</ele>
        <time>2021-08-08T08:34:33Z</time>
      </trkpt>
      <trkpt lat="42.87503" lon="0.48234">
        <ele>3700</ele>
        <time>2021-08-08T08:34:35Z</time>
      </trkpt>
      <trkpt lat="42.87501" lon="0.48231">
        <ele>3700</ele>
        <time>2021-08-08T08:34:37Z</time>
      </trkpt>
      <trkpt lat="42.87499" lon="0.48228">
        <ele>3700</ele>
        <time>2021-08-08T08:34:39Z</time>
      </trkpt>
      <trkpt lat="42.87498" lon="0.48226">
        <ele>3700</ele>
        <time>2021-08-08T08:34:41Z</time>
      </trkpt>
      <trkpt lat="42.87496" lon="0.48223">
        <ele>3700</ele>
        <time>2021-08-08T08:34:43Z</time>
      </trkpt>
      <trkpt lat="42.87494" lon="0.4822">
        <ele>3700</ele>
        <time>2021-08-08T08:34:45Z</time>
      </trkpt>
      <trkpt lat="42.87492" lon="0.48217">
        <ele>3700</ele>
        <time>2021-08-08T08:34:47Z</time>
      </trkpt>
      <trkpt lat="42.87491" lon="0.48214">
        <ele>3700</ele>
        <time>2021-08-08T08:34:49Z</time>
      </trkpt>
      <trkpt lat="42.87489" lon="0.48211">
        <ele>3700</ele>
        <time>2021-08-08T08:34:51Z</time>
      </trkpt>
      <trkpt lat="42.87487" lon="0.48208">
        <ele>3700</ele>
        <time>2021-08-08T08:34:53Z</time>
      </trkpt>
      <trkpt lat="42.87486" lon="0.48205">
        <ele>3700</ele>
        <time>2021-08-08T08:34:55Z</time>
      </trkpt>
      <trkpt lat="42.87485" lon="0.48202">
        <ele>3700</ele>
        <time>2021-08-08T08:34:57Z</time>
      </trkpt>
      <trkpt lat="42.87483" lon="0.48199">
        <ele>3700</ele>
        <time>2021-08-08T08:34:59Z</time>
      </trkpt>
      <trkpt lat="42.87482" lon="0.48196">
        <ele>3700</ele>
        <time>2021-08-08T08:35:01Z</time>
      </trkpt>
      <trkpt lat="42.8748" lon="0.48193">
        <ele>3700</ele>
        <time>2021-08-08T08:35:03Z</time>
      </trkpt>
      <trkpt lat="42.87479" lon="0.4819">
        <ele>3700</ele>
        <time>2021-08-08T08:35:05Z</time>
      </trkpt>
      <trkpt lat="42.87477" lon="0.48187">
        <ele>3700</ele>
        <time>2021-08-08T08:35:07Z</time>
      </trkpt>
      <trkpt lat="42.87476" lon="0.48184">
        <ele>3700</ele>
        <time>2021-08-08T08:35:09Z</time>
      </trkpt>
      <trkpt lat="42.87474" lon="0.48181">
        <ele>3700</ele>
        <time>2021-08-08T08:35:11Z</time>
      </trkpt>
      <trkpt lat="42.87473" lon="0.48178">
        <ele>3700</ele>
        <time>2021-08-08T08:35:13Z</time>
      </trkpt>
      <trkpt lat="42.87472" lon="0.48174">
        <ele>3700</ele>
        <time>2021-08-08T08:35:15Z</time>
      </trkpt>
      <trkpt lat="42.8747" lon="0.48171">
        <ele>3700</ele>
        <time>2021-08-08T08:35:17Z</time>
      </trkpt>
      <trkpt lat="42.87468" lon="0.48169">
        <ele>3700</ele>
        <time>2021-08-08T08:35:19Z</time>
      </trkpt>
      <trkpt lat="42.87466" lon="0.48166">
        <ele>3700</ele>
        <time>2021-08-08T08:35:21Z</time>
      </trkpt>
      <trkpt lat="42.87464" lon="0.48164">
        <ele>3700</ele>
        <time>2021-08-08T08:35:23Z</time>
      </trkpt>
      <trkpt lat="42.87462" lon="0.48161">
        <ele>3700</ele>
        <time>2021-08-08T08:35:25Z</time>
      </trkpt>
      <trkpt lat="42.8746" lon="0.48159">
        <ele>3700</ele>
        <time>2021-08-08T08:35:27Z</time>
      </trkpt>
      <trkpt lat="42.87458" lon="0.48156">
        <ele>3700</ele>
        <time>2021-08-08T08:35:29Z</time>
      </trkpt>
      <trkpt lat="42.87456" lon="0.48154">
        <ele>3700</ele>
        <time>2021-08-08T08:35:31Z</time>
      </trkpt>
      <trkpt lat="42.87454" lon="0.48151">
        <ele>3700</ele>
        <time>2021-08-08T08:35:33Z</time>
      </trkpt>
      <trkpt lat="42.87452" lon="0.48148">
        <ele>3700</ele>
        <time>2021-08-08T08:35:35Z</time>
      </trkpt>
      <trkpt lat="42.8745" lon="0.48145">
        <ele>3700</ele>
        <time>2021-08-08T08:35:37Z</time>
      </trkpt>
      <trkpt lat="42.87448" lon="0.48143">
        <ele>3700</ele>
        <time>2021-08-08T08:35:39Z</time>
      </trkpt>
      <trkpt lat="42.87446" lon="0.48141">
        <ele>3700</ele>
        <time>2021-08-08T08:35:41Z</time>
      </trkpt>
      <trkpt lat="42.87444" lon="0.48138">
        <ele>3700</ele>
        <time>2021-08-08T08:35:43Z</time>
      </trkpt>
      <trkpt lat="42.87442" lon="0.48136">
        <ele>3700</ele>
        <time>2021-08-08T08:35:45Z</time>
      </trkpt>
      <trkpt lat="42.8744" lon="0.48133">
        <ele>3700</ele>
        <time>2021-08-08T08:35:47Z</time>
      </trkpt>
      <trkpt lat="42.87438" lon="0.48131">
        <ele>3700</ele>
        <time>2021-08-08T08:35:49Z</time>
      </trkpt>
      <trkpt lat="42.87436" lon="0.48129">
        <ele>3700</ele>
        <time>2021-08-08T08:35:51Z</time>
      </trkpt>
      <trkpt lat="42.87434" lon="0.48126">
        <ele>3700</ele>
        <time>2021-08-08T08:35:53Z</time>
      </trkpt>
      <trkpt lat="42.87432" lon="0.48124">
        <ele>3700</ele>
        <time>2021-08-08T08:35:55Z</time>
      </trkpt>
      <trkpt lat="42.8743" lon="0.48122">
        <ele>3700</ele>
        <time>2021-08-08T08:35:57Z</time>
      </trkpt>
      <trkpt lat="42.87427" lon="0.48119">
        <ele>3700</ele>
        <time>2021-08-08T08:35:59Z</time>
      </trkpt>
      <trkpt lat="42.87425" lon="0.48117">
        <ele>3700</ele>
        <time>2021-08-08T08:36:01Z</time>
      </trkpt>
      <trkpt lat="42.87423" lon="0.48115">
        <ele>3700</ele>
        <time>2021-08-08T08:36:03Z</time>
      </trkpt>
      <trkpt lat="42.87421" lon="0.48113">
        <ele>3700</ele>
        <time>2021-08-08T08:36:05Z</time>
      </trkpt>
      <trkpt lat="42.87419" lon="0.48111">
        <ele>3700</ele>
        <time>2021-08-08T08:36:07Z</time>
      </trkpt>
      <trkpt lat="42.87417" lon="0.48108">
        <ele>3700</ele>
        <time>2021-08-08T08:36:09Z</time>
      </trkpt>
      <trkpt lat="42.87415" lon="0.48106">
        <ele>3700</ele>
        <time>2021-08-08T08:36:11Z</time>
      </trkpt>
      <trkpt lat="42.87413" lon="0.48104">
        <ele>3700</ele>
        <time>2021-08-08T08:36:13Z</time>
      </trkpt>
      <trkpt lat="42.87411" lon="0.48101">
        <ele>3700</ele>
        <time>2021-08-08T08:36:15Z</time>
      </trkpt>
      <trkpt lat="42.87409" lon="0.48098">
        <ele>3700</ele>
        <time>2021-08-08T08:36:16Z</time>
      </trkpt>
      <trkpt lat="42.87408" lon="0.48095">
        <ele>3700</ele>
        <time>2021-08-08T08:36:19Z</time>
      </trkpt>
      <trkpt lat="42.87406" lon="0.48093">
        <ele>3700</ele>
        <time>2021-08-08T08:36:21Z</time>
      </trkpt>
      <trkpt lat="42.87404" lon="0.48091">
        <ele>3700</ele>
        <time>2021-08-08T08:36:23Z</time>
      </trkpt>
      <trkpt lat="42.87402" lon="0.48089">
        <ele>3700</ele>
        <time>2021-08-08T08:36:25Z</time>
      </trkpt>
      <trkpt lat="42.874" lon="0.48087">
        <ele>3700</ele>
        <time>2021-08-08T08:36:27Z</time>
      </trkpt>
      <trkpt lat="42.87397" lon="0.48086">
        <ele>3700</ele>
        <time>2021-08-08T08:36:29Z</time>
      </trkpt>
      <trkpt lat="42.87394" lon="0.48085">
        <ele>3700</ele>
        <time>2021-08-08T08:36:31Z</time>
      </trkpt>
      <trkpt lat="42.87392" lon="0.48084">
        <ele>3700</ele>
        <time>2021-08-08T08:36:33Z</time>
      </trkpt>
      <trkpt lat="42.87389" lon="0.48083">
        <ele>3700</ele>
        <time>2021-08-08T08:36:35Z</time>
      </trkpt>
      <trkpt lat="42.87386" lon="0.48084">
        <ele>3700</ele>
        <time>2021-08-08T08:36:37Z</time>
      </trkpt>
      <trkpt lat="42.87383" lon="0.48085">
        <ele>3700</ele>
        <time>2021-08-08T08:36:39Z</time>
      </trkpt>
      <trkpt lat="42.87381" lon="0.48086">
        <ele>3700</ele>
        <time>2021-08-08T08:36:41Z</time>
      </trkpt>
      <trkpt lat="42.87378" lon="0.48089">
        <ele>3700</ele>
        <time>2021-08-08T08:36:43Z</time>
      </trkpt>
      <trkpt lat="42.87376" lon="0.48092">
        <ele>3700</ele>
        <time>2021-08-08T08:36:45Z</time>
      </trkpt>
      <trkpt lat="42.87374" lon="0.48094">
        <ele>3700</ele>
        <time>2021-08-08T08:36:47Z</time>
      </trkpt>
      <trkpt lat="42.87372" lon="0.48098">
        <ele>3700</ele>
        <time>2021-08-08T08:36:49Z</time>
      </trkpt>
      <trkpt lat="42.8737" lon="0.48101">
        <ele>3700</ele>
        <time>2021-08-08T08:36:51Z</time>
      </trkpt>
      <trkpt lat="42.87368" lon="0.48103">
        <ele>3700</ele>
        <time>2021-08-08T08:36:53Z</time>
      </trkpt>
      <trkpt lat="42.87366" lon="0.48104">
        <ele>3700</ele>
        <time>2021-08-08T08:36:55Z</time>
      </trkpt>
      <trkpt lat="42.87363" lon="0.48105">
        <ele>3700</ele>
        <time>2021-08-08T08:36:57Z</time>
      </trkpt>
      <trkpt lat="42.87361" lon="0.48104">
        <ele>3700</ele>
        <time>2021-08-08T08:36:59Z</time>
      </trkpt>
      <trkpt lat="42.87359" lon="0.48102">
        <ele>3700</ele>
        <time>2021-08-08T08:37:01Z</time>
      </trkpt>
      <trkpt lat="42.87356" lon="0.481">
        <ele>3700</ele>
        <time>2021-08-08T08:37:03Z</time>
      </trkpt>
      <trkpt lat="42.87354" lon="0.48098">
        <ele>3700</ele>
        <time>2021-08-08T08:37:05Z</time>
      </trkpt>
      <trkpt lat="42.87351" lon="0.48097">
        <ele>3700</ele>
        <time>2021-08-08T08:37:07Z</time>
      </trkpt>
      <trkpt lat="42.87349" lon="0.48096">
        <ele>3700</ele>
        <time>2021-08-08T08:37:09Z</time>
      </trkpt>
      <trkpt lat="42.87346" lon="0.48095">
        <ele>3700</ele>
        <time>2021-08-08T08:37:11Z</time>
      </trkpt>
      <trkpt lat="42.87344" lon="0.48094">
        <ele>3700</ele>
        <time>2021-08-08T08:37:13Z</time>
      </trkpt>
      <trkpt lat="42.87342" lon="0.48093">
        <ele>3700</ele>
        <time>2021-08-08T08:37:15Z</time>
      </trkpt>
      <trkpt lat="42.8734" lon="0.48093">
        <ele>3700</ele>
        <time>2021-08-08T08:37:17Z</time>
      </trkpt>
      <trkpt lat="42.87339" lon="0.48093">
        <ele>3700</ele>
        <time>2021-08-08T08:37:19Z</time>
      </trkpt>
      <trkpt lat="42.87336" lon="0.48091">
        <ele>3700</ele>
        <time>2021-08-08T08:37:22Z</time>
      </trkpt>
      <trkpt lat="42.87335" lon="0.48089">
        <ele>3700</ele>
        <time>2021-08-08T08:37:25Z</time>
      </trkpt>
      <trkpt lat="42.87333" lon="0.48089">
        <ele>3700</ele>
        <time>2021-08-08T08:37:45Z</time>
      </trkpt>
      <trkpt lat="42.8733" lon="0.4809">
        <ele>3700</ele>
        <time>2021-08-08T08:37:48Z</time>
      </trkpt>
      <trkpt lat="42.87328" lon="0.4809">
        <ele>3700</ele>
        <time>2021-08-08T08:37:51Z</time>
      </trkpt>
      <trkpt lat="42.87326" lon="0.48088">
        <ele>3700</ele>
        <time>2021-08-08T08:37:53Z</time>
      </trkpt>
      <trkpt lat="42.87324" lon="0.48086">
        <ele>3700</ele>
        <time>2021-08-08T08:37:55Z</time>
      </trkpt>
      <trkpt lat="42.87323" lon="0.48084">
        <ele>3700</ele>
        <time>2021-08-08T08:37:57Z</time>
      </trkpt>
      <trkpt lat="42.87321" lon="0.48081">
        <ele>3700</ele>
        <time>2021-08-08T08:37:59Z</time>
      </trkpt>
      <trkpt lat="42.8732" lon="0.48079">
        <ele>3700</ele>
        <time>2021-08-08T08:38:01Z</time>
      </trkpt>
      <trkpt lat="42.87319" lon="0.48076">
        <ele>3700</ele>
        <time>2021-08-08T08:38:03Z</time>
      </trkpt>
      <trkpt lat="42.87317" lon="0.48073">
        <ele>3700</ele>
        <time>2021-08-08T08:38:05Z</time>
      </trkpt>
      <trkpt lat="42.87316" lon="0.48071">
        <ele>3700</ele>
        <time>2021-08-08T08:38:07Z</time>
      </trkpt>
      <trkpt lat="42.87314" lon="0.48068">
        <ele>3700</ele>
        <time>2021-08-08T08:38:09Z</time>
      </trkpt>
      <trkpt lat="42.87312" lon="0.48066">
        <ele>3700</ele>
        <time>2021-08-08T08:38:11Z</time>
      </trkpt>
      <trkpt lat="42.8731" lon="0.48064">
        <ele>3700</ele>
        <time>2021-08-08T08:38:13Z</time>
      </trkpt>
      <trkpt lat="42.87307" lon="0.48062">
        <ele>3700</ele>
        <time>2021-08-08T08:38:15Z</time>
      </trkpt>
      <trkpt lat="42.87305" lon="0.4806">
        <ele>3700</ele>
        <time>2021-08-08T08:38:17Z</time>
      </trkpt>
      <trkpt lat="42.87303" lon="0.48058">
        <ele>3700</ele>
        <time>2021-08-08T08:38:19Z</time>
      </trkpt>
      <trkpt lat="42.873" lon="0.48056">
        <ele>3700</ele>
        <time>2021-08-08T08:38:21Z</time>
      </trkpt>
      <trkpt lat="42.87297" lon="0.48055">
        <ele>3700</ele>
        <time>2021-08-08T08:38:23Z</time>
      </trkpt>
      <trkpt lat="42.87294" lon="0.48053">
        <ele>3700</ele>
        <time>2021-08-08T08:38:25Z</time>
      </trkpt>
      <trkpt lat="42.87292" lon="0.48052">
        <ele>3700</ele>
        <time>2021-08-08T08:38:27Z</time>
      </trkpt>
      <trkpt lat="42.8729" lon="0.4805">
        <ele>3700</ele>
        <time>2021-08-08T08:38:29Z</time>
      </trkpt>
      <trkpt lat="42.87288" lon="0.48049">
        <ele>3700</ele>
        <time>2021-08-08T08:38:31Z</time>
      </trkpt>
      <trkpt lat="42.87286" lon="0.48047">
        <ele>3700</ele>
        <time>2021-08-08T08:38:33Z</time>
      </trkpt>
      <trkpt lat="42.87283" lon="0.48044">
        <ele>3700</ele>
        <time>2021-08-08T08:38:35Z</time>
      </trkpt>
      <trkpt lat="42.87281" lon="0.48043">
        <ele>3700</ele>
        <time>2021-08-08T08:38:37Z</time>
      </trkpt>
      <trkpt lat="42.87278" lon="0.48041">
        <ele>3700</ele>
        <time>2021-08-08T08:38:39Z</time>
      </trkpt>
      <trkpt lat="42.87276" lon="0.4804">
        <ele>3700</ele>
        <time>2021-08-08T08:38:41Z</time>
      </trkpt>
      <trkpt lat="42.87274" lon="0.48037">
        <ele>3700</ele>
        <time>2021-08-08T08:38:43Z</time>
      </trkpt>
      <trkpt lat="42.87272" lon="0.48035">
        <ele>3700</ele>
        <time>2021-08-08T08:38:45Z</time>
      </trkpt>
      <trkpt lat="42.8727" lon="0.48034">
        <ele>3700</ele>
        <time>2021-08-08T08:38:47Z</time>
      </trkpt>
      <trkpt lat="42.87268" lon="0.48032">
        <ele>3700</ele>
        <time>2021-08-08T08:38:49Z</time>
      </trkpt>
      <trkpt lat="42.87265" lon="0.4803">
        <ele>3700</ele>
        <time>2021-08-08T08:38:51Z</time>
      </trkpt>
      <trkpt lat="42.87263" lon="0.48028">
        <ele>3700</ele>
        <time>2021-08-08T08:38:53Z</time>
      </trkpt>
      <trkpt lat="42.87261" lon="0.48027">
        <ele>3700</ele>
        <time>2021-08-08T08:38:55Z</time>
      </trkpt>
      <trkpt lat="42.87258" lon="0.48026">
        <ele>3700</ele>
        <time>2021-08-08T08:38:57Z</time>
      </trkpt>
      <trkpt lat="42.87256" lon="0.48025">
        <ele>3700</ele>
        <time>2021-08-08T08:38:59Z</time>
      </trkpt>
      <trkpt lat="42.87254" lon="0.48024">
        <ele>3700</ele>
        <time>2021-08-08T08:39:01Z</time>
      </trkpt>
      <trkpt lat="42.87251" lon="0.48023">
        <ele>3700</ele>
        <time>2021-08-08T08:39:03Z</time>
      </trkpt>
      <trkpt lat="42.87248" lon="0.48023">
        <ele>3700</ele>
        <time>2021-08-08T08:39:05Z</time>
      </trkpt>
      <trkpt lat="42.87245" lon="0.48022">
        <ele>3700</ele>
        <time>2021-08-08T08:39:07Z</time>
      </trkpt>
      <trkpt lat="42.87242" lon="0.48022">
        <ele>3700</ele>
        <time>2021-08-08T08:39:09Z</time>
      </trkpt>
      <trkpt lat="42.8724" lon="0.48022">
        <ele>3700</ele>
        <time>2021-08-08T08:39:11Z</time>
      </trkpt>
      <trkpt lat="42.87237" lon="0.48022">
        <ele>3700</ele>
        <time>2021-08-08T08:39:13Z</time>
      </trkpt>
      <trkpt lat="42.87235" lon="0.48022">
        <ele>3700</ele>
        <time>2021-08-08T08:39:15Z</time>
      </trkpt>
      <trkpt lat="42.87232" lon="0.48022">
        <ele>3700</ele>
        <time>2021-08-08T08:39:17Z</time>
      </trkpt>
      <trkpt lat="42.87229" lon="0.48022">
        <ele>3700</ele>
        <time>2021-08-08T08:39:19Z</time>
      </trkpt>
      <trkpt lat="42.87227" lon="0.48022">
        <ele>3700</ele>
        <time>2021-08-08T08:39:21Z</time>
      </trkpt>
      <trkpt lat="42.87224" lon="0.48022">
        <ele>3700</ele>
        <time>2021-08-08T08:39:23Z</time>
      </trkpt>
      <trkpt lat="42.87222" lon="0.4802">
        <ele>3700</ele>
        <time>2021-08-08T08:39:25Z</time>
      </trkpt>
      <trkpt lat="42.87219" lon="0.48019">
        <ele>3700</ele>
        <time>2021-08-08T08:39:27Z</time>
      </trkpt>
      <trkpt lat="42.87217" lon="0.48017">
        <ele>3700</ele>
        <time>2021-08-08T08:39:29Z</time>
      </trkpt>
      <trkpt lat="42.87215" lon="0.48015">
        <ele>3700</ele>
        <time>2021-08-08T08:39:31Z</time>
      </trkpt>
      <trkpt lat="42.87212" lon="0.48012">
        <ele>3700</ele>
        <time>2021-08-08T08:39:33Z</time>
      </trkpt>
      <trkpt lat="42.8721" lon="0.4801">
        <ele>3700</ele>
        <time>2021-08-08T08:39:35Z</time>
      </trkpt>
      <trkpt lat="42.87207" lon="0.48008">
        <ele>3700</ele>
        <time>2021-08-08T08:39:37Z</time>
      </trkpt>
      <trkpt lat="42.87205" lon="0.48006">
        <ele>3700</ele>
        <time>2021-08-08T08:39:39Z</time>
      </trkpt>
      <trkpt lat="42.87203" lon="0.48004">
        <ele>3700</ele>
        <time>2021-08-08T08:39:41Z</time>
      </trkpt>
      <trkpt lat="42.872" lon="0.48003">
        <ele>3700</ele>
        <time>2021-08-08T08:39:43Z</time>
      </trkpt>
      <trkpt lat="42.87198" lon="0.48001">
        <ele>3700</ele>
        <time>2021-08-08T08:39:45Z</time>
      </trkpt>
      <trkpt lat="42.87195" lon="0.48001">
        <ele>3700</ele>
        <time>2021-08-08T08:39:47Z</time>
      </trkpt>
      <trkpt lat="42.87192" lon="0.48001">
        <ele>3700</ele>
        <time>2021-08-08T08:39:49Z</time>
      </trkpt>
      <trkpt lat="42.8719" lon="0.48001">
        <ele>3700</ele>
        <time>2021-08-08T08:39:51Z</time>
      </trkpt>
      <trkpt lat="42.87187" lon="0.48002">
        <ele>3700</ele>
        <time>2021-08-08T08:39:53Z</time>
      </trkpt>
      <trkpt lat="42.87184" lon="0.48004">
        <ele>3700</ele>
        <time>2021-08-08T08:39:55Z</time>
      </trkpt>
      <trkpt lat="42.87182" lon="0.48005">
        <ele>3700</ele>
        <time>2021-08-08T08:39:57Z</time>
      </trkpt>
      <trkpt lat="42.8718" lon="0.48007">
        <ele>3700</ele>
        <time>2021-08-08T08:39:59Z</time>
      </trkpt>
      <trkpt lat="42.87177" lon="0.48009">
        <ele>3700</ele>
        <time>2021-08-08T08:40:01Z</time>
      </trkpt>
      <trkpt lat="42.87175" lon="0.4801">
        <ele>3700</ele>
        <time>2021-08-08T08:40:03Z</time>
      </trkpt>
      <trkpt lat="42.87172" lon="0.48012">
        <ele>3700</ele>
        <time>2021-08-08T08:40:05Z</time>
      </trkpt>
      <trkpt lat="42.8717" lon="0.48014">
        <ele>3700</ele>
        <time>2021-08-08T08:40:07Z</time>
      </trkpt>
      <trkpt lat="42.87167" lon="0.48015">
        <ele>3700</ele>
        <time>2021-08-08T08:40:09Z</time>
      </trkpt>
      <trkpt lat="42.87165" lon="0.48016">
        <ele>3700</ele>
        <time>2021-08-08T08:40:11Z</time>
      </trkpt>
      <trkpt lat="42.87162" lon="0.48017">
        <ele>3700</ele>
        <time>2021-08-08T08:40:13Z</time>
      </trkpt>
      <trkpt lat="42.8716" lon="0.48018">
        <ele>3700</ele>
        <time>2021-08-08T08:40:15Z</time>
      </trkpt>
      <trkpt lat="42.87157" lon="0.48019">
        <ele>3700</ele>
        <time>2021-08-08T08:40:17Z</time>
      </trkpt>
      <trkpt lat="42.87154" lon="0.4802">
        <ele>3700</ele>
        <time>2021-08-08T08:40:19Z</time>
      </trkpt>
      <trkpt lat="42.87152" lon="0.48021">
        <ele>3700</ele>
        <time>2021-08-08T08:40:21Z</time>
      </trkpt>
      <trkpt lat="42.87149" lon="0.48022">
        <ele>3700</ele>
        <time>2021-08-08T08:40:23Z</time>
      </trkpt>
      <trkpt lat="42.87147" lon="0.48023">
        <ele>3700</ele>
        <time>2021-08-08T08:40:25Z</time>
      </trkpt>
      <trkpt lat="42.87144" lon="0.48025">
        <ele>3700</ele>
        <time>2021-08-08T08:40:27Z</time>
      </trkpt>
      <trkpt lat="42.87141" lon="0.48027">
        <ele>3700</ele>
        <time>2021-08-08T08:40:29Z</time>
      </trkpt>
      <trkpt lat="42.87139" lon="0.48029">
        <ele>3700</ele>
        <time>2021-08-08T08:40:31Z</time>
      </trkpt>
      <trkpt lat="42.87137" lon="0.4803">
        <ele>3700</ele>
        <time>2021-08-08T08:40:33Z</time>
      </trkpt>
      <trkpt lat="42.87135" lon="0.48032">
        <ele>3700</ele>
        <time>2021-08-08T08:40:35Z</time>
      </trkpt>
      <trkpt lat="42.87132" lon="0.48034">
        <ele>3700</ele>
        <time>2021-08-08T08:40:37Z</time>
      </trkpt>
      <trkpt lat="42.8713" lon="0.48036">
        <ele>3700</ele>
        <time>2021-08-08T08:40:39Z</time>
      </trkpt>
      <trkpt lat="42.87128" lon="0.48037">
        <ele>3700</ele>
        <time>2021-08-08T08:40:41Z</time>
      </trkpt>
      <trkpt lat="42.87125" lon="0.48039">
        <ele>3700</ele>
        <time>2021-08-08T08:40:43Z</time>
      </trkpt>
      <trkpt lat="42.87123" lon="0.4804">
        <ele>3700</ele>
        <time>2021-08-08T08:40:45Z</time>
      </trkpt>
      <trkpt lat="42.87121" lon="0.48042">
        <ele>3700</ele>
        <time>2021-08-08T08:40:47Z</time>
      </trkpt>
      <trkpt lat="42.87118" lon="0.48043">
        <ele>3700</ele>
        <time>2021-08-08T08:40:49Z</time>
      </trkpt>
      <trkpt lat="42.87115" lon="0.48044">
        <ele>3700</ele>
        <time>2021-08-08T08:40:51Z</time>
      </trkpt>
      <trkpt lat="42.87113" lon="0.48045">
        <ele>3700</ele>
        <time>2021-08-08T08:40:53Z</time>
      </trkpt>
      <trkpt lat="42.8711" lon="0.48046">
        <ele>3700</ele>
        <time>2021-08-08T08:40:55Z</time>
      </trkpt>
      <trkpt lat="42.87108" lon="0.48046">
        <ele>3700</ele>
        <time>2021-08-08T08:40:57Z</time>
      </trkpt>
      <trkpt lat="42.87105" lon="0.48046">
        <ele>3700</ele>
        <time>2021-08-08T08:40:59Z</time>
      </trkpt>
      <trkpt lat="42.87102" lon="0.48045">
        <ele>3700</ele>
        <time>2021-08-08T08:41:01Z</time>
      </trkpt>
      <trkpt lat="42.871" lon="0.48044">
        <ele>3700</ele>
        <time>2021-08-08T08:41:03Z</time>
      </trkpt>
      <trkpt lat="42.87097" lon="0.48043">
        <ele>3700</ele>
        <time>2021-08-08T08:41:05Z</time>
      </trkpt>
      <trkpt lat="42.87095" lon="0.48041">
        <ele>3700</ele>
        <time>2021-08-08T08:41:07Z</time>
      </trkpt>
      <trkpt lat="42.87093" lon="0.48038">
        <ele>3700</ele>
        <time>2021-08-08T08:41:09Z</time>
      </trkpt>
      <trkpt lat="42.87092" lon="0.48035">
        <ele>3700</ele>
        <time>2021-08-08T08:41:11Z</time>
      </trkpt>
      <trkpt lat="42.87091" lon="0.48032">
        <ele>3700</ele>
        <time>2021-08-08T08:41:13Z</time>
      </trkpt>
      <trkpt lat="42.87089" lon="0.48029">
        <ele>3700</ele>
        <time>2021-08-08T08:41:15Z</time>
      </trkpt>
      <trkpt lat="42.87089" lon="0.48026">
        <ele>3700</ele>
        <time>2021-08-08T08:41:17Z</time>
      </trkpt>
      <trkpt lat="42.87089" lon="0.48023">
        <ele>3700</ele>
        <time>2021-08-08T08:41:20Z</time>
      </trkpt>
      <trkpt lat="42.87088" lon="0.4802">
        <ele>3700</ele>
        <time>2021-08-08T08:42:41Z</time>
      </trkpt>
      <trkpt lat="42.87087" lon="0.48017">
        <ele>3700</ele>
        <time>2021-08-08T08:42:43Z</time>
      </trkpt>
      <trkpt lat="42.87085" lon="0.48015">
        <ele>3700</ele>
        <time>2021-08-08T08:42:45Z</time>
      </trkpt>
      <trkpt lat="42.87083" lon="0.48014">
        <ele>3700</ele>
        <time>2021-08-08T08:42:47Z</time>
      </trkpt>
      <trkpt lat="42.8708" lon="0.48012">
        <ele>3700</ele>
        <time>2021-08-08T08:42:49Z</time>
      </trkpt>
      <trkpt lat="42.87078" lon="0.48011">
        <ele>3700</ele>
        <time>2021-08-08T08:42:51Z</time>
      </trkpt>
      <trkpt lat="42.87075" lon="0.48011">
        <ele>3700</ele>
        <time>2021-08-08T08:42:53Z</time>
      </trkpt>
      <trkpt lat="42.87073" lon="0.4801">
        <ele>3700</ele>
        <time>2021-08-08T08:42:55Z</time>
      </trkpt>
      <trkpt lat="42.87071" lon="0.48009">
        <ele>3700</ele>
        <time>2021-08-08T08:42:57Z</time>
      </trkpt>
      <trkpt lat="42.87068" lon="0.48009">
        <ele>3700</ele>
        <time>2021-08-08T08:42:59Z</time>
      </trkpt>
      <trkpt lat="42.87066" lon="0.48008">
        <ele>3700</ele>
        <time>2021-08-08T08:43:01Z</time>
      </trkpt>
      <trkpt lat="42.87063" lon="0.48008">
        <ele>3700</ele>
        <time>2021-08-08T08:43:03Z</time>
      </trkpt>
      <trkpt lat="42.87061" lon="0.48008">
        <ele>3700</ele>
        <time>2021-08-08T08:43:05Z</time>
      </trkpt>
      <trkpt lat="42.87059" lon="0.48008">
        <ele>3700</ele>
        <time>2021-08-08T08:43:07Z</time>
      </trkpt>
      <trkpt lat="42.87056" lon="0.48008">
        <ele>3700</ele>
        <time>2021-08-08T08:43:09Z</time>
      </trkpt>
      <trkpt lat="42.87054" lon="0.48008">
        <ele>3700</ele>
        <time>2021-08-08T08:43:11Z</time>
      </trkpt>
      <trkpt lat="42.87052" lon="0.48008">
        <ele>3700</ele>
        <time>2021-08-08T08:43:13Z</time>
      </trkpt>
      <trkpt lat="42.8705" lon="0.48008">
        <ele>3700</ele>
        <time>2021-08-08T08:43:15Z</time>
      </trkpt>
      <trkpt lat="42.87047" lon="0.48007">
        <ele>3700</ele>
        <time>2021-08-08T08:43:17Z</time>
      </trkpt>
      <trkpt lat="42.87045" lon="0.48007">
        <ele>3700</ele>
        <time>2021-08-08T08:43:19Z</time>
      </trkpt>
      <trkpt lat="42.87042" lon="0.48007">
        <ele>3700</ele>
        <time>2021-08-08T08:43:21Z</time>
      </trkpt>
      <trkpt lat="42.8704" lon="0.48007">
        <ele>3700</ele>
        <time>2021-08-08T08:43:23Z</time>
      </trkpt>
      <trkpt lat="42.87037" lon="0.48006">
        <ele>3700</ele>
        <time>2021-08-08T08:43:25Z</time>
      </trkpt>
      <trkpt lat="42.87034" lon="0.48007">
        <ele>3700</ele>
        <time>2021-08-08T08:43:27Z</time>
      </trkpt>
      <trkpt lat="42.87032" lon="0.48007">
        <ele>3700</ele>
        <time>2021-08-08T08:43:29Z</time>
      </trkpt>
      <trkpt lat="42.87029" lon="0.48008">
        <ele>3700</ele>
        <time>2021-08-08T08:43:31Z</time>
      </trkpt>
      <trkpt lat="42.87026" lon="0.48009">
        <ele>3700</ele>
        <time>2021-08-08T08:43:33Z</time>
      </trkpt>
      <trkpt lat="42.87024" lon="0.48011">
        <ele>3700</ele>
        <time>2021-08-08T08:43:35Z</time>
      </trkpt>
      <trkpt lat="42.87022" lon="0.48013">
        <ele>3700</ele>
        <time>2021-08-08T08:43:37Z</time>
      </trkpt>
      <trkpt lat="42.87019" lon="0.48015">
        <ele>3700</ele>
        <time>2021-08-08T08:43:39Z</time>
      </trkpt>
      <trkpt lat="42.87017" lon="0.48018">
        <ele>3700</ele>
        <time>2021-08-08T08:43:41Z</time>
      </trkpt>
      <trkpt lat="42.87015" lon="0.4802">
        <ele>3700</ele>
        <time>2021-08-08T08:43:43Z</time>
      </trkpt>
      <trkpt lat="42.87013" lon="0.48022">
        <ele>3700</ele>
        <time>2021-08-08T08:43:45Z</time>
      </trkpt>
      <trkpt lat="42.8701" lon="0.48024">
        <ele>3700</ele>
        <time>2021-08-08T08:43:47Z</time>
      </trkpt>
      <trkpt lat="42.87008" lon="0.48026">
        <ele>3700</ele>
        <time>2021-08-08T08:43:49Z</time>
      </trkpt>
      <trkpt lat="42.87005" lon="0.48028">
        <ele>3700</ele>
        <time>2021-08-08T08:43:51Z</time>
      </trkpt>
      <trkpt lat="42.87003" lon="0.48029">
        <ele>3700</ele>
        <time>2021-08-08T08:43:53Z</time>
      </trkpt>
      <trkpt lat="42.87" lon="0.48029">
        <ele>3700</ele>
        <time>2021-08-08T08:43:55Z</time>
      </trkpt>
      <trkpt lat="42.86997" lon="0.4803">
        <ele>3700</ele>
        <time>2021-08-08T08:43:57Z</time>
      </trkpt>
      <trkpt lat="42.86994" lon="0.48029">
        <ele>3700</ele>
        <time>2021-08-08T08:43:59Z</time>
      </trkpt>
      <trkpt lat="42.86991" lon="0.48028">
        <ele>3700</ele>
        <time>2021-08-08T08:44:01Z</time>
      </trkpt>
      <trkpt lat="42.86989" lon="0.48027">
        <ele>3700</ele>
        <time>2021-08-08T08:44:03Z</time>
      </trkpt>
      <trkpt lat="42.86986" lon="0.48026">
        <ele>3700</ele>
        <time>2021-08-08T08:44:05Z</time>
      </trkpt>
      <trkpt lat="42.86983" lon="0.48023">
        <ele>3700</ele>
        <time>2021-08-08T08:44:07Z</time>
      </trkpt>
      <trkpt lat="42.86981" lon="0.48021">
        <ele>3700</ele>
        <time>2021-08-08T08:44:09Z</time>
      </trkpt>
      <trkpt lat="42.86979" lon="0.48018">
        <ele>3700</ele>
        <time>2021-08-08T08:44:11Z</time>
      </trkpt>
      <trkpt lat="42.86977" lon="0.48015">
        <ele>3700</ele>
        <time>2021-08-08T08:44:13Z</time>
      </trkpt>
      <trkpt lat="42.86976" lon="0.48012">
        <ele>3700</ele>
        <time>2021-08-08T08:44:15Z</time>
      </trkpt>
      <trkpt lat="42.86974" lon="0.4801">
        <ele>3700</ele>
        <time>2021-08-08T08:44:17Z</time>
      </trkpt>
      <trkpt lat="42.86972" lon="0.48007">
        <ele>3700</ele>
        <time>2021-08-08T08:44:19Z</time>
      </trkpt>
      <trkpt lat="42.86971" lon="0.48004">
        <ele>3700</ele>
        <time>2021-08-08T08:44:21Z</time>
      </trkpt>
      <trkpt lat="42.86969" lon="0.48001">
        <ele>3700</ele>
        <time>2021-08-08T08:44:23Z</time>
      </trkpt>
      <trkpt lat="42.86967" lon="0.47998">
        <ele>3700</ele>
        <time>2021-08-08T08:44:25Z</time>
      </trkpt>
      <trkpt lat="42.86965" lon="0.47995">
        <ele>3700</ele>
        <time>2021-08-08T08:44:27Z</time>
      </trkpt>
      <trkpt lat="42.86964" lon="0.47992">
        <ele>3700</ele>
        <time>2021-08-08T08:44:29Z</time>
      </trkpt>
      <trkpt lat="42.86962" lon="0.47989">
        <ele>3700</ele>
        <time>2021-08-08T08:44:31Z</time>
      </trkpt>
      <trkpt lat="42.8696" lon="0.47986">
        <ele>3700</ele>
        <time>2021-08-08T08:44:33Z</time>
      </trkpt>
      <trkpt lat="42.86958" lon="0.47983">
        <ele>3700</ele>
        <time>2021-08-08T08:44:35Z</time>
      </trkpt>
      <trkpt lat="42.86957" lon="0.4798">
        <ele>3700</ele>
        <time>2021-08-08T08:44:37Z</time>
      </trkpt>
      <trkpt lat="42.86955" lon="0.47977">
        <ele>3700</ele>
        <time>2021-08-08T08:44:39Z</time>
      </trkpt>
      <trkpt lat="42.86953" lon="0.47974">
        <ele>3700</ele>
        <time>2021-08-08T08:44:41Z</time>
      </trkpt>
      <trkpt lat="42.86951" lon="0.47971">
        <ele>3700</ele>
        <time>2021-08-08T08:44:43Z</time>
      </trkpt>
      <trkpt lat="42.8695" lon="0.47967">
        <ele>3700</ele>
        <time>2021-08-08T08:44:45Z</time>
      </trkpt>
      <trkpt lat="42.86949" lon="0.47963">
        <ele>3700</ele>
        <time>2021-08-08T08:44:47Z</time>
      </trkpt>
      <trkpt lat="42.86948" lon="0.4796">
        <ele>3700</ele>
        <time>2021-08-08T08:44:49Z</time>
      </trkpt>
      <trkpt lat="42.86947" lon="0.47956">
        <ele>3700</ele>
        <time>2021-08-08T08:44:51Z</time>
      </trkpt>
      <trkpt lat="42.86946" lon="0.47952">
        <ele>3700</ele>
        <time>2021-08-08T08:44:53Z</time>
      </trkpt>
      <trkpt lat="42.86946" lon="0.47949">
        <ele>3700</ele>
        <time>2021-08-08T08:44:55Z</time>
      </trkpt>
      <trkpt lat="42.86945" lon="0.47945">
        <ele>3700</ele>
        <time>2021-08-08T08:44:57Z</time>
      </trkpt>
      <trkpt lat="42.86944" lon="0.47942">
        <ele>3700</ele>
        <time>2021-08-08T08:44:59Z</time>
      </trkpt>
      <trkpt lat="42.86943" lon="0.47938">
        <ele>3700</ele>
        <time>2021-08-08T08:45:01Z</time>
      </trkpt>
      <trkpt lat="42.86942" lon="0.47935">
        <ele>3700</ele>
        <time>2021-08-08T08:45:03Z</time>
      </trkpt>
      <trkpt lat="42.86941" lon="0.47931">
        <ele>3700</ele>
        <time>2021-08-08T08:45:05Z</time>
      </trkpt>
      <trkpt lat="42.8694" lon="0.47928">
        <ele>3700</ele>
        <time>2021-08-08T08:45:07Z</time>
      </trkpt>
      <trkpt lat="42.86939" lon="0.47924">
        <ele>3700</ele>
        <time>2021-08-08T08:45:09Z</time>
      </trkpt>
      <trkpt lat="42.86938" lon="0.47921">
        <ele>3700</ele>
        <time>2021-08-08T08:45:11Z</time>
      </trkpt>
      <trkpt lat="42.86938" lon="0.47917">
        <ele>3700</ele>
        <time>2021-08-08T08:45:13Z</time>
      </trkpt>
      <trkpt lat="42.86937" lon="0.47914">
        <ele>3700</ele>
        <time>2021-08-08T08:45:15Z</time>
      </trkpt>
      <trkpt lat="42.86936" lon="0.4791">
        <ele>3700</ele>
        <time>2021-08-08T08:45:17Z</time>
      </trkpt>
      <trkpt lat="42.86935" lon="0.47906">
        <ele>3700</ele>
        <time>2021-08-08T08:45:19Z</time>
      </trkpt>
      <trkpt lat="42.86934" lon="0.47903">
        <ele>3700</ele>
        <time>2021-08-08T08:45:21Z</time>
      </trkpt>
      <trkpt lat="42.86933" lon="0.47899">
        <ele>3700</ele>
        <time>2021-08-08T08:45:23Z</time>
      </trkpt>
      <trkpt lat="42.86932" lon="0.47896">
        <ele>3700</ele>
        <time>2021-08-08T08:45:25Z</time>
      </trkpt>
      <trkpt lat="42.86932" lon="0.47893">
        <ele>3700</ele>
        <time>2021-08-08T08:45:27Z</time>
      </trkpt>
      <trkpt lat="42.86931" lon="0.47889">
        <ele>3700</ele>
        <time>2021-08-08T08:45:29Z</time>
      </trkpt>
      <trkpt lat="42.8693" lon="0.47886">
        <ele>3700</ele>
        <time>2021-08-08T08:45:31Z</time>
      </trkpt>
      <trkpt lat="42.86929" lon="0.47883">
        <ele>3700</ele>
        <time>2021-08-08T08:45:33Z</time>
      </trkpt>
      <trkpt lat="42.86927" lon="0.47879">
        <ele>3700</ele>
        <time>2021-08-08T08:45:35Z</time>
      </trkpt>
      <trkpt lat="42.86926" lon="0.47876">
        <ele>3700</ele>
        <time>2021-08-08T08:45:37Z</time>
      </trkpt>
      <trkpt lat="42.86925" lon="0.47873">
        <ele>3700</ele>
        <time>2021-08-08T08:45:39Z</time>
      </trkpt>
      <trkpt lat="42.86924" lon="0.47869">
        <ele>3700</ele>
        <time>2021-08-08T08:45:41Z</time>
      </trkpt>
      <trkpt lat="42.86923" lon="0.47866">
        <ele>3700</ele>
        <time>2021-08-08T08:45:43Z</time>
      </trkpt>
      <trkpt lat="42.86923" lon="0.47863">
        <ele>3700</ele>
        <time>2021-08-08T08:45:45Z</time>
      </trkpt>
      <trkpt lat="42.86922" lon="0.47859">
        <ele>3700</ele>
        <time>2021-08-08T08:45:47Z</time>
      </trkpt>
      <trkpt lat="42.86921" lon="0.47856">
        <ele>3700</ele>
        <time>2021-08-08T08:45:49Z</time>
      </trkpt>
      <trkpt lat="42.86919" lon="0.47853">
        <ele>3700</ele>
        <time>2021-08-08T08:45:51Z</time>
      </trkpt>
      <trkpt lat="42.86918" lon="0.47849">
        <ele>3700</ele>
        <time>2021-08-08T08:45:53Z</time>
      </trkpt>
      <trkpt lat="42.86918" lon="0.47846">
        <ele>3700</ele>
        <time>2021-08-08T08:45:55Z</time>
      </trkpt>
      <trkpt lat="42.86917" lon="0.47842">
        <ele>3700</ele>
        <time>2021-08-08T08:45:57Z</time>
      </trkpt>
      <trkpt lat="42.86917" lon="0.47839">
        <ele>3700</ele>
        <time>2021-08-08T08:45:59Z</time>
      </trkpt>
      <trkpt lat="42.86916" lon="0.47835">
        <ele>3700</ele>
        <time>2021-08-08T08:46:01Z</time>
      </trkpt>
      <trkpt lat="42.86916" lon="0.47831">
        <ele>3700</ele>
        <time>2021-08-08T08:46:03Z</time>
      </trkpt>
      <trkpt lat="42.86915" lon="0.47827">
        <ele>3700</ele>
        <time>2021-08-08T08:46:05Z</time>
      </trkpt>
      <trkpt lat="42.86915" lon="0.47824">
        <ele>3700</ele>
        <time>2021-08-08T08:46:07Z</time>
      </trkpt>
      <trkpt lat="42.86914" lon="0.4782">
        <ele>3700</ele>
        <time>2021-08-08T08:46:09Z</time>
      </trkpt>
      <trkpt lat="42.86914" lon="0.47817">
        <ele>3700</ele>
        <time>2021-08-08T08:46:11Z</time>
      </trkpt>
      <trkpt lat="42.86914" lon="0.47813">
        <ele>3700</ele>
        <time>2021-08-08T08:46:13Z</time>
      </trkpt>
      <trkpt lat="42.86914" lon="0.47809">
        <ele>3700</ele>
        <time>2021-08-08T08:46:15Z</time>
      </trkpt>
      <trkpt lat="42.86913" lon="0.47805">
        <ele>3700</ele>
        <time>2021-08-08T08:46:17Z</time>
      </trkpt>
      <trkpt lat="42.86913" lon="0.47802">
        <ele>3700</ele>
        <time>2021-08-08T08:46:19Z</time>
      </trkpt>
      <trkpt lat="42.86913" lon="0.47798">
        <ele>3700</ele>
        <time>2021-08-08T08:46:21Z</time>
      </trkpt>
      <trkpt lat="42.86912" lon="0.47795">
        <ele>3700</ele>
        <time>2021-08-08T08:46:23Z</time>
      </trkpt>
      <trkpt lat="42.86912" lon="0.47791">
        <ele>3700</ele>
        <time>2021-08-08T08:46:25Z</time>
      </trkpt>
      <trkpt lat="42.86912" lon="0.47787">
        <ele>3700</ele>
        <time>2021-08-08T08:46:27Z</time>
      </trkpt>
      <trkpt lat="42.86912" lon="0.47784">
        <ele>3700</ele>
        <time>2021-08-08T08:46:29Z</time>
      </trkpt>
      <trkpt lat="42.86911" lon="0.4778">
        <ele>3700</ele>
        <time>2021-08-08T08:46:31Z</time>
      </trkpt>
      <trkpt lat="42.86911" lon="0.47776">
        <ele>3700</ele>
        <time>2021-08-08T08:46:33Z</time>
      </trkpt>
      <trkpt lat="42.86911" lon="0.47773">
        <ele>3700</ele>
        <time>2021-08-08T08:46:35Z</time>
      </trkpt>
      <trkpt lat="42.86911" lon="0.47769">
        <ele>3700</ele>
        <time>2021-08-08T08:46:37Z</time>
      </trkpt>
      <trkpt lat="42.8691" lon="0.47765">
        <ele>3700</ele>
        <time>2021-08-08T08:46:39Z</time>
      </trkpt>
      <trkpt lat="42.8691" lon="0.47761">
        <ele>3700</ele>
        <time>2021-08-08T08:46:41Z</time>
      </trkpt>
      <trkpt lat="42.8691" lon="0.47757">
        <ele>3700</ele>
        <time>2021-08-08T08:46:43Z</time>
      </trkpt>
      <trkpt lat="42.8691" lon="0.47753">
        <ele>3700</ele>
        <time>2021-08-08T08:46:45Z</time>
      </trkpt>
      <trkpt lat="42.8691" lon="0.47749">
        <ele>3700</ele>
        <time>2021-08-08T08:46:47Z</time>
      </trkpt>
      <trkpt lat="42.8691" lon="0.47745">
        <ele>3700</ele>
        <time>2021-08-08T08:46:49Z</time>
      </trkpt>
      <trkpt lat="42.86911" lon="0.47742">
        <ele>3700</ele>
        <time>2021-08-08T08:46:51Z</time>
      </trkpt>
      <trkpt lat="42.86911" lon="0.47738">
        <ele>3700</ele>
        <time>2021-08-08T08:46:53Z</time>
      </trkpt>
      <trkpt lat="42.86911" lon="0.47734">
        <ele>3700</ele>
        <time>2021-08-08T08:46:55Z</time>
      </trkpt>
      <trkpt lat="42.86912" lon="0.4773">
        <ele>3700</ele>
        <time>2021-08-08T08:46:57Z</time>
      </trkpt>
      <trkpt lat="42.86912" lon="0.47726">
        <ele>3700</ele>
        <time>2021-08-08T08:46:59Z</time>
      </trkpt>
      <trkpt lat="42.86912" lon="0.47723">
        <ele>3700</ele>
        <time>2021-08-08T08:47:01Z</time>
      </trkpt>
      <trkpt lat="42.86912" lon="0.47718">
        <ele>3700</ele>
        <time>2021-08-08T08:47:03Z</time>
      </trkpt>
      <trkpt lat="42.86912" lon="0.47714">
        <ele>3700</ele>
        <time>2021-08-08T08:47:05Z</time>
      </trkpt>
      <trkpt lat="42.86913" lon="0.47711">
        <ele>3700</ele>
        <time>2021-08-08T08:47:07Z</time>
      </trkpt>
      <trkpt lat="42.86913" lon="0.47707">
        <ele>3700</ele>
        <time>2021-08-08T08:47:09Z</time>
      </trkpt>
      <trkpt lat="42.86913" lon="0.47703">
        <ele>3700</ele>
        <time>2021-08-08T08:47:11Z</time>
      </trkpt>
      <trkpt lat="42.86913" lon="0.477">
        <ele>3700</ele>
        <time>2021-08-08T08:47:13Z</time>
      </trkpt>
      <trkpt lat="42.86913" lon="0.47696">
        <ele>3700</ele>
        <time>2021-08-08T08:47:15Z</time>
      </trkpt>
      <trkpt lat="42.86914" lon="0.47693">
        <ele>3700</ele>
        <time>2021-08-08T08:47:17Z</time>
      </trkpt>
      <trkpt lat="42.86913" lon="0.47689">
        <ele>3700</ele>
        <time>2021-08-08T08:47:19Z</time>
      </trkpt>
      <trkpt lat="42.86913" lon="0.47685">
        <ele>3700</ele>
        <time>2021-08-08T08:47:21Z</time>
      </trkpt>
      <trkpt lat="42.86913" lon="0.47682">
        <ele>3700</ele>
        <time>2021-08-08T08:47:23Z</time>
      </trkpt>
      <trkpt lat="42.86913" lon="0.47678">
        <ele>3700</ele>
        <time>2021-08-08T08:47:25Z</time>
      </trkpt>
      <trkpt lat="42.86913" lon="0.47674">
        <ele>3700</ele>
        <time>2021-08-08T08:47:27Z</time>
      </trkpt>
      <trkpt lat="42.86913" lon="0.47671">
        <ele>3700</ele>
        <time>2021-08-08T08:47:29Z</time>
      </trkpt>
      <trkpt lat="42.86913" lon="0.47667">
        <ele>3700</ele>
        <time>2021-08-08T08:47:31Z</time>
      </trkpt>
      <trkpt lat="42.86913" lon="0.47664">
        <ele>3700</ele>
        <time>2021-08-08T08:47:33Z</time>
      </trkpt>
      <trkpt lat="42.86914" lon="0.4766">
        <ele>3700</ele>
        <time>2021-08-08T08:47:35Z</time>
      </trkpt>
      <trkpt lat="42.86914" lon="0.47656">
        <ele>3700</ele>
        <time>2021-08-08T08:47:37Z</time>
      </trkpt>
      <trkpt lat="42.86915" lon="0.47653">
        <ele>3700</ele>
        <time>2021-08-08T08:47:39Z</time>
      </trkpt>
      <trkpt lat="42.86916" lon="0.4765">
        <ele>3700</ele>
        <time>2021-08-08T08:47:41Z</time>
      </trkpt>
      <trkpt lat="42.86918" lon="0.47646">
        <ele>3700</ele>
        <time>2021-08-08T08:47:43Z</time>
      </trkpt>
      <trkpt lat="42.86919" lon="0.47643">
        <ele>3700</ele>
        <time>2021-08-08T08:47:45Z</time>
      </trkpt>
      <trkpt lat="42.86921" lon="0.4764">
        <ele>3700</ele>
        <time>2021-08-08T08:47:47Z</time>
      </trkpt>
      <trkpt lat="42.86923" lon="0.47637">
        <ele>3700</ele>
        <time>2021-08-08T08:47:49Z</time>
      </trkpt>
      <trkpt lat="42.86926" lon="0.47635">
        <ele>3700</ele>
        <time>2021-08-08T08:47:51Z</time>
      </trkpt>
      <trkpt lat="42.86928" lon="0.47633">
        <ele>3700</ele>
        <time>2021-08-08T08:47:53Z</time>
      </trkpt>
      <trkpt lat="42.86931" lon="0.47631">
        <ele>3700</ele>
        <time>2021-08-08T08:47:55Z</time>
      </trkpt>
      <trkpt lat="42.86933" lon="0.4763">
        <ele>3700</ele>
        <time>2021-08-08T08:47:57Z</time>
      </trkpt>
      <trkpt lat="42.86936" lon="0.47628">
        <ele>3700</ele>
        <time>2021-08-08T08:47:59Z</time>
      </trkpt>
      <trkpt lat="42.86938" lon="0.47626">
        <ele>3700</ele>
        <time>2021-08-08T08:48:01Z</time>
      </trkpt>
      <trkpt lat="42.86941" lon="0.47624">
        <ele>3700</ele>
        <time>2021-08-08T08:48:03Z</time>
      </trkpt>
      <trkpt lat="42.86944" lon="0.47622">
        <ele>3700</ele>
        <time>2021-08-08T08:48:05Z</time>
      </trkpt>
      <trkpt lat="42.86946" lon="0.47621">
        <ele>3700</ele>
        <time>2021-08-08T08:48:07Z</time>
      </trkpt>
      <trkpt lat="42.86949" lon="0.47619">
        <ele>3700</ele>
        <time>2021-08-08T08:48:09Z</time>
      </trkpt>
      <trkpt lat="42.86951" lon="0.47617">
        <ele>3700</ele>
        <time>2021-08-08T08:48:11Z</time>
      </trkpt>
      <trkpt lat="42.86954" lon="0.47615">
        <ele>3700</ele>
        <time>2021-08-08T08:48:13Z</time>
      </trkpt>
      <trkpt lat="42.86956" lon="0.47614">
        <ele>3700</ele>
        <time>2021-08-08T08:48:15Z</time>
      </trkpt>
      <trkpt lat="42.86958" lon="0.47615">
        <ele>3700</ele>
        <time>2021-08-08T08:48:17Z</time>
      </trkpt>
      <trkpt lat="42.86958" lon="0.47619">
        <ele>3700</ele>
        <time>2021-08-08T08:48:22Z</time>
      </trkpt>
      <trkpt lat="42.86959" lon="0.47621">
        <ele>3700</ele>
        <time>2021-08-08T08:48:30Z</time>
      </trkpt>
      <trkpt lat="42.8696" lon="0.47617">
        <ele>3700</ele>
        <time>2021-08-08T08:49:07Z</time>
      </trkpt>
      <trkpt lat="42.86961" lon="0.47614">
        <ele>3700</ele>
        <time>2021-08-08T08:49:09Z</time>
      </trkpt>
      <trkpt lat="42.86962" lon="0.4761">
        <ele>3700</ele>
        <time>2021-08-08T08:49:11Z</time>
      </trkpt>
      <trkpt lat="42.86964" lon="0.47606">
        <ele>3700</ele>
        <time>2021-08-08T08:49:13Z</time>
      </trkpt>
      <trkpt lat="42.86965" lon="0.47602">
        <ele>3700</ele>
        <time>2021-08-08T08:49:15Z</time>
      </trkpt>
      <trkpt lat="42.86966" lon="0.47598">
        <ele>3700</ele>
        <time>2021-08-08T08:49:17Z</time>
      </trkpt>
      <trkpt lat="42.86966" lon="0.47594">
        <ele>3700</ele>
        <time>2021-08-08T08:49:19Z</time>
      </trkpt>
      <trkpt lat="42.86967" lon="0.4759">
        <ele>3700</ele>
        <time>2021-08-08T08:49:21Z</time>
      </trkpt>
      <trkpt lat="42.86967" lon="0.47586">
        <ele>3700</ele>
        <time>2021-08-08T08:49:23Z</time>
      </trkpt>
      <trkpt lat="42.86968" lon="0.47582">
        <ele>3700</ele>
        <time>2021-08-08T08:49:25Z</time>
      </trkpt>
      <trkpt lat="42.86968" lon="0.47577">
        <ele>3700</ele>
        <time>2021-08-08T08:49:27Z</time>
      </trkpt>
      <trkpt lat="42.86968" lon="0.47573">
        <ele>3700</ele>
        <time>2021-08-08T08:49:29Z</time>
      </trkpt>
      <trkpt lat="42.86968" lon="0.47569">
        <ele>3700</ele>
        <time>2021-08-08T08:49:31Z</time>
      </trkpt>
      <trkpt lat="42.86968" lon="0.47565">
        <ele>3700</ele>
        <time>2021-08-08T08:49:33Z</time>
      </trkpt>
      <trkpt lat="42.86967" lon="0.47561">
        <ele>3700</ele>
        <time>2021-08-08T08:49:35Z</time>
      </trkpt>
      <trkpt lat="42.86967" lon="0.47557">
        <ele>3700</ele>
        <time>2021-08-08T08:49:37Z</time>
      </trkpt>
      <trkpt lat="42.86966" lon="0.47553">
        <ele>3700</ele>
        <time>2021-08-08T08:49:39Z</time>
      </trkpt>
      <trkpt lat="42.86965" lon="0.47549">
        <ele>3700</ele>
        <time>2021-08-08T08:49:41Z</time>
      </trkpt>
      <trkpt lat="42.86965" lon="0.47545">
        <ele>3700</ele>
        <time>2021-08-08T08:49:43Z</time>
      </trkpt>
      <trkpt lat="42.86964" lon="0.47541">
        <ele>3700</ele>
        <time>2021-08-08T08:49:45Z</time>
      </trkpt>
      <trkpt lat="42.86964" lon="0.47537">
        <ele>3700</ele>
        <time>2021-08-08T08:49:47Z</time>
      </trkpt>
      <trkpt lat="42.86963" lon="0.47533">
        <ele>3700</ele>
        <time>2021-08-08T08:49:49Z</time>
      </trkpt>
      <trkpt lat="42.86963" lon="0.47529">
        <ele>3700</ele>
        <time>2021-08-08T08:49:51Z</time>
      </trkpt>
      <trkpt lat="42.86963" lon="0.47526">
        <ele>3700</ele>
        <time>2021-08-08T08:49:53Z</time>
      </trkpt>
      <trkpt lat="42.86962" lon="0.47522">
        <ele>3700</ele>
        <time>2021-08-08T08:49:55Z</time>
      </trkpt>
      <trkpt lat="42.86962" lon="0.47518">
        <ele>3700</ele>
        <time>2021-08-08T08:49:57Z</time>
      </trkpt>
      <trkpt lat="42.86963" lon="0.47515">
        <ele>3700</ele>
        <time>2021-08-08T08:50:00Z</time>
      </trkpt>
      <trkpt lat="42.86963" lon="0.47512">
        <ele>3700</ele>
        <time>2021-08-08T08:50:02Z</time>
      </trkpt>
      <trkpt lat="42.86962" lon="0.47509">
        <ele>3700</ele>
        <time>2021-08-08T08:50:09Z</time>
      </trkpt>
      <trkpt lat="42.86963" lon="0.47505">
        <ele>3700</ele>
        <time>2021-08-08T08:50:13Z</time>
      </trkpt>
      <trkpt lat="42.86963" lon="0.47502">
        <ele>3700</ele>
        <time>2021-08-08T08:50:15Z</time>
      </trkpt>
      <trkpt lat="42.86964" lon="0.47498">
        <ele>3700</ele>
        <time>2021-08-08T08:50:17Z</time>
      </trkpt>
      <trkpt lat="42.86964" lon="0.47494">
        <ele>3700</ele>
        <time>2021-08-08T08:50:19Z</time>
      </trkpt>
      <trkpt lat="42.86965" lon="0.4749">
        <ele>3700</ele>
        <time>2021-08-08T08:50:21Z</time>
      </trkpt>
      <trkpt lat="42.86965" lon="0.47486">
        <ele>3700</ele>
        <time>2021-08-08T08:50:23Z</time>
      </trkpt>
      <trkpt lat="42.86966" lon="0.47483">
        <ele>3700</ele>
        <time>2021-08-08T08:50:25Z</time>
      </trkpt>
      <trkpt lat="42.86967" lon="0.47479">
        <ele>3700</ele>
        <time>2021-08-08T08:50:27Z</time>
      </trkpt>
      <trkpt lat="42.86967" lon="0.47475">
        <ele>3700</ele>
        <time>2021-08-08T08:50:29Z</time>
      </trkpt>
      <trkpt lat="42.86968" lon="0.47471">
        <ele>3700</ele>
        <time>2021-08-08T08:50:31Z</time>
      </trkpt>
      <trkpt lat="42.86969" lon="0.47468">
        <ele>3700</ele>
        <time>2021-08-08T08:50:33Z</time>
      </trkpt>
      <trkpt lat="42.86969" lon="0.47464">
        <ele>3700</ele>
        <time>2021-08-08T08:50:35Z</time>
      </trkpt>
      <trkpt lat="42.8697" lon="0.47461">
        <ele>3700</ele>
        <time>2021-08-08T08:50:37Z</time>
      </trkpt>
      <trkpt lat="42.8697" lon="0.47457">
        <ele>3700</ele>
        <time>2021-08-08T08:50:39Z</time>
      </trkpt>
      <trkpt lat="42.86971" lon="0.47453">
        <ele>3700</ele>
        <time>2021-08-08T08:50:41Z</time>
      </trkpt>
      <trkpt lat="42.86971" lon="0.47449">
        <ele>3700</ele>
        <time>2021-08-08T08:50:43Z</time>
      </trkpt>
      <trkpt lat="42.86972" lon="0.47445">
        <ele>3700</ele>
        <time>2021-08-08T08:50:45Z</time>
      </trkpt>
      <trkpt lat="42.86973" lon="0.47442">
        <ele>3700</ele>
        <time>2021-08-08T08:50:47Z</time>
      </trkpt>
      <trkpt lat="42.86974" lon="0.47438">
        <ele>3700</ele>
        <time>2021-08-08T08:50:49Z</time>
      </trkpt>
      <trkpt lat="42.86975" lon="0.47435">
        <ele>3700</ele>
        <time>2021-08-08T08:50:52Z</time>
      </trkpt>
      <trkpt lat="42.86976" lon="0.47432">
        <ele>3732</ele>
        <time>2021-08-08T08:50:54Z</time>
      </trkpt>
      <trkpt lat="42.86977" lon="0.47429">
        <ele>3732</ele>
        <time>2021-08-08T08:50:56Z</time>
      </trkpt>
      <trkpt lat="42.86979" lon="0.47426">
        <ele>3732</ele>
        <time>2021-08-08T08:50:58Z</time>
      </trkpt>
      <trkpt lat="42.8698" lon="0.47423">
        <ele>3732</ele>
        <time>2021-08-08T08:51:00Z</time>
      </trkpt>
      <trkpt lat="42.86981" lon="0.4742">
        <ele>3732</ele>
        <time>2021-08-08T08:51:02Z</time>
      </trkpt>
      <trkpt lat="42.86982" lon="0.47416">
        <ele>3732</ele>
        <time>2021-08-08T08:51:04Z</time>
      </trkpt>
      <trkpt lat="42.86983" lon="0.47413">
        <ele>3732</ele>
        <time>2021-08-08T08:51:06Z</time>
      </trkpt>
      <trkpt lat="42.86984" lon="0.4741">
        <ele>3732</ele>
        <time>2021-08-08T08:51:08Z</time>
      </trkpt>
      <trkpt lat="42.86984" lon="0.47406">
        <ele>3732</ele>
        <time>2021-08-08T08:51:10Z</time>
      </trkpt>
      <trkpt lat="42.86985" lon="0.47403">
        <ele>3732</ele>
        <time>2021-08-08T08:51:12Z</time>
      </trkpt>
      <trkpt lat="42.86985" lon="0.47399">
        <ele>3732</ele>
        <time>2021-08-08T08:51:14Z</time>
      </trkpt>
      <trkpt lat="42.86986" lon="0.47396">
        <ele>3732</ele>
        <time>2021-08-08T08:51:16Z</time>
      </trkpt>
      <trkpt lat="42.86986" lon="0.47392">
        <ele>3732</ele>
        <time>2021-08-08T08:51:18Z</time>
      </trkpt>
      <trkpt lat="42.86987" lon="0.47389">
        <ele>3732</ele>
        <time>2021-08-08T08:51:20Z</time>
      </trkpt>
      <trkpt lat="42.86987" lon="0.47385">
        <ele>3732</ele>
        <time>2021-08-08T08:51:22Z</time>
      </trkpt>
      <trkpt lat="42.86987" lon="0.47381">
        <ele>3732</ele>
        <time>2021-08-08T08:51:24Z</time>
      </trkpt>
      <trkpt lat="42.86988" lon="0.47378">
        <ele>3732</ele>
        <time>2021-08-08T08:51:26Z</time>
      </trkpt>
      <trkpt lat="42.86988" lon="0.47374">
        <ele>3732</ele>
        <time>2021-08-08T08:51:28Z</time>
      </trkpt>
      <trkpt lat="42.86987" lon="0.4737">
        <ele>3732</ele>
        <time>2021-08-08T08:51:30Z</time>
      </trkpt>
      <trkpt lat="42.86987" lon="0.47366">
        <ele>3732</ele>
        <time>2021-08-08T08:51:32Z</time>
      </trkpt>
      <trkpt lat="42.86987" lon="0.47362">
        <ele>3732</ele>
        <time>2021-08-08T08:51:34Z</time>
      </trkpt>
      <trkpt lat="42.86986" lon="0.47359">
        <ele>3732</ele>
        <time>2021-08-08T08:51:36Z</time>
      </trkpt>
      <trkpt lat="42.86986" lon="0.47355">
        <ele>3732</ele>
        <time>2021-08-08T08:51:38Z</time>
      </trkpt>
      <trkpt lat="42.86986" lon="0.47352">
        <ele>3732</ele>
        <time>2021-08-08T08:51:40Z</time>
      </trkpt>
      <trkpt lat="42.86985" lon="0.47348">
        <ele>3732</ele>
        <time>2021-08-08T08:51:42Z</time>
      </trkpt>
      <trkpt lat="42.86985" lon="0.47344">
        <ele>3732</ele>
        <time>2021-08-08T08:51:44Z</time>
      </trkpt>
      <trkpt lat="42.86985" lon="0.4734">
        <ele>3732</ele>
        <time>2021-08-08T08:51:46Z</time>
      </trkpt>
      <trkpt lat="42.86985" lon="0.47337">
        <ele>3732</ele>
        <time>2021-08-08T08:51:48Z</time>
      </trkpt>
      <trkpt lat="42.86985" lon="0.47333">
        <ele>3732</ele>
        <time>2021-08-08T08:51:50Z</time>
      </trkpt>
      <trkpt lat="42.86984" lon="0.47329">
        <ele>3732</ele>
        <time>2021-08-08T08:51:52Z</time>
      </trkpt>
      <trkpt lat="42.86984" lon="0.47326">
        <ele>3731</ele>
        <time>2021-08-08T08:51:54Z</time>
      </trkpt>
      <trkpt lat="42.86984" lon="0.47322">
        <ele>3731</ele>
        <time>2021-08-08T08:51:56Z</time>
      </trkpt>
      <trkpt lat="42.86983" lon="0.47318">
        <ele>3731</ele>
        <time>2021-08-08T08:51:58Z</time>
      </trkpt>
      <trkpt lat="42.86983" lon="0.47315">
        <ele>3731</ele>
        <time>2021-08-08T08:52:00Z</time>
      </trkpt>
      <trkpt lat="42.86983" lon="0.47311">
        <ele>3731</ele>
        <time>2021-08-08T08:52:02Z</time>
      </trkpt>
      <trkpt lat="42.86982" lon="0.47308">
        <ele>3731</ele>
        <time>2021-08-08T08:52:04Z</time>
      </trkpt>
      <trkpt lat="42.86981" lon="0.47304">
        <ele>3731</ele>
        <time>2021-08-08T08:52:06Z</time>
      </trkpt>
      <trkpt lat="42.8698" lon="0.47301">
        <ele>3731</ele>
        <time>2021-08-08T08:52:08Z</time>
      </trkpt>
      <trkpt lat="42.86978" lon="0.47298">
        <ele>3731</ele>
        <time>2021-08-08T08:52:10Z</time>
      </trkpt>
      <trkpt lat="42.86977" lon="0.47295">
        <ele>3731</ele>
        <time>2021-08-08T08:52:12Z</time>
      </trkpt>
      <trkpt lat="42.86976" lon="0.47292">
        <ele>3731</ele>
        <time>2021-08-08T08:52:14Z</time>
      </trkpt>
      <trkpt lat="42.86974" lon="0.47289">
        <ele>3731</ele>
        <time>2021-08-08T08:52:16Z</time>
      </trkpt>
      <trkpt lat="42.86973" lon="0.47287">
        <ele>3731</ele>
        <time>2021-08-08T08:52:18Z</time>
      </trkpt>
      <trkpt lat="42.86971" lon="0.47284">
        <ele>3731</ele>
        <time>2021-08-08T08:52:20Z</time>
      </trkpt>
      <trkpt lat="42.86969" lon="0.47282">
        <ele>3731</ele>
        <time>2021-08-08T08:52:22Z</time>
      </trkpt>
      <trkpt lat="42.86967" lon="0.4728">
        <ele>3732</ele>
        <time>2021-08-08T08:52:24Z</time>
      </trkpt>
      <trkpt lat="42.86964" lon="0.47278">
        <ele>3732</ele>
        <time>2021-08-08T08:52:26Z</time>
      </trkpt>
      <trkpt lat="42.86961" lon="0.47277">
        <ele>3732</ele>
        <time>2021-08-08T08:52:28Z</time>
      </trkpt>
      <trkpt lat="42.86959" lon="0.47276">
        <ele>3732</ele>
        <time>2021-08-08T08:52:30Z</time>
      </trkpt>
      <trkpt lat="42.86956" lon="0.47276">
        <ele>3732</ele>
        <time>2021-08-08T08:52:32Z</time>
      </trkpt>
      <trkpt lat="42.86953" lon="0.47275">
        <ele>3732</ele>
        <time>2021-08-08T08:52:34Z</time>
      </trkpt>
      <trkpt lat="42.86951" lon="0.47275">
        <ele>3732</ele>
        <time>2021-08-08T08:52:36Z</time>
      </trkpt>
      <trkpt lat="42.86948" lon="0.47275">
        <ele>3732</ele>
        <time>2021-08-08T08:52:38Z</time>
      </trkpt>
      <trkpt lat="42.86945" lon="0.47275">
        <ele>3732</ele>
        <time>2021-08-08T08:52:40Z</time>
      </trkpt>
      <trkpt lat="42.86943" lon="0.47275">
        <ele>3732</ele>
        <time>2021-08-08T08:52:42Z</time>
      </trkpt>
      <trkpt lat="42.8694" lon="0.47275">
        <ele>3731</ele>
        <time>2021-08-08T08:52:44Z</time>
      </trkpt>
      <trkpt lat="42.86937" lon="0.47275">
        <ele>3731</ele>
        <time>2021-08-08T08:52:46Z</time>
      </trkpt>
      <trkpt lat="42.86935" lon="0.47275">
        <ele>3731</ele>
        <time>2021-08-08T08:52:48Z</time>
      </trkpt>
      <trkpt lat="42.86932" lon="0.47276">
        <ele>3731</ele>
        <time>2021-08-08T08:52:50Z</time>
      </trkpt>
      <trkpt lat="42.86929" lon="0.47276">
        <ele>3731</ele>
        <time>2021-08-08T08:52:52Z</time>
      </trkpt>
      <trkpt lat="42.86926" lon="0.47277">
        <ele>3731</ele>
        <time>2021-08-08T08:52:54Z</time>
      </trkpt>
      <trkpt lat="42.86923" lon="0.47277">
        <ele>3731</ele>
        <time>2021-08-08T08:52:56Z</time>
      </trkpt>
      <trkpt lat="42.86921" lon="0.47277">
        <ele>3731</ele>
        <time>2021-08-08T08:52:58Z</time>
      </trkpt>
      <trkpt lat="42.86918" lon="0.47276">
        <ele>3731</ele>
        <time>2021-08-08T08:53:00Z</time>
      </trkpt>
      <trkpt lat="42.86916" lon="0.47274">
        <ele>3731</ele>
        <time>2021-08-08T08:53:02Z</time>
      </trkpt>
      <trkpt lat="42.86914" lon="0.47273">
        <ele>3731</ele>
        <time>2021-08-08T08:53:04Z</time>
      </trkpt>
      <trkpt lat="42.86911" lon="0.47271">
        <ele>3731</ele>
        <time>2021-08-08T08:53:06Z</time>
      </trkpt>
      <trkpt lat="42.86908" lon="0.47269">
        <ele>3731</ele>
        <time>2021-08-08T08:53:08Z</time>
      </trkpt>
      <trkpt lat="42.86906" lon="0.47267">
        <ele>3731</ele>
        <time>2021-08-08T08:53:10Z</time>
      </trkpt>
      <trkpt lat="42.86904" lon="0.47264">
        <ele>3731</ele>
        <time>2021-08-08T08:53:12Z</time>
      </trkpt>
      <trkpt lat="42.86903" lon="0.47261">
        <ele>3731</ele>
        <time>2021-08-08T08:53:14Z</time>
      </trkpt>
      <trkpt lat="42.86901" lon="0.47259">
        <ele>3731</ele>
        <time>2021-08-08T08:53:16Z</time>
      </trkpt>
      <trkpt lat="42.869" lon="0.47256">
        <ele>3731</ele>
        <time>2021-08-08T08:53:18Z</time>
      </trkpt>
      <trkpt lat="42.86898" lon="0.47252">
        <ele>3731</ele>
        <time>2021-08-08T08:53:20Z</time>
      </trkpt>
      <trkpt lat="42.86897" lon="0.47249">
        <ele>3731</ele>
        <time>2021-08-08T08:53:22Z</time>
      </trkpt>
      <trkpt lat="42.86896" lon="0.47246">
        <ele>3730</ele>
        <time>2021-08-08T08:53:24Z</time>
      </trkpt>
      <trkpt lat="42.86894" lon="0.47243">
        <ele>3730</ele>
        <time>2021-08-08T08:53:26Z</time>
      </trkpt>
      <trkpt lat="42.86892" lon="0.4724">
        <ele>3730</ele>
        <time>2021-08-08T08:53:28Z</time>
      </trkpt>
      <trkpt lat="42.8689" lon="0.47238">
        <ele>3730</ele>
        <time>2021-08-08T08:53:30Z</time>
      </trkpt>
      <trkpt lat="42.86888" lon="0.47235">
        <ele>3730</ele>
        <time>2021-08-08T08:53:32Z</time>
      </trkpt>
      <trkpt lat="42.86886" lon="0.47233">
        <ele>3731</ele>
        <time>2021-08-08T08:53:34Z</time>
      </trkpt>
      <trkpt lat="42.86884" lon="0.47231">
        <ele>3731</ele>
        <time>2021-08-08T08:53:36Z</time>
      </trkpt>
      <trkpt lat="42.86882" lon="0.47229">
        <ele>3731</ele>
        <time>2021-08-08T08:53:38Z</time>
      </trkpt>
      <trkpt lat="42.8688" lon="0.47227">
        <ele>3731</ele>
        <time>2021-08-08T08:53:40Z</time>
      </trkpt>
      <trkpt lat="42.86878" lon="0.47226">
        <ele>3731</ele>
        <time>2021-08-08T08:53:42Z</time>
      </trkpt>
      <trkpt lat="42.86875" lon="0.47225">
        <ele>3731</ele>
        <time>2021-08-08T08:53:44Z</time>
      </trkpt>
      <trkpt lat="42.86873" lon="0.47224">
        <ele>3731</ele>
        <time>2021-08-08T08:53:46Z</time>
      </trkpt>
      <trkpt lat="42.86871" lon="0.47223">
        <ele>3731</ele>
        <time>2021-08-08T08:53:48Z</time>
      </trkpt>
      <trkpt lat="42.86868" lon="0.47222">
        <ele>3731</ele>
        <time>2021-08-08T08:53:50Z</time>
      </trkpt>
      <trkpt lat="42.86866" lon="0.47221">
        <ele>3731</ele>
        <time>2021-08-08T08:53:52Z</time>
      </trkpt>
      <trkpt lat="42.86864" lon="0.47219">
        <ele>3731</ele>
        <time>2021-08-08T08:53:54Z</time>
      </trkpt>
      <trkpt lat="42.86861" lon="0.47218">
        <ele>3731</ele>
        <time>2021-08-08T08:53:56Z</time>
      </trkpt>
      <trkpt lat="42.86859" lon="0.47217">
        <ele>3731</ele>
        <time>2021-08-08T08:53:58Z</time>
      </trkpt>
      <trkpt lat="42.86858" lon="0.47215">
        <ele>3731</ele>
        <time>2021-08-08T08:54:03Z</time>
      </trkpt>
      <trkpt lat="42.86855" lon="0.47213">
        <ele>3731</ele>
        <time>2021-08-08T08:54:05Z</time>
      </trkpt>
      <trkpt lat="42.86853" lon="0.47211">
        <ele>3731</ele>
        <time>2021-08-08T08:54:07Z</time>
      </trkpt>
      <trkpt lat="42.86851" lon="0.4721">
        <ele>3731</ele>
        <time>2021-08-08T08:54:09Z</time>
      </trkpt>
      <trkpt lat="42.86848" lon="0.47208">
        <ele>3731</ele>
        <time>2021-08-08T08:54:11Z</time>
      </trkpt>
      <trkpt lat="42.86846" lon="0.47206">
        <ele>3731</ele>
        <time>2021-08-08T08:54:13Z</time>
      </trkpt>
      <trkpt lat="42.86844" lon="0.47204">
        <ele>3731</ele>
        <time>2021-08-08T08:54:15Z</time>
      </trkpt>
      <trkpt lat="42.86842" lon="0.47203">
        <ele>3731</ele>
        <time>2021-08-08T08:54:17Z</time>
      </trkpt>
      <trkpt lat="42.8684" lon="0.47201">
        <ele>3731</ele>
        <time>2021-08-08T08:54:19Z</time>
      </trkpt>
      <trkpt lat="42.86838" lon="0.47199">
        <ele>3731</ele>
        <time>2021-08-08T08:54:21Z</time>
      </trkpt>
      <trkpt lat="42.86835" lon="0.47197">
        <ele>3731</ele>
        <time>2021-08-08T08:54:23Z</time>
      </trkpt>
      <trkpt lat="42.86833" lon="0.47195">
        <ele>3731</ele>
        <time>2021-08-08T08:54:25Z</time>
      </trkpt>
      <trkpt lat="42.86831" lon="0.47192">
        <ele>3731</ele>
        <time>2021-08-08T08:54:27Z</time>
      </trkpt>
      <trkpt lat="42.8683" lon="0.4719">
        <ele>3731</ele>
        <time>2021-08-08T08:54:29Z</time>
      </trkpt>
      <trkpt lat="42.86827" lon="0.47189">
        <ele>3731</ele>
        <time>2021-08-08T08:54:31Z</time>
      </trkpt>
      <trkpt lat="42.86825" lon="0.47188">
        <ele>3731</ele>
        <time>2021-08-08T08:54:33Z</time>
      </trkpt>
      <trkpt lat="42.86823" lon="0.47188">
        <ele>3731</ele>
        <time>2021-08-08T08:54:35Z</time>
      </trkpt>
      <trkpt lat="42.8682" lon="0.47187">
        <ele>3731</ele>
        <time>2021-08-08T08:54:37Z</time>
      </trkpt>
      <trkpt lat="42.86818" lon="0.47186">
        <ele>3731</ele>
        <time>2021-08-08T08:54:39Z</time>
      </trkpt>
      <trkpt lat="42.86816" lon="0.47186">
        <ele>3731</ele>
        <time>2021-08-08T08:54:41Z</time>
      </trkpt>
      <trkpt lat="42.86814" lon="0.47183">
        <ele>3731</ele>
        <time>2021-08-08T08:54:43Z</time>
      </trkpt>
      <trkpt lat="42.86812" lon="0.47182">
        <ele>3731</ele>
        <time>2021-08-08T08:54:46Z</time>
      </trkpt>
      <trkpt lat="42.8681" lon="0.47181">
        <ele>3731</ele>
        <time>2021-08-08T08:54:48Z</time>
      </trkpt>
      <trkpt lat="42.86807" lon="0.47181">
        <ele>3731</ele>
        <time>2021-08-08T08:54:50Z</time>
      </trkpt>
      <trkpt lat="42.86805" lon="0.4718">
        <ele>3731</ele>
        <time>2021-08-08T08:54:52Z</time>
      </trkpt>
      <trkpt lat="42.86803" lon="0.47179">
        <ele>3731</ele>
        <time>2021-08-08T08:54:54Z</time>
      </trkpt>
      <trkpt lat="42.868" lon="0.47178">
        <ele>3731</ele>
        <time>2021-08-08T08:54:56Z</time>
      </trkpt>
      <trkpt lat="42.86798" lon="0.47177">
        <ele>3731</ele>
        <time>2021-08-08T08:54:58Z</time>
      </trkpt>
      <trkpt lat="42.86796" lon="0.47175">
        <ele>3731</ele>
        <time>2021-08-08T08:55:00Z</time>
      </trkpt>
      <trkpt lat="42.86794" lon="0.47174">
        <ele>3731</ele>
        <time>2021-08-08T08:55:02Z</time>
      </trkpt>
      <trkpt lat="42.86792" lon="0.47172">
        <ele>3732</ele>
        <time>2021-08-08T08:55:04Z</time>
      </trkpt>
      <trkpt lat="42.86789" lon="0.47171">
        <ele>3732</ele>
        <time>2021-08-08T08:55:06Z</time>
      </trkpt>
      <trkpt lat="42.86788" lon="0.47169">
        <ele>3732</ele>
        <time>2021-08-08T08:55:08Z</time>
      </trkpt>
      <trkpt lat="42.86786" lon="0.47168">
        <ele>3732</ele>
        <time>2021-08-08T08:55:10Z</time>
      </trkpt>
      <trkpt lat="42.86784" lon="0.47165">
        <ele>3732</ele>
        <time>2021-08-08T08:55:13Z</time>
      </trkpt>
      <trkpt lat="42.86782" lon="0.47164">
        <ele>3732</ele>
        <time>2021-08-08T08:55:16Z</time>
      </trkpt>
      <trkpt lat="42.86781" lon="0.47163">
        <ele>3732</ele>
        <time>2021-08-08T08:55:19Z</time>
      </trkpt>
      <trkpt lat="42.86779" lon="0.47161">
        <ele>3732</ele>
        <time>2021-08-08T08:55:22Z</time>
      </trkpt>
      <trkpt lat="42.86777" lon="0.47159">
        <ele>3733</ele>
        <time>2021-08-08T08:55:24Z</time>
      </trkpt>
      <trkpt lat="42.86775" lon="0.47157">
        <ele>3733</ele>
        <time>2021-08-08T08:55:26Z</time>
      </trkpt>
      <trkpt lat="42.86774" lon="0.47154">
        <ele>3733</ele>
        <time>2021-08-08T08:55:28Z</time>
      </trkpt>
      <trkpt lat="42.86773" lon="0.47151">
        <ele>3733</ele>
        <time>2021-08-08T08:55:30Z</time>
      </trkpt>
      <trkpt lat="42.86772" lon="0.47149">
        <ele>3733</ele>
        <time>2021-08-08T08:55:32Z</time>
      </trkpt>
      <trkpt lat="42.86771" lon="0.47147">
        <ele>3733</ele>
        <time>2021-08-08T08:55:34Z</time>
      </trkpt>
      <trkpt lat="42.8677" lon="0.47143">
        <ele>3733</ele>
        <time>2021-08-08T08:55:36Z</time>
      </trkpt>
      <trkpt lat="42.8677" lon="0.4714">
        <ele>3733</ele>
        <time>2021-08-08T08:55:38Z</time>
      </trkpt>
      <trkpt lat="42.86769" lon="0.47137">
        <ele>3733</ele>
        <time>2021-08-08T08:55:40Z</time>
      </trkpt>
      <trkpt lat="42.86769" lon="0.47133">
        <ele>3733</ele>
        <time>2021-08-08T08:55:42Z</time>
      </trkpt>
      <trkpt lat="42.86769" lon="0.4713">
        <ele>3733</ele>
        <time>2021-08-08T08:55:44Z</time>
      </trkpt>
      <trkpt lat="42.86768" lon="0.47126">
        <ele>3733</ele>
        <time>2021-08-08T08:55:46Z</time>
      </trkpt>
      <trkpt lat="42.86767" lon="0.47123">
        <ele>3733</ele>
        <time>2021-08-08T08:55:48Z</time>
      </trkpt>
      <trkpt lat="42.86766" lon="0.47119">
        <ele>3733</ele>
        <time>2021-08-08T08:55:50Z</time>
      </trkpt>
      <trkpt lat="42.86766" lon="0.47116">
        <ele>3733</ele>
        <time>2021-08-08T08:55:52Z</time>
      </trkpt>
      <trkpt lat="42.86765" lon="0.47113">
        <ele>3732</ele>
        <time>2021-08-08T08:55:54Z</time>
      </trkpt>
      <trkpt lat="42.86763" lon="0.4711">
        <ele>3732</ele>
        <time>2021-08-08T08:55:56Z</time>
      </trkpt>
      <trkpt lat="42.86762" lon="0.47107">
        <ele>3732</ele>
        <time>2021-08-08T08:55:58Z</time>
      </trkpt>
      <trkpt lat="42.86761" lon="0.47104">
        <ele>3732</ele>
        <time>2021-08-08T08:56:00Z</time>
      </trkpt>
      <trkpt lat="42.8676" lon="0.47101">
        <ele>3732</ele>
        <time>2021-08-08T08:56:02Z</time>
      </trkpt>
      <trkpt lat="42.86759" lon="0.47098">
        <ele>3730</ele>
        <time>2021-08-08T08:56:04Z</time>
      </trkpt>
      <trkpt lat="42.86758" lon="0.47095">
        <ele>3730</ele>
        <time>2021-08-08T08:56:06Z</time>
      </trkpt>
      <trkpt lat="42.86756" lon="0.47092">
        <ele>3730</ele>
        <time>2021-08-08T08:56:08Z</time>
      </trkpt>
      <trkpt lat="42.86755" lon="0.47089">
        <ele>3730</ele>
        <time>2021-08-08T08:56:10Z</time>
      </trkpt>
      <trkpt lat="42.86753" lon="0.47086">
        <ele>3730</ele>
        <time>2021-08-08T08:56:12Z</time>
      </trkpt>
      <trkpt lat="42.86751" lon="0.47083">
        <ele>3729</ele>
        <time>2021-08-08T08:56:14Z</time>
      </trkpt>
      <trkpt lat="42.8675" lon="0.4708">
        <ele>3729</ele>
        <time>2021-08-08T08:56:16Z</time>
      </trkpt>
      <trkpt lat="42.86749" lon="0.47078">
        <ele>3729</ele>
        <time>2021-08-08T08:56:18Z</time>
      </trkpt>
      <trkpt lat="42.86748" lon="0.47076">
        <ele>3729</ele>
        <time>2021-08-08T08:56:20Z</time>
      </trkpt>
      <trkpt lat="42.86747" lon="0.47073">
        <ele>3729</ele>
        <time>2021-08-08T08:56:22Z</time>
      </trkpt>
      <trkpt lat="42.86746" lon="0.47071">
        <ele>3725</ele>
        <time>2021-08-08T08:56:24Z</time>
      </trkpt>
      <trkpt lat="42.86744" lon="0.47068">
        <ele>3725</ele>
        <time>2021-08-08T08:56:26Z</time>
      </trkpt>
      <trkpt lat="42.86743" lon="0.47065">
        <ele>3725</ele>
        <time>2021-08-08T08:56:28Z</time>
      </trkpt>
      <trkpt lat="42.86742" lon="0.47062">
        <ele>3725</ele>
        <time>2021-08-08T08:56:30Z</time>
      </trkpt>
      <trkpt lat="42.86741" lon="0.47059">
        <ele>3725</ele>
        <time>2021-08-08T08:56:32Z</time>
      </trkpt>
      <trkpt lat="42.8674" lon="0.47056">
        <ele>3722</ele>
        <time>2021-08-08T08:56:34Z</time>
      </trkpt>
      <trkpt lat="42.86738" lon="0.47053">
        <ele>3722</ele>
        <time>2021-08-08T08:56:37Z</time>
      </trkpt>
      <trkpt lat="42.86737" lon="0.47051">
        <ele>3722</ele>
        <time>2021-08-08T08:56:39Z</time>
      </trkpt>
      <trkpt lat="42.86735" lon="0.47049">
        <ele>3722</ele>
        <time>2021-08-08T08:56:41Z</time>
      </trkpt>
      <trkpt lat="42.86734" lon="0.47047">
        <ele>3722</ele>
        <time>2021-08-08T08:56:43Z</time>
      </trkpt>
      <trkpt lat="42.86732" lon="0.47046">
        <ele>3722</ele>
        <time>2021-08-08T08:56:45Z</time>
      </trkpt>
      <trkpt lat="42.8673" lon="0.47044">
        <ele>3722</ele>
        <time>2021-08-08T08:56:47Z</time>
      </trkpt>
      <trkpt lat="42.86728" lon="0.47042">
        <ele>3722</ele>
        <time>2021-08-08T08:56:49Z</time>
      </trkpt>
      <trkpt lat="42.86726" lon="0.4704">
        <ele>3722</ele>
        <time>2021-08-08T08:56:51Z</time>
      </trkpt>
      <trkpt lat="42.86724" lon="0.47038">
        <ele>3722</ele>
        <time>2021-08-08T08:56:53Z</time>
      </trkpt>
      <trkpt lat="42.86723" lon="0.47036">
        <ele>3722</ele>
        <time>2021-08-08T08:56:55Z</time>
      </trkpt>
      <trkpt lat="42.86721" lon="0.47034">
        <ele>3722</ele>
        <time>2021-08-08T08:56:57Z</time>
      </trkpt>
      <trkpt lat="42.8672" lon="0.47032">
        <ele>3722</ele>
        <time>2021-08-08T08:56:59Z</time>
      </trkpt>
      <trkpt lat="42.86718" lon="0.4703">
        <ele>3722</ele>
        <time>2021-08-08T08:57:01Z</time>
      </trkpt>
      <trkpt lat="42.86717" lon="0.47027">
        <ele>3722</ele>
        <time>2021-08-08T08:57:03Z</time>
      </trkpt>
      <trkpt lat="42.86716" lon="0.47025">
        <ele>3722</ele>
        <time>2021-08-08T08:57:05Z</time>
      </trkpt>
      <trkpt lat="42.86714" lon="0.47024">
        <ele>3722</ele>
        <time>2021-08-08T08:57:07Z</time>
      </trkpt>
      <trkpt lat="42.86712" lon="0.47024">
        <ele>3722</ele>
        <time>2021-08-08T08:57:09Z</time>
      </trkpt>
      <trkpt lat="42.8671" lon="0.47022">
        <ele>3722</ele>
        <time>2021-08-08T08:57:11Z</time>
      </trkpt>
      <trkpt lat="42.86708" lon="0.47021">
        <ele>3722</ele>
        <time>2021-08-08T08:57:13Z</time>
      </trkpt>
      <trkpt lat="42.86707" lon="0.47019">
        <ele>3722</ele>
        <time>2021-08-08T08:57:15Z</time>
      </trkpt>
      <trkpt lat="42.86705" lon="0.47017">
        <ele>3722</ele>
        <time>2021-08-08T08:57:17Z</time>
      </trkpt>
      <trkpt lat="42.86703" lon="0.47015">
        <ele>3722</ele>
        <time>2021-08-08T08:57:19Z</time>
      </trkpt>
      <trkpt lat="42.86702" lon="0.47014">
        <ele>3722</ele>
        <time>2021-08-08T08:57:21Z</time>
      </trkpt>
      <trkpt lat="42.867" lon="0.47012">
        <ele>3722</ele>
        <time>2021-08-08T08:57:23Z</time>
      </trkpt>
      <trkpt lat="42.86698" lon="0.47011">
        <ele>3722</ele>
        <time>2021-08-08T08:57:25Z</time>
      </trkpt>
      <trkpt lat="42.86696" lon="0.47009">
        <ele>3722</ele>
        <time>2021-08-08T08:57:27Z</time>
      </trkpt>
      <trkpt lat="42.86694" lon="0.47007">
        <ele>3722</ele>
        <time>2021-08-08T08:57:29Z</time>
      </trkpt>
      <trkpt lat="42.86693" lon="0.47005">
        <ele>3722</ele>
        <time>2021-08-08T08:57:31Z</time>
      </trkpt>
      <trkpt lat="42.86691" lon="0.47004">
        <ele>3722</ele>
        <time>2021-08-08T08:57:33Z</time>
      </trkpt>
      <trkpt lat="42.86689" lon="0.47002">
        <ele>3722</ele>
        <time>2021-08-08T08:57:35Z</time>
      </trkpt>
      <trkpt lat="42.86687" lon="0.47001">
        <ele>3722</ele>
        <time>2021-08-08T08:57:37Z</time>
      </trkpt>
      <trkpt lat="42.86685" lon="0.46999">
        <ele>3722</ele>
        <time>2021-08-08T08:57:39Z</time>
      </trkpt>
      <trkpt lat="42.86684" lon="0.46998">
        <ele>3722</ele>
        <time>2021-08-08T08:57:41Z</time>
      </trkpt>
      <trkpt lat="42.86681" lon="0.46996">
        <ele>3708</ele>
        <time>2021-08-08T08:57:44Z</time>
      </trkpt>
      <trkpt lat="42.86679" lon="0.46995">
        <ele>3708</ele>
        <time>2021-08-08T08:57:46Z</time>
      </trkpt>
      <trkpt lat="42.86677" lon="0.46994">
        <ele>3708</ele>
        <time>2021-08-08T08:57:48Z</time>
      </trkpt>
      <trkpt lat="42.86675" lon="0.46993">
        <ele>3708</ele>
        <time>2021-08-08T08:57:50Z</time>
      </trkpt>
      <trkpt lat="42.86673" lon="0.46992">
        <ele>3708</ele>
        <time>2021-08-08T08:57:52Z</time>
      </trkpt>
      <trkpt lat="42.86671" lon="0.46991">
        <ele>3706</ele>
        <time>2021-08-08T08:57:54Z</time>
      </trkpt>
      <trkpt lat="42.86669" lon="0.46989">
        <ele>3706</ele>
        <time>2021-08-08T08:57:56Z</time>
      </trkpt>
      <trkpt lat="42.86667" lon="0.46988">
        <ele>3706</ele>
        <time>2021-08-08T08:57:58Z</time>
      </trkpt>
      <trkpt lat="42.86666" lon="0.46986">
        <ele>3706</ele>
        <time>2021-08-08T08:58:00Z</time>
      </trkpt>
      <trkpt lat="42.86664" lon="0.46983">
        <ele>3706</ele>
        <time>2021-08-08T08:58:02Z</time>
      </trkpt>
      <trkpt lat="42.86662" lon="0.46982">
        <ele>3704</ele>
        <time>2021-08-08T08:58:04Z</time>
      </trkpt>
      <trkpt lat="42.8666" lon="0.4698">
        <ele>3704</ele>
        <time>2021-08-08T08:58:06Z</time>
      </trkpt>
      <trkpt lat="42.86658" lon="0.46979">
        <ele>3704</ele>
        <time>2021-08-08T08:58:08Z</time>
      </trkpt>
      <trkpt lat="42.86655" lon="0.46978">
        <ele>3704</ele>
        <time>2021-08-08T08:58:10Z</time>
      </trkpt>
      <trkpt lat="42.86653" lon="0.46977">
        <ele>3704</ele>
        <time>2021-08-08T08:58:12Z</time>
      </trkpt>
      <trkpt lat="42.86651" lon="0.46975">
        <ele>3703</ele>
        <time>2021-08-08T08:58:14Z</time>
      </trkpt>
      <trkpt lat="42.86649" lon="0.46973">
        <ele>3703</ele>
        <time>2021-08-08T08:58:16Z</time>
      </trkpt>
      <trkpt lat="42.86647" lon="0.46971">
        <ele>3703</ele>
        <time>2021-08-08T08:58:18Z</time>
      </trkpt>
      <trkpt lat="42.86645" lon="0.46969">
        <ele>3703</ele>
        <time>2021-08-08T08:58:20Z</time>
      </trkpt>
      <trkpt lat="42.86643" lon="0.46966">
        <ele>3703</ele>
        <time>2021-08-08T08:58:22Z</time>
      </trkpt>
      <trkpt lat="42.86642" lon="0.46964">
        <ele>3701</ele>
        <time>2021-08-08T08:58:24Z</time>
      </trkpt>
      <trkpt lat="42.8664" lon="0.46962">
        <ele>3701</ele>
        <time>2021-08-08T08:58:26Z</time>
      </trkpt>
      <trkpt lat="42.86638" lon="0.46961">
        <ele>3701</ele>
        <time>2021-08-08T08:58:28Z</time>
      </trkpt>
      <trkpt lat="42.86636" lon="0.4696">
        <ele>3701</ele>
        <time>2021-08-08T08:58:30Z</time>
      </trkpt>
      <trkpt lat="42.86634" lon="0.46958">
        <ele>3701</ele>
        <time>2021-08-08T08:58:32Z</time>
      </trkpt>
      <trkpt lat="42.86632" lon="0.46956">
        <ele>3700</ele>
        <time>2021-08-08T08:58:34Z</time>
      </trkpt>
      <trkpt lat="42.8663" lon="0.46954">
        <ele>3700</ele>
        <time>2021-08-08T08:58:36Z</time>
      </trkpt>
      <trkpt lat="42.86628" lon="0.46952">
        <ele>3700</ele>
        <time>2021-08-08T08:58:38Z</time>
      </trkpt>
      <trkpt lat="42.86627" lon="0.4695">
        <ele>3700</ele>
        <time>2021-08-08T08:58:40Z</time>
      </trkpt>
      <trkpt lat="42.86625" lon="0.46947">
        <ele>3700</ele>
        <time>2021-08-08T08:58:42Z</time>
      </trkpt>
      <trkpt lat="42.86624" lon="0.46945">
        <ele>3697</ele>
        <time>2021-08-08T08:58:44Z</time>
      </trkpt>
      <trkpt lat="42.86622" lon="0.46943">
        <ele>3697</ele>
        <time>2021-08-08T08:58:46Z</time>
      </trkpt>
      <trkpt lat="42.8662" lon="0.4694">
        <ele>3697</ele>
        <time>2021-08-08T08:58:48Z</time>
      </trkpt>
      <trkpt lat="42.86619" lon="0.46938">
        <ele>3697</ele>
        <time>2021-08-08T08:58:50Z</time>
      </trkpt>
      <trkpt lat="42.86617" lon="0.46935">
        <ele>3697</ele>
        <time>2021-08-08T08:58:52Z</time>
      </trkpt>
      <trkpt lat="42.86616" lon="0.46933">
        <ele>3695</ele>
        <time>2021-08-08T08:58:54Z</time>
      </trkpt>
      <trkpt lat="42.86614" lon="0.46931">
        <ele>3695</ele>
        <time>2021-08-08T08:58:56Z</time>
      </trkpt>
      <trkpt lat="42.86612" lon="0.46929">
        <ele>3695</ele>
        <time>2021-08-08T08:58:58Z</time>
      </trkpt>
      <trkpt lat="42.8661" lon="0.46927">
        <ele>3695</ele>
        <time>2021-08-08T08:59:00Z</time>
      </trkpt>
      <trkpt lat="42.86608" lon="0.46925">
        <ele>3695</ele>
        <time>2021-08-08T08:59:02Z</time>
      </trkpt>
      <trkpt lat="42.86606" lon="0.46923">
        <ele>3694</ele>
        <time>2021-08-08T08:59:04Z</time>
      </trkpt>
      <trkpt lat="42.86603" lon="0.46921">
        <ele>3694</ele>
        <time>2021-08-08T08:59:06Z</time>
      </trkpt>
      <trkpt lat="42.86601" lon="0.46919">
        <ele>3694</ele>
        <time>2021-08-08T08:59:08Z</time>
      </trkpt>
      <trkpt lat="42.866" lon="0.46916">
        <ele>3694</ele>
        <time>2021-08-08T08:59:10Z</time>
      </trkpt>
      <trkpt lat="42.86598" lon="0.46913">
        <ele>3694</ele>
        <time>2021-08-08T08:59:12Z</time>
      </trkpt>
      <trkpt lat="42.86597" lon="0.4691">
        <ele>3694</ele>
        <time>2021-08-08T08:59:14Z</time>
      </trkpt>
      <trkpt lat="42.86596" lon="0.46907">
        <ele>3694</ele>
        <time>2021-08-08T08:59:16Z</time>
      </trkpt>
      <trkpt lat="42.86595" lon="0.46904">
        <ele>3694</ele>
        <time>2021-08-08T08:59:18Z</time>
      </trkpt>
      <trkpt lat="42.86594" lon="0.46901">
        <ele>3694</ele>
        <time>2021-08-08T08:59:20Z</time>
      </trkpt>
      <trkpt lat="42.86592" lon="0.46898">
        <ele>3694</ele>
        <time>2021-08-08T08:59:22Z</time>
      </trkpt>
      <trkpt lat="42.86591" lon="0.46896">
        <ele>3689</ele>
        <time>2021-08-08T08:59:24Z</time>
      </trkpt>
      <trkpt lat="42.86588" lon="0.46894">
        <ele>3689</ele>
        <time>2021-08-08T08:59:26Z</time>
      </trkpt>
      <trkpt lat="42.86586" lon="0.46892">
        <ele>3689</ele>
        <time>2021-08-08T08:59:28Z</time>
      </trkpt>
      <trkpt lat="42.86584" lon="0.46891">
        <ele>3689</ele>
        <time>2021-08-08T08:59:30Z</time>
      </trkpt>
      <trkpt lat="42.86581" lon="0.46889">
        <ele>3689</ele>
        <time>2021-08-08T08:59:32Z</time>
      </trkpt>
      <trkpt lat="42.86579" lon="0.46888">
        <ele>3687</ele>
        <time>2021-08-08T08:59:34Z</time>
      </trkpt>
      <trkpt lat="42.86577" lon="0.46887">
        <ele>3687</ele>
        <time>2021-08-08T08:59:36Z</time>
      </trkpt>
      <trkpt lat="42.86575" lon="0.46886">
        <ele>3687</ele>
        <time>2021-08-08T08:59:38Z</time>
      </trkpt>
      <trkpt lat="42.86573" lon="0.46885">
        <ele>3687</ele>
        <time>2021-08-08T08:59:41Z</time>
      </trkpt>
      <trkpt lat="42.86572" lon="0.46882">
        <ele>3684</ele>
        <time>2021-08-08T08:59:44Z</time>
      </trkpt>
      <trkpt lat="42.8657" lon="0.46881">
        <ele>3684</ele>
        <time>2021-08-08T08:59:46Z</time>
      </trkpt>
      <trkpt lat="42.86568" lon="0.46879">
        <ele>3684</ele>
        <time>2021-08-08T08:59:48Z</time>
      </trkpt>
      <trkpt lat="42.86566" lon="0.46876">
        <ele>3684</ele>
        <time>2021-08-08T08:59:51Z</time>
      </trkpt>
      <trkpt lat="42.86565" lon="0.46874">
        <ele>3683</ele>
        <time>2021-08-08T08:59:54Z</time>
      </trkpt>
      <trkpt lat="42.86563" lon="0.46873">
        <ele>3683</ele>
        <time>2021-08-08T08:59:56Z</time>
      </trkpt>
      <trkpt lat="42.86561" lon="0.46872">
        <ele>3683</ele>
        <time>2021-08-08T08:59:58Z</time>
      </trkpt>
      <trkpt lat="42.86559" lon="0.46871">
        <ele>3683</ele>
        <time>2021-08-08T09:00:00Z</time>
      </trkpt>
      <trkpt lat="42.86557" lon="0.46869">
        <ele>3683</ele>
        <time>2021-08-08T09:00:02Z</time>
      </trkpt>
      <trkpt lat="42.86555" lon="0.46867">
        <ele>3678</ele>
        <time>2021-08-08T09:00:04Z</time>
      </trkpt>
      <trkpt lat="42.86553" lon="0.46866">
        <ele>3678</ele>
        <time>2021-08-08T09:00:06Z</time>
      </trkpt>
      <trkpt lat="42.86551" lon="0.46865">
        <ele>3678</ele>
        <time>2021-08-08T09:00:08Z</time>
      </trkpt>
      <trkpt lat="42.86549" lon="0.46864">
        <ele>3678</ele>
        <time>2021-08-08T09:00:10Z</time>
      </trkpt>
      <trkpt lat="42.86547" lon="0.46863">
        <ele>3678</ele>
        <time>2021-08-08T09:00:12Z</time>
      </trkpt>
      <trkpt lat="42.86545" lon="0.46861">
        <ele>3676</ele>
        <time>2021-08-08T09:00:14Z</time>
      </trkpt>
      <trkpt lat="42.86543" lon="0.4686">
        <ele>3676</ele>
        <time>2021-08-08T09:00:16Z</time>
      </trkpt>
      <trkpt lat="42.86541" lon="0.46858">
        <ele>3676</ele>
        <time>2021-08-08T09:00:18Z</time>
      </trkpt>
      <trkpt lat="42.86539" lon="0.46859">
        <ele>3676</ele>
        <time>2021-08-08T09:00:20Z</time>
      </trkpt>
      <trkpt lat="42.86537" lon="0.46859">
        <ele>3676</ele>
        <time>2021-08-08T09:00:22Z</time>
      </trkpt>
      <trkpt lat="42.86534" lon="0.46859">
        <ele>3673</ele>
        <time>2021-08-08T09:00:24Z</time>
      </trkpt>
      <trkpt lat="42.86532" lon="0.4686">
        <ele>3673</ele>
        <time>2021-08-08T09:00:26Z</time>
      </trkpt>
      <trkpt lat="42.86529" lon="0.46861">
        <ele>3673</ele>
        <time>2021-08-08T09:00:28Z</time>
      </trkpt>
      <trkpt lat="42.86527" lon="0.46862">
        <ele>3673</ele>
        <time>2021-08-08T09:00:30Z</time>
      </trkpt>
      <trkpt lat="42.86525" lon="0.46864">
        <ele>3673</ele>
        <time>2021-08-08T09:00:32Z</time>
      </trkpt>
      <trkpt lat="42.86524" lon="0.46866">
        <ele>3673</ele>
        <time>2021-08-08T09:00:35Z</time>
      </trkpt>
      <trkpt lat="42.86523" lon="0.46869">
        <ele>3673</ele>
        <time>2021-08-08T09:00:37Z</time>
      </trkpt>
      <trkpt lat="42.86521" lon="0.46871">
        <ele>3673</ele>
        <time>2021-08-08T09:00:39Z</time>
      </trkpt>
      <trkpt lat="42.86519" lon="0.46873">
        <ele>3673</ele>
        <time>2021-08-08T09:00:41Z</time>
      </trkpt>
      <trkpt lat="42.86516" lon="0.46873">
        <ele>3673</ele>
        <time>2021-08-08T09:00:43Z</time>
      </trkpt>
      <trkpt lat="42.86514" lon="0.46872">
        <ele>3673</ele>
        <time>2021-08-08T09:00:45Z</time>
      </trkpt>
      <trkpt lat="42.86513" lon="0.4687">
        <ele>3673</ele>
        <time>2021-08-08T09:00:47Z</time>
      </trkpt>
      <trkpt lat="42.86511" lon="0.46869">
        <ele>3673</ele>
        <time>2021-08-08T09:00:50Z</time>
      </trkpt>
      <trkpt lat="42.86512" lon="0.46866">
        <ele>3673</ele>
        <time>2021-08-08T09:00:55Z</time>
      </trkpt>
      <trkpt lat="42.86512" lon="0.46864">
        <ele>3673</ele>
        <time>2021-08-08T09:01:02Z</time>
      </trkpt>
      <trkpt lat="42.8651" lon="0.46861">
        <ele>3673</ele>
        <time>2021-08-08T09:01:13Z</time>
      </trkpt>
      <trkpt lat="42.86509" lon="0.46861">
        <ele>3673</ele>
        <time>2021-08-08T09:01:20Z</time>
      </trkpt>
      <trkpt lat="42.86507" lon="0.4686">
        <ele>3673</ele>
        <time>2021-08-08T09:01:25Z</time>
      </trkpt>
      <trkpt lat="42.86505" lon="0.46859">
        <ele>3673</ele>
        <time>2021-08-08T09:01:36Z</time>
      </trkpt>
      <trkpt lat="42.86504" lon="0.4686">
        <ele>3673</ele>
        <time>2021-08-08T09:01:42Z</time>
      </trkpt>
      <trkpt lat="42.86502" lon="0.4686">
        <ele>3673</ele>
        <time>2021-08-08T09:01:48Z</time>
      </trkpt>
      <trkpt lat="42.865" lon="0.46859">
        <ele>3673</ele>
        <time>2021-08-08T09:01:51Z</time>
      </trkpt>
      <trkpt lat="42.86498" lon="0.46858">
        <ele>3673</ele>
        <time>2021-08-08T09:01:55Z</time>
      </trkpt>
      <trkpt lat="42.86497" lon="0.46858">
        <ele>3673</ele>
        <time>2021-08-08T09:02:00Z</time>
      </trkpt>
      <trkpt lat="42.86494" lon="0.46857">
        <ele>3673</ele>
        <time>2021-08-08T09:02:05Z</time>
      </trkpt>
      <trkpt lat="42.86492" lon="0.46857">
        <ele>3673</ele>
        <time>2021-08-08T09:02:08Z</time>
      </trkpt>
      <trkpt lat="42.86491" lon="0.46857">
        <ele>3673</ele>
        <time>2021-08-08T09:02:11Z</time>
      </trkpt>
      <trkpt lat="42.86489" lon="0.46855">
        <ele>3673</ele>
        <time>2021-08-08T09:02:15Z</time>
      </trkpt>
      <trkpt lat="42.86487" lon="0.46856">
        <ele>3673</ele>
        <time>2021-08-08T09:02:19Z</time>
      </trkpt>
      <trkpt lat="42.86485" lon="0.46855">
        <ele>3673</ele>
        <time>2021-08-08T09:02:22Z</time>
      </trkpt>
      <trkpt lat="42.86483" lon="0.46854">
        <ele>3673</ele>
        <time>2021-08-08T09:02:26Z</time>
      </trkpt>
      <trkpt lat="42.86485" lon="0.46855">
        <ele>3673</ele>
        <time>2021-08-08T09:02:32Z</time>
      </trkpt>
      <trkpt lat="42.86487" lon="0.46856">
        <ele>3651</ele>
        <time>2021-08-08T09:02:34Z</time>
      </trkpt>
      <trkpt lat="42.86489" lon="0.46856">
        <ele>3651</ele>
        <time>2021-08-08T09:02:39Z</time>
      </trkpt>
      <trkpt lat="42.86487" lon="0.46854">
        <ele>3651</ele>
        <time>2021-08-08T09:02:44Z</time>
      </trkpt>
      <trkpt lat="42.86486" lon="0.46852">
        <ele>3651</ele>
        <time>2021-08-08T09:02:47Z</time>
      </trkpt>
      <trkpt lat="42.86484" lon="0.4685">
        <ele>3651</ele>
        <time>2021-08-08T09:02:50Z</time>
      </trkpt>
      <trkpt lat="42.86482" lon="0.4685">
        <ele>3651</ele>
        <time>2021-08-08T09:02:52Z</time>
      </trkpt>
      <trkpt lat="42.86482" lon="0.46847">
        <ele>3651</ele>
        <time>2021-08-08T09:02:59Z</time>
      </trkpt>
      <trkpt lat="42.8648" lon="0.46846">
        <ele>3651</ele>
        <time>2021-08-08T09:03:09Z</time>
      </trkpt>
      <trkpt lat="42.86478" lon="0.46845">
        <ele>3651</ele>
        <time>2021-08-08T09:03:12Z</time>
      </trkpt>
      <trkpt lat="42.86476" lon="0.46845">
        <ele>3651</ele>
        <time>2021-08-08T09:03:16Z</time>
      </trkpt>
      <trkpt lat="42.86474" lon="0.46844">
        <ele>3651</ele>
        <time>2021-08-08T09:03:19Z</time>
      </trkpt>
      <trkpt lat="42.86473" lon="0.46842">
        <ele>3641</ele>
        <time>2021-08-08T09:03:24Z</time>
      </trkpt>
      <trkpt lat="42.86471" lon="0.46842">
        <ele>3641</ele>
        <time>2021-08-08T09:03:31Z</time>
      </trkpt>
      <trkpt lat="42.86471" lon="0.46839">
        <ele>3641</ele>
        <time>2021-08-08T09:03:35Z</time>
      </trkpt>
      <trkpt lat="42.86469" lon="0.4684">
        <ele>3641</ele>
        <time>2021-08-08T09:03:56Z</time>
      </trkpt>
      <trkpt lat="42.86467" lon="0.46841">
        <ele>3641</ele>
        <time>2021-08-08T09:03:59Z</time>
      </trkpt>
      <trkpt lat="42.86464" lon="0.46839">
        <ele>3641</ele>
        <time>2021-08-08T09:04:01Z</time>
      </trkpt>
      <trkpt lat="42.86462" lon="0.46838">
        <ele>3641</ele>
        <time>2021-08-08T09:04:03Z</time>
      </trkpt>
      <trkpt lat="42.8646" lon="0.46838">
        <ele>3641</ele>
        <time>2021-08-08T09:04:05Z</time>
      </trkpt>
      <trkpt lat="42.86457" lon="0.46839">
        <ele>3641</ele>
        <time>2021-08-08T09:04:07Z</time>
      </trkpt>
      <trkpt lat="42.86455" lon="0.46839">
        <ele>3641</ele>
        <time>2021-08-08T09:04:09Z</time>
      </trkpt>
      <trkpt lat="42.86452" lon="0.46838">
        <ele>3641</ele>
        <time>2021-08-08T09:04:11Z</time>
      </trkpt>
      <trkpt lat="42.86449" lon="0.46837">
        <ele>3641</ele>
        <time>2021-08-08T09:04:13Z</time>
      </trkpt>
      <trkpt lat="42.86446" lon="0.46837">
        <ele>3641</ele>
        <time>2021-08-08T09:04:15Z</time>
      </trkpt>
      <trkpt lat="42.86442" lon="0.46836">
        <ele>3641</ele>
        <time>2021-08-08T09:04:17Z</time>
      </trkpt>
      <trkpt lat="42.8644" lon="0.46836">
        <ele>3641</ele>
        <time>2021-08-08T09:04:19Z</time>
      </trkpt>
      <trkpt lat="42.86437" lon="0.46837">
        <ele>3641</ele>
        <time>2021-08-08T09:04:21Z</time>
      </trkpt>
      <trkpt lat="42.86435" lon="0.46837">
        <ele>3641</ele>
        <time>2021-08-08T09:04:23Z</time>
      </trkpt>
      <trkpt lat="42.86432" lon="0.46837">
        <ele>3641</ele>
        <time>2021-08-08T09:04:25Z</time>
      </trkpt>
      <trkpt lat="42.86429" lon="0.46835">
        <ele>3641</ele>
        <time>2021-08-08T09:04:27Z</time>
      </trkpt>
      <trkpt lat="42.86426" lon="0.46833">
        <ele>3641</ele>
        <time>2021-08-08T09:04:29Z</time>
      </trkpt>
      <trkpt lat="42.86424" lon="0.46831">
        <ele>3641</ele>
        <time>2021-08-08T09:04:31Z</time>
      </trkpt>
      <trkpt lat="42.86422" lon="0.4683">
        <ele>3641</ele>
        <time>2021-08-08T09:04:33Z</time>
      </trkpt>
      <trkpt lat="42.86419" lon="0.46829">
        <ele>3641</ele>
        <time>2021-08-08T09:04:35Z</time>
      </trkpt>
      <trkpt lat="42.86416" lon="0.46828">
        <ele>3641</ele>
        <time>2021-08-08T09:04:37Z</time>
      </trkpt>
      <trkpt lat="42.86413" lon="0.46827">
        <ele>3641</ele>
        <time>2021-08-08T09:04:39Z</time>
      </trkpt>
      <trkpt lat="42.8641" lon="0.46826">
        <ele>3641</ele>
        <time>2021-08-08T09:04:41Z</time>
      </trkpt>
      <trkpt lat="42.86407" lon="0.46826">
        <ele>3641</ele>
        <time>2021-08-08T09:04:43Z</time>
      </trkpt>
      <trkpt lat="42.86404" lon="0.46826">
        <ele>3641</ele>
        <time>2021-08-08T09:04:45Z</time>
      </trkpt>
      <trkpt lat="42.86402" lon="0.46824">
        <ele>3641</ele>
        <time>2021-08-08T09:04:47Z</time>
      </trkpt>
      <trkpt lat="42.86399" lon="0.46823">
        <ele>3641</ele>
        <time>2021-08-08T09:04:49Z</time>
      </trkpt>
      <trkpt lat="42.86396" lon="0.46822">
        <ele>3641</ele>
        <time>2021-08-08T09:04:51Z</time>
      </trkpt>
      <trkpt lat="42.86393" lon="0.46821">
        <ele>3641</ele>
        <time>2021-08-08T09:04:53Z</time>
      </trkpt>
      <trkpt lat="42.86391" lon="0.46819">
        <ele>3641</ele>
        <time>2021-08-08T09:04:55Z</time>
      </trkpt>
      <trkpt lat="42.86388" lon="0.46817">
        <ele>3641</ele>
        <time>2021-08-08T09:04:57Z</time>
      </trkpt>
      <trkpt lat="42.86386" lon="0.46818">
        <ele>3641</ele>
        <time>2021-08-08T09:04:59Z</time>
      </trkpt>
      <trkpt lat="42.86385" lon="0.4682">
        <ele>3641</ele>
        <time>2021-08-08T09:05:01Z</time>
      </trkpt>
      <trkpt lat="42.86382" lon="0.46821">
        <ele>3641</ele>
        <time>2021-08-08T09:05:03Z</time>
      </trkpt>
      <trkpt lat="42.8638" lon="0.4682">
        <ele>3641</ele>
        <time>2021-08-08T09:05:05Z</time>
      </trkpt>
      <trkpt lat="42.86377" lon="0.46818">
        <ele>3641</ele>
        <time>2021-08-08T09:05:07Z</time>
      </trkpt>
      <trkpt lat="42.86374" lon="0.46816">
        <ele>3641</ele>
        <time>2021-08-08T09:05:09Z</time>
      </trkpt>
      <trkpt lat="42.86371" lon="0.46815">
        <ele>3641</ele>
        <time>2021-08-08T09:05:11Z</time>
      </trkpt>
      <trkpt lat="42.86368" lon="0.46814">
        <ele>3641</ele>
        <time>2021-08-08T09:05:13Z</time>
      </trkpt>
      <trkpt lat="42.86365" lon="0.46814">
        <ele>3641</ele>
        <time>2021-08-08T09:05:15Z</time>
      </trkpt>
      <trkpt lat="42.86362" lon="0.46813">
        <ele>3641</ele>
        <time>2021-08-08T09:05:17Z</time>
      </trkpt>
      <trkpt lat="42.86359" lon="0.46813">
        <ele>3641</ele>
        <time>2021-08-08T09:05:19Z</time>
      </trkpt>
      <trkpt lat="42.86356" lon="0.46812">
        <ele>3641</ele>
        <time>2021-08-08T09:05:21Z</time>
      </trkpt>
      <trkpt lat="42.86354" lon="0.4681">
        <ele>3641</ele>
        <time>2021-08-08T09:05:23Z</time>
      </trkpt>
      <trkpt lat="42.86351" lon="0.4681">
        <ele>3641</ele>
        <time>2021-08-08T09:05:25Z</time>
      </trkpt>
      <trkpt lat="42.86348" lon="0.4681">
        <ele>3641</ele>
        <time>2021-08-08T09:05:27Z</time>
      </trkpt>
      <trkpt lat="42.86345" lon="0.46808">
        <ele>3641</ele>
        <time>2021-08-08T09:05:29Z</time>
      </trkpt>
      <trkpt lat="42.86343" lon="0.46808">
        <ele>3641</ele>
        <time>2021-08-08T09:05:31Z</time>
      </trkpt>
      <trkpt lat="42.8634" lon="0.46807">
        <ele>3641</ele>
        <time>2021-08-08T09:05:33Z</time>
      </trkpt>
      <trkpt lat="42.86337" lon="0.46806">
        <ele>3641</ele>
        <time>2021-08-08T09:05:35Z</time>
      </trkpt>
      <trkpt lat="42.86334" lon="0.46805">
        <ele>3641</ele>
        <time>2021-08-08T09:05:37Z</time>
      </trkpt>
      <trkpt lat="42.86331" lon="0.46804">
        <ele>3641</ele>
        <time>2021-08-08T09:05:39Z</time>
      </trkpt>
      <trkpt lat="42.86328" lon="0.46804">
        <ele>3641</ele>
        <time>2021-08-08T09:05:41Z</time>
      </trkpt>
      <trkpt lat="42.86325" lon="0.46803">
        <ele>3641</ele>
        <time>2021-08-08T09:05:43Z</time>
      </trkpt>
      <trkpt lat="42.86323" lon="0.46802">
        <ele>3641</ele>
        <time>2021-08-08T09:05:45Z</time>
      </trkpt>
      <trkpt lat="42.8632" lon="0.46802">
        <ele>3641</ele>
        <time>2021-08-08T09:05:47Z</time>
      </trkpt>
      <trkpt lat="42.86317" lon="0.468">
        <ele>3641</ele>
        <time>2021-08-08T09:05:49Z</time>
      </trkpt>
      <trkpt lat="42.86314" lon="0.46799">
        <ele>3641</ele>
        <time>2021-08-08T09:05:51Z</time>
      </trkpt>
      <trkpt lat="42.86312" lon="0.46799">
        <ele>3641</ele>
        <time>2021-08-08T09:05:53Z</time>
      </trkpt>
      <trkpt lat="42.86309" lon="0.46797">
        <ele>3641</ele>
        <time>2021-08-08T09:05:55Z</time>
      </trkpt>
      <trkpt lat="42.86306" lon="0.46796">
        <ele>3641</ele>
        <time>2021-08-08T09:05:57Z</time>
      </trkpt>
      <trkpt lat="42.86304" lon="0.46795">
        <ele>3641</ele>
        <time>2021-08-08T09:05:59Z</time>
      </trkpt>
      <trkpt lat="42.86301" lon="0.46795">
        <ele>3641</ele>
        <time>2021-08-08T09:06:01Z</time>
      </trkpt>
      <trkpt lat="42.86298" lon="0.46795">
        <ele>3641</ele>
        <time>2021-08-08T09:06:03Z</time>
      </trkpt>
      <trkpt lat="42.86296" lon="0.46795">
        <ele>3641</ele>
        <time>2021-08-08T09:06:05Z</time>
      </trkpt>
      <trkpt lat="42.86293" lon="0.46794">
        <ele>3641</ele>
        <time>2021-08-08T09:06:07Z</time>
      </trkpt>
      <trkpt lat="42.86291" lon="0.46793">
        <ele>3641</ele>
        <time>2021-08-08T09:06:09Z</time>
      </trkpt>
      <trkpt lat="42.86288" lon="0.46792">
        <ele>3641</ele>
        <time>2021-08-08T09:06:11Z</time>
      </trkpt>
      <trkpt lat="42.86286" lon="0.46791">
        <ele>3641</ele>
        <time>2021-08-08T09:06:13Z</time>
      </trkpt>
      <trkpt lat="42.86284" lon="0.4679">
        <ele>3641</ele>
        <time>2021-08-08T09:06:15Z</time>
      </trkpt>
      <trkpt lat="42.86281" lon="0.46788">
        <ele>3641</ele>
        <time>2021-08-08T09:06:17Z</time>
      </trkpt>
      <trkpt lat="42.86279" lon="0.46787">
        <ele>3641</ele>
        <time>2021-08-08T09:06:19Z</time>
      </trkpt>
      <trkpt lat="42.86276" lon="0.46786">
        <ele>3641</ele>
        <time>2021-08-08T09:06:21Z</time>
      </trkpt>
      <trkpt lat="42.86273" lon="0.46786">
        <ele>3641</ele>
        <time>2021-08-08T09:06:23Z</time>
      </trkpt>
      <trkpt lat="42.8627" lon="0.46785">
        <ele>3641</ele>
        <time>2021-08-08T09:06:25Z</time>
      </trkpt>
      <trkpt lat="42.86268" lon="0.46784">
        <ele>3641</ele>
        <time>2021-08-08T09:06:27Z</time>
      </trkpt>
      <trkpt lat="42.86265" lon="0.46784">
        <ele>3641</ele>
        <time>2021-08-08T09:06:29Z</time>
      </trkpt>
      <trkpt lat="42.86262" lon="0.46783">
        <ele>3641</ele>
        <time>2021-08-08T09:06:31Z</time>
      </trkpt>
      <trkpt lat="42.86259" lon="0.46782">
        <ele>3641</ele>
        <time>2021-08-08T09:06:33Z</time>
      </trkpt>
      <trkpt lat="42.86256" lon="0.46782">
        <ele>3641</ele>
        <time>2021-08-08T09:06:35Z</time>
      </trkpt>
      <trkpt lat="42.86254" lon="0.4678">
        <ele>3641</ele>
        <time>2021-08-08T09:06:37Z</time>
      </trkpt>
      <trkpt lat="42.86251" lon="0.46779">
        <ele>3641</ele>
        <time>2021-08-08T09:06:39Z</time>
      </trkpt>
      <trkpt lat="42.86249" lon="0.46777">
        <ele>3641</ele>
        <time>2021-08-08T09:06:41Z</time>
      </trkpt>
      <trkpt lat="42.86246" lon="0.46776">
        <ele>3641</ele>
        <time>2021-08-08T09:06:43Z</time>
      </trkpt>
      <trkpt lat="42.86244" lon="0.46774">
        <ele>3641</ele>
        <time>2021-08-08T09:06:45Z</time>
      </trkpt>
      <trkpt lat="42.86242" lon="0.46773">
        <ele>3641</ele>
        <time>2021-08-08T09:06:47Z</time>
      </trkpt>
      <trkpt lat="42.86239" lon="0.46771">
        <ele>3641</ele>
        <time>2021-08-08T09:06:49Z</time>
      </trkpt>
      <trkpt lat="42.86237" lon="0.46769">
        <ele>3641</ele>
        <time>2021-08-08T09:06:51Z</time>
      </trkpt>
      <trkpt lat="42.86234" lon="0.46767">
        <ele>3641</ele>
        <time>2021-08-08T09:06:53Z</time>
      </trkpt>
      <trkpt lat="42.86232" lon="0.46766">
        <ele>3641</ele>
        <time>2021-08-08T09:06:55Z</time>
      </trkpt>
      <trkpt lat="42.8623" lon="0.46764">
        <ele>3641</ele>
        <time>2021-08-08T09:06:57Z</time>
      </trkpt>
      <trkpt lat="42.86227" lon="0.46764">
        <ele>3641</ele>
        <time>2021-08-08T09:06:59Z</time>
      </trkpt>
      <trkpt lat="42.86224" lon="0.46763">
        <ele>3641</ele>
        <time>2021-08-08T09:07:01Z</time>
      </trkpt>
      <trkpt lat="42.86221" lon="0.46763">
        <ele>3641</ele>
        <time>2021-08-08T09:07:03Z</time>
      </trkpt>
      <trkpt lat="42.86219" lon="0.46762">
        <ele>3641</ele>
        <time>2021-08-08T09:07:05Z</time>
      </trkpt>
      <trkpt lat="42.86216" lon="0.46761">
        <ele>3641</ele>
        <time>2021-08-08T09:07:07Z</time>
      </trkpt>
      <trkpt lat="42.86214" lon="0.46758">
        <ele>3641</ele>
        <time>2021-08-08T09:07:09Z</time>
      </trkpt>
      <trkpt lat="42.86212" lon="0.46755">
        <ele>3641</ele>
        <time>2021-08-08T09:07:11Z</time>
      </trkpt>
      <trkpt lat="42.86211" lon="0.46752">
        <ele>3641</ele>
        <time>2021-08-08T09:07:13Z</time>
      </trkpt>
      <trkpt lat="42.86209" lon="0.4675">
        <ele>3641</ele>
        <time>2021-08-08T09:07:15Z</time>
      </trkpt>
      <trkpt lat="42.86207" lon="0.46747">
        <ele>3641</ele>
        <time>2021-08-08T09:07:17Z</time>
      </trkpt>
      <trkpt lat="42.86206" lon="0.46744">
        <ele>3641</ele>
        <time>2021-08-08T09:07:19Z</time>
      </trkpt>
      <trkpt lat="42.86204" lon="0.46741">
        <ele>3641</ele>
        <time>2021-08-08T09:07:21Z</time>
      </trkpt>
      <trkpt lat="42.86203" lon="0.46738">
        <ele>3641</ele>
        <time>2021-08-08T09:07:23Z</time>
      </trkpt>
      <trkpt lat="42.86202" lon="0.46734">
        <ele>3641</ele>
        <time>2021-08-08T09:07:25Z</time>
      </trkpt>
      <trkpt lat="42.86201" lon="0.46731">
        <ele>3641</ele>
        <time>2021-08-08T09:07:27Z</time>
      </trkpt>
      <trkpt lat="42.862" lon="0.46727">
        <ele>3641</ele>
        <time>2021-08-08T09:07:29Z</time>
      </trkpt>
      <trkpt lat="42.86199" lon="0.46723">
        <ele>3641</ele>
        <time>2021-08-08T09:07:31Z</time>
      </trkpt>
      <trkpt lat="42.862" lon="0.46719">
        <ele>3641</ele>
        <time>2021-08-08T09:07:33Z</time>
      </trkpt>
      <trkpt lat="42.862" lon="0.46715">
        <ele>3641</ele>
        <time>2021-08-08T09:07:35Z</time>
      </trkpt>
      <trkpt lat="42.862" lon="0.46712">
        <ele>3641</ele>
        <time>2021-08-08T09:07:37Z</time>
      </trkpt>
      <trkpt lat="42.862" lon="0.46709">
        <ele>3641</ele>
        <time>2021-08-08T09:07:39Z</time>
      </trkpt>
      <trkpt lat="42.86199" lon="0.46707">
        <ele>3641</ele>
        <time>2021-08-08T09:07:41Z</time>
      </trkpt>
      <trkpt lat="42.86199" lon="0.46704">
        <ele>3641</ele>
        <time>2021-08-08T09:07:43Z</time>
      </trkpt>
      <trkpt lat="42.862" lon="0.467">
        <ele>3641</ele>
        <time>2021-08-08T09:07:46Z</time>
      </trkpt>
      <trkpt lat="42.86201" lon="0.46697">
        <ele>3641</ele>
        <time>2021-08-08T09:07:48Z</time>
      </trkpt>
      <trkpt lat="42.86201" lon="0.46694">
        <ele>3641</ele>
        <time>2021-08-08T09:07:50Z</time>
      </trkpt>
      <trkpt lat="42.86201" lon="0.46692">
        <ele>3614</ele>
        <time>2021-08-08T09:07:54Z</time>
      </trkpt>
      <trkpt lat="42.86201" lon="0.46688">
        <ele>3614</ele>
        <time>2021-08-08T09:07:57Z</time>
      </trkpt>
      <trkpt lat="42.86201" lon="0.46685">
        <ele>3614</ele>
        <time>2021-08-08T09:07:59Z</time>
      </trkpt>
      <trkpt lat="42.86201" lon="0.46683">
        <ele>3614</ele>
        <time>2021-08-08T09:08:01Z</time>
      </trkpt>
      <trkpt lat="42.86201" lon="0.46679">
        <ele>3613</ele>
        <time>2021-08-08T09:08:04Z</time>
      </trkpt>
      <trkpt lat="42.86201" lon="0.46676">
        <ele>3613</ele>
        <time>2021-08-08T09:08:06Z</time>
      </trkpt>
      <trkpt lat="42.86202" lon="0.46673">
        <ele>3613</ele>
        <time>2021-08-08T09:08:09Z</time>
      </trkpt>
      <trkpt lat="42.86202" lon="0.46671">
        <ele>3613</ele>
        <time>2021-08-08T09:08:11Z</time>
      </trkpt>
      <trkpt lat="42.86202" lon="0.46668">
        <ele>3613</ele>
        <time>2021-08-08T09:08:13Z</time>
      </trkpt>
      <trkpt lat="42.86203" lon="0.46665">
        <ele>3613</ele>
        <time>2021-08-08T09:08:15Z</time>
      </trkpt>
      <trkpt lat="42.86204" lon="0.46662">
        <ele>3613</ele>
        <time>2021-08-08T09:08:17Z</time>
      </trkpt>
      <trkpt lat="42.86205" lon="0.4666">
        <ele>3613</ele>
        <time>2021-08-08T09:08:19Z</time>
      </trkpt>
      <trkpt lat="42.86206" lon="0.46658">
        <ele>3613</ele>
        <time>2021-08-08T09:08:21Z</time>
      </trkpt>
      <trkpt lat="42.86207" lon="0.46656">
        <ele>3613</ele>
        <time>2021-08-08T09:08:23Z</time>
      </trkpt>
      <trkpt lat="42.86208" lon="0.46653">
        <ele>3613</ele>
        <time>2021-08-08T09:08:25Z</time>
      </trkpt>
      <trkpt lat="42.86207" lon="0.4665">
        <ele>3613</ele>
        <time>2021-08-08T09:08:27Z</time>
      </trkpt>
      <trkpt lat="42.86208" lon="0.46648">
        <ele>3613</ele>
        <time>2021-08-08T09:08:29Z</time>
      </trkpt>
      <trkpt lat="42.86208" lon="0.46644">
        <ele>3613</ele>
        <time>2021-08-08T09:08:31Z</time>
      </trkpt>
      <trkpt lat="42.86209" lon="0.46641">
        <ele>3613</ele>
        <time>2021-08-08T09:08:33Z</time>
      </trkpt>
      <trkpt lat="42.8621" lon="0.46639">
        <ele>3613</ele>
        <time>2021-08-08T09:08:35Z</time>
      </trkpt>
      <trkpt lat="42.86211" lon="0.46636">
        <ele>3613</ele>
        <time>2021-08-08T09:08:37Z</time>
      </trkpt>
      <trkpt lat="42.86211" lon="0.46633">
        <ele>3613</ele>
        <time>2021-08-08T09:08:39Z</time>
      </trkpt>
      <trkpt lat="42.86212" lon="0.46631">
        <ele>3613</ele>
        <time>2021-08-08T09:08:41Z</time>
      </trkpt>
      <trkpt lat="42.86213" lon="0.46628">
        <ele>3613</ele>
        <time>2021-08-08T09:08:43Z</time>
      </trkpt>
      <trkpt lat="42.86214" lon="0.46626">
        <ele>3613</ele>
        <time>2021-08-08T09:08:45Z</time>
      </trkpt>
      <trkpt lat="42.86215" lon="0.46623">
        <ele>3613</ele>
        <time>2021-08-08T09:08:47Z</time>
      </trkpt>
      <trkpt lat="42.86215" lon="0.46621">
        <ele>3613</ele>
        <time>2021-08-08T09:08:49Z</time>
      </trkpt>
      <trkpt lat="42.86216" lon="0.46617">
        <ele>3613</ele>
        <time>2021-08-08T09:08:52Z</time>
      </trkpt>
      <trkpt lat="42.86217" lon="0.46614">
        <ele>3623</ele>
        <time>2021-08-08T09:08:54Z</time>
      </trkpt>
      <trkpt lat="42.86217" lon="0.46611">
        <ele>3623</ele>
        <time>2021-08-08T09:08:57Z</time>
      </trkpt>
      <trkpt lat="42.86217" lon="0.46607">
        <ele>3623</ele>
        <time>2021-08-08T09:08:59Z</time>
      </trkpt>
      <trkpt lat="42.86218" lon="0.46605">
        <ele>3623</ele>
        <time>2021-08-08T09:09:01Z</time>
      </trkpt>
      <trkpt lat="42.86218" lon="0.46602">
        <ele>3623</ele>
        <time>2021-08-08T09:09:03Z</time>
      </trkpt>
      <trkpt lat="42.86219" lon="0.46599">
        <ele>3623</ele>
        <time>2021-08-08T09:09:05Z</time>
      </trkpt>
      <trkpt lat="42.8622" lon="0.46597">
        <ele>3623</ele>
        <time>2021-08-08T09:09:07Z</time>
      </trkpt>
      <trkpt lat="42.86221" lon="0.46595">
        <ele>3623</ele>
        <time>2021-08-08T09:09:09Z</time>
      </trkpt>
      <trkpt lat="42.86222" lon="0.46592">
        <ele>3623</ele>
        <time>2021-08-08T09:09:11Z</time>
      </trkpt>
      <trkpt lat="42.86224" lon="0.46589">
        <ele>3623</ele>
        <time>2021-08-08T09:09:13Z</time>
      </trkpt>
      <trkpt lat="42.86225" lon="0.46586">
        <ele>3623</ele>
        <time>2021-08-08T09:09:15Z</time>
      </trkpt>
      <trkpt lat="42.86226" lon="0.46585">
        <ele>3623</ele>
        <time>2021-08-08T09:09:17Z</time>
      </trkpt>
      <trkpt lat="42.86228" lon="0.46582">
        <ele>3623</ele>
        <time>2021-08-08T09:09:19Z</time>
      </trkpt>
      <trkpt lat="42.86228" lon="0.4658">
        <ele>3623</ele>
        <time>2021-08-08T09:09:21Z</time>
      </trkpt>
      <trkpt lat="42.86229" lon="0.46577">
        <ele>3628</ele>
        <time>2021-08-08T09:09:24Z</time>
      </trkpt>
      <trkpt lat="42.86228" lon="0.46574">
        <ele>3628</ele>
        <time>2021-08-08T09:09:27Z</time>
      </trkpt>
      <trkpt lat="42.86228" lon="0.46571">
        <ele>3628</ele>
        <time>2021-08-08T09:09:29Z</time>
      </trkpt>
      <trkpt lat="42.86228" lon="0.46568">
        <ele>3628</ele>
        <time>2021-08-08T09:09:31Z</time>
      </trkpt>
      <trkpt lat="42.86228" lon="0.46565">
        <ele>3628</ele>
        <time>2021-08-08T09:09:33Z</time>
      </trkpt>
      <trkpt lat="42.86228" lon="0.46562">
        <ele>3628</ele>
        <time>2021-08-08T09:09:35Z</time>
      </trkpt>
      <trkpt lat="42.86228" lon="0.46558">
        <ele>3628</ele>
        <time>2021-08-08T09:09:37Z</time>
      </trkpt>
      <trkpt lat="42.86227" lon="0.46555">
        <ele>3628</ele>
        <time>2021-08-08T09:09:39Z</time>
      </trkpt>
      <trkpt lat="42.86226" lon="0.46552">
        <ele>3628</ele>
        <time>2021-08-08T09:09:41Z</time>
      </trkpt>
      <trkpt lat="42.86225" lon="0.46548">
        <ele>3628</ele>
        <time>2021-08-08T09:09:43Z</time>
      </trkpt>
      <trkpt lat="42.86225" lon="0.46545">
        <ele>3628</ele>
        <time>2021-08-08T09:09:45Z</time>
      </trkpt>
      <trkpt lat="42.86225" lon="0.46542">
        <ele>3628</ele>
        <time>2021-08-08T09:09:47Z</time>
      </trkpt>
      <trkpt lat="42.86224" lon="0.46538">
        <ele>3628</ele>
        <time>2021-08-08T09:09:49Z</time>
      </trkpt>
      <trkpt lat="42.86223" lon="0.46535">
        <ele>3628</ele>
        <time>2021-08-08T09:09:51Z</time>
      </trkpt>
      <trkpt lat="42.86223" lon="0.46532">
        <ele>3628</ele>
        <time>2021-08-08T09:09:53Z</time>
      </trkpt>
      <trkpt lat="42.86222" lon="0.46529">
        <ele>3628</ele>
        <time>2021-08-08T09:09:55Z</time>
      </trkpt>
      <trkpt lat="42.86221" lon="0.46526">
        <ele>3628</ele>
        <time>2021-08-08T09:09:57Z</time>
      </trkpt>
      <trkpt lat="42.86219" lon="0.46523">
        <ele>3628</ele>
        <time>2021-08-08T09:09:59Z</time>
      </trkpt>
      <trkpt lat="42.86218" lon="0.4652">
        <ele>3628</ele>
        <time>2021-08-08T09:10:01Z</time>
      </trkpt>
      <trkpt lat="42.86217" lon="0.46517">
        <ele>3628</ele>
        <time>2021-08-08T09:10:03Z</time>
      </trkpt>
      <trkpt lat="42.86216" lon="0.46514">
        <ele>3628</ele>
        <time>2021-08-08T09:10:05Z</time>
      </trkpt>
      <trkpt lat="42.86216" lon="0.46511">
        <ele>3628</ele>
        <time>2021-08-08T09:10:07Z</time>
      </trkpt>
      <trkpt lat="42.86215" lon="0.46508">
        <ele>3628</ele>
        <time>2021-08-08T09:10:09Z</time>
      </trkpt>
      <trkpt lat="42.86215" lon="0.46504">
        <ele>3628</ele>
        <time>2021-08-08T09:10:11Z</time>
      </trkpt>
      <trkpt lat="42.86214" lon="0.46501">
        <ele>3628</ele>
        <time>2021-08-08T09:10:13Z</time>
      </trkpt>
      <trkpt lat="42.86214" lon="0.46498">
        <ele>3628</ele>
        <time>2021-08-08T09:10:15Z</time>
      </trkpt>
      <trkpt lat="42.86214" lon="0.46495">
        <ele>3628</ele>
        <time>2021-08-08T09:10:17Z</time>
      </trkpt>
      <trkpt lat="42.86213" lon="0.46492">
        <ele>3628</ele>
        <time>2021-08-08T09:10:19Z</time>
      </trkpt>
      <trkpt lat="42.86212" lon="0.46489">
        <ele>3628</ele>
        <time>2021-08-08T09:10:21Z</time>
      </trkpt>
      <trkpt lat="42.86211" lon="0.46485">
        <ele>3628</ele>
        <time>2021-08-08T09:10:23Z</time>
      </trkpt>
      <trkpt lat="42.86211" lon="0.46481">
        <ele>3628</ele>
        <time>2021-08-08T09:10:25Z</time>
      </trkpt>
      <trkpt lat="42.8621" lon="0.46478">
        <ele>3628</ele>
        <time>2021-08-08T09:10:27Z</time>
      </trkpt>
      <trkpt lat="42.8621" lon="0.46474">
        <ele>3628</ele>
        <time>2021-08-08T09:10:29Z</time>
      </trkpt>
      <trkpt lat="42.8621" lon="0.46471">
        <ele>3628</ele>
        <time>2021-08-08T09:10:31Z</time>
      </trkpt>
      <trkpt lat="42.86211" lon="0.46467">
        <ele>3628</ele>
        <time>2021-08-08T09:10:33Z</time>
      </trkpt>
      <trkpt lat="42.86211" lon="0.46464">
        <ele>3628</ele>
        <time>2021-08-08T09:10:35Z</time>
      </trkpt>
      <trkpt lat="42.86211" lon="0.4646">
        <ele>3628</ele>
        <time>2021-08-08T09:10:37Z</time>
      </trkpt>
      <trkpt lat="42.8621" lon="0.46457">
        <ele>3628</ele>
        <time>2021-08-08T09:10:39Z</time>
      </trkpt>
      <trkpt lat="42.86211" lon="0.46454">
        <ele>3628</ele>
        <time>2021-08-08T09:10:43Z</time>
      </trkpt>
      <trkpt lat="42.86211" lon="0.46451">
        <ele>3628</ele>
        <time>2021-08-08T09:10:45Z</time>
      </trkpt>
      <trkpt lat="42.8621" lon="0.46448">
        <ele>3628</ele>
        <time>2021-08-08T09:10:47Z</time>
      </trkpt>
      <trkpt lat="42.86209" lon="0.46446">
        <ele>3628</ele>
        <time>2021-08-08T09:10:50Z</time>
      </trkpt>
      <trkpt lat="42.86208" lon="0.46444">
        <ele>3628</ele>
        <time>2021-08-08T09:10:57Z</time>
      </trkpt>
      <trkpt lat="42.86207" lon="0.46442">
        <ele>3628</ele>
        <time>2021-08-08T09:11:01Z</time>
      </trkpt>
      <trkpt lat="42.86206" lon="0.46439">
        <ele>3630</ele>
        <time>2021-08-08T09:11:04Z</time>
      </trkpt>
      <trkpt lat="42.86205" lon="0.46436">
        <ele>3630</ele>
        <time>2021-08-08T09:11:06Z</time>
      </trkpt>
      <trkpt lat="42.86203" lon="0.46433">
        <ele>3630</ele>
        <time>2021-08-08T09:11:08Z</time>
      </trkpt>
      <trkpt lat="42.86202" lon="0.46429">
        <ele>3630</ele>
        <time>2021-08-08T09:11:10Z</time>
      </trkpt>
      <trkpt lat="42.86201" lon="0.46426">
        <ele>3630</ele>
        <time>2021-08-08T09:11:12Z</time>
      </trkpt>
      <trkpt lat="42.862" lon="0.46423">
        <ele>3630</ele>
        <time>2021-08-08T09:11:14Z</time>
      </trkpt>
      <trkpt lat="42.86198" lon="0.4642">
        <ele>3630</ele>
        <time>2021-08-08T09:11:16Z</time>
      </trkpt>
      <trkpt lat="42.86197" lon="0.46416">
        <ele>3630</ele>
        <time>2021-08-08T09:11:18Z</time>
      </trkpt>
      <trkpt lat="42.86196" lon="0.46412">
        <ele>3630</ele>
        <time>2021-08-08T09:11:20Z</time>
      </trkpt>
      <trkpt lat="42.86195" lon="0.46409">
        <ele>3630</ele>
        <time>2021-08-08T09:11:22Z</time>
      </trkpt>
      <trkpt lat="42.86195" lon="0.46405">
        <ele>3630</ele>
        <time>2021-08-08T09:11:24Z</time>
      </trkpt>
      <trkpt lat="42.86194" lon="0.46401">
        <ele>3630</ele>
        <time>2021-08-08T09:11:26Z</time>
      </trkpt>
      <trkpt lat="42.86193" lon="0.46398">
        <ele>3630</ele>
        <time>2021-08-08T09:11:28Z</time>
      </trkpt>
      <trkpt lat="42.86192" lon="0.46394">
        <ele>3630</ele>
        <time>2021-08-08T09:11:30Z</time>
      </trkpt>
      <trkpt lat="42.86192" lon="0.46391">
        <ele>3630</ele>
        <time>2021-08-08T09:11:32Z</time>
      </trkpt>
      <trkpt lat="42.86191" lon="0.46387">
        <ele>3631</ele>
        <time>2021-08-08T09:11:34Z</time>
      </trkpt>
      <trkpt lat="42.8619" lon="0.46385">
        <ele>3631</ele>
        <time>2021-08-08T09:11:36Z</time>
      </trkpt>
      <trkpt lat="42.86188" lon="0.46382">
        <ele>3631</ele>
        <time>2021-08-08T09:11:38Z</time>
      </trkpt>
      <trkpt lat="42.86187" lon="0.46379">
        <ele>3631</ele>
        <time>2021-08-08T09:11:40Z</time>
      </trkpt>
      <trkpt lat="42.86186" lon="0.46375">
        <ele>3631</ele>
        <time>2021-08-08T09:11:42Z</time>
      </trkpt>
      <trkpt lat="42.86184" lon="0.46371">
        <ele>3633</ele>
        <time>2021-08-08T09:11:44Z</time>
      </trkpt>
      <trkpt lat="42.86183" lon="0.46368">
        <ele>3633</ele>
        <time>2021-08-08T09:11:46Z</time>
      </trkpt>
      <trkpt lat="42.86182" lon="0.46365">
        <ele>3633</ele>
        <time>2021-08-08T09:11:48Z</time>
      </trkpt>
      <trkpt lat="42.8618" lon="0.46362">
        <ele>3633</ele>
        <time>2021-08-08T09:11:50Z</time>
      </trkpt>
      <trkpt lat="42.86178" lon="0.46361">
        <ele>3633</ele>
        <time>2021-08-08T09:11:53Z</time>
      </trkpt>
      <trkpt lat="42.86176" lon="0.46359">
        <ele>3633</ele>
        <time>2021-08-08T09:11:57Z</time>
      </trkpt>
      <trkpt lat="42.86175" lon="0.46357">
        <ele>3633</ele>
        <time>2021-08-08T09:11:59Z</time>
      </trkpt>
      <trkpt lat="42.86173" lon="0.46355">
        <ele>3633</ele>
        <time>2021-08-08T09:12:01Z</time>
      </trkpt>
      <trkpt lat="42.86171" lon="0.46352">
        <ele>3633</ele>
        <time>2021-08-08T09:12:03Z</time>
      </trkpt>
      <trkpt lat="42.86169" lon="0.4635">
        <ele>3633</ele>
        <time>2021-08-08T09:12:05Z</time>
      </trkpt>
      <trkpt lat="42.86167" lon="0.46347">
        <ele>3633</ele>
        <time>2021-08-08T09:12:07Z</time>
      </trkpt>
      <trkpt lat="42.86165" lon="0.46344">
        <ele>3633</ele>
        <time>2021-08-08T09:12:09Z</time>
      </trkpt>
      <trkpt lat="42.86164" lon="0.4634">
        <ele>3633</ele>
        <time>2021-08-08T09:12:11Z</time>
      </trkpt>
      <trkpt lat="42.86164" lon="0.46338">
        <ele>3633</ele>
        <time>2021-08-08T09:12:13Z</time>
      </trkpt>
      <trkpt lat="42.86162" lon="0.46335">
        <ele>3633</ele>
        <time>2021-08-08T09:12:16Z</time>
      </trkpt>
      <trkpt lat="42.86161" lon="0.46332">
        <ele>3633</ele>
        <time>2021-08-08T09:12:18Z</time>
      </trkpt>
      <trkpt lat="42.86159" lon="0.46328">
        <ele>3633</ele>
        <time>2021-08-08T09:12:20Z</time>
      </trkpt>
      <trkpt lat="42.86158" lon="0.46325">
        <ele>3633</ele>
        <time>2021-08-08T09:12:22Z</time>
      </trkpt>
      <trkpt lat="42.86156" lon="0.46321">
        <ele>3631</ele>
        <time>2021-08-08T09:12:24Z</time>
      </trkpt>
      <trkpt lat="42.86155" lon="0.46316">
        <ele>3631</ele>
        <time>2021-08-08T09:12:26Z</time>
      </trkpt>
      <trkpt lat="42.86154" lon="0.46313">
        <ele>3631</ele>
        <time>2021-08-08T09:12:28Z</time>
      </trkpt>
      <trkpt lat="42.86154" lon="0.46309">
        <ele>3631</ele>
        <time>2021-08-08T09:12:30Z</time>
      </trkpt>
      <trkpt lat="42.86153" lon="0.46305">
        <ele>3631</ele>
        <time>2021-08-08T09:12:32Z</time>
      </trkpt>
      <trkpt lat="42.86153" lon="0.46302">
        <ele>3631</ele>
        <time>2021-08-08T09:12:34Z</time>
      </trkpt>
      <trkpt lat="42.86152" lon="0.46298">
        <ele>3631</ele>
        <time>2021-08-08T09:12:36Z</time>
      </trkpt>
      <trkpt lat="42.86151" lon="0.46295">
        <ele>3631</ele>
        <time>2021-08-08T09:12:38Z</time>
      </trkpt>
      <trkpt lat="42.86151" lon="0.46292">
        <ele>3631</ele>
        <time>2021-08-08T09:12:40Z</time>
      </trkpt>
      <trkpt lat="42.86149" lon="0.4629">
        <ele>3631</ele>
        <time>2021-08-08T09:12:42Z</time>
      </trkpt>
      <trkpt lat="42.86148" lon="0.46287">
        <ele>3630</ele>
        <time>2021-08-08T09:12:44Z</time>
      </trkpt>
      <trkpt lat="42.86148" lon="0.46284">
        <ele>3630</ele>
        <time>2021-08-08T09:12:46Z</time>
      </trkpt>
      <trkpt lat="42.86147" lon="0.46281">
        <ele>3630</ele>
        <time>2021-08-08T09:12:48Z</time>
      </trkpt>
      <trkpt lat="42.86147" lon="0.46278">
        <ele>3630</ele>
        <time>2021-08-08T09:12:50Z</time>
      </trkpt>
      <trkpt lat="42.86147" lon="0.46275">
        <ele>3630</ele>
        <time>2021-08-08T09:12:52Z</time>
      </trkpt>
      <trkpt lat="42.86148" lon="0.46271">
        <ele>3630</ele>
        <time>2021-08-08T09:12:54Z</time>
      </trkpt>
      <trkpt lat="42.86149" lon="0.46267">
        <ele>3630</ele>
        <time>2021-08-08T09:12:56Z</time>
      </trkpt>
      <trkpt lat="42.8615" lon="0.46264">
        <ele>3630</ele>
        <time>2021-08-08T09:12:58Z</time>
      </trkpt>
      <trkpt lat="42.86151" lon="0.46261">
        <ele>3630</ele>
        <time>2021-08-08T09:13:00Z</time>
      </trkpt>
      <trkpt lat="42.86152" lon="0.46258">
        <ele>3630</ele>
        <time>2021-08-08T09:13:02Z</time>
      </trkpt>
      <trkpt lat="42.86153" lon="0.46255">
        <ele>3631</ele>
        <time>2021-08-08T09:13:04Z</time>
      </trkpt>
      <trkpt lat="42.86154" lon="0.46251">
        <ele>3631</ele>
        <time>2021-08-08T09:13:06Z</time>
      </trkpt>
      <trkpt lat="42.86155" lon="0.46248">
        <ele>3631</ele>
        <time>2021-08-08T09:13:08Z</time>
      </trkpt>
      <trkpt lat="42.86155" lon="0.46244">
        <ele>3631</ele>
        <time>2021-08-08T09:13:10Z</time>
      </trkpt>
      <trkpt lat="42.86155" lon="0.46241">
        <ele>3631</ele>
        <time>2021-08-08T09:13:12Z</time>
      </trkpt>
      <trkpt lat="42.86154" lon="0.46239">
        <ele>3631</ele>
        <time>2021-08-08T09:13:14Z</time>
      </trkpt>
      <trkpt lat="42.86153" lon="0.46235">
        <ele>3631</ele>
        <time>2021-08-08T09:13:16Z</time>
      </trkpt>
      <trkpt lat="42.86152" lon="0.46232">
        <ele>3631</ele>
        <time>2021-08-08T09:13:18Z</time>
      </trkpt>
      <trkpt lat="42.86153" lon="0.46229">
        <ele>3631</ele>
        <time>2021-08-08T09:13:20Z</time>
      </trkpt>
      <trkpt lat="42.86153" lon="0.46225">
        <ele>3631</ele>
        <time>2021-08-08T09:13:22Z</time>
      </trkpt>
      <trkpt lat="42.86152" lon="0.46222">
        <ele>3629</ele>
        <time>2021-08-08T09:13:24Z</time>
      </trkpt>
      <trkpt lat="42.86151" lon="0.46219">
        <ele>3629</ele>
        <time>2021-08-08T09:13:26Z</time>
      </trkpt>
      <trkpt lat="42.8615" lon="0.46217">
        <ele>3629</ele>
        <time>2021-08-08T09:13:28Z</time>
      </trkpt>
      <trkpt lat="42.86149" lon="0.46213">
        <ele>3629</ele>
        <time>2021-08-08T09:13:30Z</time>
      </trkpt>
      <trkpt lat="42.86149" lon="0.4621">
        <ele>3629</ele>
        <time>2021-08-08T09:13:32Z</time>
      </trkpt>
      <trkpt lat="42.86149" lon="0.46207">
        <ele>3625</ele>
        <time>2021-08-08T09:13:34Z</time>
      </trkpt>
      <trkpt lat="42.86149" lon="0.46204">
        <ele>3625</ele>
        <time>2021-08-08T09:13:36Z</time>
      </trkpt>
      <trkpt lat="42.86149" lon="0.46202">
        <ele>3625</ele>
        <time>2021-08-08T09:13:38Z</time>
      </trkpt>
      <trkpt lat="42.86148" lon="0.46199">
        <ele>3625</ele>
        <time>2021-08-08T09:13:40Z</time>
      </trkpt>
      <trkpt lat="42.86148" lon="0.46195">
        <ele>3625</ele>
        <time>2021-08-08T09:13:42Z</time>
      </trkpt>
      <trkpt lat="42.86147" lon="0.46192">
        <ele>3624</ele>
        <time>2021-08-08T09:13:44Z</time>
      </trkpt>
      <trkpt lat="42.86147" lon="0.46189">
        <ele>3624</ele>
        <time>2021-08-08T09:13:47Z</time>
      </trkpt>
      <trkpt lat="42.86147" lon="0.46186">
        <ele>3624</ele>
        <time>2021-08-08T09:13:49Z</time>
      </trkpt>
      <trkpt lat="42.86149" lon="0.46184">
        <ele>3624</ele>
        <time>2021-08-08T09:13:51Z</time>
      </trkpt>
      <trkpt lat="42.86151" lon="0.46183">
        <ele>3624</ele>
        <time>2021-08-08T09:13:53Z</time>
      </trkpt>
      <trkpt lat="42.86153" lon="0.46184">
        <ele>3624</ele>
        <time>2021-08-08T09:14:37Z</time>
      </trkpt>
      <trkpt lat="42.86151" lon="0.46183">
        <ele>3624</ele>
        <time>2021-08-08T09:17:02Z</time>
      </trkpt>
      <trkpt lat="42.86149" lon="0.46183">
        <ele>3624</ele>
        <time>2021-08-08T09:17:07Z</time>
      </trkpt>
      <trkpt lat="42.86147" lon="0.46184">
        <ele>3624</ele>
        <time>2021-08-08T09:17:09Z</time>
      </trkpt>
      <trkpt lat="42.86145" lon="0.46186">
        <ele>3624</ele>
        <time>2021-08-08T09:17:11Z</time>
      </trkpt>
      <trkpt lat="42.86143" lon="0.46187">
        <ele>3624</ele>
        <time>2021-08-08T09:17:13Z</time>
      </trkpt>
      <trkpt lat="42.86141" lon="0.46189">
        <ele>3624</ele>
        <time>2021-08-08T09:17:15Z</time>
      </trkpt>
      <trkpt lat="42.86138" lon="0.4619">
        <ele>3624</ele>
        <time>2021-08-08T09:17:17Z</time>
      </trkpt>
      <trkpt lat="42.86136" lon="0.46191">
        <ele>3624</ele>
        <time>2021-08-08T09:17:19Z</time>
      </trkpt>
      <trkpt lat="42.86134" lon="0.46192">
        <ele>3624</ele>
        <time>2021-08-08T09:17:21Z</time>
      </trkpt>
      <trkpt lat="42.86132" lon="0.46194">
        <ele>3624</ele>
        <time>2021-08-08T09:17:23Z</time>
      </trkpt>
      <trkpt lat="42.8613" lon="0.46195">
        <ele>3624</ele>
        <time>2021-08-08T09:17:25Z</time>
      </trkpt>
      <trkpt lat="42.86128" lon="0.46196">
        <ele>3624</ele>
        <time>2021-08-08T09:17:27Z</time>
      </trkpt>
      <trkpt lat="42.86126" lon="0.46197">
        <ele>3624</ele>
        <time>2021-08-08T09:17:30Z</time>
      </trkpt>
      <trkpt lat="42.86124" lon="0.46198">
        <ele>3624</ele>
        <time>2021-08-08T09:17:45Z</time>
      </trkpt>
      <trkpt lat="42.86122" lon="0.462">
        <ele>3624</ele>
        <time>2021-08-08T09:17:48Z</time>
      </trkpt>
      <trkpt lat="42.8612" lon="0.46201">
        <ele>3624</ele>
        <time>2021-08-08T09:17:50Z</time>
      </trkpt>
      <trkpt lat="42.86118" lon="0.46203">
        <ele>3624</ele>
        <time>2021-08-08T09:17:52Z</time>
      </trkpt>
      <trkpt lat="42.86116" lon="0.46204">
        <ele>3620</ele>
        <time>2021-08-08T09:17:54Z</time>
      </trkpt>
      <trkpt lat="42.86114" lon="0.46206">
        <ele>3620</ele>
        <time>2021-08-08T09:17:56Z</time>
      </trkpt>
      <trkpt lat="42.86113" lon="0.46208">
        <ele>3620</ele>
        <time>2021-08-08T09:17:58Z</time>
      </trkpt>
      <trkpt lat="42.86111" lon="0.4621">
        <ele>3620</ele>
        <time>2021-08-08T09:18:00Z</time>
      </trkpt>
      <trkpt lat="42.86109" lon="0.46212">
        <ele>3620</ele>
        <time>2021-08-08T09:18:02Z</time>
      </trkpt>
      <trkpt lat="42.86107" lon="0.46214">
        <ele>3624</ele>
        <time>2021-08-08T09:18:04Z</time>
      </trkpt>
      <trkpt lat="42.86106" lon="0.46215">
        <ele>3624</ele>
        <time>2021-08-08T09:18:06Z</time>
      </trkpt>
      <trkpt lat="42.86104" lon="0.46217">
        <ele>3624</ele>
        <time>2021-08-08T09:18:08Z</time>
      </trkpt>
      <trkpt lat="42.86102" lon="0.46219">
        <ele>3624</ele>
        <time>2021-08-08T09:18:10Z</time>
      </trkpt>
      <trkpt lat="42.861" lon="0.46221">
        <ele>3624</ele>
        <time>2021-08-08T09:18:53Z</time>
      </trkpt>
      <trkpt lat="42.86099" lon="0.46223">
        <ele>3624</ele>
        <time>2021-08-08T09:19:05Z</time>
      </trkpt>
      <trkpt lat="42.86097" lon="0.46224">
        <ele>3624</ele>
        <time>2021-08-08T09:19:07Z</time>
      </trkpt>
      <trkpt lat="42.86095" lon="0.46225">
        <ele>3624</ele>
        <time>2021-08-08T09:19:09Z</time>
      </trkpt>
      <trkpt lat="42.86093" lon="0.46226">
        <ele>3624</ele>
        <time>2021-08-08T09:19:11Z</time>
      </trkpt>
      <trkpt lat="42.86091" lon="0.46228">
        <ele>3624</ele>
        <time>2021-08-08T09:19:13Z</time>
      </trkpt>
      <trkpt lat="42.86089" lon="0.46229">
        <ele>3624</ele>
        <time>2021-08-08T09:19:15Z</time>
      </trkpt>
      <trkpt lat="42.86087" lon="0.46231">
        <ele>3624</ele>
        <time>2021-08-08T09:19:17Z</time>
      </trkpt>
      <trkpt lat="42.86085" lon="0.46232">
        <ele>3624</ele>
        <time>2021-08-08T09:19:19Z</time>
      </trkpt>
      <trkpt lat="42.86083" lon="0.46234">
        <ele>3624</ele>
        <time>2021-08-08T09:19:21Z</time>
      </trkpt>
      <trkpt lat="42.86081" lon="0.46236">
        <ele>3624</ele>
        <time>2021-08-08T09:19:23Z</time>
      </trkpt>
      <trkpt lat="42.8608" lon="0.46238">
        <ele>3624</ele>
        <time>2021-08-08T09:19:25Z</time>
      </trkpt>
      <trkpt lat="42.86078" lon="0.4624">
        <ele>3624</ele>
        <time>2021-08-08T09:19:32Z</time>
      </trkpt>
      <trkpt lat="42.86076" lon="0.46242">
        <ele>3624</ele>
        <time>2021-08-08T09:19:35Z</time>
      </trkpt>
      <trkpt lat="42.86073" lon="0.46242">
        <ele>3624</ele>
        <time>2021-08-08T09:19:37Z</time>
      </trkpt>
      <trkpt lat="42.86072" lon="0.46242">
        <ele>3624</ele>
        <time>2021-08-08T09:19:39Z</time>
      </trkpt>
      <trkpt lat="42.86069" lon="0.46242">
        <ele>3624</ele>
        <time>2021-08-08T09:19:42Z</time>
      </trkpt>
      <trkpt lat="42.86067" lon="0.46243">
        <ele>3635</ele>
        <time>2021-08-08T09:19:44Z</time>
      </trkpt>
      <trkpt lat="42.86065" lon="0.46243">
        <ele>3635</ele>
        <time>2021-08-08T09:19:46Z</time>
      </trkpt>
      <trkpt lat="42.86063" lon="0.46244">
        <ele>3635</ele>
        <time>2021-08-08T09:19:48Z</time>
      </trkpt>
      <trkpt lat="42.86061" lon="0.46245">
        <ele>3635</ele>
        <time>2021-08-08T09:19:50Z</time>
      </trkpt>
      <trkpt lat="42.86059" lon="0.46246">
        <ele>3635</ele>
        <time>2021-08-08T09:19:52Z</time>
      </trkpt>
      <trkpt lat="42.86056" lon="0.46248">
        <ele>3640</ele>
        <time>2021-08-08T09:19:54Z</time>
      </trkpt>
      <trkpt lat="42.86055" lon="0.46249">
        <ele>3640</ele>
        <time>2021-08-08T09:19:56Z</time>
      </trkpt>
      <trkpt lat="42.86052" lon="0.46249">
        <ele>3640</ele>
        <time>2021-08-08T09:19:58Z</time>
      </trkpt>
      <trkpt lat="42.8605" lon="0.4625">
        <ele>3640</ele>
        <time>2021-08-08T09:20:00Z</time>
      </trkpt>
      <trkpt lat="42.86048" lon="0.4625">
        <ele>3640</ele>
        <time>2021-08-08T09:20:02Z</time>
      </trkpt>
      <trkpt lat="42.86046" lon="0.46251">
        <ele>3642</ele>
        <time>2021-08-08T09:20:04Z</time>
      </trkpt>
      <trkpt lat="42.86043" lon="0.46251">
        <ele>3642</ele>
        <time>2021-08-08T09:20:06Z</time>
      </trkpt>
      <trkpt lat="42.86041" lon="0.46252">
        <ele>3642</ele>
        <time>2021-08-08T09:20:08Z</time>
      </trkpt>
      <trkpt lat="42.86039" lon="0.46252">
        <ele>3642</ele>
        <time>2021-08-08T09:20:10Z</time>
      </trkpt>
      <trkpt lat="42.86036" lon="0.46252">
        <ele>3642</ele>
        <time>2021-08-08T09:20:12Z</time>
      </trkpt>
      <trkpt lat="42.86035" lon="0.46253">
        <ele>3642</ele>
        <time>2021-08-08T09:20:14Z</time>
      </trkpt>
      <trkpt lat="42.86033" lon="0.46253">
        <ele>3642</ele>
        <time>2021-08-08T09:20:16Z</time>
      </trkpt>
      <trkpt lat="42.8603" lon="0.46253">
        <ele>3642</ele>
        <time>2021-08-08T09:20:18Z</time>
      </trkpt>
      <trkpt lat="42.86028" lon="0.46254">
        <ele>3642</ele>
        <time>2021-08-08T09:20:20Z</time>
      </trkpt>
      <trkpt lat="42.86026" lon="0.46254">
        <ele>3642</ele>
        <time>2021-08-08T09:20:22Z</time>
      </trkpt>
      <trkpt lat="42.86024" lon="0.46254">
        <ele>3647</ele>
        <time>2021-08-08T09:20:24Z</time>
      </trkpt>
      <trkpt lat="42.86022" lon="0.46254">
        <ele>3647</ele>
        <time>2021-08-08T09:20:26Z</time>
      </trkpt>
      <trkpt lat="42.8602" lon="0.46254">
        <ele>3647</ele>
        <time>2021-08-08T09:20:28Z</time>
      </trkpt>
      <trkpt lat="42.86018" lon="0.46254">
        <ele>3647</ele>
        <time>2021-08-08T09:20:30Z</time>
      </trkpt>
      <trkpt lat="42.86015" lon="0.46254">
        <ele>3647</ele>
        <time>2021-08-08T09:20:32Z</time>
      </trkpt>
      <trkpt lat="42.86013" lon="0.46254">
        <ele>3650</ele>
        <time>2021-08-08T09:20:34Z</time>
      </trkpt>
      <trkpt lat="42.86011" lon="0.46255">
        <ele>3650</ele>
        <time>2021-08-08T09:20:36Z</time>
      </trkpt>
      <trkpt lat="42.86008" lon="0.46255">
        <ele>3650</ele>
        <time>2021-08-08T09:20:38Z</time>
      </trkpt>
      <trkpt lat="42.86006" lon="0.46255">
        <ele>3650</ele>
        <time>2021-08-08T09:20:40Z</time>
      </trkpt>
      <trkpt lat="42.86004" lon="0.46256">
        <ele>3650</ele>
        <time>2021-08-08T09:20:42Z</time>
      </trkpt>
      <trkpt lat="42.86002" lon="0.46256">
        <ele>3652</ele>
        <time>2021-08-08T09:20:44Z</time>
      </trkpt>
      <trkpt lat="42.85999" lon="0.46256">
        <ele>3652</ele>
        <time>2021-08-08T09:20:46Z</time>
      </trkpt>
      <trkpt lat="42.85998" lon="0.46257">
        <ele>3652</ele>
        <time>2021-08-08T09:20:48Z</time>
      </trkpt>
      <trkpt lat="42.85996" lon="0.46257">
        <ele>3652</ele>
        <time>2021-08-08T09:20:50Z</time>
      </trkpt>
      <trkpt lat="42.85993" lon="0.46258">
        <ele>3652</ele>
        <time>2021-08-08T09:20:52Z</time>
      </trkpt>
      <trkpt lat="42.85991" lon="0.46259">
        <ele>3656</ele>
        <time>2021-08-08T09:20:54Z</time>
      </trkpt>
      <trkpt lat="42.85989" lon="0.4626">
        <ele>3656</ele>
        <time>2021-08-08T09:20:56Z</time>
      </trkpt>
      <trkpt lat="42.85987" lon="0.46261">
        <ele>3656</ele>
        <time>2021-08-08T09:20:58Z</time>
      </trkpt>
      <trkpt lat="42.85985" lon="0.46262">
        <ele>3656</ele>
        <time>2021-08-08T09:21:01Z</time>
      </trkpt>
      <trkpt lat="42.85983" lon="0.46264">
        <ele>3656</ele>
        <time>2021-08-08T09:21:03Z</time>
      </trkpt>
      <trkpt lat="42.85981" lon="0.46265">
        <ele>3656</ele>
        <time>2021-08-08T09:21:05Z</time>
      </trkpt>
      <trkpt lat="42.85979" lon="0.46266">
        <ele>3656</ele>
        <time>2021-08-08T09:21:07Z</time>
      </trkpt>
      <trkpt lat="42.85977" lon="0.46266">
        <ele>3656</ele>
        <time>2021-08-08T09:21:09Z</time>
      </trkpt>
      <trkpt lat="42.85975" lon="0.46266">
        <ele>3656</ele>
        <time>2021-08-08T09:21:11Z</time>
      </trkpt>
      <trkpt lat="42.85973" lon="0.46268">
        <ele>3661</ele>
        <time>2021-08-08T09:21:14Z</time>
      </trkpt>
      <trkpt lat="42.85971" lon="0.46268">
        <ele>3661</ele>
        <time>2021-08-08T09:21:16Z</time>
      </trkpt>
      <trkpt lat="42.85969" lon="0.46267">
        <ele>3661</ele>
        <time>2021-08-08T09:21:18Z</time>
      </trkpt>
      <trkpt lat="42.85967" lon="0.46266">
        <ele>3661</ele>
        <time>2021-08-08T09:21:21Z</time>
      </trkpt>
      <trkpt lat="42.85964" lon="0.46266">
        <ele>3661</ele>
        <time>2021-08-08T09:21:23Z</time>
      </trkpt>
      <trkpt lat="42.85962" lon="0.46265">
        <ele>3661</ele>
        <time>2021-08-08T09:21:25Z</time>
      </trkpt>
      <trkpt lat="42.8596" lon="0.46264">
        <ele>3661</ele>
        <time>2021-08-08T09:21:28Z</time>
      </trkpt>
      <trkpt lat="42.85957" lon="0.46264">
        <ele>3661</ele>
        <time>2021-08-08T09:21:31Z</time>
      </trkpt>
      <trkpt lat="42.85955" lon="0.46264">
        <ele>3661</ele>
        <time>2021-08-08T09:21:33Z</time>
      </trkpt>
      <trkpt lat="42.85953" lon="0.46264">
        <ele>3661</ele>
        <time>2021-08-08T09:21:35Z</time>
      </trkpt>
      <trkpt lat="42.85951" lon="0.46265">
        <ele>3661</ele>
        <time>2021-08-08T09:21:37Z</time>
      </trkpt>
      <trkpt lat="42.85949" lon="0.46265">
        <ele>3661</ele>
        <time>2021-08-08T09:21:39Z</time>
      </trkpt>
      <trkpt lat="42.85947" lon="0.46265">
        <ele>3661</ele>
        <time>2021-08-08T09:21:41Z</time>
      </trkpt>
      <trkpt lat="42.85944" lon="0.46266">
        <ele>3668</ele>
        <time>2021-08-08T09:21:44Z</time>
      </trkpt>
      <trkpt lat="42.85942" lon="0.46266">
        <ele>3668</ele>
        <time>2021-08-08T09:21:46Z</time>
      </trkpt>
      <trkpt lat="42.85941" lon="0.46267">
        <ele>3668</ele>
        <time>2021-08-08T09:21:48Z</time>
      </trkpt>
      <trkpt lat="42.85938" lon="0.46268">
        <ele>3668</ele>
        <time>2021-08-08T09:21:51Z</time>
      </trkpt>
      <trkpt lat="42.85936" lon="0.46269">
        <ele>3668</ele>
        <time>2021-08-08T09:21:53Z</time>
      </trkpt>
      <trkpt lat="42.85934" lon="0.4627">
        <ele>3668</ele>
        <time>2021-08-08T09:21:56Z</time>
      </trkpt>
      <trkpt lat="42.85932" lon="0.46271">
        <ele>3668</ele>
        <time>2021-08-08T09:21:58Z</time>
      </trkpt>
      <trkpt lat="42.8593" lon="0.46272">
        <ele>3668</ele>
        <time>2021-08-08T09:22:01Z</time>
      </trkpt>
      <trkpt lat="42.85928" lon="0.46272">
        <ele>3668</ele>
        <time>2021-08-08T09:22:03Z</time>
      </trkpt>
      <trkpt lat="42.85925" lon="0.46274">
        <ele>3668</ele>
        <time>2021-08-08T09:22:06Z</time>
      </trkpt>
      <trkpt lat="42.85923" lon="0.46275">
        <ele>3668</ele>
        <time>2021-08-08T09:22:08Z</time>
      </trkpt>
      <trkpt lat="42.85921" lon="0.46275">
        <ele>3668</ele>
        <time>2021-08-08T09:22:10Z</time>
      </trkpt>
      <trkpt lat="42.85919" lon="0.46276">
        <ele>3668</ele>
        <time>2021-08-08T09:22:12Z</time>
      </trkpt>
      <trkpt lat="42.85917" lon="0.46276">
        <ele>3673</ele>
        <time>2021-08-08T09:22:14Z</time>
      </trkpt>
      <trkpt lat="42.85915" lon="0.46277">
        <ele>3673</ele>
        <time>2021-08-08T09:22:16Z</time>
      </trkpt>
      <trkpt lat="42.85913" lon="0.46277">
        <ele>3673</ele>
        <time>2021-08-08T09:22:18Z</time>
      </trkpt>
      <trkpt lat="42.85911" lon="0.46277">
        <ele>3673</ele>
        <time>2021-08-08T09:22:20Z</time>
      </trkpt>
      <trkpt lat="42.85908" lon="0.46278">
        <ele>3673</ele>
        <time>2021-08-08T09:22:23Z</time>
      </trkpt>
      <trkpt lat="42.85905" lon="0.46278">
        <ele>3673</ele>
        <time>2021-08-08T09:22:28Z</time>
      </trkpt>
      <trkpt lat="42.85904" lon="0.46279">
        <ele>3673</ele>
        <time>2021-08-08T09:22:30Z</time>
      </trkpt>
      <trkpt lat="42.85902" lon="0.4628">
        <ele>3673</ele>
        <time>2021-08-08T09:22:32Z</time>
      </trkpt>
      <trkpt lat="42.859" lon="0.46281">
        <ele>3681</ele>
        <time>2021-08-08T09:22:34Z</time>
      </trkpt>
      <trkpt lat="42.85899" lon="0.46278">
        <ele>3681</ele>
        <time>2021-08-08T09:23:36Z</time>
      </trkpt>
      <trkpt lat="42.85897" lon="0.4628">
        <ele>3681</ele>
        <time>2021-08-08T09:25:09Z</time>
      </trkpt>
      <trkpt lat="42.85895" lon="0.4628">
        <ele>3681</ele>
        <time>2021-08-08T09:25:11Z</time>
      </trkpt>
      <trkpt lat="42.85893" lon="0.46282">
        <ele>3681</ele>
        <time>2021-08-08T09:25:13Z</time>
      </trkpt>
      <trkpt lat="42.8589" lon="0.46283">
        <ele>3681</ele>
        <time>2021-08-08T09:25:15Z</time>
      </trkpt>
      <trkpt lat="42.85888" lon="0.46284">
        <ele>3681</ele>
        <time>2021-08-08T09:25:17Z</time>
      </trkpt>
      <trkpt lat="42.85886" lon="0.46285">
        <ele>3681</ele>
        <time>2021-08-08T09:25:19Z</time>
      </trkpt>
      <trkpt lat="42.85884" lon="0.46285">
        <ele>3681</ele>
        <time>2021-08-08T09:25:21Z</time>
      </trkpt>
      <trkpt lat="42.85881" lon="0.46286">
        <ele>3681</ele>
        <time>2021-08-08T09:25:23Z</time>
      </trkpt>
      <trkpt lat="42.85878" lon="0.46286">
        <ele>3681</ele>
        <time>2021-08-08T09:25:25Z</time>
      </trkpt>
      <trkpt lat="42.85876" lon="0.46286">
        <ele>3681</ele>
        <time>2021-08-08T09:25:27Z</time>
      </trkpt>
      <trkpt lat="42.85874" lon="0.46287">
        <ele>3681</ele>
        <time>2021-08-08T09:25:29Z</time>
      </trkpt>
      <trkpt lat="42.85872" lon="0.46287">
        <ele>3681</ele>
        <time>2021-08-08T09:25:31Z</time>
      </trkpt>
      <trkpt lat="42.8587" lon="0.46287">
        <ele>3681</ele>
        <time>2021-08-08T09:25:33Z</time>
      </trkpt>
      <trkpt lat="42.85868" lon="0.46288">
        <ele>3681</ele>
        <time>2021-08-08T09:25:35Z</time>
      </trkpt>
      <trkpt lat="42.85866" lon="0.46289">
        <ele>3681</ele>
        <time>2021-08-08T09:25:37Z</time>
      </trkpt>
      <trkpt lat="42.85864" lon="0.46289">
        <ele>3681</ele>
        <time>2021-08-08T09:25:39Z</time>
      </trkpt>
      <trkpt lat="42.85862" lon="0.4629">
        <ele>3681</ele>
        <time>2021-08-08T09:25:41Z</time>
      </trkpt>
      <trkpt lat="42.8586" lon="0.4629">
        <ele>3681</ele>
        <time>2021-08-08T09:25:43Z</time>
      </trkpt>
      <trkpt lat="42.85857" lon="0.4629">
        <ele>3681</ele>
        <time>2021-08-08T09:25:46Z</time>
      </trkpt>
      <trkpt lat="42.85855" lon="0.46291">
        <ele>3681</ele>
        <time>2021-08-08T09:25:48Z</time>
      </trkpt>
      <trkpt lat="42.85854" lon="0.46291">
        <ele>3681</ele>
        <time>2021-08-08T09:25:50Z</time>
      </trkpt>
      <trkpt lat="42.85851" lon="0.46291">
        <ele>3681</ele>
        <time>2021-08-08T09:25:53Z</time>
      </trkpt>
      <trkpt lat="42.85848" lon="0.46292">
        <ele>3681</ele>
        <time>2021-08-08T09:25:55Z</time>
      </trkpt>
      <trkpt lat="42.85846" lon="0.46292">
        <ele>3681</ele>
        <time>2021-08-08T09:25:58Z</time>
      </trkpt>
      <trkpt lat="42.85843" lon="0.46292">
        <ele>3681</ele>
        <time>2021-08-08T09:26:00Z</time>
      </trkpt>
      <trkpt lat="42.85841" lon="0.46292">
        <ele>3681</ele>
        <time>2021-08-08T09:26:02Z</time>
      </trkpt>
      <trkpt lat="42.85839" lon="0.46293">
        <ele>3697</ele>
        <time>2021-08-08T09:26:04Z</time>
      </trkpt>
      <trkpt lat="42.85837" lon="0.46293">
        <ele>3697</ele>
        <time>2021-08-08T09:26:06Z</time>
      </trkpt>
      <trkpt lat="42.85835" lon="0.46293">
        <ele>3697</ele>
        <time>2021-08-08T09:26:08Z</time>
      </trkpt>
      <trkpt lat="42.85832" lon="0.46294">
        <ele>3697</ele>
        <time>2021-08-08T09:26:11Z</time>
      </trkpt>
      <trkpt lat="42.8583" lon="0.46294">
        <ele>3697</ele>
        <time>2021-08-08T09:26:13Z</time>
      </trkpt>
      <trkpt lat="42.85828" lon="0.46295">
        <ele>3697</ele>
        <time>2021-08-08T09:26:15Z</time>
      </trkpt>
      <trkpt lat="42.85825" lon="0.46294">
        <ele>3697</ele>
        <time>2021-08-08T09:26:18Z</time>
      </trkpt>
      <trkpt lat="42.85823" lon="0.46294">
        <ele>3697</ele>
        <time>2021-08-08T09:26:21Z</time>
      </trkpt>
      <trkpt lat="42.85821" lon="0.46294">
        <ele>3697</ele>
        <time>2021-08-08T09:26:23Z</time>
      </trkpt>
      <trkpt lat="42.85818" lon="0.46293">
        <ele>3697</ele>
        <time>2021-08-08T09:26:26Z</time>
      </trkpt>
      <trkpt lat="42.85816" lon="0.46292">
        <ele>3697</ele>
        <time>2021-08-08T09:26:28Z</time>
      </trkpt>
      <trkpt lat="42.85814" lon="0.46292">
        <ele>3697</ele>
        <time>2021-08-08T09:26:31Z</time>
      </trkpt>
      <trkpt lat="42.85812" lon="0.46292">
        <ele>3697</ele>
        <time>2021-08-08T09:26:33Z</time>
      </trkpt>
      <trkpt lat="42.85809" lon="0.46291">
        <ele>3697</ele>
        <time>2021-08-08T09:26:35Z</time>
      </trkpt>
      <trkpt lat="42.85808" lon="0.46291">
        <ele>3697</ele>
        <time>2021-08-08T09:26:37Z</time>
      </trkpt>
      <trkpt lat="42.85806" lon="0.46291">
        <ele>3697</ele>
        <time>2021-08-08T09:26:39Z</time>
      </trkpt>
      <trkpt lat="42.85803" lon="0.4629">
        <ele>3697</ele>
        <time>2021-08-08T09:26:41Z</time>
      </trkpt>
      <trkpt lat="42.85801" lon="0.4629">
        <ele>3710</ele>
        <time>2021-08-08T09:26:44Z</time>
      </trkpt>
      <trkpt lat="42.85799" lon="0.46289">
        <ele>3710</ele>
        <time>2021-08-08T09:26:46Z</time>
      </trkpt>
      <trkpt lat="42.85797" lon="0.46288">
        <ele>3710</ele>
        <time>2021-08-08T09:26:49Z</time>
      </trkpt>
      <trkpt lat="42.85795" lon="0.46287">
        <ele>3710</ele>
        <time>2021-08-08T09:26:51Z</time>
      </trkpt>
      <trkpt lat="42.85792" lon="0.46286">
        <ele>3714</ele>
        <time>2021-08-08T09:26:54Z</time>
      </trkpt>
      <trkpt lat="42.8579" lon="0.46285">
        <ele>3714</ele>
        <time>2021-08-08T09:26:57Z</time>
      </trkpt>
      <trkpt lat="42.85788" lon="0.46285">
        <ele>3714</ele>
        <time>2021-08-08T09:26:59Z</time>
      </trkpt>
      <trkpt lat="42.85786" lon="0.46285">
        <ele>3714</ele>
        <time>2021-08-08T09:27:01Z</time>
      </trkpt>
      <trkpt lat="42.85784" lon="0.46284">
        <ele>3714</ele>
        <time>2021-08-08T09:27:03Z</time>
      </trkpt>
      <trkpt lat="42.85782" lon="0.46282">
        <ele>3714</ele>
        <time>2021-08-08T09:27:06Z</time>
      </trkpt>
      <trkpt lat="42.85781" lon="0.4628">
        <ele>3714</ele>
        <time>2021-08-08T09:27:08Z</time>
      </trkpt>
      <trkpt lat="42.85779" lon="0.46279">
        <ele>3714</ele>
        <time>2021-08-08T09:27:11Z</time>
      </trkpt>
      <trkpt lat="42.85777" lon="0.46278">
        <ele>3714</ele>
        <time>2021-08-08T09:27:13Z</time>
      </trkpt>
      <trkpt lat="42.85775" lon="0.46277">
        <ele>3714</ele>
        <time>2021-08-08T09:27:16Z</time>
      </trkpt>
      <trkpt lat="42.85773" lon="0.46275">
        <ele>3714</ele>
        <time>2021-08-08T09:27:19Z</time>
      </trkpt>
      <trkpt lat="42.85771" lon="0.46274">
        <ele>3714</ele>
        <time>2021-08-08T09:27:21Z</time>
      </trkpt>
      <trkpt lat="42.85768" lon="0.46273">
        <ele>3714</ele>
        <time>2021-08-08T09:27:23Z</time>
      </trkpt>
      <trkpt lat="42.85767" lon="0.46271">
        <ele>3714</ele>
        <time>2021-08-08T09:27:25Z</time>
      </trkpt>
      <trkpt lat="42.85765" lon="0.4627">
        <ele>3714</ele>
        <time>2021-08-08T09:27:27Z</time>
      </trkpt>
      <trkpt lat="42.85763" lon="0.46268">
        <ele>3714</ele>
        <time>2021-08-08T09:27:29Z</time>
      </trkpt>
      <trkpt lat="42.85761" lon="0.46266">
        <ele>3714</ele>
        <time>2021-08-08T09:27:32Z</time>
      </trkpt>
      <trkpt lat="42.85759" lon="0.46264">
        <ele>3714</ele>
        <time>2021-08-08T09:27:35Z</time>
      </trkpt>
      <trkpt lat="42.85759" lon="0.46261">
        <ele>3714</ele>
        <time>2021-08-08T09:27:38Z</time>
      </trkpt>
      <trkpt lat="42.85758" lon="0.46257">
        <ele>3714</ele>
        <time>2021-08-08T09:27:41Z</time>
      </trkpt>
      <trkpt lat="42.85758" lon="0.46254">
        <ele>3714</ele>
        <time>2021-08-08T09:27:43Z</time>
      </trkpt>
      <trkpt lat="42.85758" lon="0.46251">
        <ele>3714</ele>
        <time>2021-08-08T09:27:46Z</time>
      </trkpt>
      <trkpt lat="42.85757" lon="0.46248">
        <ele>3714</ele>
        <time>2021-08-08T09:27:49Z</time>
      </trkpt>
      <trkpt lat="42.85757" lon="0.46245">
        <ele>3714</ele>
        <time>2021-08-08T09:27:51Z</time>
      </trkpt>
      <trkpt lat="42.85757" lon="0.46242">
        <ele>3729</ele>
        <time>2021-08-08T09:27:54Z</time>
      </trkpt>
      <trkpt lat="42.85756" lon="0.4624">
        <ele>3729</ele>
        <time>2021-08-08T09:27:57Z</time>
      </trkpt>
      <trkpt lat="42.85753" lon="0.4624">
        <ele>3729</ele>
        <time>2021-08-08T09:28:00Z</time>
      </trkpt>
      <trkpt lat="42.85751" lon="0.4624">
        <ele>3729</ele>
        <time>2021-08-08T09:28:03Z</time>
      </trkpt>
      <trkpt lat="42.85749" lon="0.46238">
        <ele>3729</ele>
        <time>2021-08-08T09:28:20Z</time>
      </trkpt>
      <trkpt lat="42.85747" lon="0.46238">
        <ele>3729</ele>
        <time>2021-08-08T09:28:22Z</time>
      </trkpt>
      <trkpt lat="42.85745" lon="0.46237">
        <ele>3733</ele>
        <time>2021-08-08T09:28:24Z</time>
      </trkpt>
      <trkpt lat="42.85742" lon="0.46237">
        <ele>3733</ele>
        <time>2021-08-08T09:28:26Z</time>
      </trkpt>
      <trkpt lat="42.8574" lon="0.46237">
        <ele>3733</ele>
        <time>2021-08-08T09:28:28Z</time>
      </trkpt>
      <trkpt lat="42.85738" lon="0.46238">
        <ele>3733</ele>
        <time>2021-08-08T09:28:30Z</time>
      </trkpt>
      <trkpt lat="42.85736" lon="0.46238">
        <ele>3733</ele>
        <time>2021-08-08T09:28:32Z</time>
      </trkpt>
      <trkpt lat="42.85733" lon="0.46238">
        <ele>3733</ele>
        <time>2021-08-08T09:28:35Z</time>
      </trkpt>
      <trkpt lat="42.85731" lon="0.46238">
        <ele>3733</ele>
        <time>2021-08-08T09:28:38Z</time>
      </trkpt>
      <trkpt lat="42.85729" lon="0.46236">
        <ele>3733</ele>
        <time>2021-08-08T09:28:41Z</time>
      </trkpt>
      <trkpt lat="42.85728" lon="0.46235">
        <ele>3733</ele>
        <time>2021-08-08T09:28:43Z</time>
      </trkpt>
      <trkpt lat="42.85725" lon="0.46233">
        <ele>3733</ele>
        <time>2021-08-08T09:28:46Z</time>
      </trkpt>
      <trkpt lat="42.85724" lon="0.46232">
        <ele>3733</ele>
        <time>2021-08-08T09:28:48Z</time>
      </trkpt>
      <trkpt lat="42.85721" lon="0.46231">
        <ele>3733</ele>
        <time>2021-08-08T09:28:51Z</time>
      </trkpt>
      <trkpt lat="42.8572" lon="0.4623">
        <ele>3745</ele>
        <time>2021-08-08T09:28:54Z</time>
      </trkpt>
      <trkpt lat="42.85718" lon="0.46226">
        <ele>3745</ele>
        <time>2021-08-08T09:28:57Z</time>
      </trkpt>
      <trkpt lat="42.85716" lon="0.46224">
        <ele>3745</ele>
        <time>2021-08-08T09:29:00Z</time>
      </trkpt>
      <trkpt lat="42.85713" lon="0.46224">
        <ele>3745</ele>
        <time>2021-08-08T09:29:02Z</time>
      </trkpt>
      <trkpt lat="42.85711" lon="0.46224">
        <ele>3747</ele>
        <time>2021-08-08T09:29:04Z</time>
      </trkpt>
      <trkpt lat="42.85709" lon="0.46223">
        <ele>3747</ele>
        <time>2021-08-08T09:29:06Z</time>
      </trkpt>
      <trkpt lat="42.85707" lon="0.46223">
        <ele>3747</ele>
        <time>2021-08-08T09:29:08Z</time>
      </trkpt>
      <trkpt lat="42.85705" lon="0.46221">
        <ele>3747</ele>
        <time>2021-08-08T09:29:10Z</time>
      </trkpt>
      <trkpt lat="42.85702" lon="0.4622">
        <ele>3747</ele>
        <time>2021-08-08T09:29:12Z</time>
      </trkpt>
      <trkpt lat="42.85699" lon="0.4622">
        <ele>3748</ele>
        <time>2021-08-08T09:29:14Z</time>
      </trkpt>
      <trkpt lat="42.85697" lon="0.4622">
        <ele>3748</ele>
        <time>2021-08-08T09:29:16Z</time>
      </trkpt>
      <trkpt lat="42.85695" lon="0.46221">
        <ele>3748</ele>
        <time>2021-08-08T09:29:18Z</time>
      </trkpt>
      <trkpt lat="42.85694" lon="0.46222">
        <ele>3748</ele>
        <time>2021-08-08T09:29:20Z</time>
      </trkpt>
      <trkpt lat="42.85691" lon="0.46221">
        <ele>3748</ele>
        <time>2021-08-08T09:29:22Z</time>
      </trkpt>
      <trkpt lat="42.85689" lon="0.4622">
        <ele>3751</ele>
        <time>2021-08-08T09:29:24Z</time>
      </trkpt>
      <trkpt lat="42.85687" lon="0.46219">
        <ele>3751</ele>
        <time>2021-08-08T09:29:26Z</time>
      </trkpt>
      <trkpt lat="42.85685" lon="0.46217">
        <ele>3751</ele>
        <time>2021-08-08T09:29:29Z</time>
      </trkpt>
      <trkpt lat="42.85684" lon="0.46215">
        <ele>3751</ele>
        <time>2021-08-08T09:29:32Z</time>
      </trkpt>
      <trkpt lat="42.85683" lon="0.46213">
        <ele>3751</ele>
        <time>2021-08-08T09:29:35Z</time>
      </trkpt>
      <trkpt lat="42.85681" lon="0.46211">
        <ele>3751</ele>
        <time>2021-08-08T09:29:38Z</time>
      </trkpt>
      <trkpt lat="42.8568" lon="0.46207">
        <ele>3751</ele>
        <time>2021-08-08T09:29:41Z</time>
      </trkpt>
      <trkpt lat="42.85679" lon="0.46204">
        <ele>3757</ele>
        <time>2021-08-08T09:29:44Z</time>
      </trkpt>
      <trkpt lat="42.85678" lon="0.46202">
        <ele>3757</ele>
        <time>2021-08-08T09:29:46Z</time>
      </trkpt>
      <trkpt lat="42.85677" lon="0.462">
        <ele>3757</ele>
        <time>2021-08-08T09:29:48Z</time>
      </trkpt>
      <trkpt lat="42.85675" lon="0.46197">
        <ele>3757</ele>
        <time>2021-08-08T09:29:51Z</time>
      </trkpt>
      <trkpt lat="42.85674" lon="0.46196">
        <ele>3757</ele>
        <time>2021-08-08T09:29:53Z</time>
      </trkpt>
      <trkpt lat="42.85673" lon="0.46194">
        <ele>3757</ele>
        <time>2021-08-08T09:29:55Z</time>
      </trkpt>
      <trkpt lat="42.8567" lon="0.46193">
        <ele>3757</ele>
        <time>2021-08-08T09:29:58Z</time>
      </trkpt>
      <trkpt lat="42.85669" lon="0.46193">
        <ele>3757</ele>
        <time>2021-08-08T09:30:01Z</time>
      </trkpt>
      <trkpt lat="42.85666" lon="0.46192">
        <ele>3761</ele>
        <time>2021-08-08T09:30:04Z</time>
      </trkpt>
      <trkpt lat="42.85664" lon="0.46191">
        <ele>3761</ele>
        <time>2021-08-08T09:30:08Z</time>
      </trkpt>
      <trkpt lat="42.85662" lon="0.46189">
        <ele>3763</ele>
        <time>2021-08-08T09:30:14Z</time>
      </trkpt>
      <trkpt lat="42.8566" lon="0.46188">
        <ele>3763</ele>
        <time>2021-08-08T09:30:17Z</time>
      </trkpt>
      <trkpt lat="42.85658" lon="0.46187">
        <ele>3763</ele>
        <time>2021-08-08T09:30:19Z</time>
      </trkpt>
      <trkpt lat="42.85656" lon="0.46186">
        <ele>3763</ele>
        <time>2021-08-08T09:30:21Z</time>
      </trkpt>
      <trkpt lat="42.85654" lon="0.46186">
        <ele>3763</ele>
        <time>2021-08-08T09:30:23Z</time>
      </trkpt>
      <trkpt lat="42.85652" lon="0.46186">
        <ele>3763</ele>
        <time>2021-08-08T09:30:25Z</time>
      </trkpt>
      <trkpt lat="42.8565" lon="0.46185">
        <ele>3763</ele>
        <time>2021-08-08T09:30:27Z</time>
      </trkpt>
      <trkpt lat="42.85647" lon="0.46185">
        <ele>3763</ele>
        <time>2021-08-08T09:30:30Z</time>
      </trkpt>
      <trkpt lat="42.85646" lon="0.46183">
        <ele>3763</ele>
        <time>2021-08-08T09:30:33Z</time>
      </trkpt>
      <trkpt lat="42.85643" lon="0.46182">
        <ele>3763</ele>
        <time>2021-08-08T09:30:36Z</time>
      </trkpt>
      <trkpt lat="42.85641" lon="0.46181">
        <ele>3763</ele>
        <time>2021-08-08T09:30:39Z</time>
      </trkpt>
      <trkpt lat="42.85639" lon="0.46182">
        <ele>3763</ele>
        <time>2021-08-08T09:30:42Z</time>
      </trkpt>
      <trkpt lat="42.85637" lon="0.46183">
        <ele>3763</ele>
        <time>2021-08-08T09:30:46Z</time>
      </trkpt>
      <trkpt lat="42.85635" lon="0.46182">
        <ele>3763</ele>
        <time>2021-08-08T09:30:49Z</time>
      </trkpt>
      <trkpt lat="42.85633" lon="0.46181">
        <ele>3763</ele>
        <time>2021-08-08T09:30:53Z</time>
      </trkpt>
      <trkpt lat="42.85631" lon="0.46182">
        <ele>3763</ele>
        <time>2021-08-08T09:30:57Z</time>
      </trkpt>
      <trkpt lat="42.8563" lon="0.46185">
        <ele>3763</ele>
        <time>2021-08-08T09:31:02Z</time>
      </trkpt>
      <trkpt lat="42.85628" lon="0.46185">
        <ele>3763</ele>
        <time>2021-08-08T09:31:05Z</time>
      </trkpt>
      <trkpt lat="42.85626" lon="0.46186">
        <ele>3763</ele>
        <time>2021-08-08T09:31:08Z</time>
      </trkpt>
      <trkpt lat="42.85625" lon="0.46184">
        <ele>3763</ele>
        <time>2021-08-08T09:31:11Z</time>
      </trkpt>
      <trkpt lat="42.85622" lon="0.46185">
        <ele>3763</ele>
        <time>2021-08-08T09:31:15Z</time>
      </trkpt>
      <trkpt lat="42.8562" lon="0.46185">
        <ele>3763</ele>
        <time>2021-08-08T09:31:18Z</time>
      </trkpt>
      <trkpt lat="42.85618" lon="0.46186">
        <ele>3763</ele>
        <time>2021-08-08T09:31:22Z</time>
      </trkpt>
      <trkpt lat="42.85615" lon="0.46186">
        <ele>3763</ele>
        <time>2021-08-08T09:31:25Z</time>
      </trkpt>
      <trkpt lat="42.85614" lon="0.46185">
        <ele>3763</ele>
        <time>2021-08-08T09:31:28Z</time>
      </trkpt>
      <trkpt lat="42.85611" lon="0.46184">
        <ele>3763</ele>
        <time>2021-08-08T09:31:32Z</time>
      </trkpt>
      <trkpt lat="42.8561" lon="0.46182">
        <ele>3763</ele>
        <time>2021-08-08T09:31:35Z</time>
      </trkpt>
      <trkpt lat="42.85608" lon="0.4618">
        <ele>3763</ele>
        <time>2021-08-08T09:31:38Z</time>
      </trkpt>
      <trkpt lat="42.85606" lon="0.46179">
        <ele>3763</ele>
        <time>2021-08-08T09:31:41Z</time>
      </trkpt>
      <trkpt lat="42.85605" lon="0.46178">
        <ele>3788</ele>
        <time>2021-08-08T09:31:44Z</time>
      </trkpt>
      <trkpt lat="42.85603" lon="0.46176">
        <ele>3788</ele>
        <time>2021-08-08T09:31:46Z</time>
      </trkpt>
      <trkpt lat="42.85601" lon="0.46174">
        <ele>3788</ele>
        <time>2021-08-08T09:31:49Z</time>
      </trkpt>
      <trkpt lat="42.856" lon="0.46172">
        <ele>3788</ele>
        <time>2021-08-08T09:31:51Z</time>
      </trkpt>
      <trkpt lat="42.85598" lon="0.46169">
        <ele>3790</ele>
        <time>2021-08-08T09:31:54Z</time>
      </trkpt>
      <trkpt lat="42.85597" lon="0.46166">
        <ele>3790</ele>
        <time>2021-08-08T09:31:57Z</time>
      </trkpt>
      <trkpt lat="42.85595" lon="0.46164">
        <ele>3790</ele>
        <time>2021-08-08T09:32:00Z</time>
      </trkpt>
      <trkpt lat="42.85593" lon="0.46164">
        <ele>3790</ele>
        <time>2021-08-08T09:32:02Z</time>
      </trkpt>
      <trkpt lat="42.85591" lon="0.46163">
        <ele>3790</ele>
        <time>2021-08-08T09:32:05Z</time>
      </trkpt>
      <trkpt lat="42.85589" lon="0.46164">
        <ele>3790</ele>
        <time>2021-08-08T09:32:07Z</time>
      </trkpt>
      <trkpt lat="42.85588" lon="0.46167">
        <ele>3790</ele>
        <time>2021-08-08T09:32:10Z</time>
      </trkpt>
      <trkpt lat="42.85587" lon="0.4617">
        <ele>3790</ele>
        <time>2021-08-08T09:32:12Z</time>
      </trkpt>
      <trkpt lat="42.85586" lon="0.46173">
        <ele>3795</ele>
        <time>2021-08-08T09:32:14Z</time>
      </trkpt>
      <trkpt lat="42.85586" lon="0.46176">
        <ele>3795</ele>
        <time>2021-08-08T09:32:17Z</time>
      </trkpt>
      <trkpt lat="42.85586" lon="0.46179">
        <ele>3795</ele>
        <time>2021-08-08T09:32:19Z</time>
      </trkpt>
      <trkpt lat="42.85586" lon="0.46182">
        <ele>3795</ele>
        <time>2021-08-08T09:32:21Z</time>
      </trkpt>
      <trkpt lat="42.85587" lon="0.46184">
        <ele>3795</ele>
        <time>2021-08-08T09:32:23Z</time>
      </trkpt>
      <trkpt lat="42.85588" lon="0.46187">
        <ele>3795</ele>
        <time>2021-08-08T09:32:25Z</time>
      </trkpt>
      <trkpt lat="42.85589" lon="0.4619">
        <ele>3795</ele>
        <time>2021-08-08T09:32:28Z</time>
      </trkpt>
      <trkpt lat="42.8559" lon="0.46193">
        <ele>3795</ele>
        <time>2021-08-08T09:32:31Z</time>
      </trkpt>
      <trkpt lat="42.85591" lon="0.46196">
        <ele>3799</ele>
        <time>2021-08-08T09:32:34Z</time>
      </trkpt>
      <trkpt lat="42.85592" lon="0.46199">
        <ele>3799</ele>
        <time>2021-08-08T09:32:38Z</time>
      </trkpt>
      <trkpt lat="42.85592" lon="0.46202">
        <ele>3799</ele>
        <time>2021-08-08T09:32:42Z</time>
      </trkpt>
      <trkpt lat="42.85592" lon="0.46205">
        <ele>3799</ele>
        <time>2021-08-08T09:32:45Z</time>
      </trkpt>
      <trkpt lat="42.8559" lon="0.46205">
        <ele>3799</ele>
        <time>2021-08-08T09:32:48Z</time>
      </trkpt>
      <trkpt lat="42.85587" lon="0.46205">
        <ele>3799</ele>
        <time>2021-08-08T09:32:52Z</time>
      </trkpt>
      <trkpt lat="42.85585" lon="0.46205">
        <ele>3806</ele>
        <time>2021-08-08T09:32:54Z</time>
      </trkpt>
      <trkpt lat="42.85586" lon="0.46207">
        <ele>3806</ele>
        <time>2021-08-08T09:32:59Z</time>
      </trkpt>
      <trkpt lat="42.85587" lon="0.4621">
        <ele>3806</ele>
        <time>2021-08-08T09:33:08Z</time>
      </trkpt>
      <trkpt lat="42.85586" lon="0.46213">
        <ele>3806</ele>
        <time>2021-08-08T09:33:11Z</time>
      </trkpt>
      <trkpt lat="42.85584" lon="0.46212">
        <ele>3808</ele>
        <time>2021-08-08T09:33:14Z</time>
      </trkpt>
      <trkpt lat="42.85582" lon="0.4621">
        <ele>3808</ele>
        <time>2021-08-08T09:33:17Z</time>
      </trkpt>
      <trkpt lat="42.85581" lon="0.46209">
        <ele>3808</ele>
        <time>2021-08-08T09:33:20Z</time>
      </trkpt>
      <trkpt lat="42.85579" lon="0.46207">
        <ele>3808</ele>
        <time>2021-08-08T09:33:22Z</time>
      </trkpt>
      <trkpt lat="42.85577" lon="0.46205">
        <ele>3811</ele>
        <time>2021-08-08T09:33:24Z</time>
      </trkpt>
      <trkpt lat="42.85575" lon="0.46205">
        <ele>3811</ele>
        <time>2021-08-08T09:33:26Z</time>
      </trkpt>
      <trkpt lat="42.85573" lon="0.46203">
        <ele>3811</ele>
        <time>2021-08-08T09:33:28Z</time>
      </trkpt>
      <trkpt lat="42.85571" lon="0.462">
        <ele>3811</ele>
        <time>2021-08-08T09:33:31Z</time>
      </trkpt>
      <trkpt lat="42.8557" lon="0.46198">
        <ele>3812</ele>
        <time>2021-08-08T09:33:34Z</time>
      </trkpt>
      <trkpt lat="42.85568" lon="0.46197">
        <ele>3812</ele>
        <time>2021-08-08T09:33:37Z</time>
      </trkpt>
      <trkpt lat="42.85567" lon="0.46194">
        <ele>3812</ele>
        <time>2021-08-08T09:33:39Z</time>
      </trkpt>
      <trkpt lat="42.85566" lon="0.46193">
        <ele>3812</ele>
        <time>2021-08-08T09:33:42Z</time>
      </trkpt>
      <trkpt lat="42.85565" lon="0.4619">
        <ele>3812</ele>
        <time>2021-08-08T09:33:45Z</time>
      </trkpt>
      <trkpt lat="42.85564" lon="0.46187">
        <ele>3812</ele>
        <time>2021-08-08T09:33:48Z</time>
      </trkpt>
      <trkpt lat="42.85563" lon="0.46185">
        <ele>3812</ele>
        <time>2021-08-08T09:33:50Z</time>
      </trkpt>
      <trkpt lat="42.85561" lon="0.46183">
        <ele>3812</ele>
        <time>2021-08-08T09:33:52Z</time>
      </trkpt>
      <trkpt lat="42.8556" lon="0.46181">
        <ele>3818</ele>
        <time>2021-08-08T09:33:54Z</time>
      </trkpt>
      <trkpt lat="42.85559" lon="0.46178">
        <ele>3818</ele>
        <time>2021-08-08T09:33:57Z</time>
      </trkpt>
      <trkpt lat="42.85557" lon="0.46176">
        <ele>3818</ele>
        <time>2021-08-08T09:33:59Z</time>
      </trkpt>
      <trkpt lat="42.85556" lon="0.46173">
        <ele>3818</ele>
        <time>2021-08-08T09:34:02Z</time>
      </trkpt>
      <trkpt lat="42.85555" lon="0.46171">
        <ele>3820</ele>
        <time>2021-08-08T09:34:04Z</time>
      </trkpt>
      <trkpt lat="42.85555" lon="0.46168">
        <ele>3820</ele>
        <time>2021-08-08T09:34:07Z</time>
      </trkpt>
      <trkpt lat="42.85553" lon="0.46166">
        <ele>3820</ele>
        <time>2021-08-08T09:34:10Z</time>
      </trkpt>
      <trkpt lat="42.85552" lon="0.46163">
        <ele>3820</ele>
        <time>2021-08-08T09:34:13Z</time>
      </trkpt>
      <trkpt lat="42.8555" lon="0.4616">
        <ele>3820</ele>
        <time>2021-08-08T09:34:16Z</time>
      </trkpt>
      <trkpt lat="42.85548" lon="0.46159">
        <ele>3820</ele>
        <time>2021-08-08T09:34:19Z</time>
      </trkpt>
      <trkpt lat="42.85546" lon="0.4616">
        <ele>3820</ele>
        <time>2021-08-08T09:34:22Z</time>
      </trkpt>
      <trkpt lat="42.85544" lon="0.46159">
        <ele>3826</ele>
        <time>2021-08-08T09:34:24Z</time>
      </trkpt>
      <trkpt lat="42.85542" lon="0.46158">
        <ele>3826</ele>
        <time>2021-08-08T09:34:26Z</time>
      </trkpt>
      <trkpt lat="42.85542" lon="0.46155">
        <ele>3826</ele>
        <time>2021-08-08T09:34:28Z</time>
      </trkpt>
      <trkpt lat="42.8554" lon="0.46153">
        <ele>3826</ele>
        <time>2021-08-08T09:34:31Z</time>
      </trkpt>
      <trkpt lat="42.85538" lon="0.46151">
        <ele>3827</ele>
        <time>2021-08-08T09:34:34Z</time>
      </trkpt>
      <trkpt lat="42.85538" lon="0.46149">
        <ele>3827</ele>
        <time>2021-08-08T09:34:36Z</time>
      </trkpt>
      <trkpt lat="42.85536" lon="0.46147">
        <ele>3827</ele>
        <time>2021-08-08T09:34:38Z</time>
      </trkpt>
      <trkpt lat="42.85535" lon="0.46145">
        <ele>3827</ele>
        <time>2021-08-08T09:34:40Z</time>
      </trkpt>
      <trkpt lat="42.85532" lon="0.46144">
        <ele>3827</ele>
        <time>2021-08-08T09:34:43Z</time>
      </trkpt>
      <trkpt lat="42.8553" lon="0.46142">
        <ele>3827</ele>
        <time>2021-08-08T09:34:46Z</time>
      </trkpt>
      <trkpt lat="42.8553" lon="0.46139">
        <ele>3827</ele>
        <time>2021-08-08T09:34:48Z</time>
      </trkpt>
      <trkpt lat="42.85528" lon="0.46137">
        <ele>3827</ele>
        <time>2021-08-08T09:34:53Z</time>
      </trkpt>
      <trkpt lat="42.85526" lon="0.46136">
        <ele>3827</ele>
        <time>2021-08-08T09:34:57Z</time>
      </trkpt>
      <trkpt lat="42.85525" lon="0.46134">
        <ele>3827</ele>
        <time>2021-08-08T09:35:01Z</time>
      </trkpt>
      <trkpt lat="42.85524" lon="0.46132">
        <ele>3827</ele>
        <time>2021-08-08T09:35:07Z</time>
      </trkpt>
      <trkpt lat="42.85522" lon="0.4613">
        <ele>3827</ele>
        <time>2021-08-08T09:35:13Z</time>
      </trkpt>
      <trkpt lat="42.8552" lon="0.46128">
        <ele>3827</ele>
        <time>2021-08-08T09:35:15Z</time>
      </trkpt>
      <trkpt lat="42.85518" lon="0.46126">
        <ele>3827</ele>
        <time>2021-08-08T09:35:18Z</time>
      </trkpt>
      <trkpt lat="42.85516" lon="0.46124">
        <ele>3827</ele>
        <time>2021-08-08T09:35:21Z</time>
      </trkpt>
      <trkpt lat="42.85514" lon="0.46124">
        <ele>3827</ele>
        <time>2021-08-08T09:35:23Z</time>
      </trkpt>
      <trkpt lat="42.85512" lon="0.46125">
        <ele>3827</ele>
        <time>2021-08-08T09:35:25Z</time>
      </trkpt>
      <trkpt lat="42.85511" lon="0.46127">
        <ele>3827</ele>
        <time>2021-08-08T09:35:27Z</time>
      </trkpt>
      <trkpt lat="42.85509" lon="0.46128">
        <ele>3827</ele>
        <time>2021-08-08T09:35:30Z</time>
      </trkpt>
      <trkpt lat="42.85508" lon="0.46126">
        <ele>3827</ele>
        <time>2021-08-08T09:35:35Z</time>
      </trkpt>
      <trkpt lat="42.85507" lon="0.46124">
        <ele>3827</ele>
        <time>2021-08-08T09:35:37Z</time>
      </trkpt>
      <trkpt lat="42.85505" lon="0.46121">
        <ele>3827</ele>
        <time>2021-08-08T09:35:40Z</time>
      </trkpt>
      <trkpt lat="42.85504" lon="0.46117">
        <ele>3827</ele>
        <time>2021-08-08T09:35:43Z</time>
      </trkpt>
      <trkpt lat="42.85503" lon="0.46116">
        <ele>3827</ele>
        <time>2021-08-08T09:35:46Z</time>
      </trkpt>
      <trkpt lat="42.85502" lon="0.46114">
        <ele>3827</ele>
        <time>2021-08-08T09:35:48Z</time>
      </trkpt>
      <trkpt lat="42.855" lon="0.46112">
        <ele>3827</ele>
        <time>2021-08-08T09:35:50Z</time>
      </trkpt>
      <trkpt lat="42.85498" lon="0.46111">
        <ele>3827</ele>
        <time>2021-08-08T09:35:53Z</time>
      </trkpt>
      <trkpt lat="42.85496" lon="0.4611">
        <ele>3827</ele>
        <time>2021-08-08T09:35:55Z</time>
      </trkpt>
      <trkpt lat="42.85495" lon="0.46107">
        <ele>3827</ele>
        <time>2021-08-08T09:35:59Z</time>
      </trkpt>
      <trkpt lat="42.85494" lon="0.46106">
        <ele>3827</ele>
        <time>2021-08-08T09:36:02Z</time>
      </trkpt>
      <trkpt lat="42.85491" lon="0.46104">
        <ele>3827</ele>
        <time>2021-08-08T09:36:05Z</time>
      </trkpt>
      <trkpt lat="42.85489" lon="0.46103">
        <ele>3827</ele>
        <time>2021-08-08T09:36:08Z</time>
      </trkpt>
      <trkpt lat="42.85488" lon="0.461">
        <ele>3827</ele>
        <time>2021-08-08T09:36:11Z</time>
      </trkpt>
      <trkpt lat="42.85487" lon="0.46097">
        <ele>3852</ele>
        <time>2021-08-08T09:36:14Z</time>
      </trkpt>
      <trkpt lat="42.85486" lon="0.46095">
        <ele>3852</ele>
        <time>2021-08-08T09:36:17Z</time>
      </trkpt>
      <trkpt lat="42.85485" lon="0.46092">
        <ele>3852</ele>
        <time>2021-08-08T09:36:20Z</time>
      </trkpt>
      <trkpt lat="42.85484" lon="0.4609">
        <ele>3852</ele>
        <time>2021-08-08T09:36:22Z</time>
      </trkpt>
      <trkpt lat="42.85483" lon="0.46088">
        <ele>3854</ele>
        <time>2021-08-08T09:36:24Z</time>
      </trkpt>
      <trkpt lat="42.85481" lon="0.46086">
        <ele>3854</ele>
        <time>2021-08-08T09:36:27Z</time>
      </trkpt>
      <trkpt lat="42.8548" lon="0.46084">
        <ele>3854</ele>
        <time>2021-08-08T09:36:30Z</time>
      </trkpt>
      <trkpt lat="42.85478" lon="0.46082">
        <ele>3854</ele>
        <time>2021-08-08T09:36:32Z</time>
      </trkpt>
      <trkpt lat="42.85478" lon="0.46079">
        <ele>3854</ele>
        <time>2021-08-08T09:36:37Z</time>
      </trkpt>
      <trkpt lat="42.85476" lon="0.46076">
        <ele>3854</ele>
        <time>2021-08-08T09:37:12Z</time>
      </trkpt>
      <trkpt lat="42.85474" lon="0.46075">
        <ele>3856</ele>
        <time>2021-08-08T09:37:14Z</time>
      </trkpt>
      <trkpt lat="42.85471" lon="0.46072">
        <ele>3856</ele>
        <time>2021-08-08T09:37:17Z</time>
      </trkpt>
      <trkpt lat="42.8547" lon="0.4607">
        <ele>3856</ele>
        <time>2021-08-08T09:37:20Z</time>
      </trkpt>
      <trkpt lat="42.85468" lon="0.46069">
        <ele>3856</ele>
        <time>2021-08-08T09:37:53Z</time>
      </trkpt>
      <trkpt lat="42.85466" lon="0.4607">
        <ele>3856</ele>
        <time>2021-08-08T09:38:22Z</time>
      </trkpt>
      <trkpt lat="42.85463" lon="0.4607">
        <ele>3858</ele>
        <time>2021-08-08T09:38:24Z</time>
      </trkpt>
      <trkpt lat="42.85462" lon="0.46068">
        <ele>3858</ele>
        <time>2021-08-08T09:38:25Z</time>
      </trkpt>
      <trkpt lat="42.8546" lon="0.46066">
        <ele>3858</ele>
        <time>2021-08-08T09:38:27Z</time>
      </trkpt>
      <trkpt lat="42.85458" lon="0.46064">
        <ele>3858</ele>
        <time>2021-08-08T09:38:29Z</time>
      </trkpt>
      <trkpt lat="42.85456" lon="0.46062">
        <ele>3858</ele>
        <time>2021-08-08T09:38:31Z</time>
      </trkpt>
      <trkpt lat="42.85454" lon="0.4606">
        <ele>3861</ele>
        <time>2021-08-08T09:38:34Z</time>
      </trkpt>
      <trkpt lat="42.85452" lon="0.46058">
        <ele>3861</ele>
        <time>2021-08-08T09:38:36Z</time>
      </trkpt>
      <trkpt lat="42.8545" lon="0.46055">
        <ele>3861</ele>
        <time>2021-08-08T09:38:38Z</time>
      </trkpt>
      <trkpt lat="42.85448" lon="0.46054">
        <ele>3861</ele>
        <time>2021-08-08T09:38:40Z</time>
      </trkpt>
      <trkpt lat="42.85446" lon="0.46053">
        <ele>3861</ele>
        <time>2021-08-08T09:38:42Z</time>
      </trkpt>
      <trkpt lat="42.85444" lon="0.4605">
        <ele>3861</ele>
        <time>2021-08-08T09:38:44Z</time>
      </trkpt>
      <trkpt lat="42.85442" lon="0.46048">
        <ele>3861</ele>
        <time>2021-08-08T09:38:47Z</time>
      </trkpt>
      <trkpt lat="42.85442" lon="0.46045">
        <ele>3861</ele>
        <time>2021-08-08T09:38:49Z</time>
      </trkpt>
      <trkpt lat="42.8544" lon="0.46043">
        <ele>3861</ele>
        <time>2021-08-08T09:38:52Z</time>
      </trkpt>
      <trkpt lat="42.8544" lon="0.46041">
        <ele>3861</ele>
        <time>2021-08-08T09:38:55Z</time>
      </trkpt>
      <trkpt lat="42.8544" lon="0.46038">
        <ele>3861</ele>
        <time>2021-08-08T09:38:57Z</time>
      </trkpt>
      <trkpt lat="42.8544" lon="0.46035">
        <ele>3861</ele>
        <time>2021-08-08T09:38:59Z</time>
      </trkpt>
      <trkpt lat="42.85439" lon="0.46033">
        <ele>3861</ele>
        <time>2021-08-08T09:39:01Z</time>
      </trkpt>
      <trkpt lat="42.85439" lon="0.4603">
        <ele>3861</ele>
        <time>2021-08-08T09:39:03Z</time>
      </trkpt>
      <trkpt lat="42.85438" lon="0.46028">
        <ele>3861</ele>
        <time>2021-08-08T09:39:05Z</time>
      </trkpt>
      <trkpt lat="42.85436" lon="0.46026">
        <ele>3861</ele>
        <time>2021-08-08T09:39:07Z</time>
      </trkpt>
      <trkpt lat="42.85436" lon="0.46022">
        <ele>3861</ele>
        <time>2021-08-08T09:39:10Z</time>
      </trkpt>
      <trkpt lat="42.85434" lon="0.4602">
        <ele>3872</ele>
        <time>2021-08-08T09:39:14Z</time>
      </trkpt>
      <trkpt lat="42.85433" lon="0.46018">
        <ele>3872</ele>
        <time>2021-08-08T09:39:17Z</time>
      </trkpt>
      <trkpt lat="42.85431" lon="0.46017">
        <ele>3872</ele>
        <time>2021-08-08T09:39:19Z</time>
      </trkpt>
      <trkpt lat="42.85429" lon="0.46017">
        <ele>3872</ele>
        <time>2021-08-08T09:39:22Z</time>
      </trkpt>
      <trkpt lat="42.85428" lon="0.46015">
        <ele>3874</ele>
        <time>2021-08-08T09:39:24Z</time>
      </trkpt>
      <trkpt lat="42.85426" lon="0.46013">
        <ele>3874</ele>
        <time>2021-08-08T09:39:27Z</time>
      </trkpt>
      <trkpt lat="42.85424" lon="0.4601">
        <ele>3874</ele>
        <time>2021-08-08T09:39:30Z</time>
      </trkpt>
      <trkpt lat="42.85422" lon="0.46009">
        <ele>3874</ele>
        <time>2021-08-08T09:39:33Z</time>
      </trkpt>
      <trkpt lat="42.85421" lon="0.46007">
        <ele>3874</ele>
        <time>2021-08-08T09:39:36Z</time>
      </trkpt>
      <trkpt lat="42.8542" lon="0.46005">
        <ele>3874</ele>
        <time>2021-08-08T09:39:41Z</time>
      </trkpt>
      <trkpt lat="42.85418" lon="0.46003">
        <ele>3874</ele>
        <time>2021-08-08T09:39:45Z</time>
      </trkpt>
      <trkpt lat="42.85417" lon="0.46003">
        <ele>3874</ele>
        <time>2021-08-08T09:39:50Z</time>
      </trkpt>
      <trkpt lat="42.85415" lon="0.46001">
        <ele>3874</ele>
        <time>2021-08-08T09:39:55Z</time>
      </trkpt>
      <trkpt lat="42.85414" lon="0.46002">
        <ele>3874</ele>
        <time>2021-08-08T09:41:00Z</time>
      </trkpt>
      <trkpt lat="42.85412" lon="0.46">
        <ele>3874</ele>
        <time>2021-08-08T09:41:19Z</time>
      </trkpt>
      <trkpt lat="42.8541" lon="0.46">
        <ele>3874</ele>
        <time>2021-08-08T09:41:21Z</time>
      </trkpt>
      <trkpt lat="42.85408" lon="0.45999">
        <ele>3874</ele>
        <time>2021-08-08T09:41:23Z</time>
      </trkpt>
      <trkpt lat="42.85406" lon="0.45997">
        <ele>3874</ele>
        <time>2021-08-08T09:41:25Z</time>
      </trkpt>
      <trkpt lat="42.85406" lon="0.45993">
        <ele>3874</ele>
        <time>2021-08-08T09:41:27Z</time>
      </trkpt>
      <trkpt lat="42.85405" lon="0.45991">
        <ele>3874</ele>
        <time>2021-08-08T09:41:29Z</time>
      </trkpt>
      <trkpt lat="42.85403" lon="0.45988">
        <ele>3874</ele>
        <time>2021-08-08T09:41:32Z</time>
      </trkpt>
      <trkpt lat="42.85402" lon="0.45986">
        <ele>3874</ele>
        <time>2021-08-08T09:41:35Z</time>
      </trkpt>
      <trkpt lat="42.854" lon="0.45984">
        <ele>3874</ele>
        <time>2021-08-08T09:41:38Z</time>
      </trkpt>
      <trkpt lat="42.85398" lon="0.45982">
        <ele>3874</ele>
        <time>2021-08-08T09:41:40Z</time>
      </trkpt>
      <trkpt lat="42.85397" lon="0.4598">
        <ele>3874</ele>
        <time>2021-08-08T09:41:42Z</time>
      </trkpt>
      <trkpt lat="42.85395" lon="0.45978">
        <ele>3874</ele>
        <time>2021-08-08T09:41:45Z</time>
      </trkpt>
      <trkpt lat="42.85394" lon="0.45975">
        <ele>3874</ele>
        <time>2021-08-08T09:41:48Z</time>
      </trkpt>
      <trkpt lat="42.85393" lon="0.45972">
        <ele>3874</ele>
        <time>2021-08-08T09:41:50Z</time>
      </trkpt>
      <trkpt lat="42.85392" lon="0.45969">
        <ele>3874</ele>
        <time>2021-08-08T09:41:52Z</time>
      </trkpt>
      <trkpt lat="42.8539" lon="0.45968">
        <ele>3874</ele>
        <time>2021-08-08T09:41:55Z</time>
      </trkpt>
      <trkpt lat="42.85389" lon="0.45965">
        <ele>3874</ele>
        <time>2021-08-08T09:41:58Z</time>
      </trkpt>
      <trkpt lat="42.85387" lon="0.45963">
        <ele>3874</ele>
        <time>2021-08-08T09:42:01Z</time>
      </trkpt>
      <trkpt lat="42.85386" lon="0.45961">
        <ele>3898</ele>
        <time>2021-08-08T09:42:04Z</time>
      </trkpt>
      <trkpt lat="42.85384" lon="0.4596">
        <ele>3898</ele>
        <time>2021-08-08T09:42:07Z</time>
      </trkpt>
      <trkpt lat="42.85382" lon="0.45959">
        <ele>3898</ele>
        <time>2021-08-08T09:42:10Z</time>
      </trkpt>
      <trkpt lat="42.8538" lon="0.45958">
        <ele>3898</ele>
        <time>2021-08-08T09:42:15Z</time>
      </trkpt>
      <trkpt lat="42.85378" lon="0.45957">
        <ele>3898</ele>
        <time>2021-08-08T09:42:18Z</time>
      </trkpt>
      <trkpt lat="42.85376" lon="0.45956">
        <ele>3898</ele>
        <time>2021-08-08T09:42:21Z</time>
      </trkpt>
      <trkpt lat="42.85374" lon="0.45955">
        <ele>3904</ele>
        <time>2021-08-08T09:42:24Z</time>
      </trkpt>
      <trkpt lat="42.85373" lon="0.45952">
        <ele>3904</ele>
        <time>2021-08-08T09:42:27Z</time>
      </trkpt>
      <trkpt lat="42.85371" lon="0.4595">
        <ele>3904</ele>
        <time>2021-08-08T09:42:30Z</time>
      </trkpt>
      <trkpt lat="42.8537" lon="0.45947">
        <ele>3904</ele>
        <time>2021-08-08T09:42:33Z</time>
      </trkpt>
      <trkpt lat="42.8537" lon="0.45945">
        <ele>3904</ele>
        <time>2021-08-08T09:42:37Z</time>
      </trkpt>
      <trkpt lat="42.85369" lon="0.45941">
        <ele>3904</ele>
        <time>2021-08-08T09:42:49Z</time>
      </trkpt>
      <trkpt lat="42.85368" lon="0.45939">
        <ele>3904</ele>
        <time>2021-08-08T09:42:51Z</time>
      </trkpt>
      <trkpt lat="42.85367" lon="0.45937">
        <ele>3909</ele>
        <time>2021-08-08T09:42:54Z</time>
      </trkpt>
      <trkpt lat="42.85366" lon="0.45934">
        <ele>3909</ele>
        <time>2021-08-08T09:42:57Z</time>
      </trkpt>
      <trkpt lat="42.85365" lon="0.45931">
        <ele>3909</ele>
        <time>2021-08-08T09:43:00Z</time>
      </trkpt>
      <trkpt lat="42.85363" lon="0.45929">
        <ele>3909</ele>
        <time>2021-08-08T09:43:03Z</time>
      </trkpt>
      <trkpt lat="42.85361" lon="0.45927">
        <ele>3909</ele>
        <time>2021-08-08T09:43:06Z</time>
      </trkpt>
      <trkpt lat="42.8536" lon="0.45925">
        <ele>3909</ele>
        <time>2021-08-08T09:43:09Z</time>
      </trkpt>
      <trkpt lat="42.85358" lon="0.45922">
        <ele>3909</ele>
        <time>2021-08-08T09:43:12Z</time>
      </trkpt>
      <trkpt lat="42.85357" lon="0.4592">
        <ele>3909</ele>
        <time>2021-08-08T09:43:15Z</time>
      </trkpt>
      <trkpt lat="42.85355" lon="0.45918">
        <ele>3909</ele>
        <time>2021-08-08T09:43:19Z</time>
      </trkpt>
      <trkpt lat="42.85354" lon="0.45916">
        <ele>3909</ele>
        <time>2021-08-08T09:43:22Z</time>
      </trkpt>
      <trkpt lat="42.85353" lon="0.45914">
        <ele>3909</ele>
        <time>2021-08-08T09:43:25Z</time>
      </trkpt>
      <trkpt lat="42.85351" lon="0.45912">
        <ele>3909</ele>
        <time>2021-08-08T09:43:28Z</time>
      </trkpt>
      <trkpt lat="42.85349" lon="0.4591">
        <ele>3909</ele>
        <time>2021-08-08T09:43:31Z</time>
      </trkpt>
      <trkpt lat="42.85348" lon="0.45907">
        <ele>3922</ele>
        <time>2021-08-08T09:43:34Z</time>
      </trkpt>
      <trkpt lat="42.85347" lon="0.45904">
        <ele>3922</ele>
        <time>2021-08-08T09:43:37Z</time>
      </trkpt>
      <trkpt lat="42.85345" lon="0.45902">
        <ele>3922</ele>
        <time>2021-08-08T09:43:41Z</time>
      </trkpt>
      <trkpt lat="42.85344" lon="0.45899">
        <ele>3923</ele>
        <time>2021-08-08T09:43:44Z</time>
      </trkpt>
      <trkpt lat="42.85343" lon="0.45897">
        <ele>3923</ele>
        <time>2021-08-08T09:43:48Z</time>
      </trkpt>
      <trkpt lat="42.85341" lon="0.45896">
        <ele>3923</ele>
        <time>2021-08-08T09:43:50Z</time>
      </trkpt>
      <trkpt lat="42.8534" lon="0.45894">
        <ele>3923</ele>
        <time>2021-08-08T09:43:53Z</time>
      </trkpt>
      <trkpt lat="42.85339" lon="0.4589">
        <ele>3923</ele>
        <time>2021-08-08T09:43:56Z</time>
      </trkpt>
      <trkpt lat="42.8534" lon="0.45887">
        <ele>3923</ele>
        <time>2021-08-08T09:43:59Z</time>
      </trkpt>
      <trkpt lat="42.85339" lon="0.45883">
        <ele>3923</ele>
        <time>2021-08-08T09:44:02Z</time>
      </trkpt>
      <trkpt lat="42.85338" lon="0.4588">
        <ele>3923</ele>
        <time>2021-08-08T09:44:05Z</time>
      </trkpt>
      <trkpt lat="42.85338" lon="0.45877">
        <ele>3923</ele>
        <time>2021-08-08T09:44:07Z</time>
      </trkpt>
      <trkpt lat="42.85336" lon="0.45875">
        <ele>3923</ele>
        <time>2021-08-08T09:44:10Z</time>
      </trkpt>
      <trkpt lat="42.85335" lon="0.45873">
        <ele>3923</ele>
        <time>2021-08-08T09:44:13Z</time>
      </trkpt>
      <trkpt lat="42.85333" lon="0.4587">
        <ele>3923</ele>
        <time>2021-08-08T09:44:16Z</time>
      </trkpt>
      <trkpt lat="42.85332" lon="0.45868">
        <ele>3923</ele>
        <time>2021-08-08T09:44:18Z</time>
      </trkpt>
      <trkpt lat="42.85331" lon="0.45866">
        <ele>3923</ele>
        <time>2021-08-08T09:44:20Z</time>
      </trkpt>
      <trkpt lat="42.85329" lon="0.45864">
        <ele>3923</ele>
        <time>2021-08-08T09:44:22Z</time>
      </trkpt>
      <trkpt lat="42.85328" lon="0.45863">
        <ele>3933</ele>
        <time>2021-08-08T09:44:24Z</time>
      </trkpt>
      <trkpt lat="42.85326" lon="0.4586">
        <ele>3933</ele>
        <time>2021-08-08T09:44:27Z</time>
      </trkpt>
      <trkpt lat="42.85324" lon="0.45858">
        <ele>3933</ele>
        <time>2021-08-08T09:44:29Z</time>
      </trkpt>
      <trkpt lat="42.85322" lon="0.45856">
        <ele>3933</ele>
        <time>2021-08-08T09:44:32Z</time>
      </trkpt>
      <trkpt lat="42.8532" lon="0.45854">
        <ele>3933</ele>
        <time>2021-08-08T09:44:35Z</time>
      </trkpt>
      <trkpt lat="42.85319" lon="0.45853">
        <ele>3933</ele>
        <time>2021-08-08T09:44:37Z</time>
      </trkpt>
      <trkpt lat="42.85317" lon="0.4585">
        <ele>3933</ele>
        <time>2021-08-08T09:44:40Z</time>
      </trkpt>
      <trkpt lat="42.85316" lon="0.45848">
        <ele>3933</ele>
        <time>2021-08-08T09:44:43Z</time>
      </trkpt>
      <trkpt lat="42.85316" lon="0.45845">
        <ele>3933</ele>
        <time>2021-08-08T09:44:46Z</time>
      </trkpt>
      <trkpt lat="42.85314" lon="0.45847">
        <ele>3933</ele>
        <time>2021-08-08T09:45:50Z</time>
      </trkpt>
      <trkpt lat="42.85316" lon="0.45848">
        <ele>3933</ele>
        <time>2021-08-08T09:46:46Z</time>
      </trkpt>
      <trkpt lat="42.85314" lon="0.4585">
        <ele>3933</ele>
        <time>2021-08-08T09:47:46Z</time>
      </trkpt>
      <trkpt lat="42.85313" lon="0.45851">
        <ele>3933</ele>
        <time>2021-08-08T09:47:48Z</time>
      </trkpt>
      <trkpt lat="42.85311" lon="0.45854">
        <ele>3933</ele>
        <time>2021-08-08T09:47:50Z</time>
      </trkpt>
      <trkpt lat="42.85309" lon="0.45856">
        <ele>3938</ele>
        <time>2021-08-08T09:47:54Z</time>
      </trkpt>
      <trkpt lat="42.85307" lon="0.45858">
        <ele>3938</ele>
        <time>2021-08-08T09:47:56Z</time>
      </trkpt>
      <trkpt lat="42.85306" lon="0.4586">
        <ele>3938</ele>
        <time>2021-08-08T09:47:58Z</time>
      </trkpt>
      <trkpt lat="42.85304" lon="0.45862">
        <ele>3938</ele>
        <time>2021-08-08T09:48:00Z</time>
      </trkpt>
      <trkpt lat="42.85303" lon="0.45863">
        <ele>3938</ele>
        <time>2021-08-08T09:48:02Z</time>
      </trkpt>
      <trkpt lat="42.85301" lon="0.45863">
        <ele>3939</ele>
        <time>2021-08-08T09:48:04Z</time>
      </trkpt>
      <trkpt lat="42.85299" lon="0.45864">
        <ele>3939</ele>
        <time>2021-08-08T09:48:06Z</time>
      </trkpt>
      <trkpt lat="42.85297" lon="0.45864">
        <ele>3939</ele>
        <time>2021-08-08T09:48:08Z</time>
      </trkpt>
      <trkpt lat="42.85295" lon="0.45865">
        <ele>3939</ele>
        <time>2021-08-08T09:48:10Z</time>
      </trkpt>
      <trkpt lat="42.85293" lon="0.45866">
        <ele>3939</ele>
        <time>2021-08-08T09:48:12Z</time>
      </trkpt>
      <trkpt lat="42.85292" lon="0.45869">
        <ele>3939</ele>
        <time>2021-08-08T09:48:16Z</time>
      </trkpt>
      <trkpt lat="42.85291" lon="0.4587">
        <ele>3939</ele>
        <time>2021-08-08T09:48:18Z</time>
      </trkpt>
      <trkpt lat="42.85288" lon="0.4587">
        <ele>3939</ele>
        <time>2021-08-08T09:48:21Z</time>
      </trkpt>
      <trkpt lat="42.85287" lon="0.45872">
        <ele>3947</ele>
        <time>2021-08-08T09:48:24Z</time>
      </trkpt>
      <trkpt lat="42.85286" lon="0.45874">
        <ele>3947</ele>
        <time>2021-08-08T09:48:28Z</time>
      </trkpt>
      <trkpt lat="42.85286" lon="0.45877">
        <ele>3947</ele>
        <time>2021-08-08T09:48:32Z</time>
      </trkpt>
      <trkpt lat="42.85285" lon="0.45878">
        <ele>3947</ele>
        <time>2021-08-08T09:48:36Z</time>
      </trkpt>
      <trkpt lat="42.85282" lon="0.45878">
        <ele>3947</ele>
        <time>2021-08-08T09:48:39Z</time>
      </trkpt>
      <trkpt lat="42.8528" lon="0.45878">
        <ele>3947</ele>
        <time>2021-08-08T09:48:42Z</time>
      </trkpt>
      <trkpt lat="42.85278" lon="0.45879">
        <ele>3947</ele>
        <time>2021-08-08T09:48:45Z</time>
      </trkpt>
      <trkpt lat="42.85276" lon="0.45881">
        <ele>3947</ele>
        <time>2021-08-08T09:48:50Z</time>
      </trkpt>
      <trkpt lat="42.85275" lon="0.45882">
        <ele>3947</ele>
        <time>2021-08-08T09:48:56Z</time>
      </trkpt>
      <trkpt lat="42.85273" lon="0.45882">
        <ele>3947</ele>
        <time>2021-08-08T09:48:59Z</time>
      </trkpt>
      <trkpt lat="42.85271" lon="0.45883">
        <ele>3947</ele>
        <time>2021-08-08T09:49:03Z</time>
      </trkpt>
      <trkpt lat="42.85269" lon="0.45884">
        <ele>3947</ele>
        <time>2021-08-08T09:49:08Z</time>
      </trkpt>
      <trkpt lat="42.85267" lon="0.45885">
        <ele>3947</ele>
        <time>2021-08-08T09:49:12Z</time>
      </trkpt>
      <trkpt lat="42.85265" lon="0.45887">
        <ele>3947</ele>
        <time>2021-08-08T09:49:15Z</time>
      </trkpt>
      <trkpt lat="42.85263" lon="0.45888">
        <ele>3947</ele>
        <time>2021-08-08T09:49:20Z</time>
      </trkpt>
      <trkpt lat="42.85261" lon="0.45889">
        <ele>3947</ele>
        <time>2021-08-08T09:49:25Z</time>
      </trkpt>
      <trkpt lat="42.85259" lon="0.45891">
        <ele>3947</ele>
        <time>2021-08-08T09:49:32Z</time>
      </trkpt>
      <trkpt lat="42.85258" lon="0.45892">
        <ele>3947</ele>
        <time>2021-08-08T09:49:36Z</time>
      </trkpt>
      <trkpt lat="42.85257" lon="0.45895">
        <ele>3947</ele>
        <time>2021-08-08T09:49:52Z</time>
      </trkpt>
      <trkpt lat="42.85256" lon="0.45897">
        <ele>3947</ele>
        <time>2021-08-08T09:49:58Z</time>
      </trkpt>
      <trkpt lat="42.85256" lon="0.459">
        <ele>3947</ele>
        <time>2021-08-08T09:50:13Z</time>
      </trkpt>
      <trkpt lat="42.85258" lon="0.45901">
        <ele>3947</ele>
        <time>2021-08-08T09:50:17Z</time>
      </trkpt>
      <trkpt lat="42.8526" lon="0.45902">
        <ele>3947</ele>
        <time>2021-08-08T09:50:21Z</time>
      </trkpt>
      <trkpt lat="42.85261" lon="0.45904">
        <ele>3947</ele>
        <time>2021-08-08T09:50:26Z</time>
      </trkpt>
      <trkpt lat="42.85259" lon="0.45905">
        <ele>3947</ele>
        <time>2021-08-08T09:50:29Z</time>
      </trkpt>
      <trkpt lat="42.8526" lon="0.45908">
        <ele>3947</ele>
        <time>2021-08-08T09:50:36Z</time>
      </trkpt>
      <trkpt lat="42.8526" lon="0.45911">
        <ele>3947</ele>
        <time>2021-08-08T09:50:39Z</time>
      </trkpt>
      <trkpt lat="42.85258" lon="0.45913">
        <ele>3947</ele>
        <time>2021-08-08T09:50:43Z</time>
      </trkpt>
      <trkpt lat="42.85256" lon="0.45914">
        <ele>3947</ele>
        <time>2021-08-08T09:50:47Z</time>
      </trkpt>
      <trkpt lat="42.85254" lon="0.45913">
        <ele>3947</ele>
        <time>2021-08-08T09:50:51Z</time>
      </trkpt>
      <trkpt lat="42.85253" lon="0.45915">
        <ele>3947</ele>
        <time>2021-08-08T09:50:57Z</time>
      </trkpt>
      <trkpt lat="42.85252" lon="0.45919">
        <ele>3947</ele>
        <time>2021-08-08T09:51:02Z</time>
      </trkpt>
      <trkpt lat="42.8525" lon="0.4592">
        <ele>3947</ele>
        <time>2021-08-08T09:51:06Z</time>
      </trkpt>
      <trkpt lat="42.85248" lon="0.4592">
        <ele>3947</ele>
        <time>2021-08-08T09:51:09Z</time>
      </trkpt>
      <trkpt lat="42.85247" lon="0.45922">
        <ele>3947</ele>
        <time>2021-08-08T09:51:13Z</time>
      </trkpt>
      <trkpt lat="42.85246" lon="0.45925">
        <ele>3947</ele>
        <time>2021-08-08T09:51:17Z</time>
      </trkpt>
      <trkpt lat="42.85245" lon="0.45928">
        <ele>3947</ele>
        <time>2021-08-08T09:51:22Z</time>
      </trkpt>
      <trkpt lat="42.85245" lon="0.45931">
        <ele>3947</ele>
        <time>2021-08-08T09:51:30Z</time>
      </trkpt>
      <trkpt lat="42.85243" lon="0.45932">
        <ele>3947</ele>
        <time>2021-08-08T09:51:33Z</time>
      </trkpt>
      <trkpt lat="42.85242" lon="0.45934">
        <ele>3947</ele>
        <time>2021-08-08T09:51:36Z</time>
      </trkpt>
      <trkpt lat="42.8524" lon="0.45935">
        <ele>3947</ele>
        <time>2021-08-08T09:51:41Z</time>
      </trkpt>
      <trkpt lat="42.85238" lon="0.45936">
        <ele>3947</ele>
        <time>2021-08-08T09:51:46Z</time>
      </trkpt>
      <trkpt lat="42.85237" lon="0.45938">
        <ele>3947</ele>
        <time>2021-08-08T09:51:50Z</time>
      </trkpt>
      <trkpt lat="42.85236" lon="0.45941">
        <ele>4003</ele>
        <time>2021-08-08T09:51:54Z</time>
      </trkpt>
      <trkpt lat="42.85235" lon="0.45943">
        <ele>4003</ele>
        <time>2021-08-08T09:51:57Z</time>
      </trkpt>
      <trkpt lat="42.85233" lon="0.45945">
        <ele>4003</ele>
        <time>2021-08-08T09:52:00Z</time>
      </trkpt>
      <trkpt lat="42.85231" lon="0.45945">
        <ele>4007</ele>
        <time>2021-08-08T09:52:04Z</time>
      </trkpt>
      <trkpt lat="42.85229" lon="0.45946">
        <ele>4007</ele>
        <time>2021-08-08T09:52:08Z</time>
      </trkpt>
      <trkpt lat="42.85228" lon="0.4595">
        <ele>4007</ele>
        <time>2021-08-08T09:52:53Z</time>
      </trkpt>
      <trkpt lat="42.85227" lon="0.45952">
        <ele>4007</ele>
        <time>2021-08-08T09:52:55Z</time>
      </trkpt>
      <trkpt lat="42.85225" lon="0.45956">
        <ele>4007</ele>
        <time>2021-08-08T09:52:57Z</time>
      </trkpt>
      <trkpt lat="42.85224" lon="0.45959">
        <ele>4007</ele>
        <time>2021-08-08T09:52:59Z</time>
      </trkpt>
      <trkpt lat="42.85223" lon="0.45961">
        <ele>4007</ele>
        <time>2021-08-08T09:53:01Z</time>
      </trkpt>
      <trkpt lat="42.85223" lon="0.45964">
        <ele>4007</ele>
        <time>2021-08-08T09:53:03Z</time>
      </trkpt>
      <trkpt lat="42.85222" lon="0.45967">
        <ele>4007</ele>
        <time>2021-08-08T09:53:05Z</time>
      </trkpt>
      <trkpt lat="42.85221" lon="0.4597">
        <ele>4007</ele>
        <time>2021-08-08T09:53:07Z</time>
      </trkpt>
      <trkpt lat="42.8522" lon="0.45972">
        <ele>4007</ele>
        <time>2021-08-08T09:53:09Z</time>
      </trkpt>
      <trkpt lat="42.85219" lon="0.45974">
        <ele>4007</ele>
        <time>2021-08-08T09:53:11Z</time>
      </trkpt>
      <trkpt lat="42.85218" lon="0.45976">
        <ele>4007</ele>
        <time>2021-08-08T09:53:13Z</time>
      </trkpt>
      <trkpt lat="42.85218" lon="0.45979">
        <ele>4007</ele>
        <time>2021-08-08T09:53:16Z</time>
      </trkpt>
      <trkpt lat="42.85217" lon="0.45982">
        <ele>4007</ele>
        <time>2021-08-08T09:53:19Z</time>
      </trkpt>
      <trkpt lat="42.85216" lon="0.45985">
        <ele>4007</ele>
        <time>2021-08-08T09:53:22Z</time>
      </trkpt>
      <trkpt lat="42.85215" lon="0.45987">
        <ele>4007</ele>
        <time>2021-08-08T09:53:25Z</time>
      </trkpt>
      <trkpt lat="42.85214" lon="0.4599">
        <ele>4007</ele>
        <time>2021-08-08T09:53:28Z</time>
      </trkpt>
      <trkpt lat="42.85213" lon="0.45991">
        <ele>4007</ele>
        <time>2021-08-08T09:53:30Z</time>
      </trkpt>
      <trkpt lat="42.85212" lon="0.45994">
        <ele>4007</ele>
        <time>2021-08-08T09:53:33Z</time>
      </trkpt>
      <trkpt lat="42.8521" lon="0.45996">
        <ele>4007</ele>
        <time>2021-08-08T09:53:36Z</time>
      </trkpt>
      <trkpt lat="42.85209" lon="0.45999">
        <ele>4007</ele>
        <time>2021-08-08T09:53:39Z</time>
      </trkpt>
      <trkpt lat="42.85209" lon="0.46001">
        <ele>4007</ele>
        <time>2021-08-08T09:53:41Z</time>
      </trkpt>
      <trkpt lat="42.85207" lon="0.46004">
        <ele>4020</ele>
        <time>2021-08-08T09:53:44Z</time>
      </trkpt>
      <trkpt lat="42.85206" lon="0.46007">
        <ele>4020</ele>
        <time>2021-08-08T09:53:47Z</time>
      </trkpt>
      <trkpt lat="42.85205" lon="0.46009">
        <ele>4020</ele>
        <time>2021-08-08T09:53:49Z</time>
      </trkpt>
      <trkpt lat="42.85204" lon="0.46012">
        <ele>4020</ele>
        <time>2021-08-08T09:53:52Z</time>
      </trkpt>
      <trkpt lat="42.85204" lon="0.46015">
        <ele>4023</ele>
        <time>2021-08-08T09:53:54Z</time>
      </trkpt>
      <trkpt lat="42.85203" lon="0.46018">
        <ele>4023</ele>
        <time>2021-08-08T09:53:57Z</time>
      </trkpt>
      <trkpt lat="42.85201" lon="0.46022">
        <ele>4023</ele>
        <time>2021-08-08T09:54:00Z</time>
      </trkpt>
      <trkpt lat="42.85201" lon="0.46024">
        <ele>4023</ele>
        <time>2021-08-08T09:54:02Z</time>
      </trkpt>
      <trkpt lat="42.85199" lon="0.46026">
        <ele>4024</ele>
        <time>2021-08-08T09:54:04Z</time>
      </trkpt>
      <trkpt lat="42.85197" lon="0.46027">
        <ele>4024</ele>
        <time>2021-08-08T09:54:07Z</time>
      </trkpt>
      <trkpt lat="42.85195" lon="0.46028">
        <ele>4024</ele>
        <time>2021-08-08T09:54:10Z</time>
      </trkpt>
      <trkpt lat="42.85194" lon="0.4603">
        <ele>4024</ele>
        <time>2021-08-08T09:54:13Z</time>
      </trkpt>
      <trkpt lat="42.85194" lon="0.46033">
        <ele>4024</ele>
        <time>2021-08-08T09:54:16Z</time>
      </trkpt>
      <trkpt lat="42.85194" lon="0.46036">
        <ele>4024</ele>
        <time>2021-08-08T09:54:19Z</time>
      </trkpt>
      <trkpt lat="42.85193" lon="0.46033">
        <ele>4024</ele>
        <time>2021-08-08T09:57:11Z</time>
      </trkpt>
      <trkpt lat="42.85193" lon="0.4603">
        <ele>4025</ele>
        <time>2021-08-08T09:57:14Z</time>
      </trkpt>
      <trkpt lat="42.85194" lon="0.46027">
        <ele>4025</ele>
        <time>2021-08-08T09:57:18Z</time>
      </trkpt>
      <trkpt lat="42.85195" lon="0.46025">
        <ele>4025</ele>
        <time>2021-08-08T09:57:32Z</time>
      </trkpt>
      <trkpt lat="42.85197" lon="0.46024">
        <ele>4025</ele>
        <time>2021-08-08T09:57:34Z</time>
      </trkpt>
      <trkpt lat="42.85199" lon="0.46023">
        <ele>4025</ele>
        <time>2021-08-08T09:57:36Z</time>
      </trkpt>
      <trkpt lat="42.85201" lon="0.46021">
        <ele>4025</ele>
        <time>2021-08-08T09:57:38Z</time>
      </trkpt>
      <trkpt lat="42.85202" lon="0.46019">
        <ele>4025</ele>
        <time>2021-08-08T09:57:40Z</time>
      </trkpt>
      <trkpt lat="42.85203" lon="0.46016">
        <ele>4025</ele>
        <time>2021-08-08T09:57:42Z</time>
      </trkpt>
      <trkpt lat="42.85203" lon="0.46013">
        <ele>4025</ele>
        <time>2021-08-08T09:57:44Z</time>
      </trkpt>
      <trkpt lat="42.85204" lon="0.46011">
        <ele>4025</ele>
        <time>2021-08-08T09:57:46Z</time>
      </trkpt>
      <trkpt lat="42.85205" lon="0.46008">
        <ele>4025</ele>
        <time>2021-08-08T09:57:48Z</time>
      </trkpt>
      <trkpt lat="42.85206" lon="0.46006">
        <ele>4025</ele>
        <time>2021-08-08T09:57:50Z</time>
      </trkpt>
      <trkpt lat="42.85207" lon="0.46003">
        <ele>4025</ele>
        <time>2021-08-08T09:57:52Z</time>
      </trkpt>
      <trkpt lat="42.85208" lon="0.46001">
        <ele>4024</ele>
        <time>2021-08-08T09:57:54Z</time>
      </trkpt>
      <trkpt lat="42.85209" lon="0.45998">
        <ele>4024</ele>
        <time>2021-08-08T09:57:56Z</time>
      </trkpt>
      <trkpt lat="42.8521" lon="0.45995">
        <ele>4024</ele>
        <time>2021-08-08T09:57:58Z</time>
      </trkpt>
      <trkpt lat="42.85211" lon="0.45993">
        <ele>4024</ele>
        <time>2021-08-08T09:58:00Z</time>
      </trkpt>
      <trkpt lat="42.85213" lon="0.45991">
        <ele>4024</ele>
        <time>2021-08-08T09:58:02Z</time>
      </trkpt>
      <trkpt lat="42.85214" lon="0.45988">
        <ele>4024</ele>
        <time>2021-08-08T09:58:05Z</time>
      </trkpt>
      <trkpt lat="42.85214" lon="0.45985">
        <ele>4024</ele>
        <time>2021-08-08T09:58:08Z</time>
      </trkpt>
      <trkpt lat="42.85215" lon="0.45982">
        <ele>4024</ele>
        <time>2021-08-08T09:58:11Z</time>
      </trkpt>
      <trkpt lat="42.85218" lon="0.45981">
        <ele>4015</ele>
        <time>2021-08-08T09:58:14Z</time>
      </trkpt>
      <trkpt lat="42.85217" lon="0.45978">
        <ele>4015</ele>
        <time>2021-08-08T09:58:17Z</time>
      </trkpt>
      <trkpt lat="42.85217" lon="0.45976">
        <ele>4015</ele>
        <time>2021-08-08T09:58:19Z</time>
      </trkpt>
      <trkpt lat="42.85217" lon="0.45973">
        <ele>4015</ele>
        <time>2021-08-08T09:58:22Z</time>
      </trkpt>
      <trkpt lat="42.85218" lon="0.4597">
        <ele>4015</ele>
        <time>2021-08-08T09:58:25Z</time>
      </trkpt>
      <trkpt lat="42.85219" lon="0.45967">
        <ele>4015</ele>
        <time>2021-08-08T09:58:28Z</time>
      </trkpt>
      <trkpt lat="42.85221" lon="0.45966">
        <ele>4015</ele>
        <time>2021-08-08T09:58:30Z</time>
      </trkpt>
      <trkpt lat="42.85222" lon="0.45963">
        <ele>4015</ele>
        <time>2021-08-08T09:58:32Z</time>
      </trkpt>
      <trkpt lat="42.85222" lon="0.45961">
        <ele>4009</ele>
        <time>2021-08-08T09:58:34Z</time>
      </trkpt>
      <trkpt lat="42.85222" lon="0.45958">
        <ele>4009</ele>
        <time>2021-08-08T09:58:36Z</time>
      </trkpt>
      <trkpt lat="42.85223" lon="0.45955">
        <ele>4009</ele>
        <time>2021-08-08T09:58:38Z</time>
      </trkpt>
      <trkpt lat="42.85224" lon="0.45952">
        <ele>4009</ele>
        <time>2021-08-08T09:58:40Z</time>
      </trkpt>
      <trkpt lat="42.85225" lon="0.45949">
        <ele>4009</ele>
        <time>2021-08-08T09:58:42Z</time>
      </trkpt>
      <trkpt lat="42.85226" lon="0.45946">
        <ele>4007</ele>
        <time>2021-08-08T09:58:44Z</time>
      </trkpt>
      <trkpt lat="42.85228" lon="0.45945">
        <ele>4007</ele>
        <time>2021-08-08T09:58:46Z</time>
      </trkpt>
      <trkpt lat="42.85229" lon="0.45942">
        <ele>4007</ele>
        <time>2021-08-08T09:58:49Z</time>
      </trkpt>
      <trkpt lat="42.85231" lon="0.45941">
        <ele>4007</ele>
        <time>2021-08-08T09:58:52Z</time>
      </trkpt>
      <trkpt lat="42.85233" lon="0.45941">
        <ele>4007</ele>
        <time>2021-08-08T09:58:55Z</time>
      </trkpt>
      <trkpt lat="42.85235" lon="0.45938">
        <ele>4007</ele>
        <time>2021-08-08T09:58:59Z</time>
      </trkpt>
      <trkpt lat="42.85236" lon="0.45936">
        <ele>4007</ele>
        <time>2021-08-08T09:59:03Z</time>
      </trkpt>
      <trkpt lat="42.85236" lon="0.45932">
        <ele>4007</ele>
        <time>2021-08-08T09:59:07Z</time>
      </trkpt>
      <trkpt lat="42.85238" lon="0.45932">
        <ele>4007</ele>
        <time>2021-08-08T09:59:09Z</time>
      </trkpt>
      <trkpt lat="42.8524" lon="0.45932">
        <ele>4007</ele>
        <time>2021-08-08T09:59:12Z</time>
      </trkpt>
      <trkpt lat="42.85242" lon="0.45929">
        <ele>4007</ele>
        <time>2021-08-08T09:59:16Z</time>
      </trkpt>
      <trkpt lat="42.85243" lon="0.45926">
        <ele>4007</ele>
        <time>2021-08-08T09:59:20Z</time>
      </trkpt>
      <trkpt lat="42.85245" lon="0.45925">
        <ele>4007</ele>
        <time>2021-08-08T09:59:23Z</time>
      </trkpt>
      <trkpt lat="42.85245" lon="0.45922">
        <ele>4007</ele>
        <time>2021-08-08T09:59:26Z</time>
      </trkpt>
      <trkpt lat="42.85245" lon="0.45919">
        <ele>4007</ele>
        <time>2021-08-08T09:59:29Z</time>
      </trkpt>
      <trkpt lat="42.85246" lon="0.45917">
        <ele>4007</ele>
        <time>2021-08-08T09:59:31Z</time>
      </trkpt>
      <trkpt lat="42.85249" lon="0.45916">
        <ele>3992</ele>
        <time>2021-08-08T09:59:34Z</time>
      </trkpt>
      <trkpt lat="42.85251" lon="0.45916">
        <ele>3992</ele>
        <time>2021-08-08T09:59:37Z</time>
      </trkpt>
      <trkpt lat="42.85253" lon="0.45916">
        <ele>3992</ele>
        <time>2021-08-08T09:59:40Z</time>
      </trkpt>
      <trkpt lat="42.85252" lon="0.45914">
        <ele>3992</ele>
        <time>2021-08-08T09:59:47Z</time>
      </trkpt>
      <trkpt lat="42.85253" lon="0.45911">
        <ele>3992</ele>
        <time>2021-08-08T09:59:51Z</time>
      </trkpt>
      <trkpt lat="42.85255" lon="0.45912">
        <ele>3987</ele>
        <time>2021-08-08T10:00:04Z</time>
      </trkpt>
      <trkpt lat="42.85257" lon="0.45911">
        <ele>3987</ele>
        <time>2021-08-08T10:00:07Z</time>
      </trkpt>
      <trkpt lat="42.85258" lon="0.45909">
        <ele>3987</ele>
        <time>2021-08-08T10:00:11Z</time>
      </trkpt>
      <trkpt lat="42.85258" lon="0.45906">
        <ele>3987</ele>
        <time>2021-08-08T10:00:15Z</time>
      </trkpt>
      <trkpt lat="42.85256" lon="0.45903">
        <ele>3987</ele>
        <time>2021-08-08T10:00:18Z</time>
      </trkpt>
      <trkpt lat="42.85257" lon="0.45901">
        <ele>3987</ele>
        <time>2021-08-08T10:00:21Z</time>
      </trkpt>
      <trkpt lat="42.85259" lon="0.459">
        <ele>3979</ele>
        <time>2021-08-08T10:00:24Z</time>
      </trkpt>
      <trkpt lat="42.85258" lon="0.45898">
        <ele>3979</ele>
        <time>2021-08-08T10:00:33Z</time>
      </trkpt>
      <trkpt lat="42.85256" lon="0.45897">
        <ele>3979</ele>
        <time>2021-08-08T10:00:36Z</time>
      </trkpt>
      <trkpt lat="42.85254" lon="0.45896">
        <ele>3979</ele>
        <time>2021-08-08T10:00:40Z</time>
      </trkpt>
      <trkpt lat="42.85252" lon="0.45894">
        <ele>3977</ele>
        <time>2021-08-08T10:00:44Z</time>
      </trkpt>
      <trkpt lat="42.85252" lon="0.45892">
        <ele>3977</ele>
        <time>2021-08-08T10:00:51Z</time>
      </trkpt>
      <trkpt lat="42.85254" lon="0.4589">
        <ele>3977</ele>
        <time>2021-08-08T10:01:07Z</time>
      </trkpt>
      <trkpt lat="42.85256" lon="0.45888">
        <ele>3977</ele>
        <time>2021-08-08T10:01:17Z</time>
      </trkpt>
      <trkpt lat="42.85258" lon="0.45888">
        <ele>3970</ele>
        <time>2021-08-08T10:01:24Z</time>
      </trkpt>
      <trkpt lat="42.85259" lon="0.45887">
        <ele>3970</ele>
        <time>2021-08-08T10:01:28Z</time>
      </trkpt>
      <trkpt lat="42.85261" lon="0.45885">
        <ele>3970</ele>
        <time>2021-08-08T10:01:32Z</time>
      </trkpt>
      <trkpt lat="42.85263" lon="0.45884">
        <ele>3970</ele>
        <time>2021-08-08T10:01:41Z</time>
      </trkpt>
      <trkpt lat="42.85265" lon="0.45883">
        <ele>3970</ele>
        <time>2021-08-08T10:01:46Z</time>
      </trkpt>
      <trkpt lat="42.85266" lon="0.4588">
        <ele>3970</ele>
        <time>2021-08-08T10:01:51Z</time>
      </trkpt>
      <trkpt lat="42.85268" lon="0.4588">
        <ele>3961</ele>
        <time>2021-08-08T10:01:54Z</time>
      </trkpt>
      <trkpt lat="42.8527" lon="0.45879">
        <ele>3961</ele>
        <time>2021-08-08T10:01:57Z</time>
      </trkpt>
      <trkpt lat="42.85272" lon="0.45878">
        <ele>3961</ele>
        <time>2021-08-08T10:02:00Z</time>
      </trkpt>
      <trkpt lat="42.85274" lon="0.45878">
        <ele>3961</ele>
        <time>2021-08-08T10:02:03Z</time>
      </trkpt>
      <trkpt lat="42.85275" lon="0.45876">
        <ele>3961</ele>
        <time>2021-08-08T10:02:07Z</time>
      </trkpt>
      <trkpt lat="42.85277" lon="0.45874">
        <ele>3961</ele>
        <time>2021-08-08T10:02:12Z</time>
      </trkpt>
      <trkpt lat="42.85279" lon="0.45874">
        <ele>3961</ele>
        <time>2021-08-08T10:02:15Z</time>
      </trkpt>
      <trkpt lat="42.85281" lon="0.45874">
        <ele>3961</ele>
        <time>2021-08-08T10:02:21Z</time>
      </trkpt>
      <trkpt lat="42.85284" lon="0.45874">
        <ele>3954</ele>
        <time>2021-08-08T10:02:24Z</time>
      </trkpt>
      <trkpt lat="42.85286" lon="0.45875">
        <ele>3954</ele>
        <time>2021-08-08T10:02:27Z</time>
      </trkpt>
      <trkpt lat="42.85286" lon="0.45872">
        <ele>3954</ele>
        <time>2021-08-08T10:02:36Z</time>
      </trkpt>
      <trkpt lat="42.85287" lon="0.4587">
        <ele>3954</ele>
        <time>2021-08-08T10:02:40Z</time>
      </trkpt>
      <trkpt lat="42.8529" lon="0.4587">
        <ele>3951</ele>
        <time>2021-08-08T10:02:44Z</time>
      </trkpt>
      <trkpt lat="42.85291" lon="0.45867">
        <ele>3951</ele>
        <time>2021-08-08T10:02:50Z</time>
      </trkpt>
      <trkpt lat="42.85292" lon="0.45864">
        <ele>3951</ele>
        <time>2021-08-08T10:02:55Z</time>
      </trkpt>
      <trkpt lat="42.85293" lon="0.45862">
        <ele>3951</ele>
        <time>2021-08-08T10:02:58Z</time>
      </trkpt>
      <trkpt lat="42.85295" lon="0.4586">
        <ele>3951</ele>
        <time>2021-08-08T10:03:03Z</time>
      </trkpt>
      <trkpt lat="42.85298" lon="0.4586">
        <ele>3951</ele>
        <time>2021-08-08T10:03:06Z</time>
      </trkpt>
      <trkpt lat="42.853" lon="0.4586">
        <ele>3951</ele>
        <time>2021-08-08T10:03:08Z</time>
      </trkpt>
      <trkpt lat="42.85301" lon="0.4586">
        <ele>3951</ele>
        <time>2021-08-08T10:03:10Z</time>
      </trkpt>
      <trkpt lat="42.85304" lon="0.45857">
        <ele>3951</ele>
        <time>2021-08-08T10:03:16Z</time>
      </trkpt>
      <trkpt lat="42.85305" lon="0.45855">
        <ele>3951</ele>
        <time>2021-08-08T10:03:18Z</time>
      </trkpt>
      <trkpt lat="42.85307" lon="0.45853">
        <ele>3951</ele>
        <time>2021-08-08T10:03:20Z</time>
      </trkpt>
      <trkpt lat="42.85308" lon="0.45851">
        <ele>3951</ele>
        <time>2021-08-08T10:03:22Z</time>
      </trkpt>
      <trkpt lat="42.8531" lon="0.45848">
        <ele>3951</ele>
        <time>2021-08-08T10:03:25Z</time>
      </trkpt>
      <trkpt lat="42.85312" lon="0.45847">
        <ele>3951</ele>
        <time>2021-08-08T10:03:27Z</time>
      </trkpt>
      <trkpt lat="42.85314" lon="0.45846">
        <ele>3951</ele>
        <time>2021-08-08T10:03:30Z</time>
      </trkpt>
      <trkpt lat="42.85316" lon="0.45847">
        <ele>3951</ele>
        <time>2021-08-08T10:03:32Z</time>
      </trkpt>
      <trkpt lat="42.85317" lon="0.45849">
        <ele>3938</ele>
        <time>2021-08-08T10:03:34Z</time>
      </trkpt>
      <trkpt lat="42.85318" lon="0.45851">
        <ele>3938</ele>
        <time>2021-08-08T10:03:36Z</time>
      </trkpt>
      <trkpt lat="42.8532" lon="0.45854">
        <ele>3938</ele>
        <time>2021-08-08T10:03:38Z</time>
      </trkpt>
      <trkpt lat="42.85322" lon="0.45855">
        <ele>3938</ele>
        <time>2021-08-08T10:03:40Z</time>
      </trkpt>
      <trkpt lat="42.85324" lon="0.45857">
        <ele>3938</ele>
        <time>2021-08-08T10:03:42Z</time>
      </trkpt>
      <trkpt lat="42.85326" lon="0.45859">
        <ele>3933</ele>
        <time>2021-08-08T10:03:44Z</time>
      </trkpt>
      <trkpt lat="42.85327" lon="0.45861">
        <ele>3933</ele>
        <time>2021-08-08T10:03:46Z</time>
      </trkpt>
      <trkpt lat="42.85329" lon="0.45863">
        <ele>3933</ele>
        <time>2021-08-08T10:03:48Z</time>
      </trkpt>
      <trkpt lat="42.85331" lon="0.45865">
        <ele>3933</ele>
        <time>2021-08-08T10:03:51Z</time>
      </trkpt>
      <trkpt lat="42.85333" lon="0.45866">
        <ele>3931</ele>
        <time>2021-08-08T10:04:24Z</time>
      </trkpt>
      <trkpt lat="42.85334" lon="0.45868">
        <ele>3931</ele>
        <time>2021-08-08T10:04:36Z</time>
      </trkpt>
      <trkpt lat="42.85336" lon="0.45869">
        <ele>3931</ele>
        <time>2021-08-08T10:04:48Z</time>
      </trkpt>
      <trkpt lat="42.85338" lon="0.4587">
        <ele>3931</ele>
        <time>2021-08-08T10:04:50Z</time>
      </trkpt>
      <trkpt lat="42.8534" lon="0.4587">
        <ele>3931</ele>
        <time>2021-08-08T10:04:52Z</time>
      </trkpt>
      <trkpt lat="42.85338" lon="0.45872">
        <ele>3931</ele>
        <time>2021-08-08T10:05:32Z</time>
      </trkpt>
      <trkpt lat="42.85336" lon="0.45872">
        <ele>3931</ele>
        <time>2021-08-08T10:05:36Z</time>
      </trkpt>
      <trkpt lat="42.85334" lon="0.45873">
        <ele>3931</ele>
        <time>2021-08-08T10:05:38Z</time>
      </trkpt>
      <trkpt lat="42.85335" lon="0.45875">
        <ele>3931</ele>
        <time>2021-08-08T10:05:43Z</time>
      </trkpt>
      <trkpt lat="42.85337" lon="0.45877">
        <ele>3931</ele>
        <time>2021-08-08T10:05:45Z</time>
      </trkpt>
      <trkpt lat="42.85338" lon="0.45879">
        <ele>3931</ele>
        <time>2021-08-08T10:05:47Z</time>
      </trkpt>
      <trkpt lat="42.85339" lon="0.45881">
        <ele>3931</ele>
        <time>2021-08-08T10:05:49Z</time>
      </trkpt>
      <trkpt lat="42.8534" lon="0.45884">
        <ele>3931</ele>
        <time>2021-08-08T10:05:51Z</time>
      </trkpt>
      <trkpt lat="42.85341" lon="0.45887">
        <ele>3931</ele>
        <time>2021-08-08T10:05:56Z</time>
      </trkpt>
      <trkpt lat="42.85342" lon="0.4589">
        <ele>3931</ele>
        <time>2021-08-08T10:05:58Z</time>
      </trkpt>
      <trkpt lat="42.85342" lon="0.45893">
        <ele>3931</ele>
        <time>2021-08-08T10:06:00Z</time>
      </trkpt>
      <trkpt lat="42.85342" lon="0.45896">
        <ele>3931</ele>
        <time>2021-08-08T10:06:02Z</time>
      </trkpt>
      <trkpt lat="42.85343" lon="0.45898">
        <ele>3925</ele>
        <time>2021-08-08T10:06:04Z</time>
      </trkpt>
      <trkpt lat="42.85344" lon="0.45901">
        <ele>3925</ele>
        <time>2021-08-08T10:06:07Z</time>
      </trkpt>
      <trkpt lat="42.85345" lon="0.45903">
        <ele>3925</ele>
        <time>2021-08-08T10:06:09Z</time>
      </trkpt>
      <trkpt lat="42.85346" lon="0.45906">
        <ele>3925</ele>
        <time>2021-08-08T10:06:11Z</time>
      </trkpt>
      <trkpt lat="42.85348" lon="0.45907">
        <ele>3925</ele>
        <time>2021-08-08T10:06:13Z</time>
      </trkpt>
      <trkpt lat="42.8535" lon="0.45909">
        <ele>3925</ele>
        <time>2021-08-08T10:06:15Z</time>
      </trkpt>
      <trkpt lat="42.85352" lon="0.4591">
        <ele>3925</ele>
        <time>2021-08-08T10:06:17Z</time>
      </trkpt>
      <trkpt lat="42.85354" lon="0.45912">
        <ele>3925</ele>
        <time>2021-08-08T10:06:19Z</time>
      </trkpt>
      <trkpt lat="42.85355" lon="0.45914">
        <ele>3925</ele>
        <time>2021-08-08T10:06:21Z</time>
      </trkpt>
      <trkpt lat="42.85357" lon="0.45916">
        <ele>3925</ele>
        <time>2021-08-08T10:06:23Z</time>
      </trkpt>
      <trkpt lat="42.85358" lon="0.45919">
        <ele>3925</ele>
        <time>2021-08-08T10:06:25Z</time>
      </trkpt>
      <trkpt lat="42.85359" lon="0.45921">
        <ele>3925</ele>
        <time>2021-08-08T10:06:27Z</time>
      </trkpt>
      <trkpt lat="42.85359" lon="0.45924">
        <ele>3925</ele>
        <time>2021-08-08T10:06:29Z</time>
      </trkpt>
      <trkpt lat="42.8536" lon="0.45927">
        <ele>3925</ele>
        <time>2021-08-08T10:06:31Z</time>
      </trkpt>
      <trkpt lat="42.85363" lon="0.45929">
        <ele>3913</ele>
        <time>2021-08-08T10:06:34Z</time>
      </trkpt>
      <trkpt lat="42.85365" lon="0.45931">
        <ele>3913</ele>
        <time>2021-08-08T10:06:36Z</time>
      </trkpt>
      <trkpt lat="42.85368" lon="0.45933">
        <ele>3913</ele>
        <time>2021-08-08T10:06:38Z</time>
      </trkpt>
      <trkpt lat="42.8537" lon="0.45936">
        <ele>3913</ele>
        <time>2021-08-08T10:06:40Z</time>
      </trkpt>
      <trkpt lat="42.85371" lon="0.45938">
        <ele>3913</ele>
        <time>2021-08-08T10:06:42Z</time>
      </trkpt>
      <trkpt lat="42.85373" lon="0.4594">
        <ele>3909</ele>
        <time>2021-08-08T10:06:44Z</time>
      </trkpt>
      <trkpt lat="42.85374" lon="0.45944">
        <ele>3909</ele>
        <time>2021-08-08T10:06:46Z</time>
      </trkpt>
      <trkpt lat="42.85376" lon="0.45947">
        <ele>3909</ele>
        <time>2021-08-08T10:06:48Z</time>
      </trkpt>
      <trkpt lat="42.85379" lon="0.4595">
        <ele>3909</ele>
        <time>2021-08-08T10:06:50Z</time>
      </trkpt>
      <trkpt lat="42.85381" lon="0.45953">
        <ele>3909</ele>
        <time>2021-08-08T10:06:52Z</time>
      </trkpt>
      <trkpt lat="42.85383" lon="0.45955">
        <ele>3906</ele>
        <time>2021-08-08T10:06:54Z</time>
      </trkpt>
      <trkpt lat="42.85385" lon="0.45956">
        <ele>3906</ele>
        <time>2021-08-08T10:06:56Z</time>
      </trkpt>
      <trkpt lat="42.85387" lon="0.45957">
        <ele>3906</ele>
        <time>2021-08-08T10:06:58Z</time>
      </trkpt>
      <trkpt lat="42.85389" lon="0.45959">
        <ele>3906</ele>
        <time>2021-08-08T10:07:00Z</time>
      </trkpt>
      <trkpt lat="42.85391" lon="0.45962">
        <ele>3906</ele>
        <time>2021-08-08T10:07:02Z</time>
      </trkpt>
      <trkpt lat="42.85393" lon="0.45964">
        <ele>3900</ele>
        <time>2021-08-08T10:07:04Z</time>
      </trkpt>
      <trkpt lat="42.85394" lon="0.45966">
        <ele>3900</ele>
        <time>2021-08-08T10:07:06Z</time>
      </trkpt>
      <trkpt lat="42.85396" lon="0.45968">
        <ele>3900</ele>
        <time>2021-08-08T10:07:08Z</time>
      </trkpt>
      <trkpt lat="42.85397" lon="0.45971">
        <ele>3900</ele>
        <time>2021-08-08T10:07:10Z</time>
      </trkpt>
      <trkpt lat="42.854" lon="0.45972">
        <ele>3900</ele>
        <time>2021-08-08T10:07:12Z</time>
      </trkpt>
      <trkpt lat="42.85401" lon="0.45975">
        <ele>3895</ele>
        <time>2021-08-08T10:07:14Z</time>
      </trkpt>
      <trkpt lat="42.85402" lon="0.45977">
        <ele>3895</ele>
        <time>2021-08-08T10:07:16Z</time>
      </trkpt>
      <trkpt lat="42.85403" lon="0.4598">
        <ele>3895</ele>
        <time>2021-08-08T10:07:18Z</time>
      </trkpt>
      <trkpt lat="42.85404" lon="0.45982">
        <ele>3895</ele>
        <time>2021-08-08T10:07:20Z</time>
      </trkpt>
      <trkpt lat="42.85407" lon="0.45985">
        <ele>3895</ele>
        <time>2021-08-08T10:07:23Z</time>
      </trkpt>
      <trkpt lat="42.85409" lon="0.45985">
        <ele>3895</ele>
        <time>2021-08-08T10:07:25Z</time>
      </trkpt>
      <trkpt lat="42.85411" lon="0.4599">
        <ele>3895</ele>
        <time>2021-08-08T10:07:29Z</time>
      </trkpt>
      <trkpt lat="42.85412" lon="0.45993">
        <ele>3895</ele>
        <time>2021-08-08T10:07:31Z</time>
      </trkpt>
      <trkpt lat="42.85414" lon="0.45996">
        <ele>3895</ele>
        <time>2021-08-08T10:07:33Z</time>
      </trkpt>
      <trkpt lat="42.85417" lon="0.45998">
        <ele>3895</ele>
        <time>2021-08-08T10:07:35Z</time>
      </trkpt>
      <trkpt lat="42.85419" lon="0.46">
        <ele>3895</ele>
        <time>2021-08-08T10:07:37Z</time>
      </trkpt>
      <trkpt lat="42.85421" lon="0.46001">
        <ele>3895</ele>
        <time>2021-08-08T10:07:39Z</time>
      </trkpt>
      <trkpt lat="42.85428" lon="0.46008">
        <ele>3895</ele>
        <time>2021-08-08T10:07:49Z</time>
      </trkpt>
      <trkpt lat="42.8543" lon="0.46008">
        <ele>3895</ele>
        <time>2021-08-08T10:07:51Z</time>
      </trkpt>
      <trkpt lat="42.85432" lon="0.4601">
        <ele>3895</ele>
        <time>2021-08-08T10:07:53Z</time>
      </trkpt>
      <trkpt lat="42.85436" lon="0.46015">
        <ele>3876</ele>
        <time>2021-08-08T10:08:04Z</time>
      </trkpt>
      <trkpt lat="42.85439" lon="0.46016">
        <ele>3876</ele>
        <time>2021-08-08T10:08:06Z</time>
      </trkpt>
      <trkpt lat="42.85442" lon="0.46017">
        <ele>3876</ele>
        <time>2021-08-08T10:08:08Z</time>
      </trkpt>
      <trkpt lat="42.85444" lon="0.46018">
        <ele>3876</ele>
        <time>2021-08-08T10:08:11Z</time>
      </trkpt>
      <trkpt lat="42.85446" lon="0.46024">
        <ele>3876</ele>
        <time>2021-08-08T10:08:15Z</time>
      </trkpt>
      <trkpt lat="42.85451" lon="0.46036">
        <ele>3869</ele>
        <time>2021-08-08T10:08:24Z</time>
      </trkpt>
      <trkpt lat="42.85453" lon="0.46048">
        <ele>3869</ele>
        <time>2021-08-08T10:08:33Z</time>
      </trkpt>
      <trkpt lat="42.85455" lon="0.4605">
        <ele>3869</ele>
        <time>2021-08-08T10:08:35Z</time>
      </trkpt>
      <trkpt lat="42.85457" lon="0.46052">
        <ele>3869</ele>
        <time>2021-08-08T10:08:37Z</time>
      </trkpt>
      <trkpt lat="42.85463" lon="0.46058">
        <ele>3861</ele>
        <time>2021-08-08T10:08:44Z</time>
      </trkpt>
      <trkpt lat="42.85465" lon="0.4606">
        <ele>3861</ele>
        <time>2021-08-08T10:08:46Z</time>
      </trkpt>
      <trkpt lat="42.85471" lon="0.46069">
        <ele>3858</ele>
        <time>2021-08-08T10:08:54Z</time>
      </trkpt>
      <trkpt lat="42.85474" lon="0.4607">
        <ele>3858</ele>
        <time>2021-08-08T10:08:57Z</time>
      </trkpt>
      <trkpt lat="42.85476" lon="0.46073">
        <ele>3858</ele>
        <time>2021-08-08T10:09:00Z</time>
      </trkpt>
      <trkpt lat="42.85478" lon="0.46075">
        <ele>3858</ele>
        <time>2021-08-08T10:09:02Z</time>
      </trkpt>
      <trkpt lat="42.8548" lon="0.46077">
        <ele>3855</ele>
        <time>2021-08-08T10:09:04Z</time>
      </trkpt>
      <trkpt lat="42.85482" lon="0.46079">
        <ele>3855</ele>
        <time>2021-08-08T10:09:06Z</time>
      </trkpt>
      <trkpt lat="42.85483" lon="0.46081">
        <ele>3855</ele>
        <time>2021-08-08T10:09:08Z</time>
      </trkpt>
      <trkpt lat="42.85485" lon="0.46083">
        <ele>3855</ele>
        <time>2021-08-08T10:09:10Z</time>
      </trkpt>
      <trkpt lat="42.85487" lon="0.46086">
        <ele>3855</ele>
        <time>2021-08-08T10:09:13Z</time>
      </trkpt>
      <trkpt lat="42.85488" lon="0.46089">
        <ele>3855</ele>
        <time>2021-08-08T10:09:15Z</time>
      </trkpt>
      <trkpt lat="42.85489" lon="0.4609">
        <ele>3855</ele>
        <time>2021-08-08T10:09:17Z</time>
      </trkpt>
      <trkpt lat="42.85491" lon="0.46094">
        <ele>3855</ele>
        <time>2021-08-08T10:09:20Z</time>
      </trkpt>
      <trkpt lat="42.85492" lon="0.46096">
        <ele>3855</ele>
        <time>2021-08-08T10:09:22Z</time>
      </trkpt>
      <trkpt lat="42.85494" lon="0.46098">
        <ele>3850</ele>
        <time>2021-08-08T10:09:24Z</time>
      </trkpt>
      <trkpt lat="42.85495" lon="0.461">
        <ele>3850</ele>
        <time>2021-08-08T10:09:26Z</time>
      </trkpt>
      <trkpt lat="42.85497" lon="0.46101">
        <ele>3850</ele>
        <time>2021-08-08T10:09:28Z</time>
      </trkpt>
      <trkpt lat="42.855" lon="0.46103">
        <ele>3850</ele>
        <time>2021-08-08T10:09:30Z</time>
      </trkpt>
      <trkpt lat="42.85502" lon="0.46104">
        <ele>3850</ele>
        <time>2021-08-08T10:09:33Z</time>
      </trkpt>
      <trkpt lat="42.85503" lon="0.46106">
        <ele>3850</ele>
        <time>2021-08-08T10:09:35Z</time>
      </trkpt>
      <trkpt lat="42.85505" lon="0.46108">
        <ele>3850</ele>
        <time>2021-08-08T10:09:37Z</time>
      </trkpt>
      <trkpt lat="42.85506" lon="0.46111">
        <ele>3850</ele>
        <time>2021-08-08T10:09:40Z</time>
      </trkpt>
      <trkpt lat="42.85508" lon="0.46112">
        <ele>3850</ele>
        <time>2021-08-08T10:09:43Z</time>
      </trkpt>
      <trkpt lat="42.85508" lon="0.46114">
        <ele>3850</ele>
        <time>2021-08-08T10:09:57Z</time>
      </trkpt>
      <trkpt lat="42.85507" lon="0.46118">
        <ele>3850</ele>
        <time>2021-08-08T10:10:01Z</time>
      </trkpt>
      <trkpt lat="42.85508" lon="0.46121">
        <ele>3850</ele>
        <time>2021-08-08T10:10:03Z</time>
      </trkpt>
      <trkpt lat="42.85509" lon="0.46124">
        <ele>3850</ele>
        <time>2021-08-08T10:10:05Z</time>
      </trkpt>
      <trkpt lat="42.8551" lon="0.46127">
        <ele>3850</ele>
        <time>2021-08-08T10:10:07Z</time>
      </trkpt>
      <trkpt lat="42.85511" lon="0.46129">
        <ele>3850</ele>
        <time>2021-08-08T10:10:09Z</time>
      </trkpt>
      <trkpt lat="42.85514" lon="0.46128">
        <ele>3850</ele>
        <time>2021-08-08T10:10:11Z</time>
      </trkpt>
      <trkpt lat="42.85515" lon="0.46126">
        <ele>3850</ele>
        <time>2021-08-08T10:10:13Z</time>
      </trkpt>
      <trkpt lat="42.85516" lon="0.46123">
        <ele>3850</ele>
        <time>2021-08-08T10:10:15Z</time>
      </trkpt>
      <trkpt lat="42.85519" lon="0.46122">
        <ele>3850</ele>
        <time>2021-08-08T10:10:18Z</time>
      </trkpt>
      <trkpt lat="42.85521" lon="0.46123">
        <ele>3850</ele>
        <time>2021-08-08T10:10:20Z</time>
      </trkpt>
      <trkpt lat="42.85523" lon="0.46125">
        <ele>3850</ele>
        <time>2021-08-08T10:10:22Z</time>
      </trkpt>
      <trkpt lat="42.85525" lon="0.46126">
        <ele>3838</ele>
        <time>2021-08-08T10:10:24Z</time>
      </trkpt>
      <trkpt lat="42.85527" lon="0.46127">
        <ele>3838</ele>
        <time>2021-08-08T10:10:27Z</time>
      </trkpt>
      <trkpt lat="42.8553" lon="0.46128">
        <ele>3838</ele>
        <time>2021-08-08T10:10:30Z</time>
      </trkpt>
      <trkpt lat="42.85531" lon="0.4613">
        <ele>3838</ele>
        <time>2021-08-08T10:10:32Z</time>
      </trkpt>
      <trkpt lat="42.85533" lon="0.46133">
        <ele>3838</ele>
        <time>2021-08-08T10:10:35Z</time>
      </trkpt>
      <trkpt lat="42.85534" lon="0.46135">
        <ele>3838</ele>
        <time>2021-08-08T10:10:38Z</time>
      </trkpt>
      <trkpt lat="42.85535" lon="0.46138">
        <ele>3838</ele>
        <time>2021-08-08T10:10:42Z</time>
      </trkpt>
      <trkpt lat="42.85537" lon="0.46139">
        <ele>3838</ele>
        <time>2021-08-08T10:10:49Z</time>
      </trkpt>
      <trkpt lat="42.85539" lon="0.46142">
        <ele>3838</ele>
        <time>2021-08-08T10:10:53Z</time>
      </trkpt>
      <trkpt lat="42.85543" lon="0.46144">
        <ele>3838</ele>
        <time>2021-08-08T10:10:56Z</time>
      </trkpt>
      <trkpt lat="42.85544" lon="0.46146">
        <ele>3838</ele>
        <time>2021-08-08T10:10:58Z</time>
      </trkpt>
      <trkpt lat="42.85545" lon="0.4615">
        <ele>3838</ele>
        <time>2021-08-08T10:11:05Z</time>
      </trkpt>
      <trkpt lat="42.85547" lon="0.46151">
        <ele>3838</ele>
        <time>2021-08-08T10:11:07Z</time>
      </trkpt>
      <trkpt lat="42.85548" lon="0.46154">
        <ele>3838</ele>
        <time>2021-08-08T10:11:09Z</time>
      </trkpt>
      <trkpt lat="42.85549" lon="0.46157">
        <ele>3838</ele>
        <time>2021-08-08T10:11:11Z</time>
      </trkpt>
      <trkpt lat="42.85556" lon="0.46165">
        <ele>3838</ele>
        <time>2021-08-08T10:11:20Z</time>
      </trkpt>
      <trkpt lat="42.85557" lon="0.46169">
        <ele>3838</ele>
        <time>2021-08-08T10:11:23Z</time>
      </trkpt>
      <trkpt lat="42.85557" lon="0.46172">
        <ele>3838</ele>
        <time>2021-08-08T10:11:25Z</time>
      </trkpt>
      <trkpt lat="42.85559" lon="0.46173">
        <ele>3838</ele>
        <time>2021-08-08T10:11:27Z</time>
      </trkpt>
      <trkpt lat="42.85564" lon="0.4618">
        <ele>3838</ele>
        <time>2021-08-08T10:11:33Z</time>
      </trkpt>
      <trkpt lat="42.85566" lon="0.46182">
        <ele>3838</ele>
        <time>2021-08-08T10:11:35Z</time>
      </trkpt>
      <trkpt lat="42.85566" lon="0.46184">
        <ele>3838</ele>
        <time>2021-08-08T10:11:37Z</time>
      </trkpt>
      <trkpt lat="42.85568" lon="0.46187">
        <ele>3838</ele>
        <time>2021-08-08T10:11:40Z</time>
      </trkpt>
      <trkpt lat="42.85569" lon="0.4619">
        <ele>3838</ele>
        <time>2021-08-08T10:11:42Z</time>
      </trkpt>
      <trkpt lat="42.85569" lon="0.46192">
        <ele>3838</ele>
        <time>2021-08-08T10:12:13Z</time>
      </trkpt>
      <trkpt lat="42.8557" lon="0.46194">
        <ele>3838</ele>
        <time>2021-08-08T10:12:15Z</time>
      </trkpt>
      <trkpt lat="42.85576" lon="0.46198">
        <ele>3838</ele>
        <time>2021-08-08T10:12:22Z</time>
      </trkpt>
      <trkpt lat="42.85578" lon="0.462">
        <ele>3811</ele>
        <time>2021-08-08T10:12:24Z</time>
      </trkpt>
      <trkpt lat="42.8558" lon="0.46201">
        <ele>3811</ele>
        <time>2021-08-08T10:12:26Z</time>
      </trkpt>
      <trkpt lat="42.8558" lon="0.46204">
        <ele>3811</ele>
        <time>2021-08-08T10:12:35Z</time>
      </trkpt>
      <trkpt lat="42.85582" lon="0.46206">
        <ele>3811</ele>
        <time>2021-08-08T10:12:37Z</time>
      </trkpt>
      <trkpt lat="42.85584" lon="0.46208">
        <ele>3811</ele>
        <time>2021-08-08T10:12:40Z</time>
      </trkpt>
      <trkpt lat="42.85586" lon="0.4621">
        <ele>3811</ele>
        <time>2021-08-08T10:12:42Z</time>
      </trkpt>
      <trkpt lat="42.85587" lon="0.46211">
        <ele>3807</ele>
        <time>2021-08-08T10:12:44Z</time>
      </trkpt>
      <trkpt lat="42.85589" lon="0.46213">
        <ele>3807</ele>
        <time>2021-08-08T10:12:47Z</time>
      </trkpt>
      <trkpt lat="42.85588" lon="0.4621">
        <ele>3807</ele>
        <time>2021-08-08T10:12:51Z</time>
      </trkpt>
      <trkpt lat="42.85587" lon="0.46207">
        <ele>3807</ele>
        <time>2021-08-08T10:12:54Z</time>
      </trkpt>
      <trkpt lat="42.85586" lon="0.46204">
        <ele>3807</ele>
        <time>2021-08-08T10:12:57Z</time>
      </trkpt>
      <trkpt lat="42.85587" lon="0.462">
        <ele>3807</ele>
        <time>2021-08-08T10:13:00Z</time>
      </trkpt>
      <trkpt lat="42.85588" lon="0.46199">
        <ele>3807</ele>
        <time>2021-08-08T10:13:02Z</time>
      </trkpt>
      <trkpt lat="42.85591" lon="0.462">
        <ele>3807</ele>
        <time>2021-08-08T10:13:07Z</time>
      </trkpt>
      <trkpt lat="42.85592" lon="0.46199">
        <ele>3807</ele>
        <time>2021-08-08T10:13:11Z</time>
      </trkpt>
      <trkpt lat="42.85592" lon="0.46196">
        <ele>3807</ele>
        <time>2021-08-08T10:13:13Z</time>
      </trkpt>
      <trkpt lat="42.85593" lon="0.46193">
        <ele>3807</ele>
        <time>2021-08-08T10:13:15Z</time>
      </trkpt>
      <trkpt lat="42.85593" lon="0.4619">
        <ele>3807</ele>
        <time>2021-08-08T10:13:17Z</time>
      </trkpt>
      <trkpt lat="42.85592" lon="0.46187">
        <ele>3807</ele>
        <time>2021-08-08T10:13:19Z</time>
      </trkpt>
      <trkpt lat="42.85592" lon="0.46184">
        <ele>3807</ele>
        <time>2021-08-08T10:13:22Z</time>
      </trkpt>
      <trkpt lat="42.85592" lon="0.46181">
        <ele>3807</ele>
        <time>2021-08-08T10:13:25Z</time>
      </trkpt>
      <trkpt lat="42.8559" lon="0.46179">
        <ele>3807</ele>
        <time>2021-08-08T10:13:31Z</time>
      </trkpt>
      <trkpt lat="42.8559" lon="0.46176">
        <ele>3807</ele>
        <time>2021-08-08T10:13:33Z</time>
      </trkpt>
      <trkpt lat="42.85589" lon="0.46173">
        <ele>3807</ele>
        <time>2021-08-08T10:13:35Z</time>
      </trkpt>
      <trkpt lat="42.85589" lon="0.4617">
        <ele>3807</ele>
        <time>2021-08-08T10:13:37Z</time>
      </trkpt>
      <trkpt lat="42.85589" lon="0.46168">
        <ele>3807</ele>
        <time>2021-08-08T10:13:40Z</time>
      </trkpt>
      <trkpt lat="42.85589" lon="0.46165">
        <ele>3807</ele>
        <time>2021-08-08T10:13:42Z</time>
      </trkpt>
      <trkpt lat="42.8559" lon="0.46162">
        <ele>3792</ele>
        <time>2021-08-08T10:13:44Z</time>
      </trkpt>
      <trkpt lat="42.85591" lon="0.4616">
        <ele>3792</ele>
        <time>2021-08-08T10:13:46Z</time>
      </trkpt>
      <trkpt lat="42.85594" lon="0.46159">
        <ele>3792</ele>
        <time>2021-08-08T10:13:49Z</time>
      </trkpt>
      <trkpt lat="42.85597" lon="0.4616">
        <ele>3792</ele>
        <time>2021-08-08T10:13:51Z</time>
      </trkpt>
      <trkpt lat="42.85599" lon="0.46161">
        <ele>3792</ele>
        <time>2021-08-08T10:13:53Z</time>
      </trkpt>
      <trkpt lat="42.85601" lon="0.46164">
        <ele>3792</ele>
        <time>2021-08-08T10:13:55Z</time>
      </trkpt>
      <trkpt lat="42.85604" lon="0.46169">
        <ele>3792</ele>
        <time>2021-08-08T10:13:59Z</time>
      </trkpt>
      <trkpt lat="42.85608" lon="0.46172">
        <ele>3788</ele>
        <time>2021-08-08T10:14:04Z</time>
      </trkpt>
      <trkpt lat="42.8561" lon="0.46175">
        <ele>3788</ele>
        <time>2021-08-08T10:14:07Z</time>
      </trkpt>
      <trkpt lat="42.85612" lon="0.46177">
        <ele>3788</ele>
        <time>2021-08-08T10:14:11Z</time>
      </trkpt>
      <trkpt lat="42.85614" lon="0.46179">
        <ele>3788</ele>
        <time>2021-08-08T10:14:15Z</time>
      </trkpt>
      <trkpt lat="42.85615" lon="0.46181">
        <ele>3788</ele>
        <time>2021-08-08T10:14:20Z</time>
      </trkpt>
      <trkpt lat="42.85617" lon="0.46181">
        <ele>3781</ele>
        <time>2021-08-08T10:14:24Z</time>
      </trkpt>
      <trkpt lat="42.8562" lon="0.46183">
        <ele>3781</ele>
        <time>2021-08-08T10:14:27Z</time>
      </trkpt>
      <trkpt lat="42.85621" lon="0.46185">
        <ele>3781</ele>
        <time>2021-08-08T10:14:29Z</time>
      </trkpt>
      <trkpt lat="42.85623" lon="0.46186">
        <ele>3781</ele>
        <time>2021-08-08T10:14:32Z</time>
      </trkpt>
      <trkpt lat="42.85625" lon="0.46186">
        <ele>3781</ele>
        <time>2021-08-08T10:14:34Z</time>
      </trkpt>
      <trkpt lat="42.85627" lon="0.46188">
        <ele>3781</ele>
        <time>2021-08-08T10:14:37Z</time>
      </trkpt>
      <trkpt lat="42.85629" lon="0.4619">
        <ele>3781</ele>
        <time>2021-08-08T10:14:40Z</time>
      </trkpt>
      <trkpt lat="42.8563" lon="0.46193">
        <ele>3781</ele>
        <time>2021-08-08T10:14:43Z</time>
      </trkpt>
      <trkpt lat="42.85632" lon="0.46195">
        <ele>3781</ele>
        <time>2021-08-08T10:14:46Z</time>
      </trkpt>
      <trkpt lat="42.85634" lon="0.46196">
        <ele>3781</ele>
        <time>2021-08-08T10:14:48Z</time>
      </trkpt>
      <trkpt lat="42.85636" lon="0.46198">
        <ele>3781</ele>
        <time>2021-08-08T10:14:50Z</time>
      </trkpt>
      <trkpt lat="42.85638" lon="0.46199">
        <ele>3781</ele>
        <time>2021-08-08T10:14:52Z</time>
      </trkpt>
      <trkpt lat="42.85639" lon="0.46202">
        <ele>3781</ele>
        <time>2021-08-08T10:14:55Z</time>
      </trkpt>
      <trkpt lat="42.85641" lon="0.46203">
        <ele>3781</ele>
        <time>2021-08-08T10:14:57Z</time>
      </trkpt>
      <trkpt lat="42.85643" lon="0.46206">
        <ele>3781</ele>
        <time>2021-08-08T10:15:00Z</time>
      </trkpt>
      <trkpt lat="42.85645" lon="0.46207">
        <ele>3781</ele>
        <time>2021-08-08T10:15:02Z</time>
      </trkpt>
      <trkpt lat="42.85646" lon="0.46209">
        <ele>3772</ele>
        <time>2021-08-08T10:15:04Z</time>
      </trkpt>
      <trkpt lat="42.85648" lon="0.4621">
        <ele>3772</ele>
        <time>2021-08-08T10:15:06Z</time>
      </trkpt>
      <trkpt lat="42.8565" lon="0.46209">
        <ele>3772</ele>
        <time>2021-08-08T10:15:10Z</time>
      </trkpt>
      <trkpt lat="42.85652" lon="0.46209">
        <ele>3772</ele>
        <time>2021-08-08T10:15:13Z</time>
      </trkpt>
      <trkpt lat="42.85653" lon="0.46209">
        <ele>3772</ele>
        <time>2021-08-08T10:15:16Z</time>
      </trkpt>
      <trkpt lat="42.85656" lon="0.46209">
        <ele>3772</ele>
        <time>2021-08-08T10:15:19Z</time>
      </trkpt>
      <trkpt lat="42.85658" lon="0.4621">
        <ele>3772</ele>
        <time>2021-08-08T10:15:21Z</time>
      </trkpt>
      <trkpt lat="42.8566" lon="0.4621">
        <ele>3772</ele>
        <time>2021-08-08T10:15:23Z</time>
      </trkpt>
      <trkpt lat="42.85663" lon="0.46211">
        <ele>3772</ele>
        <time>2021-08-08T10:15:25Z</time>
      </trkpt>
      <trkpt lat="42.85664" lon="0.46213">
        <ele>3772</ele>
        <time>2021-08-08T10:15:27Z</time>
      </trkpt>
      <trkpt lat="42.85667" lon="0.46215">
        <ele>3772</ele>
        <time>2021-08-08T10:15:30Z</time>
      </trkpt>
      <trkpt lat="42.85669" lon="0.46214">
        <ele>3772</ele>
        <time>2021-08-08T10:15:33Z</time>
      </trkpt>
      <trkpt lat="42.85671" lon="0.46214">
        <ele>3772</ele>
        <time>2021-08-08T10:15:36Z</time>
      </trkpt>
      <trkpt lat="42.85673" lon="0.46215">
        <ele>3772</ele>
        <time>2021-08-08T10:15:38Z</time>
      </trkpt>
      <trkpt lat="42.85675" lon="0.46215">
        <ele>3772</ele>
        <time>2021-08-08T10:15:40Z</time>
      </trkpt>
      <trkpt lat="42.85677" lon="0.46215">
        <ele>3772</ele>
        <time>2021-08-08T10:15:43Z</time>
      </trkpt>
      <trkpt lat="42.8568" lon="0.46215">
        <ele>3772</ele>
        <time>2021-08-08T10:15:46Z</time>
      </trkpt>
      <trkpt lat="42.85681" lon="0.46215">
        <ele>3772</ele>
        <time>2021-08-08T10:15:48Z</time>
      </trkpt>
      <trkpt lat="42.85684" lon="0.46216">
        <ele>3772</ele>
        <time>2021-08-08T10:15:51Z</time>
      </trkpt>
      <trkpt lat="42.85686" lon="0.46217">
        <ele>3772</ele>
        <time>2021-08-08T10:15:53Z</time>
      </trkpt>
      <trkpt lat="42.85688" lon="0.46218">
        <ele>3772</ele>
        <time>2021-08-08T10:15:55Z</time>
      </trkpt>
      <trkpt lat="42.8569" lon="0.4622">
        <ele>3772</ele>
        <time>2021-08-08T10:15:57Z</time>
      </trkpt>
      <trkpt lat="42.85692" lon="0.46221">
        <ele>3772</ele>
        <time>2021-08-08T10:15:59Z</time>
      </trkpt>
      <trkpt lat="42.85695" lon="0.4622">
        <ele>3772</ele>
        <time>2021-08-08T10:16:01Z</time>
      </trkpt>
      <trkpt lat="42.85697" lon="0.4622">
        <ele>3748</ele>
        <time>2021-08-08T10:16:04Z</time>
      </trkpt>
      <trkpt lat="42.857" lon="0.4622">
        <ele>3748</ele>
        <time>2021-08-08T10:16:06Z</time>
      </trkpt>
      <trkpt lat="42.85702" lon="0.46219">
        <ele>3748</ele>
        <time>2021-08-08T10:16:08Z</time>
      </trkpt>
      <trkpt lat="42.85704" lon="0.46219">
        <ele>3748</ele>
        <time>2021-08-08T10:16:10Z</time>
      </trkpt>
      <trkpt lat="42.85706" lon="0.46218">
        <ele>3748</ele>
        <time>2021-08-08T10:16:12Z</time>
      </trkpt>
      <trkpt lat="42.85709" lon="0.46219">
        <ele>3748</ele>
        <time>2021-08-08T10:16:15Z</time>
      </trkpt>
      <trkpt lat="42.85712" lon="0.4622">
        <ele>3748</ele>
        <time>2021-08-08T10:16:17Z</time>
      </trkpt>
      <trkpt lat="42.85714" lon="0.46221">
        <ele>3748</ele>
        <time>2021-08-08T10:16:19Z</time>
      </trkpt>
      <trkpt lat="42.85716" lon="0.46221">
        <ele>3748</ele>
        <time>2021-08-08T10:16:21Z</time>
      </trkpt>
      <trkpt lat="42.85719" lon="0.46222">
        <ele>3746</ele>
        <time>2021-08-08T10:16:24Z</time>
      </trkpt>
      <trkpt lat="42.8572" lon="0.46223">
        <ele>3746</ele>
        <time>2021-08-08T10:16:26Z</time>
      </trkpt>
      <trkpt lat="42.85722" lon="0.46226">
        <ele>3746</ele>
        <time>2021-08-08T10:16:28Z</time>
      </trkpt>
      <trkpt lat="42.85724" lon="0.46227">
        <ele>3746</ele>
        <time>2021-08-08T10:16:30Z</time>
      </trkpt>
      <trkpt lat="42.85726" lon="0.46228">
        <ele>3746</ele>
        <time>2021-08-08T10:16:33Z</time>
      </trkpt>
      <trkpt lat="42.85728" lon="0.4623">
        <ele>3746</ele>
        <time>2021-08-08T10:16:36Z</time>
      </trkpt>
      <trkpt lat="42.8573" lon="0.46231">
        <ele>3746</ele>
        <time>2021-08-08T10:16:39Z</time>
      </trkpt>
      <trkpt lat="42.85732" lon="0.46233">
        <ele>3746</ele>
        <time>2021-08-08T10:16:41Z</time>
      </trkpt>
      <trkpt lat="42.85734" lon="0.46234">
        <ele>3746</ele>
        <time>2021-08-08T10:16:45Z</time>
      </trkpt>
      <trkpt lat="42.85736" lon="0.46235">
        <ele>3746</ele>
        <time>2021-08-08T10:16:48Z</time>
      </trkpt>
      <trkpt lat="42.85738" lon="0.46235">
        <ele>3746</ele>
        <time>2021-08-08T10:16:50Z</time>
      </trkpt>
      <trkpt lat="42.8574" lon="0.46235">
        <ele>3746</ele>
        <time>2021-08-08T10:16:59Z</time>
      </trkpt>
      <trkpt lat="42.85742" lon="0.46235">
        <ele>3746</ele>
        <time>2021-08-08T10:17:01Z</time>
      </trkpt>
      <trkpt lat="42.85745" lon="0.46235">
        <ele>3746</ele>
        <time>2021-08-08T10:17:03Z</time>
      </trkpt>
      <trkpt lat="42.85747" lon="0.46236">
        <ele>3746</ele>
        <time>2021-08-08T10:17:05Z</time>
      </trkpt>
      <trkpt lat="42.85749" lon="0.46236">
        <ele>3746</ele>
        <time>2021-08-08T10:17:07Z</time>
      </trkpt>
      <trkpt lat="42.85752" lon="0.46236">
        <ele>3746</ele>
        <time>2021-08-08T10:17:09Z</time>
      </trkpt>
      <trkpt lat="42.85754" lon="0.46236">
        <ele>3746</ele>
        <time>2021-08-08T10:17:11Z</time>
      </trkpt>
      <trkpt lat="42.85756" lon="0.46236">
        <ele>3731</ele>
        <time>2021-08-08T10:17:14Z</time>
      </trkpt>
      <trkpt lat="42.85758" lon="0.46235">
        <ele>3731</ele>
        <time>2021-08-08T10:17:16Z</time>
      </trkpt>
      <trkpt lat="42.8576" lon="0.46232">
        <ele>3731</ele>
        <time>2021-08-08T10:17:19Z</time>
      </trkpt>
      <trkpt lat="42.85759" lon="0.46235">
        <ele>3731</ele>
        <time>2021-08-08T10:17:39Z</time>
      </trkpt>
      <trkpt lat="42.85759" lon="0.46238">
        <ele>3731</ele>
        <time>2021-08-08T10:17:42Z</time>
      </trkpt>
      <trkpt lat="42.8576" lon="0.46241">
        <ele>3731</ele>
        <time>2021-08-08T10:17:44Z</time>
      </trkpt>
      <trkpt lat="42.8576" lon="0.46244">
        <ele>3731</ele>
        <time>2021-08-08T10:17:46Z</time>
      </trkpt>
      <trkpt lat="42.85762" lon="0.46246">
        <ele>3731</ele>
        <time>2021-08-08T10:17:49Z</time>
      </trkpt>
      <trkpt lat="42.85762" lon="0.4625">
        <ele>3731</ele>
        <time>2021-08-08T10:17:51Z</time>
      </trkpt>
      <trkpt lat="42.85763" lon="0.46253">
        <ele>3731</ele>
        <time>2021-08-08T10:17:53Z</time>
      </trkpt>
      <trkpt lat="42.85764" lon="0.46255">
        <ele>3731</ele>
        <time>2021-08-08T10:17:55Z</time>
      </trkpt>
      <trkpt lat="42.85765" lon="0.46259">
        <ele>3731</ele>
        <time>2021-08-08T10:17:57Z</time>
      </trkpt>
      <trkpt lat="42.85766" lon="0.46261">
        <ele>3731</ele>
        <time>2021-08-08T10:18:00Z</time>
      </trkpt>
      <trkpt lat="42.85768" lon="0.46263">
        <ele>3731</ele>
        <time>2021-08-08T10:18:02Z</time>
      </trkpt>
      <trkpt lat="42.8577" lon="0.46265">
        <ele>3722</ele>
        <time>2021-08-08T10:18:04Z</time>
      </trkpt>
      <trkpt lat="42.85772" lon="0.46267">
        <ele>3722</ele>
        <time>2021-08-08T10:18:06Z</time>
      </trkpt>
      <trkpt lat="42.85774" lon="0.46269">
        <ele>3722</ele>
        <time>2021-08-08T10:18:08Z</time>
      </trkpt>
      <trkpt lat="42.85776" lon="0.46271">
        <ele>3722</ele>
        <time>2021-08-08T10:18:10Z</time>
      </trkpt>
      <trkpt lat="42.85777" lon="0.46272">
        <ele>3722</ele>
        <time>2021-08-08T10:18:12Z</time>
      </trkpt>
      <trkpt lat="42.8578" lon="0.46273">
        <ele>3721</ele>
        <time>2021-08-08T10:18:14Z</time>
      </trkpt>
      <trkpt lat="42.85782" lon="0.46275">
        <ele>3721</ele>
        <time>2021-08-08T10:18:16Z</time>
      </trkpt>
      <trkpt lat="42.85784" lon="0.46276">
        <ele>3721</ele>
        <time>2021-08-08T10:18:19Z</time>
      </trkpt>
      <trkpt lat="42.85786" lon="0.46277">
        <ele>3721</ele>
        <time>2021-08-08T10:18:21Z</time>
      </trkpt>
      <trkpt lat="42.85788" lon="0.46278">
        <ele>3721</ele>
        <time>2021-08-08T10:18:23Z</time>
      </trkpt>
      <trkpt lat="42.8579" lon="0.46279">
        <ele>3715</ele>
        <time>2021-08-08T10:18:24Z</time>
      </trkpt>
      <trkpt lat="42.85792" lon="0.4628">
        <ele>3715</ele>
        <time>2021-08-08T10:18:25Z</time>
      </trkpt>
      <trkpt lat="42.85794" lon="0.46281">
        <ele>3715</ele>
        <time>2021-08-08T10:18:28Z</time>
      </trkpt>
      <trkpt lat="42.85797" lon="0.46282">
        <ele>3715</ele>
        <time>2021-08-08T10:18:31Z</time>
      </trkpt>
      <trkpt lat="42.85799" lon="0.46283">
        <ele>3713</ele>
        <time>2021-08-08T10:18:34Z</time>
      </trkpt>
      <trkpt lat="42.85801" lon="0.46284">
        <ele>3713</ele>
        <time>2021-08-08T10:18:37Z</time>
      </trkpt>
      <trkpt lat="42.85803" lon="0.46285">
        <ele>3713</ele>
        <time>2021-08-08T10:18:40Z</time>
      </trkpt>
      <trkpt lat="42.85805" lon="0.46286">
        <ele>3713</ele>
        <time>2021-08-08T10:18:42Z</time>
      </trkpt>
      <trkpt lat="42.85808" lon="0.46287">
        <ele>3713</ele>
        <time>2021-08-08T10:18:45Z</time>
      </trkpt>
      <trkpt lat="42.8581" lon="0.46287">
        <ele>3713</ele>
        <time>2021-08-08T10:18:47Z</time>
      </trkpt>
      <trkpt lat="42.85812" lon="0.46288">
        <ele>3713</ele>
        <time>2021-08-08T10:18:49Z</time>
      </trkpt>
      <trkpt lat="42.85814" lon="0.46287">
        <ele>3713</ele>
        <time>2021-08-08T10:18:51Z</time>
      </trkpt>
      <trkpt lat="42.85816" lon="0.46288">
        <ele>3713</ele>
        <time>2021-08-08T10:18:53Z</time>
      </trkpt>
      <trkpt lat="42.85818" lon="0.46288">
        <ele>3713</ele>
        <time>2021-08-08T10:18:56Z</time>
      </trkpt>
      <trkpt lat="42.85821" lon="0.46288">
        <ele>3713</ele>
        <time>2021-08-08T10:18:59Z</time>
      </trkpt>
      <trkpt lat="42.85823" lon="0.46289">
        <ele>3713</ele>
        <time>2021-08-08T10:19:01Z</time>
      </trkpt>
      <trkpt lat="42.85825" lon="0.46288">
        <ele>3713</ele>
        <time>2021-08-08T10:19:03Z</time>
      </trkpt>
      <trkpt lat="42.85827" lon="0.46289">
        <ele>3713</ele>
        <time>2021-08-08T10:19:05Z</time>
      </trkpt>
      <trkpt lat="42.8583" lon="0.46291">
        <ele>3713</ele>
        <time>2021-08-08T10:19:07Z</time>
      </trkpt>
      <trkpt lat="42.85832" lon="0.46291">
        <ele>3713</ele>
        <time>2021-08-08T10:19:09Z</time>
      </trkpt>
      <trkpt lat="42.85834" lon="0.46291">
        <ele>3713</ele>
        <time>2021-08-08T10:19:11Z</time>
      </trkpt>
      <trkpt lat="42.85836" lon="0.46289">
        <ele>3713</ele>
        <time>2021-08-08T10:19:13Z</time>
      </trkpt>
      <trkpt lat="42.85838" lon="0.46288">
        <ele>3713</ele>
        <time>2021-08-08T10:19:15Z</time>
      </trkpt>
      <trkpt lat="42.8584" lon="0.46288">
        <ele>3713</ele>
        <time>2021-08-08T10:19:17Z</time>
      </trkpt>
      <trkpt lat="42.85842" lon="0.46287">
        <ele>3713</ele>
        <time>2021-08-08T10:19:19Z</time>
      </trkpt>
      <trkpt lat="42.85844" lon="0.46286">
        <ele>3713</ele>
        <time>2021-08-08T10:19:21Z</time>
      </trkpt>
      <trkpt lat="42.85846" lon="0.46285">
        <ele>3713</ele>
        <time>2021-08-08T10:19:23Z</time>
      </trkpt>
      <trkpt lat="42.85848" lon="0.46285">
        <ele>3713</ele>
        <time>2021-08-08T10:19:25Z</time>
      </trkpt>
      <trkpt lat="42.8585" lon="0.46285">
        <ele>3713</ele>
        <time>2021-08-08T10:19:28Z</time>
      </trkpt>
      <trkpt lat="42.85853" lon="0.46284">
        <ele>3713</ele>
        <time>2021-08-08T10:19:31Z</time>
      </trkpt>
      <trkpt lat="42.85855" lon="0.46284">
        <ele>3713</ele>
        <time>2021-08-08T10:19:33Z</time>
      </trkpt>
      <trkpt lat="42.85857" lon="0.46283">
        <ele>3713</ele>
        <time>2021-08-08T10:19:35Z</time>
      </trkpt>
      <trkpt lat="42.8586" lon="0.46284">
        <ele>3713</ele>
        <time>2021-08-08T10:19:37Z</time>
      </trkpt>
      <trkpt lat="42.85862" lon="0.46285">
        <ele>3713</ele>
        <time>2021-08-08T10:19:41Z</time>
      </trkpt>
      <trkpt lat="42.85864" lon="0.46284">
        <ele>3688</ele>
        <time>2021-08-08T10:19:54Z</time>
      </trkpt>
      <trkpt lat="42.85866" lon="0.46283">
        <ele>3688</ele>
        <time>2021-08-08T10:19:57Z</time>
      </trkpt>
      <trkpt lat="42.85868" lon="0.46283">
        <ele>3688</ele>
        <time>2021-08-08T10:19:59Z</time>
      </trkpt>
      <trkpt lat="42.8587" lon="0.46284">
        <ele>3688</ele>
        <time>2021-08-08T10:20:01Z</time>
      </trkpt>
      <trkpt lat="42.85872" lon="0.46284">
        <ele>3688</ele>
        <time>2021-08-08T10:20:03Z</time>
      </trkpt>
      <trkpt lat="42.85874" lon="0.46284">
        <ele>3688</ele>
        <time>2021-08-08T10:20:05Z</time>
      </trkpt>
      <trkpt lat="42.85876" lon="0.46285">
        <ele>3688</ele>
        <time>2021-08-08T10:20:07Z</time>
      </trkpt>
      <trkpt lat="42.85879" lon="0.46285">
        <ele>3688</ele>
        <time>2021-08-08T10:20:09Z</time>
      </trkpt>
      <trkpt lat="42.85881" lon="0.46285">
        <ele>3688</ele>
        <time>2021-08-08T10:20:11Z</time>
      </trkpt>
      <trkpt lat="42.85883" lon="0.46284">
        <ele>3688</ele>
        <time>2021-08-08T10:20:20Z</time>
      </trkpt>
      <trkpt lat="42.85885" lon="0.46286">
        <ele>3688</ele>
        <time>2021-08-08T10:20:22Z</time>
      </trkpt>
      <trkpt lat="42.85887" lon="0.46288">
        <ele>3682</ele>
        <time>2021-08-08T10:20:24Z</time>
      </trkpt>
      <trkpt lat="42.85888" lon="0.46291">
        <ele>3682</ele>
        <time>2021-08-08T10:20:26Z</time>
      </trkpt>
      <trkpt lat="42.85889" lon="0.46293">
        <ele>3682</ele>
        <time>2021-08-08T10:20:29Z</time>
      </trkpt>
      <trkpt lat="42.8589" lon="0.46295">
        <ele>3682</ele>
        <time>2021-08-08T10:20:43Z</time>
      </trkpt>
      <trkpt lat="42.85891" lon="0.46297">
        <ele>3682</ele>
        <time>2021-08-08T10:20:46Z</time>
      </trkpt>
      <trkpt lat="42.85889" lon="0.46298">
        <ele>3687</ele>
        <time>2021-08-08T10:42:14Z</time>
      </trkpt>
      <trkpt lat="42.85891" lon="0.46297">
        <ele>3687</ele>
        <time>2021-08-08T10:44:00Z</time>
      </trkpt>
      <trkpt lat="42.85889" lon="0.46297">
        <ele>3687</ele>
        <time>2021-08-08T10:44:03Z</time>
      </trkpt>
      <trkpt lat="42.8589" lon="0.46295">
        <ele>3687</ele>
        <time>2021-08-08T10:44:14Z</time>
      </trkpt>
      <trkpt lat="42.85891" lon="0.46293">
        <ele>3687</ele>
        <time>2021-08-08T10:44:36Z</time>
      </trkpt>
      <trkpt lat="42.85892" lon="0.46291">
        <ele>3687</ele>
        <time>2021-08-08T10:44:38Z</time>
      </trkpt>
      <trkpt lat="42.85893" lon="0.46289">
        <ele>3687</ele>
        <time>2021-08-08T10:44:40Z</time>
      </trkpt>
      <trkpt lat="42.85894" lon="0.46287">
        <ele>3687</ele>
        <time>2021-08-08T10:44:43Z</time>
      </trkpt>
      <trkpt lat="42.85896" lon="0.46286">
        <ele>3687</ele>
        <time>2021-08-08T10:44:55Z</time>
      </trkpt>
      <trkpt lat="42.85898" lon="0.46285">
        <ele>3687</ele>
        <time>2021-08-08T10:44:57Z</time>
      </trkpt>
      <trkpt lat="42.85899" lon="0.46283">
        <ele>3687</ele>
        <time>2021-08-08T10:44:59Z</time>
      </trkpt>
      <trkpt lat="42.85899" lon="0.4628">
        <ele>3687</ele>
        <time>2021-08-08T10:45:01Z</time>
      </trkpt>
      <trkpt lat="42.85901" lon="0.46277">
        <ele>3687</ele>
        <time>2021-08-08T10:45:04Z</time>
      </trkpt>
      <trkpt lat="42.85903" lon="0.46275">
        <ele>3687</ele>
        <time>2021-08-08T10:45:06Z</time>
      </trkpt>
      <trkpt lat="42.85905" lon="0.46274">
        <ele>3687</ele>
        <time>2021-08-08T10:45:08Z</time>
      </trkpt>
      <trkpt lat="42.85907" lon="0.46272">
        <ele>3687</ele>
        <time>2021-08-08T10:45:10Z</time>
      </trkpt>
      <trkpt lat="42.8591" lon="0.46272">
        <ele>3687</ele>
        <time>2021-08-08T10:45:12Z</time>
      </trkpt>
      <trkpt lat="42.85912" lon="0.46273">
        <ele>3678</ele>
        <time>2021-08-08T10:45:14Z</time>
      </trkpt>
      <trkpt lat="42.85914" lon="0.46273">
        <ele>3678</ele>
        <time>2021-08-08T10:45:16Z</time>
      </trkpt>
      <trkpt lat="42.85916" lon="0.46272">
        <ele>3678</ele>
        <time>2021-08-08T10:45:18Z</time>
      </trkpt>
      <trkpt lat="42.85918" lon="0.46272">
        <ele>3678</ele>
        <time>2021-08-08T10:45:20Z</time>
      </trkpt>
      <trkpt lat="42.85921" lon="0.46271">
        <ele>3678</ele>
        <time>2021-08-08T10:45:22Z</time>
      </trkpt>
      <trkpt lat="42.85923" lon="0.46271">
        <ele>3677</ele>
        <time>2021-08-08T10:45:24Z</time>
      </trkpt>
      <trkpt lat="42.85925" lon="0.4627">
        <ele>3677</ele>
        <time>2021-08-08T10:45:26Z</time>
      </trkpt>
      <trkpt lat="42.85927" lon="0.46269">
        <ele>3677</ele>
        <time>2021-08-08T10:45:28Z</time>
      </trkpt>
      <trkpt lat="42.8593" lon="0.46268">
        <ele>3677</ele>
        <time>2021-08-08T10:45:30Z</time>
      </trkpt>
      <trkpt lat="42.85933" lon="0.46266">
        <ele>3677</ele>
        <time>2021-08-08T10:45:32Z</time>
      </trkpt>
      <trkpt lat="42.85935" lon="0.46265">
        <ele>3673</ele>
        <time>2021-08-08T10:45:34Z</time>
      </trkpt>
      <trkpt lat="42.85938" lon="0.46264">
        <ele>3673</ele>
        <time>2021-08-08T10:45:36Z</time>
      </trkpt>
      <trkpt lat="42.8594" lon="0.46263">
        <ele>3673</ele>
        <time>2021-08-08T10:45:38Z</time>
      </trkpt>
      <trkpt lat="42.85942" lon="0.46262">
        <ele>3673</ele>
        <time>2021-08-08T10:45:40Z</time>
      </trkpt>
      <trkpt lat="42.85944" lon="0.46261">
        <ele>3673</ele>
        <time>2021-08-08T10:45:42Z</time>
      </trkpt>
      <trkpt lat="42.85947" lon="0.4626">
        <ele>3671</ele>
        <time>2021-08-08T10:45:44Z</time>
      </trkpt>
      <trkpt lat="42.85949" lon="0.4626">
        <ele>3671</ele>
        <time>2021-08-08T10:45:46Z</time>
      </trkpt>
      <trkpt lat="42.85951" lon="0.4626">
        <ele>3671</ele>
        <time>2021-08-08T10:45:48Z</time>
      </trkpt>
      <trkpt lat="42.85953" lon="0.46259">
        <ele>3671</ele>
        <time>2021-08-08T10:45:50Z</time>
      </trkpt>
      <trkpt lat="42.85955" lon="0.46259">
        <ele>3671</ele>
        <time>2021-08-08T10:45:52Z</time>
      </trkpt>
      <trkpt lat="42.85958" lon="0.46258">
        <ele>3667</ele>
        <time>2021-08-08T10:45:54Z</time>
      </trkpt>
      <trkpt lat="42.8596" lon="0.46258">
        <ele>3667</ele>
        <time>2021-08-08T10:45:56Z</time>
      </trkpt>
      <trkpt lat="42.85962" lon="0.46259">
        <ele>3667</ele>
        <time>2021-08-08T10:45:58Z</time>
      </trkpt>
      <trkpt lat="42.85965" lon="0.46261">
        <ele>3667</ele>
        <time>2021-08-08T10:46:00Z</time>
      </trkpt>
      <trkpt lat="42.85967" lon="0.46261">
        <ele>3667</ele>
        <time>2021-08-08T10:46:02Z</time>
      </trkpt>
      <trkpt lat="42.85969" lon="0.46262">
        <ele>3666</ele>
        <time>2021-08-08T10:46:04Z</time>
      </trkpt>
      <trkpt lat="42.85971" lon="0.46263">
        <ele>3666</ele>
        <time>2021-08-08T10:46:06Z</time>
      </trkpt>
      <trkpt lat="42.85973" lon="0.46262">
        <ele>3666</ele>
        <time>2021-08-08T10:46:08Z</time>
      </trkpt>
      <trkpt lat="42.85975" lon="0.46264">
        <ele>3666</ele>
        <time>2021-08-08T10:46:10Z</time>
      </trkpt>
      <trkpt lat="42.85977" lon="0.46264">
        <ele>3666</ele>
        <time>2021-08-08T10:46:13Z</time>
      </trkpt>
      <trkpt lat="42.85979" lon="0.46262">
        <ele>3666</ele>
        <time>2021-08-08T10:46:15Z</time>
      </trkpt>
      <trkpt lat="42.85981" lon="0.4626">
        <ele>3666</ele>
        <time>2021-08-08T10:46:17Z</time>
      </trkpt>
      <trkpt lat="42.85982" lon="0.4626">
        <ele>3666</ele>
        <time>2021-08-08T10:46:19Z</time>
      </trkpt>
      <trkpt lat="42.85984" lon="0.4626">
        <ele>3666</ele>
        <time>2021-08-08T10:46:21Z</time>
      </trkpt>
      <trkpt lat="42.85987" lon="0.4626">
        <ele>3657</ele>
        <time>2021-08-08T10:46:24Z</time>
      </trkpt>
      <trkpt lat="42.85989" lon="0.46258">
        <ele>3657</ele>
        <time>2021-08-08T10:46:26Z</time>
      </trkpt>
      <trkpt lat="42.85991" lon="0.46257">
        <ele>3657</ele>
        <time>2021-08-08T10:46:28Z</time>
      </trkpt>
      <trkpt lat="42.85993" lon="0.46256">
        <ele>3657</ele>
        <time>2021-08-08T10:46:30Z</time>
      </trkpt>
      <trkpt lat="42.85995" lon="0.46255">
        <ele>3657</ele>
        <time>2021-08-08T10:46:32Z</time>
      </trkpt>
      <trkpt lat="42.85997" lon="0.46254">
        <ele>3655</ele>
        <time>2021-08-08T10:46:34Z</time>
      </trkpt>
      <trkpt lat="42.86" lon="0.46253">
        <ele>3655</ele>
        <time>2021-08-08T10:46:36Z</time>
      </trkpt>
      <trkpt lat="42.86002" lon="0.46253">
        <ele>3655</ele>
        <time>2021-08-08T10:46:38Z</time>
      </trkpt>
      <trkpt lat="42.86004" lon="0.46252">
        <ele>3655</ele>
        <time>2021-08-08T10:46:40Z</time>
      </trkpt>
      <trkpt lat="42.86007" lon="0.46251">
        <ele>3655</ele>
        <time>2021-08-08T10:46:42Z</time>
      </trkpt>
      <trkpt lat="42.86008" lon="0.46249">
        <ele>3652</ele>
        <time>2021-08-08T10:46:44Z</time>
      </trkpt>
      <trkpt lat="42.86011" lon="0.46249">
        <ele>3652</ele>
        <time>2021-08-08T10:46:46Z</time>
      </trkpt>
      <trkpt lat="42.86014" lon="0.4625">
        <ele>3652</ele>
        <time>2021-08-08T10:46:48Z</time>
      </trkpt>
      <trkpt lat="42.86016" lon="0.46249">
        <ele>3652</ele>
        <time>2021-08-08T10:46:50Z</time>
      </trkpt>
      <trkpt lat="42.86018" lon="0.4625">
        <ele>3652</ele>
        <time>2021-08-08T10:46:52Z</time>
      </trkpt>
      <trkpt lat="42.8602" lon="0.4625">
        <ele>3647</ele>
        <time>2021-08-08T10:46:54Z</time>
      </trkpt>
      <trkpt lat="42.86023" lon="0.4625">
        <ele>3647</ele>
        <time>2021-08-08T10:46:56Z</time>
      </trkpt>
      <trkpt lat="42.86025" lon="0.4625">
        <ele>3647</ele>
        <time>2021-08-08T10:46:58Z</time>
      </trkpt>
      <trkpt lat="42.86027" lon="0.4625">
        <ele>3647</ele>
        <time>2021-08-08T10:47:00Z</time>
      </trkpt>
      <trkpt lat="42.86029" lon="0.4625">
        <ele>3647</ele>
        <time>2021-08-08T10:47:02Z</time>
      </trkpt>
      <trkpt lat="42.86032" lon="0.4625">
        <ele>3646</ele>
        <time>2021-08-08T10:47:04Z</time>
      </trkpt>
      <trkpt lat="42.86034" lon="0.46248">
        <ele>3646</ele>
        <time>2021-08-08T10:47:06Z</time>
      </trkpt>
      <trkpt lat="42.86037" lon="0.46248">
        <ele>3646</ele>
        <time>2021-08-08T10:47:08Z</time>
      </trkpt>
      <trkpt lat="42.86039" lon="0.46248">
        <ele>3646</ele>
        <time>2021-08-08T10:47:10Z</time>
      </trkpt>
      <trkpt lat="42.86042" lon="0.46247">
        <ele>3646</ele>
        <time>2021-08-08T10:47:12Z</time>
      </trkpt>
      <trkpt lat="42.86044" lon="0.46247">
        <ele>3646</ele>
        <time>2021-08-08T10:47:14Z</time>
      </trkpt>
      <trkpt lat="42.86047" lon="0.46247">
        <ele>3646</ele>
        <time>2021-08-08T10:47:16Z</time>
      </trkpt>
      <trkpt lat="42.86049" lon="0.46246">
        <ele>3646</ele>
        <time>2021-08-08T10:47:18Z</time>
      </trkpt>
      <trkpt lat="42.86051" lon="0.46246">
        <ele>3646</ele>
        <time>2021-08-08T10:47:20Z</time>
      </trkpt>
      <trkpt lat="42.86053" lon="0.46245">
        <ele>3646</ele>
        <time>2021-08-08T10:47:22Z</time>
      </trkpt>
      <trkpt lat="42.86055" lon="0.46245">
        <ele>3641</ele>
        <time>2021-08-08T10:47:24Z</time>
      </trkpt>
      <trkpt lat="42.86057" lon="0.46245">
        <ele>3641</ele>
        <time>2021-08-08T10:47:26Z</time>
      </trkpt>
      <trkpt lat="42.8606" lon="0.46244">
        <ele>3641</ele>
        <time>2021-08-08T10:47:28Z</time>
      </trkpt>
      <trkpt lat="42.86061" lon="0.46243">
        <ele>3641</ele>
        <time>2021-08-08T10:47:30Z</time>
      </trkpt>
      <trkpt lat="42.86063" lon="0.46241">
        <ele>3641</ele>
        <time>2021-08-08T10:47:32Z</time>
      </trkpt>
      <trkpt lat="42.86066" lon="0.46239">
        <ele>3639</ele>
        <time>2021-08-08T10:47:34Z</time>
      </trkpt>
      <trkpt lat="42.86068" lon="0.46238">
        <ele>3639</ele>
        <time>2021-08-08T10:47:36Z</time>
      </trkpt>
      <trkpt lat="42.86071" lon="0.46238">
        <ele>3639</ele>
        <time>2021-08-08T10:47:38Z</time>
      </trkpt>
      <trkpt lat="42.86073" lon="0.46238">
        <ele>3639</ele>
        <time>2021-08-08T10:47:40Z</time>
      </trkpt>
      <trkpt lat="42.86076" lon="0.46238">
        <ele>3639</ele>
        <time>2021-08-08T10:47:42Z</time>
      </trkpt>
      <trkpt lat="42.86078" lon="0.46239">
        <ele>3636</ele>
        <time>2021-08-08T10:47:44Z</time>
      </trkpt>
      <trkpt lat="42.86081" lon="0.46238">
        <ele>3636</ele>
        <time>2021-08-08T10:47:46Z</time>
      </trkpt>
      <trkpt lat="42.86083" lon="0.46237">
        <ele>3636</ele>
        <time>2021-08-08T10:47:48Z</time>
      </trkpt>
      <trkpt lat="42.86085" lon="0.46236">
        <ele>3636</ele>
        <time>2021-08-08T10:47:50Z</time>
      </trkpt>
      <trkpt lat="42.86088" lon="0.46235">
        <ele>3636</ele>
        <time>2021-08-08T10:47:52Z</time>
      </trkpt>
      <trkpt lat="42.86089" lon="0.46234">
        <ele>3634</ele>
        <time>2021-08-08T10:47:54Z</time>
      </trkpt>
      <trkpt lat="42.86092" lon="0.46233">
        <ele>3634</ele>
        <time>2021-08-08T10:47:56Z</time>
      </trkpt>
      <trkpt lat="42.86093" lon="0.46232">
        <ele>3634</ele>
        <time>2021-08-08T10:47:58Z</time>
      </trkpt>
      <trkpt lat="42.86096" lon="0.46231">
        <ele>3634</ele>
        <time>2021-08-08T10:48:00Z</time>
      </trkpt>
      <trkpt lat="42.86098" lon="0.4623">
        <ele>3634</ele>
        <time>2021-08-08T10:48:02Z</time>
      </trkpt>
      <trkpt lat="42.861" lon="0.46229">
        <ele>3631</ele>
        <time>2021-08-08T10:48:04Z</time>
      </trkpt>
      <trkpt lat="42.86101" lon="0.46227">
        <ele>3631</ele>
        <time>2021-08-08T10:48:06Z</time>
      </trkpt>
      <trkpt lat="42.86103" lon="0.46226">
        <ele>3631</ele>
        <time>2021-08-08T10:48:08Z</time>
      </trkpt>
      <trkpt lat="42.86105" lon="0.46225">
        <ele>3631</ele>
        <time>2021-08-08T10:48:10Z</time>
      </trkpt>
      <trkpt lat="42.86107" lon="0.46224">
        <ele>3631</ele>
        <time>2021-08-08T10:48:12Z</time>
      </trkpt>
      <trkpt lat="42.86109" lon="0.46223">
        <ele>3629</ele>
        <time>2021-08-08T10:48:14Z</time>
      </trkpt>
      <trkpt lat="42.86112" lon="0.46222">
        <ele>3629</ele>
        <time>2021-08-08T10:48:16Z</time>
      </trkpt>
      <trkpt lat="42.86114" lon="0.46221">
        <ele>3629</ele>
        <time>2021-08-08T10:48:18Z</time>
      </trkpt>
      <trkpt lat="42.86116" lon="0.46221">
        <ele>3629</ele>
        <time>2021-08-08T10:48:20Z</time>
      </trkpt>
      <trkpt lat="42.86118" lon="0.4622">
        <ele>3629</ele>
        <time>2021-08-08T10:48:22Z</time>
      </trkpt>
      <trkpt lat="42.8612" lon="0.46218">
        <ele>3626</ele>
        <time>2021-08-08T10:48:24Z</time>
      </trkpt>
      <trkpt lat="42.86122" lon="0.46217">
        <ele>3626</ele>
        <time>2021-08-08T10:48:26Z</time>
      </trkpt>
      <trkpt lat="42.86125" lon="0.46217">
        <ele>3626</ele>
        <time>2021-08-08T10:48:28Z</time>
      </trkpt>
      <trkpt lat="42.86127" lon="0.46216">
        <ele>3626</ele>
        <time>2021-08-08T10:48:30Z</time>
      </trkpt>
      <trkpt lat="42.8613" lon="0.46217">
        <ele>3626</ele>
        <time>2021-08-08T10:48:32Z</time>
      </trkpt>
      <trkpt lat="42.86132" lon="0.46217">
        <ele>3626</ele>
        <time>2021-08-08T10:48:34Z</time>
      </trkpt>
      <trkpt lat="42.86134" lon="0.46217">
        <ele>3626</ele>
        <time>2021-08-08T10:48:36Z</time>
      </trkpt>
      <trkpt lat="42.86136" lon="0.46218">
        <ele>3626</ele>
        <time>2021-08-08T10:48:38Z</time>
      </trkpt>
      <trkpt lat="42.86139" lon="0.46218">
        <ele>3626</ele>
        <time>2021-08-08T10:48:40Z</time>
      </trkpt>
      <trkpt lat="42.86141" lon="0.46219">
        <ele>3626</ele>
        <time>2021-08-08T10:48:42Z</time>
      </trkpt>
      <trkpt lat="42.86143" lon="0.46219">
        <ele>3626</ele>
        <time>2021-08-08T10:48:44Z</time>
      </trkpt>
      <trkpt lat="42.86146" lon="0.4622">
        <ele>3626</ele>
        <time>2021-08-08T10:48:46Z</time>
      </trkpt>
      <trkpt lat="42.86149" lon="0.4622">
        <ele>3626</ele>
        <time>2021-08-08T10:48:48Z</time>
      </trkpt>
      <trkpt lat="42.86151" lon="0.46221">
        <ele>3626</ele>
        <time>2021-08-08T10:48:50Z</time>
      </trkpt>
      <trkpt lat="42.86153" lon="0.46223">
        <ele>3626</ele>
        <time>2021-08-08T10:48:52Z</time>
      </trkpt>
      <trkpt lat="42.86154" lon="0.46226">
        <ele>3625</ele>
        <time>2021-08-08T10:48:54Z</time>
      </trkpt>
      <trkpt lat="42.86154" lon="0.4623">
        <ele>3625</ele>
        <time>2021-08-08T10:48:56Z</time>
      </trkpt>
      <trkpt lat="42.86154" lon="0.46233">
        <ele>3625</ele>
        <time>2021-08-08T10:48:58Z</time>
      </trkpt>
      <trkpt lat="42.86154" lon="0.46236">
        <ele>3625</ele>
        <time>2021-08-08T10:49:01Z</time>
      </trkpt>
      <trkpt lat="42.86154" lon="0.46239">
        <ele>3625</ele>
        <time>2021-08-08T10:49:03Z</time>
      </trkpt>
      <trkpt lat="42.86154" lon="0.46242">
        <ele>3625</ele>
        <time>2021-08-08T10:49:05Z</time>
      </trkpt>
      <trkpt lat="42.86154" lon="0.46245">
        <ele>3625</ele>
        <time>2021-08-08T10:49:07Z</time>
      </trkpt>
      <trkpt lat="42.86154" lon="0.46248">
        <ele>3625</ele>
        <time>2021-08-08T10:49:09Z</time>
      </trkpt>
      <trkpt lat="42.86153" lon="0.46251">
        <ele>3625</ele>
        <time>2021-08-08T10:49:11Z</time>
      </trkpt>
      <trkpt lat="42.86154" lon="0.46254">
        <ele>3625</ele>
        <time>2021-08-08T10:49:13Z</time>
      </trkpt>
      <trkpt lat="42.86153" lon="0.46257">
        <ele>3625</ele>
        <time>2021-08-08T10:49:15Z</time>
      </trkpt>
      <trkpt lat="42.86152" lon="0.46261">
        <ele>3625</ele>
        <time>2021-08-08T10:49:17Z</time>
      </trkpt>
      <trkpt lat="42.86151" lon="0.46264">
        <ele>3625</ele>
        <time>2021-08-08T10:49:19Z</time>
      </trkpt>
      <trkpt lat="42.86149" lon="0.46267">
        <ele>3625</ele>
        <time>2021-08-08T10:49:21Z</time>
      </trkpt>
      <trkpt lat="42.86148" lon="0.4627">
        <ele>3625</ele>
        <time>2021-08-08T10:49:23Z</time>
      </trkpt>
      <trkpt lat="42.86147" lon="0.46273">
        <ele>3625</ele>
        <time>2021-08-08T10:49:25Z</time>
      </trkpt>
      <trkpt lat="42.86147" lon="0.46276">
        <ele>3625</ele>
        <time>2021-08-08T10:49:27Z</time>
      </trkpt>
      <trkpt lat="42.86146" lon="0.46279">
        <ele>3625</ele>
        <time>2021-08-08T10:49:29Z</time>
      </trkpt>
      <trkpt lat="42.86147" lon="0.46282">
        <ele>3625</ele>
        <time>2021-08-08T10:49:31Z</time>
      </trkpt>
      <trkpt lat="42.86148" lon="0.46286">
        <ele>3625</ele>
        <time>2021-08-08T10:49:33Z</time>
      </trkpt>
      <trkpt lat="42.86149" lon="0.46289">
        <ele>3625</ele>
        <time>2021-08-08T10:49:35Z</time>
      </trkpt>
      <trkpt lat="42.8615" lon="0.46292">
        <ele>3625</ele>
        <time>2021-08-08T10:49:37Z</time>
      </trkpt>
      <trkpt lat="42.86151" lon="0.46295">
        <ele>3625</ele>
        <time>2021-08-08T10:49:39Z</time>
      </trkpt>
      <trkpt lat="42.86152" lon="0.46298">
        <ele>3625</ele>
        <time>2021-08-08T10:49:41Z</time>
      </trkpt>
      <trkpt lat="42.86153" lon="0.46302">
        <ele>3625</ele>
        <time>2021-08-08T10:49:43Z</time>
      </trkpt>
      <trkpt lat="42.86154" lon="0.46305">
        <ele>3625</ele>
        <time>2021-08-08T10:49:45Z</time>
      </trkpt>
      <trkpt lat="42.86155" lon="0.46308">
        <ele>3625</ele>
        <time>2021-08-08T10:49:47Z</time>
      </trkpt>
      <trkpt lat="42.86155" lon="0.46311">
        <ele>3625</ele>
        <time>2021-08-08T10:49:49Z</time>
      </trkpt>
      <trkpt lat="42.86155" lon="0.46314">
        <ele>3625</ele>
        <time>2021-08-08T10:49:51Z</time>
      </trkpt>
      <trkpt lat="42.86156" lon="0.46316">
        <ele>3625</ele>
        <time>2021-08-08T10:49:53Z</time>
      </trkpt>
      <trkpt lat="42.86157" lon="0.46319">
        <ele>3625</ele>
        <time>2021-08-08T10:49:55Z</time>
      </trkpt>
      <trkpt lat="42.86158" lon="0.46322">
        <ele>3625</ele>
        <time>2021-08-08T10:49:57Z</time>
      </trkpt>
      <trkpt lat="42.86159" lon="0.46326">
        <ele>3625</ele>
        <time>2021-08-08T10:49:59Z</time>
      </trkpt>
      <trkpt lat="42.8616" lon="0.46329">
        <ele>3625</ele>
        <time>2021-08-08T10:50:01Z</time>
      </trkpt>
      <trkpt lat="42.86161" lon="0.46332">
        <ele>3625</ele>
        <time>2021-08-08T10:50:03Z</time>
      </trkpt>
      <trkpt lat="42.86163" lon="0.46335">
        <ele>3625</ele>
        <time>2021-08-08T10:50:05Z</time>
      </trkpt>
      <trkpt lat="42.86164" lon="0.46337">
        <ele>3625</ele>
        <time>2021-08-08T10:50:07Z</time>
      </trkpt>
      <trkpt lat="42.86166" lon="0.4634">
        <ele>3625</ele>
        <time>2021-08-08T10:50:09Z</time>
      </trkpt>
      <trkpt lat="42.86168" lon="0.46343">
        <ele>3625</ele>
        <time>2021-08-08T10:50:11Z</time>
      </trkpt>
      <trkpt lat="42.86169" lon="0.46347">
        <ele>3625</ele>
        <time>2021-08-08T10:50:13Z</time>
      </trkpt>
      <trkpt lat="42.86171" lon="0.46349">
        <ele>3625</ele>
        <time>2021-08-08T10:50:15Z</time>
      </trkpt>
      <trkpt lat="42.86172" lon="0.46352">
        <ele>3625</ele>
        <time>2021-08-08T10:50:17Z</time>
      </trkpt>
      <trkpt lat="42.86175" lon="0.46354">
        <ele>3625</ele>
        <time>2021-08-08T10:50:19Z</time>
      </trkpt>
      <trkpt lat="42.86177" lon="0.46357">
        <ele>3625</ele>
        <time>2021-08-08T10:50:21Z</time>
      </trkpt>
      <trkpt lat="42.86178" lon="0.46359">
        <ele>3625</ele>
        <time>2021-08-08T10:50:23Z</time>
      </trkpt>
      <trkpt lat="42.86179" lon="0.46361">
        <ele>3625</ele>
        <time>2021-08-08T10:50:25Z</time>
      </trkpt>
      <trkpt lat="42.86181" lon="0.46363">
        <ele>3625</ele>
        <time>2021-08-08T10:50:27Z</time>
      </trkpt>
      <trkpt lat="42.86184" lon="0.46365">
        <ele>3625</ele>
        <time>2021-08-08T10:50:29Z</time>
      </trkpt>
      <trkpt lat="42.86186" lon="0.46368">
        <ele>3625</ele>
        <time>2021-08-08T10:50:31Z</time>
      </trkpt>
      <trkpt lat="42.86187" lon="0.46371">
        <ele>3625</ele>
        <time>2021-08-08T10:50:33Z</time>
      </trkpt>
      <trkpt lat="42.86189" lon="0.46374">
        <ele>3625</ele>
        <time>2021-08-08T10:50:35Z</time>
      </trkpt>
      <trkpt lat="42.8619" lon="0.46378">
        <ele>3625</ele>
        <time>2021-08-08T10:50:37Z</time>
      </trkpt>
      <trkpt lat="42.86191" lon="0.46381">
        <ele>3625</ele>
        <time>2021-08-08T10:50:39Z</time>
      </trkpt>
      <trkpt lat="42.86193" lon="0.46385">
        <ele>3625</ele>
        <time>2021-08-08T10:50:41Z</time>
      </trkpt>
      <trkpt lat="42.86194" lon="0.46388">
        <ele>3625</ele>
        <time>2021-08-08T10:50:43Z</time>
      </trkpt>
      <trkpt lat="42.86194" lon="0.46392">
        <ele>3625</ele>
        <time>2021-08-08T10:50:45Z</time>
      </trkpt>
      <trkpt lat="42.86195" lon="0.46395">
        <ele>3625</ele>
        <time>2021-08-08T10:50:47Z</time>
      </trkpt>
      <trkpt lat="42.86196" lon="0.46399">
        <ele>3625</ele>
        <time>2021-08-08T10:50:49Z</time>
      </trkpt>
      <trkpt lat="42.86197" lon="0.46403">
        <ele>3625</ele>
        <time>2021-08-08T10:50:51Z</time>
      </trkpt>
      <trkpt lat="42.86198" lon="0.46406">
        <ele>3625</ele>
        <time>2021-08-08T10:50:53Z</time>
      </trkpt>
      <trkpt lat="42.86199" lon="0.46409">
        <ele>3625</ele>
        <time>2021-08-08T10:50:55Z</time>
      </trkpt>
      <trkpt lat="42.862" lon="0.46413">
        <ele>3625</ele>
        <time>2021-08-08T10:50:57Z</time>
      </trkpt>
      <trkpt lat="42.86201" lon="0.46416">
        <ele>3625</ele>
        <time>2021-08-08T10:50:59Z</time>
      </trkpt>
      <trkpt lat="42.86201" lon="0.4642">
        <ele>3625</ele>
        <time>2021-08-08T10:51:01Z</time>
      </trkpt>
      <trkpt lat="42.86203" lon="0.46423">
        <ele>3625</ele>
        <time>2021-08-08T10:51:03Z</time>
      </trkpt>
      <trkpt lat="42.86204" lon="0.46426">
        <ele>3625</ele>
        <time>2021-08-08T10:51:05Z</time>
      </trkpt>
      <trkpt lat="42.86205" lon="0.4643">
        <ele>3625</ele>
        <time>2021-08-08T10:51:07Z</time>
      </trkpt>
      <trkpt lat="42.86206" lon="0.46433">
        <ele>3625</ele>
        <time>2021-08-08T10:51:09Z</time>
      </trkpt>
      <trkpt lat="42.86207" lon="0.46436">
        <ele>3625</ele>
        <time>2021-08-08T10:51:11Z</time>
      </trkpt>
      <trkpt lat="42.86208" lon="0.46439">
        <ele>3625</ele>
        <time>2021-08-08T10:51:13Z</time>
      </trkpt>
      <trkpt lat="42.86208" lon="0.46443">
        <ele>3625</ele>
        <time>2021-08-08T10:51:15Z</time>
      </trkpt>
      <trkpt lat="42.86209" lon="0.46445">
        <ele>3625</ele>
        <time>2021-08-08T10:51:19Z</time>
      </trkpt>
      <trkpt lat="42.86211" lon="0.46447">
        <ele>3625</ele>
        <time>2021-08-08T10:51:23Z</time>
      </trkpt>
      <trkpt lat="42.86212" lon="0.4645">
        <ele>3625</ele>
        <time>2021-08-08T10:51:28Z</time>
      </trkpt>
      <trkpt lat="42.86213" lon="0.46453">
        <ele>3625</ele>
        <time>2021-08-08T10:51:30Z</time>
      </trkpt>
      <trkpt lat="42.86213" lon="0.46456">
        <ele>3625</ele>
        <time>2021-08-08T10:51:32Z</time>
      </trkpt>
      <trkpt lat="42.86211" lon="0.46459">
        <ele>3625</ele>
        <time>2021-08-08T10:51:35Z</time>
      </trkpt>
      <trkpt lat="42.86213" lon="0.46462">
        <ele>3625</ele>
        <time>2021-08-08T10:51:47Z</time>
      </trkpt>
      <trkpt lat="42.86213" lon="0.46465">
        <ele>3625</ele>
        <time>2021-08-08T10:51:49Z</time>
      </trkpt>
      <trkpt lat="42.86213" lon="0.46469">
        <ele>3625</ele>
        <time>2021-08-08T10:51:51Z</time>
      </trkpt>
      <trkpt lat="42.86212" lon="0.46473">
        <ele>3625</ele>
        <time>2021-08-08T10:51:53Z</time>
      </trkpt>
      <trkpt lat="42.86212" lon="0.46477">
        <ele>3625</ele>
        <time>2021-08-08T10:51:55Z</time>
      </trkpt>
      <trkpt lat="42.86213" lon="0.46481">
        <ele>3625</ele>
        <time>2021-08-08T10:51:57Z</time>
      </trkpt>
      <trkpt lat="42.86213" lon="0.46484">
        <ele>3625</ele>
        <time>2021-08-08T10:51:59Z</time>
      </trkpt>
      <trkpt lat="42.86214" lon="0.46488">
        <ele>3625</ele>
        <time>2021-08-08T10:52:01Z</time>
      </trkpt>
      <trkpt lat="42.86215" lon="0.46491">
        <ele>3625</ele>
        <time>2021-08-08T10:52:03Z</time>
      </trkpt>
      <trkpt lat="42.86216" lon="0.46495">
        <ele>3625</ele>
        <time>2021-08-08T10:52:05Z</time>
      </trkpt>
      <trkpt lat="42.86216" lon="0.46499">
        <ele>3625</ele>
        <time>2021-08-08T10:52:07Z</time>
      </trkpt>
      <trkpt lat="42.86216" lon="0.46502">
        <ele>3625</ele>
        <time>2021-08-08T10:52:09Z</time>
      </trkpt>
      <trkpt lat="42.86216" lon="0.46506">
        <ele>3625</ele>
        <time>2021-08-08T10:52:11Z</time>
      </trkpt>
      <trkpt lat="42.86216" lon="0.46509">
        <ele>3625</ele>
        <time>2021-08-08T10:52:13Z</time>
      </trkpt>
      <trkpt lat="42.86217" lon="0.46513">
        <ele>3625</ele>
        <time>2021-08-08T10:52:15Z</time>
      </trkpt>
      <trkpt lat="42.86217" lon="0.46516">
        <ele>3625</ele>
        <time>2021-08-08T10:52:17Z</time>
      </trkpt>
      <trkpt lat="42.86218" lon="0.4652">
        <ele>3625</ele>
        <time>2021-08-08T10:52:19Z</time>
      </trkpt>
      <trkpt lat="42.8622" lon="0.46523">
        <ele>3625</ele>
        <time>2021-08-08T10:52:21Z</time>
      </trkpt>
      <trkpt lat="42.86221" lon="0.46526">
        <ele>3625</ele>
        <time>2021-08-08T10:52:23Z</time>
      </trkpt>
      <trkpt lat="42.86222" lon="0.46529">
        <ele>3625</ele>
        <time>2021-08-08T10:52:25Z</time>
      </trkpt>
      <trkpt lat="42.86223" lon="0.46533">
        <ele>3625</ele>
        <time>2021-08-08T10:52:27Z</time>
      </trkpt>
      <trkpt lat="42.86223" lon="0.46536">
        <ele>3625</ele>
        <time>2021-08-08T10:52:29Z</time>
      </trkpt>
      <trkpt lat="42.86224" lon="0.4654">
        <ele>3625</ele>
        <time>2021-08-08T10:52:31Z</time>
      </trkpt>
      <trkpt lat="42.86225" lon="0.46544">
        <ele>3625</ele>
        <time>2021-08-08T10:52:33Z</time>
      </trkpt>
      <trkpt lat="42.86226" lon="0.46547">
        <ele>3625</ele>
        <time>2021-08-08T10:52:35Z</time>
      </trkpt>
      <trkpt lat="42.86226" lon="0.46551">
        <ele>3625</ele>
        <time>2021-08-08T10:52:37Z</time>
      </trkpt>
      <trkpt lat="42.86226" lon="0.46554">
        <ele>3625</ele>
        <time>2021-08-08T10:52:39Z</time>
      </trkpt>
      <trkpt lat="42.86227" lon="0.46558">
        <ele>3625</ele>
        <time>2021-08-08T10:52:41Z</time>
      </trkpt>
      <trkpt lat="42.86228" lon="0.46562">
        <ele>3625</ele>
        <time>2021-08-08T10:52:43Z</time>
      </trkpt>
      <trkpt lat="42.86229" lon="0.46565">
        <ele>3625</ele>
        <time>2021-08-08T10:52:45Z</time>
      </trkpt>
      <trkpt lat="42.86228" lon="0.46569">
        <ele>3625</ele>
        <time>2021-08-08T10:52:47Z</time>
      </trkpt>
      <trkpt lat="42.86228" lon="0.46572">
        <ele>3625</ele>
        <time>2021-08-08T10:52:49Z</time>
      </trkpt>
      <trkpt lat="42.86229" lon="0.46576">
        <ele>3625</ele>
        <time>2021-08-08T10:52:51Z</time>
      </trkpt>
      <trkpt lat="42.86229" lon="0.46579">
        <ele>3625</ele>
        <time>2021-08-08T10:52:53Z</time>
      </trkpt>
      <trkpt lat="42.86229" lon="0.46583">
        <ele>3625</ele>
        <time>2021-08-08T10:52:55Z</time>
      </trkpt>
      <trkpt lat="42.86228" lon="0.46586">
        <ele>3625</ele>
        <time>2021-08-08T10:52:57Z</time>
      </trkpt>
      <trkpt lat="42.86226" lon="0.46589">
        <ele>3625</ele>
        <time>2021-08-08T10:52:59Z</time>
      </trkpt>
      <trkpt lat="42.86225" lon="0.46593">
        <ele>3625</ele>
        <time>2021-08-08T10:53:01Z</time>
      </trkpt>
      <trkpt lat="42.86225" lon="0.46597">
        <ele>3625</ele>
        <time>2021-08-08T10:53:03Z</time>
      </trkpt>
      <trkpt lat="42.86224" lon="0.46601">
        <ele>3625</ele>
        <time>2021-08-08T10:53:05Z</time>
      </trkpt>
      <trkpt lat="42.86222" lon="0.46604">
        <ele>3625</ele>
        <time>2021-08-08T10:53:07Z</time>
      </trkpt>
      <trkpt lat="42.8622" lon="0.46607">
        <ele>3625</ele>
        <time>2021-08-08T10:53:09Z</time>
      </trkpt>
      <trkpt lat="42.8622" lon="0.4661">
        <ele>3625</ele>
        <time>2021-08-08T10:53:11Z</time>
      </trkpt>
      <trkpt lat="42.86219" lon="0.46614">
        <ele>3625</ele>
        <time>2021-08-08T10:53:13Z</time>
      </trkpt>
      <trkpt lat="42.86218" lon="0.46617">
        <ele>3625</ele>
        <time>2021-08-08T10:53:15Z</time>
      </trkpt>
      <trkpt lat="42.86217" lon="0.46621">
        <ele>3625</ele>
        <time>2021-08-08T10:53:17Z</time>
      </trkpt>
      <trkpt lat="42.86217" lon="0.46625">
        <ele>3625</ele>
        <time>2021-08-08T10:53:19Z</time>
      </trkpt>
      <trkpt lat="42.86216" lon="0.46628">
        <ele>3625</ele>
        <time>2021-08-08T10:53:21Z</time>
      </trkpt>
      <trkpt lat="42.86214" lon="0.46631">
        <ele>3625</ele>
        <time>2021-08-08T10:53:23Z</time>
      </trkpt>
      <trkpt lat="42.86213" lon="0.46634">
        <ele>3625</ele>
        <time>2021-08-08T10:53:25Z</time>
      </trkpt>
      <trkpt lat="42.86211" lon="0.46637">
        <ele>3625</ele>
        <time>2021-08-08T10:53:27Z</time>
      </trkpt>
      <trkpt lat="42.8621" lon="0.46639">
        <ele>3625</ele>
        <time>2021-08-08T10:53:29Z</time>
      </trkpt>
      <trkpt lat="42.86208" lon="0.46642">
        <ele>3625</ele>
        <time>2021-08-08T10:53:31Z</time>
      </trkpt>
      <trkpt lat="42.86206" lon="0.46645">
        <ele>3625</ele>
        <time>2021-08-08T10:53:33Z</time>
      </trkpt>
      <trkpt lat="42.86205" lon="0.46648">
        <ele>3625</ele>
        <time>2021-08-08T10:53:35Z</time>
      </trkpt>
      <trkpt lat="42.86204" lon="0.46652">
        <ele>3625</ele>
        <time>2021-08-08T10:53:37Z</time>
      </trkpt>
      <trkpt lat="42.86203" lon="0.46655">
        <ele>3625</ele>
        <time>2021-08-08T10:53:39Z</time>
      </trkpt>
      <trkpt lat="42.86202" lon="0.46658">
        <ele>3625</ele>
        <time>2021-08-08T10:53:41Z</time>
      </trkpt>
      <trkpt lat="42.86201" lon="0.46661">
        <ele>3625</ele>
        <time>2021-08-08T10:53:43Z</time>
      </trkpt>
      <trkpt lat="42.86199" lon="0.46664">
        <ele>3625</ele>
        <time>2021-08-08T10:53:45Z</time>
      </trkpt>
      <trkpt lat="42.86197" lon="0.46667">
        <ele>3625</ele>
        <time>2021-08-08T10:53:47Z</time>
      </trkpt>
      <trkpt lat="42.86196" lon="0.46669">
        <ele>3625</ele>
        <time>2021-08-08T10:53:49Z</time>
      </trkpt>
      <trkpt lat="42.86196" lon="0.46672">
        <ele>3625</ele>
        <time>2021-08-08T10:53:51Z</time>
      </trkpt>
      <trkpt lat="42.86196" lon="0.46674">
        <ele>3625</ele>
        <time>2021-08-08T10:53:53Z</time>
      </trkpt>
      <trkpt lat="42.86195" lon="0.46677">
        <ele>3625</ele>
        <time>2021-08-08T10:53:55Z</time>
      </trkpt>
      <trkpt lat="42.86197" lon="0.46679">
        <ele>3625</ele>
        <time>2021-08-08T10:53:58Z</time>
      </trkpt>
      <trkpt lat="42.86197" lon="0.46682">
        <ele>3625</ele>
        <time>2021-08-08T10:54:00Z</time>
      </trkpt>
      <trkpt lat="42.86197" lon="0.46684">
        <ele>3625</ele>
        <time>2021-08-08T10:54:02Z</time>
      </trkpt>
      <trkpt lat="42.86197" lon="0.46687">
        <ele>3614</ele>
        <time>2021-08-08T10:54:04Z</time>
      </trkpt>
      <trkpt lat="42.86197" lon="0.4669">
        <ele>3614</ele>
        <time>2021-08-08T10:54:06Z</time>
      </trkpt>
      <trkpt lat="42.86197" lon="0.46693">
        <ele>3614</ele>
        <time>2021-08-08T10:54:08Z</time>
      </trkpt>
      <trkpt lat="42.86198" lon="0.46696">
        <ele>3614</ele>
        <time>2021-08-08T10:54:13Z</time>
      </trkpt>
      <trkpt lat="42.862" lon="0.46699">
        <ele>3614</ele>
        <time>2021-08-08T10:54:15Z</time>
      </trkpt>
      <trkpt lat="42.86201" lon="0.46702">
        <ele>3614</ele>
        <time>2021-08-08T10:54:17Z</time>
      </trkpt>
      <trkpt lat="42.86201" lon="0.46705">
        <ele>3614</ele>
        <time>2021-08-08T10:54:19Z</time>
      </trkpt>
      <trkpt lat="42.86201" lon="0.46708">
        <ele>3614</ele>
        <time>2021-08-08T10:54:21Z</time>
      </trkpt>
      <trkpt lat="42.86202" lon="0.46711">
        <ele>3614</ele>
        <time>2021-08-08T10:54:23Z</time>
      </trkpt>
      <trkpt lat="42.86202" lon="0.46715">
        <ele>3614</ele>
        <time>2021-08-08T10:54:25Z</time>
      </trkpt>
      <trkpt lat="42.86202" lon="0.46719">
        <ele>3614</ele>
        <time>2021-08-08T10:54:27Z</time>
      </trkpt>
      <trkpt lat="42.86202" lon="0.46722">
        <ele>3614</ele>
        <time>2021-08-08T10:54:29Z</time>
      </trkpt>
      <trkpt lat="42.86203" lon="0.46726">
        <ele>3614</ele>
        <time>2021-08-08T10:54:31Z</time>
      </trkpt>
      <trkpt lat="42.86203" lon="0.46729">
        <ele>3614</ele>
        <time>2021-08-08T10:54:33Z</time>
      </trkpt>
      <trkpt lat="42.86203" lon="0.46732">
        <ele>3614</ele>
        <time>2021-08-08T10:54:35Z</time>
      </trkpt>
      <trkpt lat="42.86204" lon="0.46736">
        <ele>3614</ele>
        <time>2021-08-08T10:54:37Z</time>
      </trkpt>
      <trkpt lat="42.86205" lon="0.46739">
        <ele>3614</ele>
        <time>2021-08-08T10:54:39Z</time>
      </trkpt>
      <trkpt lat="42.86206" lon="0.46742">
        <ele>3614</ele>
        <time>2021-08-08T10:54:41Z</time>
      </trkpt>
      <trkpt lat="42.86208" lon="0.46745">
        <ele>3614</ele>
        <time>2021-08-08T10:54:43Z</time>
      </trkpt>
      <trkpt lat="42.8621" lon="0.46748">
        <ele>3614</ele>
        <time>2021-08-08T10:54:45Z</time>
      </trkpt>
      <trkpt lat="42.86211" lon="0.46751">
        <ele>3614</ele>
        <time>2021-08-08T10:54:47Z</time>
      </trkpt>
      <trkpt lat="42.86213" lon="0.46753">
        <ele>3614</ele>
        <time>2021-08-08T10:54:49Z</time>
      </trkpt>
      <trkpt lat="42.86215" lon="0.46756">
        <ele>3614</ele>
        <time>2021-08-08T10:54:51Z</time>
      </trkpt>
      <trkpt lat="42.86217" lon="0.46759">
        <ele>3614</ele>
        <time>2021-08-08T10:54:53Z</time>
      </trkpt>
      <trkpt lat="42.86219" lon="0.46761">
        <ele>3614</ele>
        <time>2021-08-08T10:54:55Z</time>
      </trkpt>
      <trkpt lat="42.86222" lon="0.46762">
        <ele>3614</ele>
        <time>2021-08-08T10:54:57Z</time>
      </trkpt>
      <trkpt lat="42.86224" lon="0.46762">
        <ele>3614</ele>
        <time>2021-08-08T10:54:59Z</time>
      </trkpt>
      <trkpt lat="42.86227" lon="0.46763">
        <ele>3614</ele>
        <time>2021-08-08T10:55:01Z</time>
      </trkpt>
      <trkpt lat="42.8623" lon="0.46764">
        <ele>3614</ele>
        <time>2021-08-08T10:55:03Z</time>
      </trkpt>
      <trkpt lat="42.86233" lon="0.46765">
        <ele>3614</ele>
        <time>2021-08-08T10:55:05Z</time>
      </trkpt>
      <trkpt lat="42.86235" lon="0.46766">
        <ele>3614</ele>
        <time>2021-08-08T10:55:07Z</time>
      </trkpt>
      <trkpt lat="42.86238" lon="0.46768">
        <ele>3614</ele>
        <time>2021-08-08T10:55:09Z</time>
      </trkpt>
      <trkpt lat="42.8624" lon="0.4677">
        <ele>3614</ele>
        <time>2021-08-08T10:55:11Z</time>
      </trkpt>
      <trkpt lat="42.86242" lon="0.46772">
        <ele>3614</ele>
        <time>2021-08-08T10:55:13Z</time>
      </trkpt>
      <trkpt lat="42.86244" lon="0.46773">
        <ele>3614</ele>
        <time>2021-08-08T10:55:15Z</time>
      </trkpt>
      <trkpt lat="42.86247" lon="0.46774">
        <ele>3614</ele>
        <time>2021-08-08T10:55:17Z</time>
      </trkpt>
      <trkpt lat="42.86249" lon="0.46776">
        <ele>3614</ele>
        <time>2021-08-08T10:55:19Z</time>
      </trkpt>
      <trkpt lat="42.86251" lon="0.46777">
        <ele>3614</ele>
        <time>2021-08-08T10:55:21Z</time>
      </trkpt>
      <trkpt lat="42.86253" lon="0.46779">
        <ele>3608</ele>
        <time>2021-08-08T10:55:24Z</time>
      </trkpt>
      <trkpt lat="42.86255" lon="0.46779">
        <ele>3608</ele>
        <time>2021-08-08T10:55:26Z</time>
      </trkpt>
      <trkpt lat="42.86258" lon="0.4678">
        <ele>3608</ele>
        <time>2021-08-08T10:55:28Z</time>
      </trkpt>
      <trkpt lat="42.8626" lon="0.4678">
        <ele>3608</ele>
        <time>2021-08-08T10:55:30Z</time>
      </trkpt>
      <trkpt lat="42.86262" lon="0.4678">
        <ele>3608</ele>
        <time>2021-08-08T10:55:32Z</time>
      </trkpt>
      <trkpt lat="42.86265" lon="0.46781">
        <ele>3608</ele>
        <time>2021-08-08T10:55:34Z</time>
      </trkpt>
      <trkpt lat="42.86267" lon="0.46781">
        <ele>3608</ele>
        <time>2021-08-08T10:55:36Z</time>
      </trkpt>
      <trkpt lat="42.8627" lon="0.46782">
        <ele>3608</ele>
        <time>2021-08-08T10:55:38Z</time>
      </trkpt>
      <trkpt lat="42.86273" lon="0.46783">
        <ele>3608</ele>
        <time>2021-08-08T10:55:40Z</time>
      </trkpt>
      <trkpt lat="42.86275" lon="0.46783">
        <ele>3608</ele>
        <time>2021-08-08T10:55:42Z</time>
      </trkpt>
      <trkpt lat="42.86278" lon="0.46784">
        <ele>3608</ele>
        <time>2021-08-08T10:55:44Z</time>
      </trkpt>
      <trkpt lat="42.8628" lon="0.46785">
        <ele>3608</ele>
        <time>2021-08-08T10:55:46Z</time>
      </trkpt>
      <trkpt lat="42.86283" lon="0.46786">
        <ele>3608</ele>
        <time>2021-08-08T10:55:48Z</time>
      </trkpt>
      <trkpt lat="42.86286" lon="0.46787">
        <ele>3608</ele>
        <time>2021-08-08T10:55:50Z</time>
      </trkpt>
      <trkpt lat="42.86288" lon="0.46788">
        <ele>3608</ele>
        <time>2021-08-08T10:55:52Z</time>
      </trkpt>
      <trkpt lat="42.8629" lon="0.46789">
        <ele>3609</ele>
        <time>2021-08-08T10:55:54Z</time>
      </trkpt>
      <trkpt lat="42.86292" lon="0.4679">
        <ele>3609</ele>
        <time>2021-08-08T10:55:56Z</time>
      </trkpt>
      <trkpt lat="42.86295" lon="0.46791">
        <ele>3609</ele>
        <time>2021-08-08T10:55:58Z</time>
      </trkpt>
      <trkpt lat="42.86297" lon="0.46792">
        <ele>3609</ele>
        <time>2021-08-08T10:56:00Z</time>
      </trkpt>
      <trkpt lat="42.86299" lon="0.46793">
        <ele>3609</ele>
        <time>2021-08-08T10:56:02Z</time>
      </trkpt>
      <trkpt lat="42.86302" lon="0.46794">
        <ele>3613</ele>
        <time>2021-08-08T10:56:04Z</time>
      </trkpt>
      <trkpt lat="42.86304" lon="0.46794">
        <ele>3613</ele>
        <time>2021-08-08T10:56:06Z</time>
      </trkpt>
      <trkpt lat="42.86307" lon="0.46794">
        <ele>3613</ele>
        <time>2021-08-08T10:56:08Z</time>
      </trkpt>
      <trkpt lat="42.86309" lon="0.46795">
        <ele>3613</ele>
        <time>2021-08-08T10:56:10Z</time>
      </trkpt>
      <trkpt lat="42.86311" lon="0.46796">
        <ele>3613</ele>
        <time>2021-08-08T10:56:12Z</time>
      </trkpt>
      <trkpt lat="42.86313" lon="0.46797">
        <ele>3615</ele>
        <time>2021-08-08T10:56:14Z</time>
      </trkpt>
      <trkpt lat="42.86315" lon="0.46799">
        <ele>3615</ele>
        <time>2021-08-08T10:56:16Z</time>
      </trkpt>
      <trkpt lat="42.86317" lon="0.46799">
        <ele>3615</ele>
        <time>2021-08-08T10:56:18Z</time>
      </trkpt>
      <trkpt lat="42.8632" lon="0.468">
        <ele>3615</ele>
        <time>2021-08-08T10:56:20Z</time>
      </trkpt>
      <trkpt lat="42.86322" lon="0.46801">
        <ele>3615</ele>
        <time>2021-08-08T10:56:22Z</time>
      </trkpt>
      <trkpt lat="42.86325" lon="0.46802">
        <ele>3618</ele>
        <time>2021-08-08T10:56:24Z</time>
      </trkpt>
      <trkpt lat="42.86327" lon="0.46802">
        <ele>3618</ele>
        <time>2021-08-08T10:56:26Z</time>
      </trkpt>
      <trkpt lat="42.8633" lon="0.46803">
        <ele>3618</ele>
        <time>2021-08-08T10:56:28Z</time>
      </trkpt>
      <trkpt lat="42.86332" lon="0.46804">
        <ele>3618</ele>
        <time>2021-08-08T10:56:30Z</time>
      </trkpt>
      <trkpt lat="42.86335" lon="0.46805">
        <ele>3618</ele>
        <time>2021-08-08T10:56:32Z</time>
      </trkpt>
      <trkpt lat="42.86337" lon="0.46806">
        <ele>3618</ele>
        <time>2021-08-08T10:56:34Z</time>
      </trkpt>
      <trkpt lat="42.8634" lon="0.46806">
        <ele>3618</ele>
        <time>2021-08-08T10:56:36Z</time>
      </trkpt>
      <trkpt lat="42.86342" lon="0.46807">
        <ele>3618</ele>
        <time>2021-08-08T10:56:38Z</time>
      </trkpt>
      <trkpt lat="42.86344" lon="0.46807">
        <ele>3618</ele>
        <time>2021-08-08T10:56:40Z</time>
      </trkpt>
      <trkpt lat="42.86347" lon="0.46808">
        <ele>3618</ele>
        <time>2021-08-08T10:56:42Z</time>
      </trkpt>
      <trkpt lat="42.86349" lon="0.46808">
        <ele>3622</ele>
        <time>2021-08-08T10:56:44Z</time>
      </trkpt>
      <trkpt lat="42.86352" lon="0.46809">
        <ele>3622</ele>
        <time>2021-08-08T10:56:46Z</time>
      </trkpt>
      <trkpt lat="42.86354" lon="0.4681">
        <ele>3622</ele>
        <time>2021-08-08T10:56:48Z</time>
      </trkpt>
      <trkpt lat="42.86357" lon="0.4681">
        <ele>3622</ele>
        <time>2021-08-08T10:56:54Z</time>
      </trkpt>
      <trkpt lat="42.86359" lon="0.46811">
        <ele>3622</ele>
        <time>2021-08-08T10:56:56Z</time>
      </trkpt>
      <trkpt lat="42.86361" lon="0.46812">
        <ele>3622</ele>
        <time>2021-08-08T10:56:58Z</time>
      </trkpt>
      <trkpt lat="42.86363" lon="0.46812">
        <ele>3622</ele>
        <time>2021-08-08T10:57:00Z</time>
      </trkpt>
      <trkpt lat="42.86365" lon="0.46812">
        <ele>3622</ele>
        <time>2021-08-08T10:57:02Z</time>
      </trkpt>
      <trkpt lat="42.86368" lon="0.46813">
        <ele>3624</ele>
        <time>2021-08-08T10:57:04Z</time>
      </trkpt>
      <trkpt lat="42.8637" lon="0.46813">
        <ele>3624</ele>
        <time>2021-08-08T10:57:06Z</time>
      </trkpt>
      <trkpt lat="42.86372" lon="0.46814">
        <ele>3624</ele>
        <time>2021-08-08T10:57:08Z</time>
      </trkpt>
      <trkpt lat="42.86374" lon="0.46815">
        <ele>3624</ele>
        <time>2021-08-08T10:57:10Z</time>
      </trkpt>
      <trkpt lat="42.86376" lon="0.46816">
        <ele>3624</ele>
        <time>2021-08-08T10:57:12Z</time>
      </trkpt>
      <trkpt lat="42.86378" lon="0.46817">
        <ele>3623</ele>
        <time>2021-08-08T10:57:14Z</time>
      </trkpt>
      <trkpt lat="42.86381" lon="0.46818">
        <ele>3623</ele>
        <time>2021-08-08T10:57:16Z</time>
      </trkpt>
      <trkpt lat="42.86383" lon="0.4682">
        <ele>3623</ele>
        <time>2021-08-08T10:57:18Z</time>
      </trkpt>
      <trkpt lat="42.86385" lon="0.4682">
        <ele>3623</ele>
        <time>2021-08-08T10:57:20Z</time>
      </trkpt>
      <trkpt lat="42.86387" lon="0.46818">
        <ele>3623</ele>
        <time>2021-08-08T10:57:23Z</time>
      </trkpt>
      <trkpt lat="42.86389" lon="0.46817">
        <ele>3623</ele>
        <time>2021-08-08T10:57:26Z</time>
      </trkpt>
      <trkpt lat="42.86392" lon="0.46817">
        <ele>3623</ele>
        <time>2021-08-08T10:57:29Z</time>
      </trkpt>
      <trkpt lat="42.86393" lon="0.46819">
        <ele>3626</ele>
        <time>2021-08-08T10:57:34Z</time>
      </trkpt>
      <trkpt lat="42.86395" lon="0.4682">
        <ele>3626</ele>
        <time>2021-08-08T10:57:36Z</time>
      </trkpt>
      <trkpt lat="42.86397" lon="0.46821">
        <ele>3626</ele>
        <time>2021-08-08T10:57:38Z</time>
      </trkpt>
      <trkpt lat="42.864" lon="0.46821">
        <ele>3626</ele>
        <time>2021-08-08T10:57:41Z</time>
      </trkpt>
      <trkpt lat="42.86402" lon="0.46822">
        <ele>3626</ele>
        <time>2021-08-08T10:57:43Z</time>
      </trkpt>
      <trkpt lat="42.86404" lon="0.46822">
        <ele>3626</ele>
        <time>2021-08-08T10:57:46Z</time>
      </trkpt>
      <trkpt lat="42.86406" lon="0.46823">
        <ele>3626</ele>
        <time>2021-08-08T10:57:48Z</time>
      </trkpt>
      <trkpt lat="42.86409" lon="0.46824">
        <ele>3626</ele>
        <time>2021-08-08T10:57:51Z</time>
      </trkpt>
      <trkpt lat="42.86411" lon="0.46824">
        <ele>3626</ele>
        <time>2021-08-08T10:57:53Z</time>
      </trkpt>
      <trkpt lat="42.86413" lon="0.46825">
        <ele>3626</ele>
        <time>2021-08-08T10:57:55Z</time>
      </trkpt>
      <trkpt lat="42.86416" lon="0.46825">
        <ele>3626</ele>
        <time>2021-08-08T10:57:57Z</time>
      </trkpt>
      <trkpt lat="42.86418" lon="0.46826">
        <ele>3626</ele>
        <time>2021-08-08T10:57:59Z</time>
      </trkpt>
      <trkpt lat="42.8642" lon="0.46827">
        <ele>3626</ele>
        <time>2021-08-08T10:58:01Z</time>
      </trkpt>
      <trkpt lat="42.86422" lon="0.46827">
        <ele>3626</ele>
        <time>2021-08-08T10:58:03Z</time>
      </trkpt>
      <trkpt lat="42.86424" lon="0.46829">
        <ele>3626</ele>
        <time>2021-08-08T10:58:06Z</time>
      </trkpt>
      <trkpt lat="42.86427" lon="0.4683">
        <ele>3626</ele>
        <time>2021-08-08T10:58:09Z</time>
      </trkpt>
      <trkpt lat="42.86428" lon="0.46831">
        <ele>3626</ele>
        <time>2021-08-08T10:58:11Z</time>
      </trkpt>
      <trkpt lat="42.8643" lon="0.46833">
        <ele>3626</ele>
        <time>2021-08-08T10:58:13Z</time>
      </trkpt>
      <trkpt lat="42.86431" lon="0.46834">
        <ele>3626</ele>
        <time>2021-08-08T10:58:15Z</time>
      </trkpt>
      <trkpt lat="42.86434" lon="0.46835">
        <ele>3626</ele>
        <time>2021-08-08T10:58:17Z</time>
      </trkpt>
      <trkpt lat="42.86436" lon="0.46836">
        <ele>3626</ele>
        <time>2021-08-08T10:58:19Z</time>
      </trkpt>
      <trkpt lat="42.86438" lon="0.46836">
        <ele>3626</ele>
        <time>2021-08-08T10:58:21Z</time>
      </trkpt>
      <trkpt lat="42.8644" lon="0.46834">
        <ele>3626</ele>
        <time>2021-08-08T10:58:23Z</time>
      </trkpt>
      <trkpt lat="42.86443" lon="0.46834">
        <ele>3626</ele>
        <time>2021-08-08T10:58:25Z</time>
      </trkpt>
      <trkpt lat="42.86445" lon="0.46834">
        <ele>3626</ele>
        <time>2021-08-08T10:58:27Z</time>
      </trkpt>
      <trkpt lat="42.86447" lon="0.46835">
        <ele>3626</ele>
        <time>2021-08-08T10:58:29Z</time>
      </trkpt>
      <trkpt lat="42.86449" lon="0.46836">
        <ele>3626</ele>
        <time>2021-08-08T10:58:31Z</time>
      </trkpt>
      <trkpt lat="42.86451" lon="0.46837">
        <ele>3626</ele>
        <time>2021-08-08T10:58:33Z</time>
      </trkpt>
      <trkpt lat="42.86453" lon="0.46837">
        <ele>3626</ele>
        <time>2021-08-08T10:58:35Z</time>
      </trkpt>
      <trkpt lat="42.86455" lon="0.46838">
        <ele>3626</ele>
        <time>2021-08-08T10:58:37Z</time>
      </trkpt>
      <trkpt lat="42.86457" lon="0.46837">
        <ele>3626</ele>
        <time>2021-08-08T10:58:40Z</time>
      </trkpt>
      <trkpt lat="42.86459" lon="0.46837">
        <ele>3626</ele>
        <time>2021-08-08T10:58:42Z</time>
      </trkpt>
      <trkpt lat="42.86461" lon="0.46836">
        <ele>3634</ele>
        <time>2021-08-08T10:58:44Z</time>
      </trkpt>
      <trkpt lat="42.86464" lon="0.46836">
        <ele>3634</ele>
        <time>2021-08-08T10:58:46Z</time>
      </trkpt>
      <trkpt lat="42.86465" lon="0.46838">
        <ele>3634</ele>
        <time>2021-08-08T10:58:49Z</time>
      </trkpt>
      <trkpt lat="42.86467" lon="0.46839">
        <ele>3634</ele>
        <time>2021-08-08T10:58:52Z</time>
      </trkpt>
      <trkpt lat="42.86469" lon="0.46841">
        <ele>3634</ele>
        <time>2021-08-08T10:58:57Z</time>
      </trkpt>
      <trkpt lat="42.86469" lon="0.46843">
        <ele>3634</ele>
        <time>2021-08-08T10:59:01Z</time>
      </trkpt>
      <trkpt lat="42.86469" lon="0.46846">
        <ele>3634</ele>
        <time>2021-08-08T10:59:06Z</time>
      </trkpt>
      <trkpt lat="42.8647" lon="0.46845">
        <ele>3634</ele>
        <time>2021-08-08T10:59:16Z</time>
      </trkpt>
      <trkpt lat="42.86471" lon="0.46847">
        <ele>3634</ele>
        <time>2021-08-08T10:59:23Z</time>
      </trkpt>
      <trkpt lat="42.86473" lon="0.46849">
        <ele>3634</ele>
        <time>2021-08-08T10:59:26Z</time>
      </trkpt>
      <trkpt lat="42.86475" lon="0.4685">
        <ele>3634</ele>
        <time>2021-08-08T10:59:29Z</time>
      </trkpt>
      <trkpt lat="42.86477" lon="0.46848">
        <ele>3634</ele>
        <time>2021-08-08T10:59:32Z</time>
      </trkpt>
      <trkpt lat="42.86479" lon="0.46846">
        <ele>3640</ele>
        <time>2021-08-08T10:59:34Z</time>
      </trkpt>
      <trkpt lat="42.8648" lon="0.46845">
        <ele>3640</ele>
        <time>2021-08-08T10:59:36Z</time>
      </trkpt>
      <trkpt lat="42.86483" lon="0.46844">
        <ele>3640</ele>
        <time>2021-08-08T10:59:43Z</time>
      </trkpt>
      <trkpt lat="42.86484" lon="0.46845">
        <ele>3640</ele>
        <time>2021-08-08T10:59:45Z</time>
      </trkpt>
      <trkpt lat="42.86487" lon="0.46845">
        <ele>3640</ele>
        <time>2021-08-08T10:59:48Z</time>
      </trkpt>
      <trkpt lat="42.86488" lon="0.46845">
        <ele>3640</ele>
        <time>2021-08-08T10:59:53Z</time>
      </trkpt>
      <trkpt lat="42.8649" lon="0.46845">
        <ele>3640</ele>
        <time>2021-08-08T10:59:55Z</time>
      </trkpt>
      <trkpt lat="42.86492" lon="0.46845">
        <ele>3640</ele>
        <time>2021-08-08T10:59:57Z</time>
      </trkpt>
      <trkpt lat="42.86494" lon="0.46845">
        <ele>3640</ele>
        <time>2021-08-08T10:59:59Z</time>
      </trkpt>
      <trkpt lat="42.86496" lon="0.46846">
        <ele>3640</ele>
        <time>2021-08-08T11:00:01Z</time>
      </trkpt>
      <trkpt lat="42.86497" lon="0.46848">
        <ele>3640</ele>
        <time>2021-08-08T11:00:03Z</time>
      </trkpt>
      <trkpt lat="42.86498" lon="0.46851">
        <ele>3640</ele>
        <time>2021-08-08T11:00:06Z</time>
      </trkpt>
      <trkpt lat="42.86499" lon="0.46853">
        <ele>3640</ele>
        <time>2021-08-08T11:00:12Z</time>
      </trkpt>
      <trkpt lat="42.86501" lon="0.46855">
        <ele>3640</ele>
        <time>2021-08-08T11:00:19Z</time>
      </trkpt>
      <trkpt lat="42.86503" lon="0.46856">
        <ele>3640</ele>
        <time>2021-08-08T11:00:23Z</time>
      </trkpt>
      <trkpt lat="42.86504" lon="0.46859">
        <ele>3640</ele>
        <time>2021-08-08T11:00:26Z</time>
      </trkpt>
      <trkpt lat="42.86506" lon="0.46859">
        <ele>3640</ele>
        <time>2021-08-08T11:00:32Z</time>
      </trkpt>
      <trkpt lat="42.86508" lon="0.46858">
        <ele>3640</ele>
        <time>2021-08-08T11:00:35Z</time>
      </trkpt>
      <trkpt lat="42.8651" lon="0.46859">
        <ele>3640</ele>
        <time>2021-08-08T11:00:40Z</time>
      </trkpt>
      <trkpt lat="42.86511" lon="0.46861">
        <ele>3640</ele>
        <time>2021-08-08T11:00:43Z</time>
      </trkpt>
      <trkpt lat="42.86513" lon="0.46863">
        <ele>3640</ele>
        <time>2021-08-08T11:00:46Z</time>
      </trkpt>
      <trkpt lat="42.86515" lon="0.46864">
        <ele>3640</ele>
        <time>2021-08-08T11:00:48Z</time>
      </trkpt>
      <trkpt lat="42.86516" lon="0.46864">
        <ele>3640</ele>
        <time>2021-08-08T11:00:50Z</time>
      </trkpt>
      <trkpt lat="42.86518" lon="0.46866">
        <ele>3640</ele>
        <time>2021-08-08T11:00:53Z</time>
      </trkpt>
      <trkpt lat="42.86518" lon="0.46868">
        <ele>3640</ele>
        <time>2021-08-08T11:00:56Z</time>
      </trkpt>
      <trkpt lat="42.86518" lon="0.46871">
        <ele>3640</ele>
        <time>2021-08-08T11:01:00Z</time>
      </trkpt>
      <trkpt lat="42.86518" lon="0.46874">
        <ele>3660</ele>
        <time>2021-08-08T11:01:04Z</time>
      </trkpt>
      <trkpt lat="42.86518" lon="0.46876">
        <ele>3660</ele>
        <time>2021-08-08T11:01:10Z</time>
      </trkpt>
      <trkpt lat="42.86521" lon="0.46876">
        <ele>3663</ele>
        <time>2021-08-08T11:01:14Z</time>
      </trkpt>
      <trkpt lat="42.86522" lon="0.46874">
        <ele>3663</ele>
        <time>2021-08-08T11:01:16Z</time>
      </trkpt>
      <trkpt lat="42.86523" lon="0.46872">
        <ele>3663</ele>
        <time>2021-08-08T11:01:18Z</time>
      </trkpt>
      <trkpt lat="42.86525" lon="0.46869">
        <ele>3663</ele>
        <time>2021-08-08T11:01:20Z</time>
      </trkpt>
      <trkpt lat="42.86526" lon="0.46866">
        <ele>3663</ele>
        <time>2021-08-08T11:01:23Z</time>
      </trkpt>
      <trkpt lat="42.86528" lon="0.46864">
        <ele>3663</ele>
        <time>2021-08-08T11:01:25Z</time>
      </trkpt>
      <trkpt lat="42.8653" lon="0.46863">
        <ele>3663</ele>
        <time>2021-08-08T11:01:27Z</time>
      </trkpt>
      <trkpt lat="42.86532" lon="0.46862">
        <ele>3663</ele>
        <time>2021-08-08T11:01:29Z</time>
      </trkpt>
      <trkpt lat="42.86534" lon="0.46861">
        <ele>3663</ele>
        <time>2021-08-08T11:01:31Z</time>
      </trkpt>
      <trkpt lat="42.86536" lon="0.4686">
        <ele>3663</ele>
        <time>2021-08-08T11:01:33Z</time>
      </trkpt>
      <trkpt lat="42.86538" lon="0.4686">
        <ele>3663</ele>
        <time>2021-08-08T11:01:35Z</time>
      </trkpt>
      <trkpt lat="42.8654" lon="0.4686">
        <ele>3663</ele>
        <time>2021-08-08T11:01:37Z</time>
      </trkpt>
      <trkpt lat="42.86542" lon="0.4686">
        <ele>3663</ele>
        <time>2021-08-08T11:01:40Z</time>
      </trkpt>
      <trkpt lat="42.86545" lon="0.4686">
        <ele>3663</ele>
        <time>2021-08-08T11:01:42Z</time>
      </trkpt>
      <trkpt lat="42.86547" lon="0.46861">
        <ele>3666</ele>
        <time>2021-08-08T11:01:44Z</time>
      </trkpt>
      <trkpt lat="42.86549" lon="0.46862">
        <ele>3666</ele>
        <time>2021-08-08T11:01:46Z</time>
      </trkpt>
      <trkpt lat="42.86551" lon="0.46863">
        <ele>3666</ele>
        <time>2021-08-08T11:01:48Z</time>
      </trkpt>
      <trkpt lat="42.86552" lon="0.46865">
        <ele>3666</ele>
        <time>2021-08-08T11:01:50Z</time>
      </trkpt>
      <trkpt lat="42.86554" lon="0.46866">
        <ele>3666</ele>
        <time>2021-08-08T11:01:52Z</time>
      </trkpt>
      <trkpt lat="42.86556" lon="0.46867">
        <ele>3671</ele>
        <time>2021-08-08T11:01:54Z</time>
      </trkpt>
      <trkpt lat="42.86558" lon="0.46868">
        <ele>3671</ele>
        <time>2021-08-08T11:01:56Z</time>
      </trkpt>
      <trkpt lat="42.86559" lon="0.46869">
        <ele>3671</ele>
        <time>2021-08-08T11:01:58Z</time>
      </trkpt>
      <trkpt lat="42.86561" lon="0.4687">
        <ele>3671</ele>
        <time>2021-08-08T11:02:00Z</time>
      </trkpt>
      <trkpt lat="42.86563" lon="0.46872">
        <ele>3671</ele>
        <time>2021-08-08T11:02:03Z</time>
      </trkpt>
      <trkpt lat="42.86565" lon="0.46874">
        <ele>3671</ele>
        <time>2021-08-08T11:02:06Z</time>
      </trkpt>
      <trkpt lat="42.86567" lon="0.46877">
        <ele>3671</ele>
        <time>2021-08-08T11:02:09Z</time>
      </trkpt>
      <trkpt lat="42.86568" lon="0.46879">
        <ele>3671</ele>
        <time>2021-08-08T11:02:12Z</time>
      </trkpt>
      <trkpt lat="42.86569" lon="0.46881">
        <ele>3671</ele>
        <time>2021-08-08T11:02:15Z</time>
      </trkpt>
      <trkpt lat="42.86571" lon="0.46883">
        <ele>3671</ele>
        <time>2021-08-08T11:02:18Z</time>
      </trkpt>
      <trkpt lat="42.86572" lon="0.46884">
        <ele>3671</ele>
        <time>2021-08-08T11:02:23Z</time>
      </trkpt>
      <trkpt lat="42.86574" lon="0.46887">
        <ele>3671</ele>
        <time>2021-08-08T11:02:26Z</time>
      </trkpt>
      <trkpt lat="42.86576" lon="0.46888">
        <ele>3671</ele>
        <time>2021-08-08T11:02:28Z</time>
      </trkpt>
      <trkpt lat="42.86578" lon="0.46889">
        <ele>3671</ele>
        <time>2021-08-08T11:02:30Z</time>
      </trkpt>
      <trkpt lat="42.8658" lon="0.4689">
        <ele>3671</ele>
        <time>2021-08-08T11:02:32Z</time>
      </trkpt>
      <trkpt lat="42.86582" lon="0.46891">
        <ele>3681</ele>
        <time>2021-08-08T11:02:34Z</time>
      </trkpt>
      <trkpt lat="42.86584" lon="0.46892">
        <ele>3681</ele>
        <time>2021-08-08T11:02:36Z</time>
      </trkpt>
      <trkpt lat="42.86586" lon="0.46893">
        <ele>3681</ele>
        <time>2021-08-08T11:02:38Z</time>
      </trkpt>
      <trkpt lat="42.86588" lon="0.46894">
        <ele>3681</ele>
        <time>2021-08-08T11:02:40Z</time>
      </trkpt>
      <trkpt lat="42.8659" lon="0.46896">
        <ele>3681</ele>
        <time>2021-08-08T11:02:42Z</time>
      </trkpt>
      <trkpt lat="42.86591" lon="0.46897">
        <ele>3682</ele>
        <time>2021-08-08T11:02:44Z</time>
      </trkpt>
      <trkpt lat="42.86593" lon="0.46899">
        <ele>3682</ele>
        <time>2021-08-08T11:02:46Z</time>
      </trkpt>
      <trkpt lat="42.86594" lon="0.46902">
        <ele>3682</ele>
        <time>2021-08-08T11:02:48Z</time>
      </trkpt>
      <trkpt lat="42.86595" lon="0.46905">
        <ele>3682</ele>
        <time>2021-08-08T11:02:50Z</time>
      </trkpt>
      <trkpt lat="42.86596" lon="0.46908">
        <ele>3682</ele>
        <time>2021-08-08T11:02:52Z</time>
      </trkpt>
      <trkpt lat="42.86597" lon="0.4691">
        <ele>3683</ele>
        <time>2021-08-08T11:02:54Z</time>
      </trkpt>
      <trkpt lat="42.86599" lon="0.46912">
        <ele>3683</ele>
        <time>2021-08-08T11:02:56Z</time>
      </trkpt>
      <trkpt lat="42.86601" lon="0.46914">
        <ele>3683</ele>
        <time>2021-08-08T11:02:58Z</time>
      </trkpt>
      <trkpt lat="42.86603" lon="0.46917">
        <ele>3683</ele>
        <time>2021-08-08T11:03:00Z</time>
      </trkpt>
      <trkpt lat="42.86604" lon="0.46919">
        <ele>3683</ele>
        <time>2021-08-08T11:03:02Z</time>
      </trkpt>
      <trkpt lat="42.86606" lon="0.46921">
        <ele>3687</ele>
        <time>2021-08-08T11:03:04Z</time>
      </trkpt>
      <trkpt lat="42.86607" lon="0.46924">
        <ele>3687</ele>
        <time>2021-08-08T11:03:06Z</time>
      </trkpt>
      <trkpt lat="42.86609" lon="0.46926">
        <ele>3687</ele>
        <time>2021-08-08T11:03:09Z</time>
      </trkpt>
      <trkpt lat="42.86611" lon="0.46928">
        <ele>3687</ele>
        <time>2021-08-08T11:03:11Z</time>
      </trkpt>
      <trkpt lat="42.86613" lon="0.4693">
        <ele>3687</ele>
        <time>2021-08-08T11:03:13Z</time>
      </trkpt>
      <trkpt lat="42.86615" lon="0.46932">
        <ele>3687</ele>
        <time>2021-08-08T11:03:15Z</time>
      </trkpt>
      <trkpt lat="42.86617" lon="0.46934">
        <ele>3687</ele>
        <time>2021-08-08T11:03:17Z</time>
      </trkpt>
      <trkpt lat="42.86619" lon="0.46937">
        <ele>3687</ele>
        <time>2021-08-08T11:03:19Z</time>
      </trkpt>
      <trkpt lat="42.8662" lon="0.46939">
        <ele>3687</ele>
        <time>2021-08-08T11:03:21Z</time>
      </trkpt>
      <trkpt lat="42.86621" lon="0.46942">
        <ele>3687</ele>
        <time>2021-08-08T11:03:23Z</time>
      </trkpt>
      <trkpt lat="42.86623" lon="0.46944">
        <ele>3687</ele>
        <time>2021-08-08T11:03:25Z</time>
      </trkpt>
      <trkpt lat="42.86626" lon="0.46946">
        <ele>3687</ele>
        <time>2021-08-08T11:03:27Z</time>
      </trkpt>
      <trkpt lat="42.86627" lon="0.46949">
        <ele>3687</ele>
        <time>2021-08-08T11:03:29Z</time>
      </trkpt>
      <trkpt lat="42.86629" lon="0.46951">
        <ele>3687</ele>
        <time>2021-08-08T11:03:31Z</time>
      </trkpt>
      <trkpt lat="42.8663" lon="0.46953">
        <ele>3687</ele>
        <time>2021-08-08T11:03:33Z</time>
      </trkpt>
      <trkpt lat="42.86632" lon="0.46955">
        <ele>3687</ele>
        <time>2021-08-08T11:03:35Z</time>
      </trkpt>
      <trkpt lat="42.86634" lon="0.46957">
        <ele>3687</ele>
        <time>2021-08-08T11:03:37Z</time>
      </trkpt>
      <trkpt lat="42.86637" lon="0.46959">
        <ele>3687</ele>
        <time>2021-08-08T11:03:39Z</time>
      </trkpt>
      <trkpt lat="42.86639" lon="0.4696">
        <ele>3687</ele>
        <time>2021-08-08T11:03:41Z</time>
      </trkpt>
      <trkpt lat="42.86641" lon="0.46962">
        <ele>3687</ele>
        <time>2021-08-08T11:03:43Z</time>
      </trkpt>
      <trkpt lat="42.86643" lon="0.46964">
        <ele>3687</ele>
        <time>2021-08-08T11:03:45Z</time>
      </trkpt>
      <trkpt lat="42.86645" lon="0.46966">
        <ele>3687</ele>
        <time>2021-08-08T11:03:47Z</time>
      </trkpt>
      <trkpt lat="42.86647" lon="0.46968">
        <ele>3687</ele>
        <time>2021-08-08T11:03:49Z</time>
      </trkpt>
      <trkpt lat="42.86649" lon="0.4697">
        <ele>3687</ele>
        <time>2021-08-08T11:03:51Z</time>
      </trkpt>
      <trkpt lat="42.8665" lon="0.46972">
        <ele>3687</ele>
        <time>2021-08-08T11:03:53Z</time>
      </trkpt>
      <trkpt lat="42.86652" lon="0.46974">
        <ele>3687</ele>
        <time>2021-08-08T11:03:55Z</time>
      </trkpt>
      <trkpt lat="42.86654" lon="0.46975">
        <ele>3687</ele>
        <time>2021-08-08T11:03:57Z</time>
      </trkpt>
      <trkpt lat="42.86656" lon="0.46977">
        <ele>3687</ele>
        <time>2021-08-08T11:03:59Z</time>
      </trkpt>
      <trkpt lat="42.86658" lon="0.46979">
        <ele>3687</ele>
        <time>2021-08-08T11:04:01Z</time>
      </trkpt>
      <trkpt lat="42.8666" lon="0.4698">
        <ele>3687</ele>
        <time>2021-08-08T11:04:03Z</time>
      </trkpt>
      <trkpt lat="42.86663" lon="0.46981">
        <ele>3687</ele>
        <time>2021-08-08T11:04:05Z</time>
      </trkpt>
      <trkpt lat="42.86665" lon="0.46983">
        <ele>3687</ele>
        <time>2021-08-08T11:04:07Z</time>
      </trkpt>
      <trkpt lat="42.86667" lon="0.46985">
        <ele>3687</ele>
        <time>2021-08-08T11:04:09Z</time>
      </trkpt>
      <trkpt lat="42.86669" lon="0.46988">
        <ele>3687</ele>
        <time>2021-08-08T11:04:11Z</time>
      </trkpt>
      <trkpt lat="42.86671" lon="0.46989">
        <ele>3687</ele>
        <time>2021-08-08T11:04:13Z</time>
      </trkpt>
      <trkpt lat="42.86673" lon="0.46991">
        <ele>3687</ele>
        <time>2021-08-08T11:04:15Z</time>
      </trkpt>
      <trkpt lat="42.86675" lon="0.46992">
        <ele>3687</ele>
        <time>2021-08-08T11:04:17Z</time>
      </trkpt>
      <trkpt lat="42.86677" lon="0.46993">
        <ele>3687</ele>
        <time>2021-08-08T11:04:19Z</time>
      </trkpt>
      <trkpt lat="42.86678" lon="0.46995">
        <ele>3687</ele>
        <time>2021-08-08T11:04:21Z</time>
      </trkpt>
      <trkpt lat="42.86681" lon="0.46996">
        <ele>3687</ele>
        <time>2021-08-08T11:04:23Z</time>
      </trkpt>
      <trkpt lat="42.86683" lon="0.46997">
        <ele>3687</ele>
        <time>2021-08-08T11:04:25Z</time>
      </trkpt>
      <trkpt lat="42.86685" lon="0.46998">
        <ele>3687</ele>
        <time>2021-08-08T11:04:27Z</time>
      </trkpt>
      <trkpt lat="42.86687" lon="0.47">
        <ele>3687</ele>
        <time>2021-08-08T11:04:29Z</time>
      </trkpt>
      <trkpt lat="42.86688" lon="0.47001">
        <ele>3687</ele>
        <time>2021-08-08T11:04:31Z</time>
      </trkpt>
      <trkpt lat="42.8669" lon="0.47003">
        <ele>3687</ele>
        <time>2021-08-08T11:04:33Z</time>
      </trkpt>
      <trkpt lat="42.86692" lon="0.47005">
        <ele>3687</ele>
        <time>2021-08-08T11:04:35Z</time>
      </trkpt>
      <trkpt lat="42.86694" lon="0.47007">
        <ele>3687</ele>
        <time>2021-08-08T11:04:38Z</time>
      </trkpt>
      <trkpt lat="42.86696" lon="0.47009">
        <ele>3687</ele>
        <time>2021-08-08T11:04:40Z</time>
      </trkpt>
      <trkpt lat="42.86697" lon="0.4701">
        <ele>3687</ele>
        <time>2021-08-08T11:04:42Z</time>
      </trkpt>
      <trkpt lat="42.86699" lon="0.47013">
        <ele>3687</ele>
        <time>2021-08-08T11:04:45Z</time>
      </trkpt>
      <trkpt lat="42.86701" lon="0.47015">
        <ele>3687</ele>
        <time>2021-08-08T11:04:47Z</time>
      </trkpt>
      <trkpt lat="42.86703" lon="0.47016">
        <ele>3687</ele>
        <time>2021-08-08T11:04:49Z</time>
      </trkpt>
      <trkpt lat="42.86705" lon="0.47018">
        <ele>3687</ele>
        <time>2021-08-08T11:04:52Z</time>
      </trkpt>
      <trkpt lat="42.86707" lon="0.4702">
        <ele>3709</ele>
        <time>2021-08-08T11:04:54Z</time>
      </trkpt>
      <trkpt lat="42.86709" lon="0.47022">
        <ele>3709</ele>
        <time>2021-08-08T11:04:56Z</time>
      </trkpt>
      <trkpt lat="42.8671" lon="0.47023">
        <ele>3709</ele>
        <time>2021-08-08T11:04:58Z</time>
      </trkpt>
      <trkpt lat="42.86712" lon="0.47025">
        <ele>3709</ele>
        <time>2021-08-08T11:05:00Z</time>
      </trkpt>
      <trkpt lat="42.86714" lon="0.47027">
        <ele>3709</ele>
        <time>2021-08-08T11:05:03Z</time>
      </trkpt>
      <trkpt lat="42.86716" lon="0.47028">
        <ele>3709</ele>
        <time>2021-08-08T11:05:05Z</time>
      </trkpt>
      <trkpt lat="42.86717" lon="0.47029">
        <ele>3709</ele>
        <time>2021-08-08T11:05:07Z</time>
      </trkpt>
      <trkpt lat="42.86719" lon="0.47031">
        <ele>3709</ele>
        <time>2021-08-08T11:05:09Z</time>
      </trkpt>
      <trkpt lat="42.86721" lon="0.47033">
        <ele>3709</ele>
        <time>2021-08-08T11:05:11Z</time>
      </trkpt>
      <trkpt lat="42.86722" lon="0.47035">
        <ele>3709</ele>
        <time>2021-08-08T11:05:13Z</time>
      </trkpt>
      <trkpt lat="42.86723" lon="0.47037">
        <ele>3709</ele>
        <time>2021-08-08T11:05:15Z</time>
      </trkpt>
      <trkpt lat="42.86725" lon="0.4704">
        <ele>3709</ele>
        <time>2021-08-08T11:05:19Z</time>
      </trkpt>
      <trkpt lat="42.86728" lon="0.47042">
        <ele>3709</ele>
        <time>2021-08-08T11:05:21Z</time>
      </trkpt>
      <trkpt lat="42.8673" lon="0.47044">
        <ele>3709</ele>
        <time>2021-08-08T11:05:23Z</time>
      </trkpt>
      <trkpt lat="42.86731" lon="0.47045">
        <ele>3709</ele>
        <time>2021-08-08T11:05:25Z</time>
      </trkpt>
      <trkpt lat="42.86733" lon="0.47047">
        <ele>3709</ele>
        <time>2021-08-08T11:05:27Z</time>
      </trkpt>
      <trkpt lat="42.86735" lon="0.47049">
        <ele>3709</ele>
        <time>2021-08-08T11:05:29Z</time>
      </trkpt>
      <trkpt lat="42.86737" lon="0.47052">
        <ele>3709</ele>
        <time>2021-08-08T11:05:31Z</time>
      </trkpt>
      <trkpt lat="42.86739" lon="0.47054">
        <ele>3709</ele>
        <time>2021-08-08T11:05:33Z</time>
      </trkpt>
      <trkpt lat="42.86741" lon="0.47056">
        <ele>3709</ele>
        <time>2021-08-08T11:05:35Z</time>
      </trkpt>
      <trkpt lat="42.86742" lon="0.47059">
        <ele>3709</ele>
        <time>2021-08-08T11:05:37Z</time>
      </trkpt>
      <trkpt lat="42.86743" lon="0.47061">
        <ele>3709</ele>
        <time>2021-08-08T11:05:39Z</time>
      </trkpt>
      <trkpt lat="42.86744" lon="0.47064">
        <ele>3709</ele>
        <time>2021-08-08T11:05:41Z</time>
      </trkpt>
      <trkpt lat="42.86745" lon="0.47066">
        <ele>3709</ele>
        <time>2021-08-08T11:05:43Z</time>
      </trkpt>
      <trkpt lat="42.86746" lon="0.47069">
        <ele>3709</ele>
        <time>2021-08-08T11:05:45Z</time>
      </trkpt>
      <trkpt lat="42.86747" lon="0.47071">
        <ele>3709</ele>
        <time>2021-08-08T11:05:47Z</time>
      </trkpt>
      <trkpt lat="42.86748" lon="0.47074">
        <ele>3709</ele>
        <time>2021-08-08T11:05:49Z</time>
      </trkpt>
      <trkpt lat="42.8675" lon="0.47077">
        <ele>3709</ele>
        <time>2021-08-08T11:05:51Z</time>
      </trkpt>
      <trkpt lat="42.86751" lon="0.47079">
        <ele>3709</ele>
        <time>2021-08-08T11:05:53Z</time>
      </trkpt>
      <trkpt lat="42.86752" lon="0.47081">
        <ele>3709</ele>
        <time>2021-08-08T11:05:55Z</time>
      </trkpt>
      <trkpt lat="42.86753" lon="0.47084">
        <ele>3709</ele>
        <time>2021-08-08T11:05:57Z</time>
      </trkpt>
      <trkpt lat="42.86754" lon="0.47088">
        <ele>3709</ele>
        <time>2021-08-08T11:05:59Z</time>
      </trkpt>
      <trkpt lat="42.86755" lon="0.4709">
        <ele>3709</ele>
        <time>2021-08-08T11:06:01Z</time>
      </trkpt>
      <trkpt lat="42.86757" lon="0.47093">
        <ele>3709</ele>
        <time>2021-08-08T11:06:03Z</time>
      </trkpt>
      <trkpt lat="42.86758" lon="0.47096">
        <ele>3709</ele>
        <time>2021-08-08T11:06:05Z</time>
      </trkpt>
      <trkpt lat="42.86759" lon="0.47099">
        <ele>3709</ele>
        <time>2021-08-08T11:06:07Z</time>
      </trkpt>
      <trkpt lat="42.8676" lon="0.47102">
        <ele>3709</ele>
        <time>2021-08-08T11:06:09Z</time>
      </trkpt>
      <trkpt lat="42.86761" lon="0.47105">
        <ele>3709</ele>
        <time>2021-08-08T11:06:11Z</time>
      </trkpt>
      <trkpt lat="42.86762" lon="0.47108">
        <ele>3709</ele>
        <time>2021-08-08T11:06:13Z</time>
      </trkpt>
      <trkpt lat="42.86763" lon="0.47111">
        <ele>3709</ele>
        <time>2021-08-08T11:06:16Z</time>
      </trkpt>
      <trkpt lat="42.86764" lon="0.47114">
        <ele>3709</ele>
        <time>2021-08-08T11:06:18Z</time>
      </trkpt>
      <trkpt lat="42.86765" lon="0.47117">
        <ele>3709</ele>
        <time>2021-08-08T11:06:20Z</time>
      </trkpt>
      <trkpt lat="42.86766" lon="0.4712">
        <ele>3709</ele>
        <time>2021-08-08T11:06:22Z</time>
      </trkpt>
      <trkpt lat="42.86767" lon="0.47123">
        <ele>3725</ele>
        <time>2021-08-08T11:06:24Z</time>
      </trkpt>
      <trkpt lat="42.86768" lon="0.47126">
        <ele>3725</ele>
        <time>2021-08-08T11:06:26Z</time>
      </trkpt>
      <trkpt lat="42.86768" lon="0.4713">
        <ele>3725</ele>
        <time>2021-08-08T11:06:28Z</time>
      </trkpt>
      <trkpt lat="42.86768" lon="0.47133">
        <ele>3725</ele>
        <time>2021-08-08T11:06:30Z</time>
      </trkpt>
      <trkpt lat="42.86769" lon="0.47136">
        <ele>3725</ele>
        <time>2021-08-08T11:06:32Z</time>
      </trkpt>
      <trkpt lat="42.86769" lon="0.47139">
        <ele>3726</ele>
        <time>2021-08-08T11:06:34Z</time>
      </trkpt>
      <trkpt lat="42.8677" lon="0.47142">
        <ele>3726</ele>
        <time>2021-08-08T11:06:36Z</time>
      </trkpt>
      <trkpt lat="42.8677" lon="0.47145">
        <ele>3726</ele>
        <time>2021-08-08T11:06:38Z</time>
      </trkpt>
      <trkpt lat="42.86771" lon="0.47148">
        <ele>3726</ele>
        <time>2021-08-08T11:06:40Z</time>
      </trkpt>
      <trkpt lat="42.86772" lon="0.47151">
        <ele>3726</ele>
        <time>2021-08-08T11:06:42Z</time>
      </trkpt>
      <trkpt lat="42.86773" lon="0.47154">
        <ele>3727</ele>
        <time>2021-08-08T11:06:44Z</time>
      </trkpt>
      <trkpt lat="42.86775" lon="0.47157">
        <ele>3727</ele>
        <time>2021-08-08T11:06:46Z</time>
      </trkpt>
      <trkpt lat="42.86777" lon="0.47159">
        <ele>3727</ele>
        <time>2021-08-08T11:06:48Z</time>
      </trkpt>
      <trkpt lat="42.86779" lon="0.47162">
        <ele>3727</ele>
        <time>2021-08-08T11:06:50Z</time>
      </trkpt>
      <trkpt lat="42.86781" lon="0.47164">
        <ele>3727</ele>
        <time>2021-08-08T11:06:52Z</time>
      </trkpt>
      <trkpt lat="42.86783" lon="0.47164">
        <ele>3727</ele>
        <time>2021-08-08T11:06:55Z</time>
      </trkpt>
      <trkpt lat="42.86785" lon="0.47165">
        <ele>3727</ele>
        <time>2021-08-08T11:06:57Z</time>
      </trkpt>
      <trkpt lat="42.86788" lon="0.47165">
        <ele>3727</ele>
        <time>2021-08-08T11:06:59Z</time>
      </trkpt>
      <trkpt lat="42.8679" lon="0.47167">
        <ele>3727</ele>
        <time>2021-08-08T11:07:01Z</time>
      </trkpt>
      <trkpt lat="42.86791" lon="0.47169">
        <ele>3729</ele>
        <time>2021-08-08T11:07:04Z</time>
      </trkpt>
      <trkpt lat="42.86792" lon="0.47171">
        <ele>3729</ele>
        <time>2021-08-08T11:07:07Z</time>
      </trkpt>
      <trkpt lat="42.86794" lon="0.47173">
        <ele>3729</ele>
        <time>2021-08-08T11:07:09Z</time>
      </trkpt>
      <trkpt lat="42.86797" lon="0.47175">
        <ele>3729</ele>
        <time>2021-08-08T11:07:11Z</time>
      </trkpt>
      <trkpt lat="42.86799" lon="0.47177">
        <ele>3729</ele>
        <time>2021-08-08T11:07:13Z</time>
      </trkpt>
      <trkpt lat="42.86801" lon="0.47178">
        <ele>3729</ele>
        <time>2021-08-08T11:07:15Z</time>
      </trkpt>
      <trkpt lat="42.86803" lon="0.4718">
        <ele>3729</ele>
        <time>2021-08-08T11:07:17Z</time>
      </trkpt>
      <trkpt lat="42.86805" lon="0.47181">
        <ele>3729</ele>
        <time>2021-08-08T11:07:19Z</time>
      </trkpt>
      <trkpt lat="42.86808" lon="0.47183">
        <ele>3729</ele>
        <time>2021-08-08T11:07:21Z</time>
      </trkpt>
      <trkpt lat="42.86811" lon="0.47185">
        <ele>3729</ele>
        <time>2021-08-08T11:07:23Z</time>
      </trkpt>
      <trkpt lat="42.86813" lon="0.47187">
        <ele>3729</ele>
        <time>2021-08-08T11:07:25Z</time>
      </trkpt>
      <trkpt lat="42.86815" lon="0.47188">
        <ele>3729</ele>
        <time>2021-08-08T11:07:27Z</time>
      </trkpt>
      <trkpt lat="42.86817" lon="0.47189">
        <ele>3729</ele>
        <time>2021-08-08T11:07:29Z</time>
      </trkpt>
      <trkpt lat="42.86817" lon="0.47192">
        <ele>3729</ele>
        <time>2021-08-08T11:08:00Z</time>
      </trkpt>
      <trkpt lat="42.86817" lon="0.47191">
        <ele>3727</ele>
        <time>2021-08-08T11:09:53Z</time>
      </trkpt>
      <trkpt lat="42.8744" lon="0.49959">
        <ele>3615</ele>
        <time>2021-08-08T12:30:07Z</time>
      </trkpt>
      <trkpt lat="42.87439" lon="0.49962">
        <ele>3615</ele>
        <time>2021-08-08T12:30:08Z</time>
      </trkpt>
      <trkpt lat="42.87438" lon="0.49963">
        <ele>3615</ele>
        <time>2021-08-08T12:30:10Z</time>
      </trkpt>
    </trkseg>
  </trk>
</gpx>